# Wetter Temperatur Luftdruck Luftfeuchtigkeit Sichtweite Windgeschwindigkeit Windrichtung Zeit
1 Clouds 9 1018 61 10000 15.43 320 12:30 22.04.2021
2 Clouds 8 1018 61 10000 15.43 320 11:50 22.04.2021
3 Clouds 8 1018 57 10000 12.35 330 11:27 22.04.2021
4 Clouds 9 1018 57 10000 12.35 330 10:59 22.04.2021
5 Clouds 9 1018 57 10000 12.35 330 10:40 22.04.2021
6 Clouds 8 1018 65 10000 10.8 320 10:19 22.04.2021
7 Clouds 7 1018 65 10000 10.8 320 09:36 22.04.2021
8 Clouds 6 1017 70 6000 10.29 310 08:51 22.04.2021
9 Clouds 6 1017 81 10000 8.75 310 08:23 22.04.2021
10 Clouds 5 1017 81 10000 8.75 310 07:49 22.04.2021
11 Clouds 5 1016 75 10000 9.26 310 07:31 22.04.2021
12 Clouds 4 1016 75 10000 9.26 310 06:46 22.04.2021
13 Clouds 4 1016 81 10000 10.8 310 06:18 22.04.2021
14 Clouds 5 1016 81 10000 11.83 310 05:23 22.04.2021
15 Clouds 6 1015 70 10000 11.83 310 02:25 22.04.2021
16 Clouds 6 1015 70 10000 14.4 310 00:23 22.04.2021
17 Clouds 6 1015 70 10000 14.4 310 23:41 21.04.2021
18 Clouds 6 1015 65 10000 14.92 310 23:20 21.04.2021
19 Clouds 6 1015 65 10000 14.92 310 22:40 21.04.2021
20 Clear 6 1015 65 10000 13.38 310 22:20 21.04.2021
21 Clear 6 1015 65 10000 13.38 310 21:41 21.04.2021
22 Clear 6 1015 57 10000 13.38 320 21:22 21.04.2021
23 Clear 6 1015 57 10000 15.43 320 20:32 21.04.2021
24 Clear 6 1015 57 10000 15.43 320 20:32 21.04.2021
25 Clear 7 1015 57 10000 15.43 320 19:57 21.04.2021
26 Clear 7 1015 57 10000 15.43 320 19:38 21.04.2021
27 Clear 7 1014 53 10000 15.95 320 19:18 21.04.2021
28 Clear 8 1014 53 10000 15.95 320 18:42 21.04.2021
29 Clear 8 1014 53 10000 16.46 310 18:22 21.04.2021
30 Clear 9 1014 53 10000 16.46 310 17:45 21.04.2021
31 Clear 8 1014 61 10000 15.43 310 17:23 21.04.2021
32 Clear 8 1014 61 10000 15.43 310 16:41 21.04.2021
33 Clear 9 1014 57 10000 13.89 310 15:52 21.04.2021
34 Clear 10 1014 53 10000 13.38 300 15:28 21.04.2021
35 Clear 10 1014 53 10000 13.38 300 14:46 21.04.2021
36 Clouds 10 1014 50 10000 12.35 310 14:28 21.04.2021
37 Clouds 10 1014 50 10000 12.35 310 13:51 21.04.2021
38 Clouds 10 1014 50 10000 12.35 310 13:51 21.04.2021
39 Clouds 9 1014 50 10000 10.8 310 13:23 21.04.2021
40 Clouds 10 1014 50 10000 10.8 310 12:56 21.04.2021
41 Clouds 9 1014 57 10000 10.8 310 12:29 21.04.2021
42 Clouds 10 1014 57 10000 10.8 310 11:47 21.04.2021
43 Clouds 9 1014 66 10000 7.72 310 11:25 21.04.2021
44 Clouds 9 1014 66 10000 7.72 310 10:43 21.04.2021
45 Clouds 9 1014 66 10000 8.23 330 09:59 21.04.2021
46 Clouds 9 1014 66 10000 8.23 330 09:35 21.04.2021
47 Clouds 7 1014 87 9000 5.66 310 08:56 21.04.2021
48 Clouds 7 1014 87 9000 5.66 310 08:37 21.04.2021
49 Clouds 7 1014 93 5000 5.66 310 08:18 21.04.2021
50 Clouds 7 1014 87 4200 4.63 280 07:29 21.04.2021
51 Clouds 6 1014 87 7000 5.14 270 06:28 21.04.2021
52 Clouds 5 1014 87 6000 3.6 280 04:46 21.04.2021
53 Clear 6 1015 76 10000 2.57 290 00:51 21.04.2021
54 Clear 9 1015 57 10000 2.57 290 23:48 20.04.2021
55 Clear 9 1015 71 10000 2.06 280 23:21 20.04.2021
56 Clear 9 1015 71 10000 2.06 280 22:40 20.04.2021
57 Clear 10 1016 62 10000 3.6 310 22:18 20.04.2021
58 Clear 10 1016 62 10000 3.6 310 21:46 20.04.2021
59 Clear 11 1015 50 10000 5.66 320 21:24 20.04.2021
60 Clear 13 1015 50 10000 5.66 320 20:43 20.04.2021
61 Clear 15 1015 38 10000 3.6 310 20:23 20.04.2021
62 Clear 15 1015 38 10000 3.6 310 19:54 20.04.2021
63 Clear 15 1015 38 10000 3.6 310 19:36 20.04.2021
64 Clear 16 1015 29 10000 2.06 30 19:18 20.04.2021
65 Clear 17 1015 29 10000 2.06 30 18:35 20.04.2021
66 Clear 17 1016 29 10000 2.57 30 17:46 20.04.2021
67 Clear 17 1016 31 10000 3.6 30 17:25 20.04.2021
68 Clear 17 1016 31 10000 3.6 30 16:44 20.04.2021
69 Clear 17 1017 29 10000 3.6 40 15:53 20.04.2021
70 Clear 17 1017 29 10000 3.6 40 15:29 20.04.2021
71 Clear 17 1017 29 10000 3.6 40 14:57 20.04.2021
72 Clear 17 1017 29 10000 3.6 40 14:33 20.04.2021
73 Clear 17 1018 29 10000 4.12 30 13:44 20.04.2021
74 Clear 15 1018 35 10000 2.57 20 13:22 20.04.2021
75 Clear 15 1018 35 10000 2.57 20 12:41 20.04.2021
76 Clear 15 1018 30 10000 2.57 130 12:20 20.04.2021
77 Clear 15 1018 30 10000 2.57 130 11:44 20.04.2021
78 Clear 13 1018 44 10000 2.06 50 11:21 20.04.2021
79 Clear 14 1018 44 10000 2.06 50 10:43 20.04.2021
80 Clear 14 1018 44 10000 2.06 50 10:43 20.04.2021
81 Clear 13 1019 50 10000 1.54 50 10:23 20.04.2021
82 Clear 10 1019 76 10000 2.06 60 09:28 20.04.2021
83 Clear 9 1019 76 10000 2.06 60 08:55 20.04.2021
84 Clear 7 1019 87 10000 2.57 50 08:21 20.04.2021
85 Clear 5 1019 87 10000 2.57 50 07:40 20.04.2021
86 Clear 4 1019 87 10000 2.57 50 06:45 20.04.2021
87 Clear 4 1019 87 10000 2.57 50 05:38 20.04.2021
88 Clear 3 1020 93 10000 2.57 40 04:41 20.04.2021
89 Clear 5 1021 87 10000 3.09 100 01:26 20.04.2021
90 Clear 5 1021 87 10000 3.09 100 00:37 20.04.2021
91 Clear 6 1021 81 10000 1.54 80 23:36 19.04.2021
92 Clear 7 1021 70 10000 2.57 60 22:57 19.04.2021
93 Clear 8 1021 70 10000 2.57 60 22:33 19.04.2021
94 Clear 9 1021 61 10000 1.54 110 21:51 19.04.2021
95 Clear 9 1021 61 10000 1.54 110 21:33 19.04.2021
96 Clear 12 1021 50 10000 1.54 110 20:55 19.04.2021
97 Clear 12 1021 50 10000 1.54 110 20:37 19.04.2021
98 Clear 13 1021 44 10000 4.63 110 20:19 19.04.2021
99 Clear 13 1021 44 10000 4.63 110 19:40 19.04.2021
100 Clear 14 1021 38 10000 3.6 110 19:22 19.04.2021
101 Clear 15 1021 38 10000 3.6 110 18:46 19.04.2021
102 Clouds 16 1021 38 10000 3.09 100 18:22 19.04.2021
103 Clouds 16 1021 38 10000 3.09 100 17:54 19.04.2021
104 Clouds 16 1021 38 10000 5.66 90 17:29 19.04.2021
105 Clouds 16 1021 38 10000 5.66 90 16:53 19.04.2021
106 Clouds 16 1021 38 10000 5.66 90 16:34 19.04.2021
107 Clouds 16 1022 41 10000 3.6 30 15:55 19.04.2021
108 Clouds 16 1022 44 10000 3.6 30 15:30 19.04.2021
109 Clouds 15 1022 44 10000 3.6 30 14:56 19.04.2021
110 Clouds 15 1022 44 10000 3.6 30 14:37 19.04.2021
111 Clouds 15 1022 44 10000 2.57 40 14:18 19.04.2021
112 Clouds 15 1022 44 10000 2.57 40 13:36 19.04.2021
113 Clouds 14 1023 50 10000 3.09 100 13:18 19.04.2021
114 Clouds 13 1023 50 10000 3.09 100 12:40 19.04.2021
115 Clouds 13 1023 54 10000 4.12 100 12:20 19.04.2021
116 Clouds 12 1023 54 10000 4.12 100 11:52 19.04.2021
117 Clouds 11 1023 57 10000 3.6 100 11:21 19.04.2021
118 Clouds 11 1023 57 10000 3.6 100 10:45 19.04.2021
119 Clouds 11 1023 62 10000 4.12 100 10:20 19.04.2021
120 Clouds 11 1023 62 10000 4.12 100 10:20 19.04.2021
121 Clouds 10 1023 62 10000 4.12 100 09:48 19.04.2021
122 Clouds 9 1023 76 10000 2.06 100 09:27 19.04.2021
123 Clouds 9 1023 76 10000 2.06 100 08:45 19.04.2021
124 Clouds 7 1023 100 10000 2.06 70 08:24 19.04.2021
125 Clouds 6 1023 100 10000 2.06 70 07:45 19.04.2021
126 Clouds 6 1022 93 9000 2.57 80 07:18 19.04.2021
127 Clouds 5 1023 87 10000 2.06 90 05:43 19.04.2021
128 Clouds 8 1022 76 10000 2.06 40 02:34 19.04.2021
129 Clouds 9 1023 76 10000 1.54 60 00:45 19.04.2021
130 Clouds 9 1023 76 10000 2.57 50 23:38 18.04.2021
131 Clouds 9 1023 76 10000 3.6 40 23:18 18.04.2021
132 Rain 8 1023 76 10000 3.6 40 22:43 18.04.2021
133 Clouds 9 1023 66 10000 2.57 30 22:23 18.04.2021
134 Clouds 11 1022 54 10000 2.57 30 21:29 18.04.2021
135 Clouds 11 1022 54 10000 2.57 30 20:57 18.04.2021
136 Clouds 12 1022 54 10000 2.57 30 20:38 18.04.2021
137 Clouds 12 1022 50 10000 2.57 100 20:20 18.04.2021
138 Clouds 13 1022 50 10000 2.57 100 19:44 18.04.2021
139 Clouds 14 1022 47 10000 3.6 100 19:23 18.04.2021
140 Clouds 15 1022 47 10000 3.6 100 18:50 18.04.2021
141 Clouds 15 1022 41 10000 4.63 100 18:30 18.04.2021
142 Clouds 15 1022 41 10000 4.63 100 17:50 18.04.2021
143 Clouds 15 1022 44 10000 4.63 90 17:30 18.04.2021
144 Clouds 15 1022 44 10000 4.63 90 16:54 18.04.2021
145 Clouds 15 1022 44 10000 4.63 90 16:36 18.04.2021
146 Clouds 14 1022 47 10000 2.57 60 15:51 18.04.2021
147 Clouds 15 1022 44 10000 3.09 100 15:32 18.04.2021
148 Clouds 15 1022 44 10000 3.09 100 14:58 18.04.2021
149 Clouds 15 1022 44 10000 3.09 100 14:40 18.04.2021
150 Clouds 14 1023 47 10000 4.12 30 14:18 18.04.2021
151 Clouds 14 1023 47 10000 4.12 30 13:45 18.04.2021
152 Clear 15 1023 44 10000 3.6 30 13:27 18.04.2021
153 Clear 14 1023 44 10000 3.6 30 12:37 18.04.2021
154 Clear 14 1023 44 10000 2.57 30 11:58 18.04.2021
155 Clear 13 1023 44 10000 2.57 30 11:39 18.04.2021
156 Clear 12 1023 47 10000 1.54 40 11:20 18.04.2021
157 Clear 12 1023 47 10000 1.54 40 10:41 18.04.2021
158 Clear 11 1023 71 10000 0.51 110 10:18 18.04.2021
159 Clear 10 1023 71 10000 0.51 110 09:39 18.04.2021
160 Clear 9 1023 81 10000 1.03 0 09:20 18.04.2021
161 Clear 8 1023 81 10000 1.03 0 08:46 18.04.2021
162 Clouds 6 1023 93 10000 0.51 40 08:26 18.04.2021
163 Clouds 5 1023 93 10000 0.51 40 07:40 18.04.2021
164 Clouds 4 1023 87 10000 1.76 68 06:56 18.04.2021
165 Clouds 5 1023 87 10000 1.54 10 05:27 18.04.2021
166 Clouds 5 1023 87 10000 1.54 10 04:44 18.04.2021
167 Clouds 6 1024 81 10000 1.03 20 02:23 18.04.2021
168 Clouds 6 1024 76 10000 2.57 50 00:58 18.04.2021
169 Clouds 6 1024 70 10000 3.6 40 23:58 17.04.2021
170 Clouds 7 1024 70 10000 4.12 40 23:26 17.04.2021
171 Clouds 7 1024 70 10000 4.12 40 22:44 17.04.2021
172 Clouds 8 1024 66 10000 4.63 30 22:25 17.04.2021
173 Clouds 8 1024 66 10000 4.63 30 21:45 17.04.2021
174 Clouds 8 1024 57 10000 2.06 20 21:23 17.04.2021
175 Clouds 9 1024 57 10000 2.06 20 20:41 17.04.2021
176 Clouds 10 1024 46 10000 2.06 90 20:23 17.04.2021
177 Clouds 11 1024 46 10000 2.06 90 19:42 17.04.2021
178 Clouds 11 1023 43 10000 3.09 30 19:20 17.04.2021
179 Clouds 11 1023 43 10000 3.09 30 18:49 17.04.2021
180 Clouds 12 1024 47 10000 4.12 30 18:23 17.04.2021
181 Clouds 12 1024 47 10000 4.12 30 17:42 17.04.2021
182 Clouds 13 1024 44 10000 4.63 30 16:58 17.04.2021
183 Clouds 13 1024 44 10000 4.63 30 16:39 17.04.2021
184 Clouds 13 1024 41 10000 5.66 30 16:19 17.04.2021
185 Clear 12 1024 43 10000 5.66 30 15:22 17.04.2021
186 Clear 12 1024 43 10000 5.66 30 14:44 17.04.2021
187 Clouds 12 1024 46 10000 5.66 30 14:20 17.04.2021
188 Clouds 12 1024 46 10000 5.66 30 13:43 17.04.2021
189 Clouds 10 1025 53 10000 5.14 30 12:55 17.04.2021
190 Clouds 10 1025 57 10000 5.14 30 12:32 17.04.2021
191 Rain 9 1025 57 10000 5.14 30 11:51 17.04.2021
192 Rain 9 1025 57 10000 5.14 30 11:33 17.04.2021
193 Clouds 8 1025 61 10000 5.66 30 10:56 17.04.2021
194 Clouds 8 1025 61 10000 5.66 30 10:38 17.04.2021
195 Clouds 7 1025 65 10000 4.63 20 09:51 17.04.2021
196 Clouds 6 1025 65 10000 3.09 20 08:54 17.04.2021
197 Clouds 6 1025 65 10000 3.09 20 08:33 17.04.2021
198 Clouds 5 1025 75 10000 3.6 30 07:46 17.04.2021
199 Clouds 3 1025 75 10000 2.06 340 05:43 17.04.2021
200 Clouds 3 1026 70 10000 2.06 300 03:46 17.04.2021
201 Clouds 2 1027 80 10000 2.06 10 00:56 17.04.2021
202 Clouds 3 1027 80 10000 2.06 10 00:37 17.04.2021
203 Clouds 3 1027 75 10000 2.06 30 00:18 17.04.2021
204 Clouds 3 1027 75 10000 2.06 30 23:34 16.04.2021
205 Clouds 4 1027 70 10000 3.09 40 22:52 16.04.2021
206 Clouds 6 1027 65 10000 2.06 20 22:24 16.04.2021
207 Clouds 6 1027 65 10000 2.06 20 21:57 16.04.2021
208 Clouds 6 1027 65 10000 2.06 20 21:39 16.04.2021
209 Clouds 7 1027 46 10000 4.12 30 20:56 16.04.2021
210 Clouds 8 1027 46 10000 4.12 30 20:38 16.04.2021
211 Clouds 9 1027 40 10000 3.6 40 20:18 16.04.2021
212 Clouds 10 1027 40 10000 3.6 40 19:43 16.04.2021
213 Clouds 10 1027 35 10000 4.63 40 19:20 16.04.2021
214 Clouds 11 1027 37 10000 6.17 30 18:28 16.04.2021
215 Clouds 11 1027 37 10000 6.17 30 17:51 16.04.2021
216 Clouds 11 1027 40 10000 7.72 30 17:20 16.04.2021
217 Clouds 11 1027 40 10000 7.72 30 16:45 16.04.2021
218 Clouds 11 1028 35 10000 6.17 30 16:26 16.04.2021
219 Clouds 11 1028 35 10000 6.17 30 15:56 16.04.2021
220 Clouds 11 1028 35 10000 6.17 30 15:36 16.04.2021
221 Clouds 11 1028 35 10000 7.2 30 14:47 16.04.2021
222 Clouds 11 1029 37 10000 5.14 40 14:28 16.04.2021
223 Clouds 11 1029 37 10000 5.14 40 13:58 16.04.2021
224 Clouds 10 1029 40 10000 4.63 40 13:23 16.04.2021
225 Clouds 10 1029 40 10000 4.63 40 12:58 16.04.2021
226 Clouds 10 1029 40 10000 4.63 40 12:39 16.04.2021
227 Clouds 9 1029 46 10000 5.66 30 12:21 16.04.2021
228 Clouds 9 1029 46 10000 5.66 30 11:42 16.04.2021
229 Clouds 9 1029 53 10000 4.63 30 11:21 16.04.2021
230 Clouds 8 1029 53 10000 4.63 30 10:42 16.04.2021
231 Clouds 7 1029 65 10000 4.12 30 10:23 16.04.2021
232 Clouds 6 1029 65 10000 4.12 30 09:44 16.04.2021
233 Clouds 6 1029 75 10000 2.57 40 09:22 16.04.2021
234 Clouds 5 1029 75 10000 2.57 40 08:45 16.04.2021
235 Clouds 4 1029 93 10000 3.6 40 08:24 16.04.2021
236 Clouds 4 1029 93 10000 3.6 40 07:45 16.04.2021
237 Clouds 2 1028 93 10000 3.6 40 07:25 16.04.2021
238 Clouds 1 1028 93 10000 3.6 40 06:41 16.04.2021
239 Clouds 2 1028 75 10000 3.09 30 05:32 16.04.2021
240 Clouds 2 1029 75 10000 3.6 10 03:31 16.04.2021
241 Clouds 3 1030 87 10000 1.54 360 00:46 16.04.2021
242 Clouds 2 1030 87 10000 1.54 10 00:22 16.04.2021
243 Clouds 3 1030 87 10000 1.54 10 23:57 15.04.2021
244 Clouds 3 1030 87 10000 1.54 10 23:34 15.04.2021
245 Clouds 3 1030 75 10000 2.06 30 22:50 15.04.2021
246 Clouds 4 1030 65 10000 3.09 30 22:26 15.04.2021
247 Clouds 5 1030 65 10000 3.09 30 21:47 15.04.2021
248 Clouds 6 1030 49 10000 3.6 30 21:29 15.04.2021
249 Clouds 6 1030 49 10000 3.6 30 20:58 15.04.2021
250 Clouds 6 1030 49 10000 3.6 30 20:38 15.04.2021
251 Clouds 7 1030 39 10000 4.12 50 20:18 15.04.2021
252 Clouds 8 1030 39 10000 4.12 50 19:41 15.04.2021
253 Clouds 9 1030 37 10000 7.2 30 19:21 15.04.2021
254 Clouds 9 1030 37 10000 7.2 30 18:41 15.04.2021
255 Clouds 10 1030 32 10000 4.12 50 18:20 15.04.2021
256 Clouds 10 1030 32 10000 4.12 50 17:54 15.04.2021
257 Clouds 10 1030 32 10000 4.12 50 17:33 15.04.2021
258 Clouds 10 1030 34 10000 4.12 40 16:45 15.04.2021
259 Clouds 10 1031 40 10000 5.14 30 16:25 15.04.2021
260 Clouds 10 1031 40 10000 5.14 30 15:51 15.04.2021
261 Clouds 10 1031 43 10000 4.12 40 15:31 15.04.2021
262 Clouds 10 1031 43 10000 4.12 40 14:57 15.04.2021
263 Clouds 10 1031 43 10000 4.12 40 14:38 15.04.2021
264 Clouds 10 1031 49 10000 3.6 20 14:19 15.04.2021
265 Clouds 10 1031 53 10000 4.63 20 13:41 15.04.2021
266 Clouds 10 1031 57 10000 4.63 350 13:18 15.04.2021
267 Clouds 9 1031 49 10000 6.17 30 12:39 15.04.2021
268 Clouds 9 1031 49 10000 6.17 30 12:20 15.04.2021
269 Clouds 9 1031 49 10000 6.17 30 11:44 15.04.2021
270 Clouds 8 1031 61 10000 4.63 30 11:22 15.04.2021
271 Clouds 7 1031 61 10000 4.63 30 10:49 15.04.2021
272 Clouds 7 1031 61 10000 4.63 30 10:49 15.04.2021
273 Clouds 6 1031 70 10000 3.6 30 10:27 15.04.2021
274 Clouds 6 1031 70 10000 3.6 30 09:45 15.04.2021
275 Clouds 4 1031 93 10000 2.06 10 09:18 15.04.2021
276 Clouds 3 1031 93 10000 2.06 10 08:42 15.04.2021
277 Clouds 0 1031 100 5000 1.54 10 07:52 15.04.2021
278 Clouds 0 1030 100 8000 2.06 10 07:22 15.04.2021
279 Clouds -1 1030 100 8000 2.06 10 06:39 15.04.2021
280 Clouds -1 1030 100 10000 2.57 20 06:20 15.04.2021
281 Clear 0 1030 100 10000 2.06 30 04:51 15.04.2021
282 Clear 1 1030 93 10000 3.09 50 00:54 15.04.2021
283 Clear 2 1029 80 10000 1.03 300 23:41 14.04.2021
284 Clear 2 1029 75 10000 1.03 170 23:22 14.04.2021
285 Clear 2 1029 75 10000 1.03 170 22:46 14.04.2021
286 Clear 3 1028 60 10000 3.09 150 22:25 14.04.2021
287 Clear 4 1028 60 10000 3.09 150 21:47 14.04.2021
288 Clear 5 1028 52 10000 3.09 120 21:28 14.04.2021
289 Clear 6 1028 52 10000 3.09 120 20:56 14.04.2021
290 Clear 6 1028 52 10000 3.09 120 20:34 14.04.2021
291 Clouds 8 1027 29 10000 1.54 30 19:54 14.04.2021
292 Clouds 9 1027 37 10000 1.54 30 19:21 14.04.2021
293 Clouds 9 1027 37 10000 1.54 30 18:57 14.04.2021
294 Clouds 9 1027 36 10000 1.54 300 18:22 14.04.2021
295 Clouds 9 1027 36 10000 1.54 300 17:59 14.04.2021
296 Clouds 9 1028 39 10000 2.06 30 17:28 14.04.2021
297 Clouds 9 1028 39 10000 2.06 30 16:54 14.04.2021
298 Clouds 9 1028 40 10000 1.54 50 16:28 14.04.2021
299 Clouds 9 1028 40 10000 1.54 50 15:47 14.04.2021
300 Clouds 9 1028 42 10000 2.06 40 15:28 14.04.2021
301 Clouds 8 1028 42 10000 2.06 40 14:56 14.04.2021
302 Clouds 9 1028 42 10000 2.06 40 14:38 14.04.2021
303 Rain 9 1028 42 10000 1.54 360 14:19 14.04.2021
304 Clouds 9 1028 42 10000 1.54 360 13:45 14.04.2021
305 Clouds 8 1028 42 10000 3.09 330 12:41 14.04.2021
306 Clouds 8 1028 53 10000 4.12 320 12:18 14.04.2021
307 Clouds 8 1028 53 10000 4.12 320 11:40 14.04.2021
308 Clouds 7 1028 70 10000 4.12 320 11:21 14.04.2021
309 Clouds 7 1028 70 10000 4.12 320 10:34 14.04.2021
310 Clouds 6 1028 75 10000 5.66 330 09:43 14.04.2021
311 Clouds 5 1028 81 10000 6.17 320 09:23 14.04.2021
312 Clouds 3 1028 81 10000 6.17 320 08:52 14.04.2021
313 Clouds 3 1027 87 10000 7.2 290 08:29 14.04.2021
314 Clouds 2 1027 87 10000 7.2 290 07:36 14.04.2021
315 Clouds 1 1027 87 10000 6.17 290 06:34 14.04.2021
316 Clouds 2 1027 81 10000 6.17 280 05:36 14.04.2021
317 Clouds 2 1028 81 10000 6.17 300 02:31 14.04.2021
318 Clear 2 1028 87 10000 6.17 290 00:50 14.04.2021
319 Clear 2 1027 87 10000 5.66 300 00:32 14.04.2021
320 Clouds 2 1027 87 10000 5.66 300 23:34 13.04.2021
321 Clouds 3 1027 81 10000 7.2 290 22:44 13.04.2021
322 Clouds 4 1027 70 10000 8.23 300 22:22 13.04.2021
323 Clouds 4 1027 70 10000 8.23 300 21:49 13.04.2021
324 Clouds 4 1027 65 10000 9.26 300 21:31 13.04.2021
325 Clouds 4 1027 65 10000 9.26 300 20:51 13.04.2021
326 Clouds 5 1026 61 10000 10.29 300 20:25 13.04.2021
327 Clouds 5 1026 61 10000 10.29 300 19:59 13.04.2021
328 Clouds 6 1026 61 10000 12.86 300 19:26 13.04.2021
329 Clouds 6 1026 61 10000 12.86 300 18:57 13.04.2021
330 Clouds 7 1026 57 10000 13.38 300 18:32 13.04.2021
331 Clouds 7 1026 57 10000 13.38 300 17:41 13.04.2021
332 Clouds 7 1025 57 10000 13.89 300 17:22 13.04.2021
333 Clouds 7 1025 57 10000 13.89 300 16:55 13.04.2021
334 Clouds 7 1025 57 10000 13.89 300 16:37 13.04.2021
335 Clouds 7 1025 61 10000 12.86 290 16:18 13.04.2021
336 Clouds 7 1025 61 10000 12.86 290 15:39 13.04.2021
337 Clouds 8 1025 57 10000 13.89 280 14:59 13.04.2021
338 Clouds 7 1025 57 10000 13.89 280 14:37 13.04.2021
339 Clouds 8 1025 57 10000 13.89 290 14:18 13.04.2021
340 Clouds 7 1025 57 10000 13.89 290 13:40 13.04.2021
341 Clouds 7 1025 65 10000 11.83 290 13:20 13.04.2021
342 Clouds 7 1025 65 10000 11.83 290 12:49 13.04.2021
343 Clouds 7 1025 65 10000 12.86 290 12:23 13.04.2021
344 Clouds 6 1025 65 10000 12.86 290 11:40 13.04.2021
345 Clouds 7 1025 75 10000 10.29 280 11:18 13.04.2021
346 Clouds 6 1025 75 10000 10.29 280 10:41 13.04.2021
347 Clouds 6 1024 75 10000 9.77 280 10:20 13.04.2021
348 Rain 5 1024 75 10000 9.77 280 09:52 13.04.2021
349 Clouds 5 1024 81 10000 7.2 270 09:26 13.04.2021
350 Clouds 5 1024 81 10000 7.2 270 08:47 13.04.2021
351 Clouds 4 1023 81 10000 6.17 270 08:24 13.04.2021
352 Clouds 3 1023 81 10000 6.17 270 07:51 13.04.2021
353 Clouds 3 1023 87 10000 6.69 260 07:29 13.04.2021
354 Clouds 3 1023 81 2400 6.17 240 06:27 13.04.2021
355 Clear 3 1023 87 10000 5.14 260 03:44 13.04.2021
356 Clouds 3 1023 87 10000 6.69 250 01:35 13.04.2021
357 Clouds 2 1022 93 10000 6.69 230 23:55 12.04.2021
358 Clouds 2 1022 93 10000 6.69 230 23:33 12.04.2021
359 Clouds 2 1022 75 8000 5.66 240 22:55 12.04.2021
360 Clouds 2 1022 75 8000 5.66 240 22:36 12.04.2021
361 Clouds 3 1022 81 10000 6.69 230 21:55 12.04.2021
362 Clouds 3 1022 81 10000 6.69 230 21:36 12.04.2021
363 Clouds 3 1022 75 10000 10.29 250 21:18 12.04.2021
364 Clouds 3 1022 75 10000 10.29 250 20:36 12.04.2021
365 Clouds 4 1022 70 10000 9.26 260 20:18 12.04.2021
366 Clouds 4 1022 70 10000 9.26 260 19:41 12.04.2021
367 Clouds 5 1021 65 10000 8.75 250 19:21 12.04.2021
368 Clouds 6 1021 65 10000 8.75 250 18:52 12.04.2021
369 Clouds 6 1021 65 10000 8.75 250 18:34 12.04.2021
370 Clouds 6 1021 65 10000 10.29 250 17:59 12.04.2021
371 Clouds 6 1021 65 10000 10.29 250 17:41 12.04.2021
372 Clouds 6 1021 53 10000 10.8 250 17:19 12.04.2021
373 Clouds 6 1021 53 10000 10.8 250 16:41 12.04.2021
374 Clouds 6 1021 57 10000 10.8 260 16:23 12.04.2021
375 Clouds 6 1021 57 10000 10.8 260 15:45 12.04.2021
376 Clouds 6 1021 65 10000 9.77 280 15:20 12.04.2021
377 Clouds 6 1021 65 10000 9.77 280 14:48 12.04.2021
378 Clouds 6 1021 61 10000 9.77 260 14:28 12.04.2021
379 Clouds 7 1021 61 10000 9.77 260 13:42 12.04.2021
380 Clouds 7 1020 61 10000 10.29 270 13:21 12.04.2021
381 Clouds 7 1020 61 10000 10.29 270 12:44 12.04.2021
382 Clouds 6 1020 65 10000 9.77 270 12:23 12.04.2021
383 Clouds 6 1020 65 10000 9.77 270 11:47 12.04.2021
384 Clouds 6 1019 65 10000 10.8 270 10:53 12.04.2021
385 Clouds 5 1019 75 10000 8.23 270 10:28 12.04.2021
386 Clouds 5 1019 75 10000 8.23 270 09:54 12.04.2021
387 Clouds 4 1019 75 10000 8.23 270 09:33 12.04.2021
388 Clouds 3 1019 81 10000 6.69 270 08:59 12.04.2021
389 Clouds 3 1018 75 10000 7.2 270 08:27 12.04.2021
390 Clouds 2 1018 87 10000 6.17 260 07:31 12.04.2021
391 Clouds 1 1018 87 10000 6.17 260 06:49 12.04.2021
392 Clouds 1 1017 87 10000 5.66 270 05:50 12.04.2021
393 Clouds 2 1016 87 10000 7.72 280 03:58 12.04.2021
394 Clouds 2 1014 93 10000 7.72 290 00:50 12.04.2021
395 Clouds 2 1014 87 10000 8.23 290 00:23 12.04.2021
396 Clouds 2 1014 87 10000 8.23 290 23:45 11.04.2021
397 Clouds 2 1013 87 10000 8.23 290 23:23 11.04.2021
398 Clouds 2 1013 87 10000 8.23 290 22:41 11.04.2021
399 Clouds 3 1013 87 10000 7.2 300 22:22 11.04.2021
400 Clouds 3 1013 87 10000 7.2 300 21:45 11.04.2021
401 Clouds 3 1011 93 10000 6.69 300 21:27 11.04.2021
402 Clouds 3 1011 93 10000 6.69 300 20:52 11.04.2021
403 Clouds 3 1010 93 10000 6.69 300 20:28 11.04.2021
404 Clouds 3 1010 93 10000 6.69 300 19:54 11.04.2021
405 Clouds 3 1010 93 10000 6.69 300 19:36 11.04.2021
406 Clouds 3 1010 93 10000 8.23 300 19:18 11.04.2021
407 Clouds 3 1010 93 10000 8.23 300 19:18 11.04.2021
408 Clouds 3 1010 93 10000 8.23 300 18:42 11.04.2021
409 Clouds 3 1009 93 7000 7.2 310 18:23 11.04.2021
410 Clouds 3 1009 93 7000 7.2 310 17:45 11.04.2021
411 Clouds 3 1008 93 7000 4.12 320 17:26 11.04.2021
412 Clouds 4 1008 93 7000 4.12 320 16:47 11.04.2021
413 Clouds 3 1007 100 5000 4.12 360 16:23 11.04.2021
414 Clouds 3 1007 100 5000 4.12 360 15:51 11.04.2021
415 Clouds 3 1006 100 4700 6.17 20 15:27 11.04.2021
416 Clouds 3 1006 100 4700 6.17 20 14:54 11.04.2021
417 Clouds 3 1006 100 3200 5.14 20 14:31 11.04.2021
418 Clouds 3 1006 100 3200 5.14 20 13:51 11.04.2021
419 Clouds 3 1006 100 2500 7.2 30 13:31 11.04.2021
420 Clouds 3 1006 100 2500 7.2 30 12:54 11.04.2021
421 Clouds 3 1006 93 1400 4.63 50 12:21 11.04.2021
422 Clouds 2 1006 93 1400 4.63 50 11:52 11.04.2021
423 Rain 2 1006 93 9000 5.14 60 11:24 11.04.2021
424 Rain 1 1006 93 9000 5.14 60 10:49 11.04.2021
425 Rain 1 1007 100 4700 4.63 70 10:31 11.04.2021
426 Snow 1 1007 100 4700 4.63 70 09:57 11.04.2021
427 Snow 1 1007 100 4700 4.63 70 09:33 11.04.2021
428 Snow 1 1008 100 4000 5.66 80 08:54 11.04.2021
429 Snow 1 1008 93 5000 7.2 80 08:25 11.04.2021
430 Snow 2 1009 93 6000 7.2 80 07:22 11.04.2021
431 Rain 2 1009 93 6000 7.2 80 06:54 11.04.2021
432 Snow 2 1010 93 4600 5.66 80 05:43 11.04.2021
433 Rain 2 1011 87 5000 6.17 80 05:21 11.04.2021
434 Rain 2 1011 87 5000 6.17 80 04:34 11.04.2021
435 Rain 4 1013 60 10000 3.09 110 02:45 11.04.2021
436 Rain 4 1014 75 10000 2.06 100 00:40 11.04.2021
437 Rain 4 1014 65 10000 2.06 70 23:49 10.04.2021
438 Rain 4 1015 65 10000 3.09 120 23:26 10.04.2021
439 Clouds 4 1015 65 10000 3.09 120 22:45 10.04.2021
440 Clouds 4 1015 60 10000 1.54 70 22:21 10.04.2021
441 Clouds 5 1015 60 10000 1.54 70 21:50 10.04.2021
442 Clouds 5 1015 56 10000 2.06 120 21:23 10.04.2021
443 Clouds 5 1015 56 10000 2.06 120 20:47 10.04.2021
444 Clouds 6 1015 49 10000 2.57 140 20:24 10.04.2021
445 Clouds 6 1015 49 10000 2.57 140 19:45 10.04.2021
446 Clouds 7 1015 39 10000 2.06 320 19:26 10.04.2021
447 Clouds 8 1015 39 10000 2.06 320 18:53 10.04.2021
448 Clouds 8 1015 39 10000 2.06 320 18:33 10.04.2021
449 Clouds 8 1015 40 10000 2.06 270 17:41 10.04.2021
450 Clouds 8 1015 42 10000 2.57 270 17:21 10.04.2021
451 Clouds 8 1016 46 10000 3.6 270 16:31 10.04.2021
452 Clouds 9 1016 46 10000 3.6 270 15:55 10.04.2021
453 Clouds 9 1016 42 10000 3.6 270 15:32 10.04.2021
454 Clouds 9 1016 42 10000 3.6 270 14:47 10.04.2021
455 Clouds 8 1016 42 10000 2.06 290 14:22 10.04.2021
456 Clouds 8 1016 42 10000 2.06 290 13:43 10.04.2021
457 Clouds 8 1016 49 10000 4.12 270 13:25 10.04.2021
458 Clouds 7 1016 49 10000 4.12 270 12:35 10.04.2021
459 Clear 7 1015 53 10000 3.09 290 11:52 10.04.2021
460 Clear 6 1015 56 10000 4.12 290 11:26 10.04.2021
461 Clear 6 1015 56 10000 4.12 290 10:57 10.04.2021
462 Clear 6 1015 56 10000 4.12 290 10:39 10.04.2021
463 Clear 5 1014 65 10000 4.12 270 10:21 10.04.2021
464 Clear 4 1014 65 10000 4.63 260 09:29 10.04.2021
465 Clear 2 1014 65 10000 4.63 260 08:54 10.04.2021
466 Clear 1 1013 75 10000 3.09 260 08:30 10.04.2021
467 Clear 0 1013 75 10000 3.09 260 07:52 10.04.2021
468 Clear 0 1013 75 10000 4.63 260 07:25 10.04.2021
469 Clear -1 1012 80 10000 3.6 240 06:27 10.04.2021
470 Clear 0 1012 80 10000 4.63 270 04:49 10.04.2021
471 Clear 1 1012 75 10000 4.63 270 02:58 10.04.2021
472 Clear 1 1012 75 10000 4.63 270 02:37 10.04.2021
473 Clear 2 1011 75 10000 4.63 270 00:55 10.04.2021
474 Clear 2 1011 81 10000 4.63 270 00:30 10.04.2021
475 Clear 2 1011 81 10000 4.63 270 23:45 09.04.2021
476 Clear 2 1011 75 10000 5.66 280 23:27 09.04.2021
477 Clear 3 1011 75 10000 5.66 280 22:44 09.04.2021
478 Clear 3 1011 75 10000 5.66 270 22:25 09.04.2021
479 Clear 4 1011 75 10000 5.66 270 21:39 09.04.2021
480 Clear 4 1010 70 10000 8.23 280 21:19 09.04.2021
481 Clear 4 1010 70 10000 8.23 280 20:46 09.04.2021
482 Clouds 5 1009 65 10000 9.26 290 20:23 09.04.2021
483 Clouds 5 1009 65 10000 9.26 290 19:58 09.04.2021
484 Clouds 6 1009 65 10000 9.26 290 19:39 09.04.2021
485 Clouds 6 1009 57 10000 10.29 290 19:20 09.04.2021
486 Clouds 7 1009 57 10000 10.29 290 18:41 09.04.2021
487 Clouds 7 1009 61 10000 9.77 280 18:22 09.04.2021
488 Clouds 7 1009 61 10000 9.77 280 17:44 09.04.2021
489 Clouds 8 1008 61 10000 11.32 280 17:25 09.04.2021
490 Clouds 8 1008 61 10000 11.32 280 16:41 09.04.2021
491 Clouds 7 1008 65 10000 11.32 270 16:20 09.04.2021
492 Clouds 7 1008 65 10000 11.32 270 15:42 09.04.2021
493 Clouds 7 1008 70 10000 10.8 280 15:23 09.04.2021
494 Clouds 8 1008 70 10000 10.8 280 14:46 09.04.2021
495 Clouds 8 1007 70 10000 12.35 270 14:21 09.04.2021
496 Clouds 8 1007 70 10000 12.35 270 13:43 09.04.2021
497 Clouds 8 1007 66 10000 11.83 270 13:22 09.04.2021
498 Clouds 8 1007 66 10000 11.83 270 12:47 09.04.2021
499 Rain 8 1006 76 10000 13.89 270 11:59 09.04.2021
500 Rain 7 1006 87 10000 13.89 260 11:28 09.04.2021
501 Rain 7 1006 87 10000 13.89 260 10:56 09.04.2021
502 Rain 6 1006 87 10000 13.89 260 10:37 09.04.2021
503 Rain 6 1005 87 7000 10.8 240 09:56 09.04.2021
504 Rain 6 1005 87 6000 9.26 240 09:27 09.04.2021
505 Rain 6 1005 87 6000 9.26 240 08:55 09.04.2021
506 Rain 6 1006 75 10000 9.77 240 08:28 09.04.2021
507 Rain 6 1006 75 10000 9.26 230 07:22 09.04.2021
508 Clouds 6 1006 70 10000 10.29 230 06:28 09.04.2021
509 Clouds 5 1007 75 10000 10.8 220 04:38 09.04.2021
510 Clouds 5 1008 81 6000 10.29 220 03:42 09.04.2021
511 Rain 6 1011 65 10000 9.77 220 00:39 09.04.2021
512 Rain 6 1011 65 10000 10.8 220 00:21 09.04.2021
513 Rain 6 1011 65 10000 10.8 220 00:21 09.04.2021
514 Clouds 6 1011 65 10000 10.8 220 23:38 08.04.2021
515 Rain 6 1012 70 10000 10.8 230 22:56 08.04.2021
516 Rain 5 1013 70 10000 8.75 230 22:31 08.04.2021
517 Clouds 6 1013 70 10000 8.75 230 21:59 08.04.2021
518 Clouds 6 1013 70 10000 8.75 230 21:41 08.04.2021
519 Clouds 5 1013 75 7000 9.77 230 21:22 08.04.2021
520 Clouds 5 1013 75 7000 9.77 230 20:59 08.04.2021
521 Clouds 5 1013 75 7000 9.77 230 20:40 08.04.2021
522 Rain 4 1014 70 10000 9.77 240 20:19 08.04.2021
523 Rain 5 1014 70 10000 9.77 240 19:40 08.04.2021
524 Rain 5 1014 56 10000 9.77 240 19:19 08.04.2021
525 Rain 6 1014 56 10000 9.77 240 18:42 08.04.2021
526 Clouds 6 1015 56 10000 12.35 250 18:19 08.04.2021
527 Clouds 6 1015 56 10000 12.35 250 17:42 08.04.2021
528 Clouds 6 1016 61 10000 9.77 240 17:21 08.04.2021
529 Clouds 6 1016 61 10000 9.77 240 16:45 08.04.2021
530 Clouds 6 1017 60 10000 10.29 260 16:23 08.04.2021
531 Clouds 6 1017 60 10000 10.29 260 15:46 08.04.2021
532 Clouds 6 1017 56 10000 10.8 270 15:28 08.04.2021
533 Clouds 6 1017 56 10000 10.8 270 15:28 08.04.2021
534 Clouds 6 1017 56 10000 10.8 270 14:44 08.04.2021
535 Clouds 6 1017 61 10000 11.83 270 14:22 08.04.2021
536 Clouds 6 1017 61 10000 11.83 270 13:49 08.04.2021
537 Clouds 5 1017 56 10000 8.23 260 13:25 08.04.2021
538 Clouds 5 1017 56 10000 8.23 260 13:25 08.04.2021
539 Clouds 6 1017 56 10000 8.23 260 12:59 08.04.2021
540 Clouds 6 1017 56 10000 8.23 260 12:37 08.04.2021
541 Clouds 5 1017 70 10000 9.77 270 11:58 08.04.2021
542 Clouds 5 1017 70 10000 9.77 270 11:37 08.04.2021
543 Clouds 5 1016 70 10000 6.17 300 10:56 08.04.2021
544 Clouds 4 1016 70 10000 7.2 270 10:26 08.04.2021
545 Clouds 4 1016 70 10000 7.2 270 10:26 08.04.2021
546 Clouds 4 1016 70 10000 7.2 270 10:26 08.04.2021
547 Clouds 3 1016 70 10000 7.2 270 09:51 08.04.2021
548 Clouds 4 1016 70 10000 7.2 270 09:33 08.04.2021
549 Clouds 3 1016 75 10000 6.69 280 08:45 08.04.2021
550 Clouds 3 1016 75 10000 6.69 280 08:45 08.04.2021
551 Clouds 3 1016 75 10000 6.69 280 08:45 08.04.2021
552 Clouds 3 1015 75 10000 7.72 300 08:24 08.04.2021
553 Clouds 3 1015 75 10000 7.72 300 07:53 08.04.2021
554 Clouds 1 1014 80 10000 7.2 290 06:55 08.04.2021
555 Clear 3 1012 75 10000 8.23 300 02:34 08.04.2021
556 Clouds 4 1010 70 10000 11.32 310 00:44 08.04.2021
557 Clouds 4 1010 70 10000 12.86 310 23:57 07.04.2021
558 Clouds 4 1010 70 10000 12.86 310 23:38 07.04.2021
559 Clouds 4 1009 81 10000 11.32 310 23:19 07.04.2021
560 Clouds 3 1009 81 10000 11.32 310 22:43 07.04.2021
561 Clouds 3 1008 75 10000 10.29 300 22:25 07.04.2021
562 Clouds 4 1008 75 10000 10.29 300 21:44 07.04.2021
563 Clouds 3 1008 81 10000 12.35 300 21:22 07.04.2021
564 Clouds 3 1008 81 10000 12.35 300 20:43 07.04.2021
565 Clouds 4 1008 70 10000 13.89 300 20:21 07.04.2021
566 Clouds 5 1008 70 10000 13.89 300 19:43 07.04.2021
567 Clouds 4 1007 75 10000 14.92 310 19:24 07.04.2021
568 Clouds 5 1007 75 10000 14.92 310 18:47 07.04.2021
569 Clouds 6 1006 65 10000 12.35 310 18:19 07.04.2021
570 Clouds 6 1006 65 10000 12.35 310 17:54 07.04.2021
571 Clouds 6 1006 65 10000 12.35 310 17:36 07.04.2021
572 Clouds 6 1006 70 10000 15.95 300 16:49 07.04.2021
573 Clouds 6 1005 61 10000 14.4 300 16:24 07.04.2021
574 Clouds 7 1005 61 10000 14.4 300 15:59 07.04.2021
575 Clouds 7 1005 61 10000 14.4 300 15:39 07.04.2021
576 Clouds 7 1005 75 10000 7.72 330 14:57 07.04.2021
577 Clouds 7 1004 76 10000 11.32 300 14:32 07.04.2021
578 Clouds 7 1004 76 10000 11.32 300 13:52 07.04.2021
579 Clouds 7 1004 87 10000 5.66 290 13:24 07.04.2021
580 Clouds 7 1004 87 10000 5.66 290 12:53 07.04.2021
581 Clouds 5 1004 87 4200 10.8 290 12:25 07.04.2021
582 Clouds 5 1004 87 4200 10.8 290 11:56 07.04.2021
583 Clouds 5 1004 75 10000 9.77 270 11:28 07.04.2021
584 Rain 5 1004 75 10000 9.77 270 10:53 07.04.2021
585 Clouds 5 1004 81 10000 6.69 250 10:21 07.04.2021
586 Clouds 5 1004 81 10000 6.69 250 09:44 07.04.2021
587 Clouds 3 1004 87 10000 6.17 250 09:25 07.04.2021
588 Clouds 2 1004 87 10000 6.17 250 08:47 07.04.2021
589 Clouds 2 1004 75 10000 6.69 250 08:22 07.04.2021
590 Clouds 1 1004 75 10000 6.69 250 07:43 07.04.2021
591 Clouds 1 1003 86 10000 5.66 260 07:24 07.04.2021
592 Clouds 1 1003 80 10000 8.23 270 06:32 07.04.2021
593 Clouds 1 1003 75 10000 5.66 270 04:23 07.04.2021
594 Clouds 2 1002 80 10000 8.23 300 00:31 07.04.2021
595 Clouds 2 1002 80 10000 8.23 300 23:47 06.04.2021
596 Clouds 2 1002 75 10000 9.26 300 23:22 06.04.2021
597 Clouds 2 1002 75 10000 9.26 300 22:48 06.04.2021
598 Clouds 2 1002 70 10000 9.77 320 22:19 06.04.2021
599 Clouds 2 1002 70 10000 9.77 320 21:43 06.04.2021
600 Clouds 3 1001 65 10000 10.8 310 21:22 06.04.2021
601 Clouds 3 1001 65 10000 10.8 310 20:54 06.04.2021
602 Clouds 4 1001 70 10000 10.29 310 20:25 06.04.2021
603 Clouds 4 1001 70 10000 10.29 310 19:58 06.04.2021
604 Clouds 4 1001 70 10000 10.29 310 19:35 06.04.2021
605 Clouds 4 1000 65 10000 12.86 320 18:58 06.04.2021
606 Clouds 4 1000 65 10000 12.86 320 18:40 06.04.2021
607 Clouds 5 1000 56 10000 14.4 320 18:19 06.04.2021
608 Clouds 5 1000 56 10000 14.4 320 17:43 06.04.2021
609 Clouds 4 1000 81 10000 9.77 280 17:19 06.04.2021
610 Clouds 5 1000 81 10000 9.77 280 16:46 06.04.2021
611 Clouds 4 1001 81 10000 9.26 320 16:26 06.04.2021
612 Rain 4 1000 70 10000 11.32 310 15:27 06.04.2021
613 Clouds 5 1000 70 10000 11.32 310 14:45 06.04.2021
614 Clouds 4 1001 81 10000 14.4 290 14:26 06.04.2021
615 Clouds 4 1001 81 10000 14.4 290 13:47 06.04.2021
616 Clouds 3 1001 81 10000 13.89 290 13:27 06.04.2021
617 Clouds 3 1001 81 10000 13.89 290 13:27 06.04.2021
618 Rain 3 1001 81 10000 13.89 290 12:58 06.04.2021
619 Clouds 4 1001 81 10000 13.89 290 12:37 06.04.2021
620 Clouds 4 1001 65 10000 13.89 290 12:18 06.04.2021
621 Clouds 5 1001 65 10000 13.89 290 11:43 06.04.2021
622 Clouds 4 1001 70 10000 12.86 300 11:20 06.04.2021
623 Clouds 4 1001 70 10000 12.86 300 10:44 06.04.2021
624 Clouds 4 1001 70 10000 10.8 290 10:22 06.04.2021
625 Clouds 4 1001 70 10000 10.8 290 09:45 06.04.2021
626 Clouds 3 1001 80 10000 10.29 290 09:26 06.04.2021
627 Clouds 2 1001 80 10000 10.29 290 08:34 06.04.2021
628 Clouds 2 1001 75 10000 10.8 290 07:33 06.04.2021
629 Clouds 1 1001 75 10000 10.8 300 06:55 06.04.2021
630 Clouds 1 1001 75 10000 9.26 300 05:18 06.04.2021
631 Clouds 2 1001 70 10000 9.77 280 01:54 06.04.2021
632 Clouds 2 1001 70 10000 11.32 290 00:43 06.04.2021
633 Clouds 2 1001 69 10000 10.8 290 00:20 06.04.2021
634 Clouds 2 1001 69 10000 10.8 290 23:42 05.04.2021
635 Clouds 2 1001 69 10000 9.26 290 23:19 05.04.2021
636 Clouds 2 1001 69 10000 9.26 290 22:45 05.04.2021
637 Clouds 2 1001 65 10000 10.29 300 22:24 05.04.2021
638 Clouds 2 1001 65 10000 10.29 300 21:40 05.04.2021
639 Clouds 3 1001 65 10000 13.89 300 21:20 05.04.2021
640 Clouds 3 1001 65 10000 13.89 300 20:42 05.04.2021
641 Clouds 3 1000 60 10000 13.89 300 20:23 05.04.2021
642 Clouds 4 1000 60 10000 13.89 300 19:40 05.04.2021
643 Clouds 4 999 65 10000 15.43 310 19:20 05.04.2021
644 Clouds 4 999 65 10000 15.43 310 18:48 05.04.2021
645 Clouds 4 998 60 10000 16.46 310 18:30 05.04.2021
646 Clouds 5 998 60 10000 16.46 310 17:57 05.04.2021
647 Clouds 5 998 60 10000 16.46 310 17:37 05.04.2021
648 Clouds 5 998 65 10000 17.49 300 17:18 05.04.2021
649 Clouds 5 998 65 10000 17.49 300 16:41 05.04.2021
650 Clouds 4 997 75 10000 15.95 310 16:19 05.04.2021
651 Clouds 4 997 75 10000 15.95 310 15:48 05.04.2021
652 Clouds 3 997 87 10000 13.38 290 15:27 05.04.2021
653 Clouds 3 997 87 10000 13.38 290 14:46 05.04.2021
654 Snow 2 997 93 10000 14.4 300 14:25 05.04.2021
655 Clouds 1 997 86 10000 13.38 290 13:31 05.04.2021
656 Clouds 1 997 86 10000 13.38 290 13:31 05.04.2021
657 Clouds 1 997 86 10000 13.38 290 13:31 05.04.2021
658 Snow 1 997 86 10000 13.38 290 12:48 05.04.2021
659 Snow 1 997 75 10000 13.89 290 12:26 05.04.2021
660 Snow 1 997 75 10000 13.89 290 11:55 05.04.2021
661 Clouds 2 997 75 10000 13.89 290 11:33 05.04.2021
662 Snow 2 997 80 10000 7.2 270 10:59 05.04.2021
663 Snow 1 997 80 10000 7.2 270 10:40 05.04.2021
664 Snow 0 997 86 6000 9.26 320 10:22 05.04.2021
665 Snow 0 997 86 6000 9.26 320 09:47 05.04.2021
666 Snow -1 996 93 1800 11.83 340 09:22 05.04.2021
667 Snow -1 996 93 1800 11.83 340 08:42 05.04.2021
668 Snow 1 995 75 10000 10.8 300 08:24 05.04.2021
669 Rain 2 995 75 10000 10.8 300 07:35 05.04.2021
670 Rain 4 996 93 2300 14.92 270 04:25 05.04.2021
671 Clouds 7 1000 81 10000 15.95 260 01:35 05.04.2021
672 Clouds 7 1000 81 10000 15.95 260 01:35 05.04.2021
673 Clouds 7 1002 81 10000 15.43 250 00:36 05.04.2021
674 Clouds 7 1004 76 10000 14.4 250 23:47 04.04.2021
675 Clouds 6 1006 81 10000 11.32 240 23:23 04.04.2021
676 Clouds 6 1006 81 10000 11.32 240 22:50 04.04.2021
677 Clouds 6 1008 81 10000 10.8 250 22:29 04.04.2021
678 Clouds 6 1009 81 10000 11.83 250 21:27 04.04.2021
679 Clouds 6 1009 81 10000 11.83 250 20:57 04.04.2021
680 Clouds 6 1011 81 10000 11.32 250 20:30 04.04.2021
681 Clouds 6 1011 81 10000 11.32 250 20:30 04.04.2021
682 Clouds 6 1011 81 10000 11.32 250 20:30 04.04.2021
683 Clouds 6 1011 81 10000 11.32 250 19:57 04.04.2021
684 Clouds 6 1011 81 10000 11.32 250 19:36 04.04.2021
685 Clouds 6 1012 81 10000 12.86 250 19:18 04.04.2021
686 Clouds 6 1012 81 10000 12.86 250 19:18 04.04.2021
687 Clouds 6 1012 81 10000 12.86 250 18:42 04.04.2021
688 Clouds 7 1013 76 10000 14.4 270 18:21 04.04.2021
689 Clouds 7 1013 76 10000 14.4 270 18:21 04.04.2021
690 Clouds 7 1013 76 10000 14.4 270 17:44 04.04.2021
691 Clouds 7 1015 81 10000 13.89 280 17:23 04.04.2021
692 Clouds 7 1015 81 10000 13.89 280 16:44 04.04.2021
693 Clouds 7 1016 81 10000 12.86 270 16:20 04.04.2021
694 Clouds 7 1016 81 10000 12.86 270 15:36 04.04.2021
695 Clouds 7 1016 81 10000 11.32 280 14:50 04.04.2021
696 Clouds 8 1017 76 10000 9.77 280 14:28 04.04.2021
697 Clouds 8 1017 76 10000 9.77 280 13:53 04.04.2021
698 Clouds 7 1018 81 10000 10.29 290 13:25 04.04.2021
699 Clouds 7 1018 81 10000 10.29 290 12:50 04.04.2021
700 Clouds 7 1019 81 10000 9.77 290 12:27 04.04.2021
701 Clouds 7 1019 81 10000 9.77 290 11:43 04.04.2021
702 Clouds 7 1019 81 10000 9.26 290 11:25 04.04.2021
703 Clouds 6 1019 81 10000 9.26 290 10:46 04.04.2021
704 Clouds 6 1019 81 10000 9.26 290 09:59 04.04.2021
705 Clouds 5 1020 81 10000 7.72 270 09:27 04.04.2021
706 Clouds 5 1020 81 10000 7.72 270 08:59 04.04.2021
707 Clouds 5 1020 81 10000 7.72 270 08:41 04.04.2021
708 Clouds 5 1020 81 10000 7.2 290 08:23 04.04.2021
709 Clouds 5 1021 81 10000 6.69 280 06:39 04.04.2021
710 Clouds 5 1021 81 10000 6.69 280 06:39 04.04.2021
711 Clouds 4 1021 87 10000 5.14 270 05:34 04.04.2021
712 Clear 2 1023 87 10000 3.6 300 01:47 04.04.2021
713 Clear 3 1023 81 10000 3.6 290 00:44 04.04.2021
714 Clear 3 1023 75 10000 2.57 270 23:59 03.04.2021
715 Clear 4 1023 75 10000 2.57 270 23:39 03.04.2021
716 Clear 4 1024 81 10000 2.57 300 22:54 03.04.2021
717 Clear 4 1024 70 10000 2.57 320 22:24 03.04.2021
718 Clear 4 1024 70 10000 2.57 320 21:59 03.04.2021
719 Clear 5 1024 70 10000 2.57 320 21:39 03.04.2021
720 Clear 6 1024 53 10000 1.54 150 21:20 03.04.2021
721 Clear 7 1024 53 10000 1.54 150 20:38 03.04.2021
722 Clouds 8 1023 40 10000 2.06 90 20:18 03.04.2021
723 Clouds 8 1023 40 10000 2.06 90 19:43 03.04.2021
724 Clouds 9 1024 37 10000 1.54 70 19:18 03.04.2021
725 Clouds 10 1024 37 10000 1.54 70 18:44 03.04.2021
726 Clouds 10 1024 34 10000 2.06 40 17:58 03.04.2021
727 Clouds 11 1024 34 10000 2.06 40 17:39 03.04.2021
728 Clouds 11 1025 35 10000 3.09 40 17:20 03.04.2021
729 Clouds 11 1025 35 10000 3.09 40 16:43 03.04.2021
730 Clouds 11 1025 32 10000 4.12 40 16:21 03.04.2021
731 Clouds 10 1025 32 10000 4.12 40 15:41 03.04.2021
732 Clouds 10 1025 34 10000 3.6 30 15:19 03.04.2021
733 Clouds 10 1025 34 10000 3.6 30 14:37 03.04.2021
734 Clouds 9 1026 39 10000 2.57 30 14:19 03.04.2021
735 Clouds 9 1026 39 10000 2.57 30 13:46 03.04.2021
736 Clouds 9 1026 39 10000 2.06 30 13:21 03.04.2021
737 Clouds 9 1026 39 10000 2.06 30 12:47 03.04.2021
738 Clouds 9 1025 46 10000 1.54 20 12:20 03.04.2021
739 Clouds 8 1025 46 10000 1.54 20 11:35 03.04.2021
740 Clouds 7 1025 53 10000 2.06 40 10:51 03.04.2021
741 Clouds 6 1025 75 10000 1.03 20 10:31 03.04.2021
742 Clouds 6 1025 75 10000 1.03 20 09:54 03.04.2021
743 Clouds 4 1024 81 10000 1.03 0 09:28 03.04.2021
744 Clouds 4 1024 81 10000 1.03 0 08:54 03.04.2021
745 Clouds 2 1024 86 10000 2.06 20 08:28 03.04.2021
746 Clouds 0 1023 86 10000 2.57 10 07:29 03.04.2021
747 Clouds 0 1023 86 10000 2.57 10 06:39 03.04.2021
748 Clear 2 1022 81 10000 0.51 320 03:53 03.04.2021
749 Clear 2 1022 87 10000 1.54 320 02:51 03.04.2021
750 Clear 2 1021 93 10000 1.54 340 02:26 03.04.2021
751 Clear 3 1021 93 10000 3.6 350 00:23 03.04.2021
752 Clear 3 1021 93 10000 3.6 350 23:50 02.04.2021
753 Clear 4 1020 87 10000 5.14 330 23:24 02.04.2021
754 Clear 4 1020 87 10000 5.14 330 22:55 02.04.2021
755 Clear 4 1020 87 10000 5.14 330 22:36 02.04.2021
756 Clear 5 1019 81 10000 6.69 310 21:46 02.04.2021
757 Clear 6 1019 75 10000 7.2 320 21:26 02.04.2021
758 Clear 6 1019 75 10000 7.2 320 20:53 02.04.2021
759 Clouds 6 1019 75 10000 7.2 320 20:34 02.04.2021
760 Clouds 8 1018 66 10000 9.26 330 19:59 02.04.2021
761 Clouds 8 1018 66 10000 9.26 330 19:39 02.04.2021
762 Clouds 9 1018 61 10000 9.26 330 19:21 02.04.2021
763 Clouds 9 1018 61 10000 9.26 330 18:41 02.04.2021
764 Clouds 9 1018 61 10000 9.26 330 18:41 02.04.2021
765 Clouds 9 1018 61 10000 9.77 330 18:20 02.04.2021
766 Clouds 9 1018 61 10000 9.77 330 17:40 02.04.2021
767 Clouds 9 1018 66 10000 8.75 300 16:53 02.04.2021
768 Clouds 9 1019 66 10000 10.8 320 16:23 02.04.2021
769 Clouds 9 1019 66 10000 10.8 320 15:42 02.04.2021
770 Clouds 9 1019 66 10000 10.8 320 15:42 02.04.2021
771 Clouds 9 1019 61 10000 9.26 330 14:57 02.04.2021
772 Clouds 9 1019 61 10000 9.26 330 14:33 02.04.2021
773 Clouds 9 1019 66 10000 10.8 320 13:46 02.04.2021
774 Clouds 9 1019 66 10000 10.29 310 13:26 02.04.2021
775 Clouds 8 1019 66 10000 10.29 310 12:42 02.04.2021
776 Clouds 7 1020 70 10000 11.32 320 12:20 02.04.2021
777 Clouds 7 1020 70 10000 11.32 320 11:58 02.04.2021
778 Clouds 7 1020 75 10000 11.83 320 11:21 02.04.2021
779 Clouds 6 1020 75 10000 11.83 320 10:51 02.04.2021
780 Clouds 6 1020 75 10000 11.83 320 10:32 02.04.2021
781 Clouds 6 1020 75 10000 11.83 320 10:32 02.04.2021
782 Clouds 6 1020 75 10000 11.32 310 09:55 02.04.2021
783 Clouds 6 1020 75 10000 11.32 310 09:37 02.04.2021
784 Clouds 5 1021 81 10000 7.72 300 09:18 02.04.2021
785 Clouds 5 1021 81 10000 7.72 300 08:34 02.04.2021
786 Clouds 5 1021 81 10000 6.69 290 07:42 02.04.2021
787 Clear 4 1021 87 10000 7.2 300 07:18 02.04.2021
788 Clear 3 1022 87 10000 6.17 300 06:22 02.04.2021
789 Clear 2 1024 87 10000 2.06 280 02:59 02.04.2021
790 Clear 2 1024 100 10000 2.57 280 00:54 02.04.2021
791 Clear 2 1024 100 10000 2.57 280 00:54 02.04.2021
792 Clear 2 1024 100 10000 2.57 280 00:33 02.04.2021
793 Clear 2 1024 93 10000 2.57 260 23:42 01.04.2021
794 Clear 2 1024 87 10000 1.54 270 23:24 01.04.2021
795 Clear 3 1024 81 10000 1.03 70 22:22 01.04.2021
796 Clear 4 1024 81 10000 1.03 70 21:52 01.04.2021
797 Clear 5 1023 70 10000 2.06 90 21:29 01.04.2021
798 Clear 5 1023 70 10000 2.06 90 21:00 01.04.2021
799 Clear 6 1023 70 10000 2.06 90 20:33 01.04.2021
800 Clouds 7 1023 61 10000 3.6 50 19:58 01.04.2021
801 Clouds 8 1023 61 10000 3.6 50 19:39 01.04.2021
802 Clouds 9 1023 57 10000 4.63 40 18:54 01.04.2021
803 Clouds 9 1023 57 10000 4.63 40 18:36 01.04.2021
804 Clouds 9 1022 61 10000 7.2 40 18:18 01.04.2021
805 Clouds 9 1022 61 10000 7.2 40 17:39 01.04.2021
806 Clouds 10 1022 57 10000 9.77 30 17:20 01.04.2021
807 Clouds 10 1022 57 10000 9.77 30 16:41 01.04.2021
808 Clouds 10 1022 61 10000 10.29 30 15:57 01.04.2021
809 Clouds 9 1022 66 10000 11.32 20 15:24 01.04.2021
810 Clouds 9 1022 66 10000 11.32 20 14:55 01.04.2021
811 Clouds 9 1022 66 10000 11.32 20 14:37 01.04.2021
812 Clouds 9 1021 61 10000 9.26 20 14:19 01.04.2021
813 Clouds 9 1021 61 10000 9.26 20 13:47 01.04.2021
814 Clouds 9 1020 71 10000 9.26 20 13:27 01.04.2021
815 Clouds 8 1020 71 10000 9.26 20 12:46 01.04.2021
816 Clouds 8 1020 81 10000 9.77 10 12:28 01.04.2021
817 Clouds 7 1020 81 10000 9.77 10 11:44 01.04.2021
818 Clouds 7 1019 87 3900 9.77 20 11:19 01.04.2021
819 Clouds 7 1019 87 3900 9.77 20 10:47 01.04.2021
820 Clouds 7 1018 87 10000 6.17 360 10:28 01.04.2021
821 Clouds 7 1018 87 10000 6.17 360 09:41 01.04.2021
822 Clouds 7 1018 87 10000 5.66 350 09:22 01.04.2021
823 Clouds 7 1018 87 10000 5.66 350 08:33 01.04.2021
824 Rain 7 1017 87 4800 2.57 310 07:24 01.04.2021
825 Clouds 7 1017 87 4800 2.57 310 06:58 01.04.2021
826 Clouds 7 1017 87 3800 3.09 330 06:30 01.04.2021
827 Clouds 8 1017 66 6000 4.12 270 03:26 01.04.2021
828 Clouds 9 1017 66 7000 3.6 280 00:38 01.04.2021
829 Clouds 9 1018 71 8000 2.57 270 23:44 31.03.2021
830 Clouds 9 1018 66 9000 2.57 270 22:58 31.03.2021
831 Clouds 10 1018 66 9000 2.57 270 22:39 31.03.2021
832 Clouds 11 1018 62 10000 3.09 260 22:20 31.03.2021
833 Clouds 12 1018 62 10000 3.09 260 21:44 31.03.2021
834 Clouds 13 1019 51 10000 4.12 270 21:20 31.03.2021
835 Clouds 13 1019 51 10000 4.12 270 20:42 31.03.2021
836 Clouds 14 1019 47 10000 5.14 260 20:23 31.03.2021
837 Clouds 14 1019 47 10000 5.14 260 20:23 31.03.2021
838 Clouds 13 1019 47 10000 5.14 260 19:55 31.03.2021
839 Clouds 14 1019 47 10000 5.14 260 19:36 31.03.2021
840 Clouds 15 1019 41 10000 5.14 270 19:18 31.03.2021
841 Clouds 16 1019 41 10000 5.14 270 18:41 31.03.2021
842 Clear 18 1019 36 10000 5.66 260 17:56 31.03.2021
843 Clear 18 1019 36 10000 5.66 260 17:34 31.03.2021
844 Clear 20 1019 34 10000 4.12 270 16:58 31.03.2021
845 Clear 20 1019 34 10000 4.12 270 16:37 31.03.2021
846 Clear 20 1020 34 10000 3.6 280 16:19 31.03.2021
847 Clear 19 1020 34 10000 3.6 280 15:50 31.03.2021
848 Clear 19 1021 34 10000 3.6 280 15:19 31.03.2021
849 Clear 19 1021 34 10000 3.6 280 14:43 31.03.2021
850 Clear 19 1021 32 10000 2.57 280 14:22 31.03.2021
851 Clear 18 1021 32 10000 2.57 280 13:41 31.03.2021
852 Clear 17 1022 34 10000 1.54 250 12:42 31.03.2021
853 Clear 16 1022 44 10000 1.03 0 12:21 31.03.2021
854 Clear 16 1022 44 10000 1.03 0 11:56 31.03.2021
855 Clear 13 1023 66 8000 1.03 0 11:21 31.03.2021
856 Clear 12 1023 66 8000 1.03 0 10:47 31.03.2021
857 Clear 10 1023 81 7000 2.06 200 10:26 31.03.2021
858 Clear 9 1023 81 7000 2.06 200 09:43 31.03.2021
859 Clear 6 1023 100 3300 3.6 220 09:18 31.03.2021
860 Clear 6 1023 100 3300 3.6 220 08:39 31.03.2021
861 Clear 4 1023 93 2600 2.57 240 07:54 31.03.2021
862 Clear 4 1023 93 6000 4.12 240 06:49 31.03.2021
863 Clear 5 1024 81 9000 3.6 250 03:52 31.03.2021
864 Clear 6 1025 87 10000 2.06 250 02:30 31.03.2021
865 Clear 5 1026 93 5000 2.06 240 00:53 31.03.2021
866 Clouds 6 1026 93 10000 4.63 220 00:21 31.03.2021
867 Clouds 5 1026 93 10000 4.63 220 23:47 30.03.2021
868 Clouds 5 1026 87 10000 4.12 250 23:19 30.03.2021
869 Clouds 6 1026 87 10000 4.12 250 22:42 30.03.2021
870 Clouds 6 1027 87 8000 5.14 270 22:24 30.03.2021
871 Clouds 6 1027 87 8000 5.14 270 21:53 30.03.2021
872 Clouds 8 1027 81 10000 5.66 260 21:24 30.03.2021
873 Clouds 8 1027 81 10000 5.66 260 20:58 30.03.2021
874 Clouds 10 1026 66 10000 8.75 260 20:30 30.03.2021
875 Clouds 11 1026 66 10000 8.75 260 19:52 30.03.2021
876 Clouds 12 1026 62 10000 7.72 260 19:29 30.03.2021
877 Clouds 13 1026 62 10000 7.72 260 18:47 30.03.2021
878 Clouds 13 1027 71 10000 7.2 260 18:24 30.03.2021
879 Clouds 14 1027 71 10000 7.2 260 17:45 30.03.2021
880 Clouds 14 1027 67 10000 8.75 260 17:26 30.03.2021
881 Clouds 15 1027 67 10000 8.75 260 16:47 30.03.2021
882 Clouds 15 1027 72 10000 8.75 260 16:27 30.03.2021
883 Clouds 15 1027 72 10000 8.75 260 15:37 30.03.2021
884 Clouds 15 1027 67 10000 8.75 260 15:18 30.03.2021
885 Clouds 15 1027 67 10000 8.75 260 14:45 30.03.2021
886 Clouds 15 1028 72 10000 8.75 250 14:20 30.03.2021
887 Clouds 14 1028 72 10000 8.75 250 13:47 30.03.2021
888 Clouds 14 1027 72 10000 8.75 260 13:24 30.03.2021
889 Clouds 14 1027 72 10000 8.75 260 12:41 30.03.2021
890 Clouds 14 1027 76 10000 7.72 260 12:20 30.03.2021
891 Clouds 13 1027 76 10000 7.72 260 11:43 30.03.2021
892 Clouds 12 1027 82 10000 5.14 270 11:19 30.03.2021
893 Clouds 12 1027 82 10000 5.14 270 10:41 30.03.2021
894 Clouds 11 1027 81 10000 6.69 260 10:19 30.03.2021
895 Clouds 10 1027 81 10000 6.69 260 09:41 30.03.2021
896 Clouds 10 1027 81 10000 6.69 260 09:41 30.03.2021
897 Clouds 9 1026 87 8000 6.69 250 09:21 30.03.2021
898 Clouds 9 1026 87 8000 6.69 250 08:42 30.03.2021
899 Clouds 8 1026 93 10000 5.66 250 07:56 30.03.2021
900 Clouds 7 1026 93 10000 5.66 250 07:31 30.03.2021
901 Clouds 7 1026 87 10000 5.66 250 06:30 30.03.2021
902 Clouds 7 1026 93 10000 6.17 250 05:25 30.03.2021
903 Clouds 8 1025 93 10000 7.2 260 01:47 30.03.2021
904 Clouds 8 1025 87 8000 6.69 250 23:54 29.03.2021
905 Clouds 9 1025 87 10000 9.26 260 23:21 29.03.2021
906 Clouds 9 1025 87 10000 9.26 260 22:43 29.03.2021
907 Clouds 9 1025 93 10000 9.26 260 21:57 29.03.2021
908 Clouds 9 1025 93 10000 9.26 260 21:35 29.03.2021
909 Clouds 9 1025 93 10000 9.77 260 20:51 29.03.2021
910 Clouds 9 1025 93 10000 9.77 260 20:33 29.03.2021
911 Clouds 9 1024 87 10000 11.83 260 19:56 29.03.2021
912 Clouds 9 1024 87 10000 12.86 260 19:32 29.03.2021
913 Clouds 9 1024 87 10000 12.86 260 18:57 29.03.2021
914 Clouds 10 1024 87 10000 12.86 260 18:38 29.03.2021
915 Clouds 10 1024 81 10000 12.86 260 18:19 29.03.2021
916 Clouds 10 1024 81 10000 12.86 260 17:37 29.03.2021
917 Clouds 10 1023 81 10000 12.86 260 16:54 29.03.2021
918 Clouds 10 1023 81 10000 12.86 260 16:34 29.03.2021
919 Clouds 10 1023 81 10000 12.86 260 15:47 29.03.2021
920 Clouds 10 1023 81 10000 11.83 260 15:28 29.03.2021
921 Clouds 10 1023 81 10000 11.83 260 14:49 29.03.2021
922 Clouds 10 1022 87 10000 12.35 260 14:28 29.03.2021
923 Clouds 10 1022 87 10000 12.35 260 13:47 29.03.2021
924 Clouds 9 1021 87 10000 11.83 250 13:22 29.03.2021
925 Clouds 9 1021 87 10000 11.83 250 12:49 29.03.2021
926 Clouds 9 1021 87 8000 11.32 250 11:49 29.03.2021
927 Clouds 9 1020 87 8000 10.8 250 11:30 29.03.2021
928 Clouds 9 1020 87 8000 10.8 250 10:55 29.03.2021
929 Clouds 9 1020 87 8000 10.8 250 10:34 29.03.2021
930 Clouds 8 1020 93 4700 9.26 240 09:37 29.03.2021
931 Rain 8 1019 93 4000 8.75 240 08:52 29.03.2021
932 Clouds 8 1019 87 10000 7.72 240 08:28 29.03.2021
933 Clouds 8 1019 93 2400 8.23 240 07:28 29.03.2021
934 Rain 8 1019 93 6000 9.26 240 06:27 29.03.2021
935 Clouds 8 1019 81 10000 9.77 240 03:51 29.03.2021
936 Clouds 8 1019 81 8000 10.8 240 01:43 29.03.2021
937 Clouds 8 1019 87 10000 10.29 240 00:22 29.03.2021
938 Clouds 8 1019 87 10000 10.29 240 23:44 28.03.2021
939 Clouds 8 1019 93 10000 9.26 240 23:19 28.03.2021
940 Clouds 8 1019 93 10000 9.26 240 22:41 28.03.2021
941 Clouds 8 1019 93 10000 10.29 240 22:21 28.03.2021
942 Clouds 8 1019 93 10000 10.29 240 21:41 28.03.2021
943 Clouds 8 1018 93 10000 11.32 250 21:22 28.03.2021
944 Rain 8 1018 93 10000 11.32 250 20:49 28.03.2021
945 Rain 8 1018 93 10000 12.86 250 20:31 28.03.2021
946 Rain 8 1018 93 10000 12.86 250 19:45 28.03.2021
947 Rain 8 1018 93 5000 12.35 250 19:23 28.03.2021
948 Rain 8 1018 93 5000 12.35 250 18:58 28.03.2021
949 Rain 8 1018 93 5000 12.35 240 18:28 28.03.2021
950 Rain 8 1018 93 5000 12.35 240 17:50 28.03.2021
951 Rain 8 1018 87 5000 11.83 240 17:32 28.03.2021
952 Rain 8 1018 87 5000 11.83 240 16:46 28.03.2021
953 Rain 8 1018 87 5000 11.83 240 16:46 28.03.2021
954 Rain 8 1018 87 4900 10.8 230 16:23 28.03.2021
955 Rain 8 1018 87 4900 10.8 230 15:43 28.03.2021
956 Rain 8 1018 87 5000 8.23 230 15:22 28.03.2021
957 Rain 8 1018 87 5000 8.23 230 14:38 28.03.2021
958 Rain 8 1019 81 6000 8.75 220 13:52 28.03.2021
959 Rain 8 1019 81 6000 8.75 220 13:33 28.03.2021
960 Rain 8 1019 81 10000 7.72 230 12:53 28.03.2021
961 Rain 8 1019 81 10000 7.72 230 12:33 28.03.2021
962 Clouds 7 1019 81 10000 7.72 220 11:50 28.03.2021
963 Clouds 7 1019 81 10000 7.72 220 11:32 28.03.2021
964 Clouds 7 1019 81 10000 7.72 220 10:47 28.03.2021
965 Clouds 6 1020 81 10000 6.17 210 10:28 28.03.2021
966 Clouds 6 1020 81 10000 6.17 210 09:49 28.03.2021
967 Clouds 6 1020 81 10000 5.66 210 09:25 28.03.2021
968 Clouds 5 1020 81 10000 5.66 210 08:48 28.03.2021
969 Clouds 5 1019 81 10000 5.66 210 07:53 28.03.2021
970 Clouds 5 1019 81 10000 5.66 210 07:34 28.03.2021
971 Clouds 5 1020 81 10000 5.14 210 05:33 28.03.2021
972 Clouds 4 1021 87 10000 7.2 250 01:50 28.03.2021
973 Clouds 4 1020 87 10000 7.2 250 00:34 28.03.2021
974 Clouds 4 1020 87 10000 7.2 250 23:50 27.03.2021
975 Clouds 4 1020 87 10000 6.69 260 23:32 27.03.2021
976 Clouds 4 1020 87 10000 6.69 260 22:40 27.03.2021
977 Clear 4 1019 87 10000 7.2 250 22:20 27.03.2021
978 Clear 4 1019 87 10000 7.2 250 21:41 27.03.2021
979 Clear 4 1019 81 10000 7.72 270 21:20 27.03.2021
980 Clear 4 1019 81 10000 7.72 270 20:55 27.03.2021
981 Clear 4 1019 81 10000 7.72 270 20:37 27.03.2021
982 Clear 6 1018 81 10000 9.77 280 19:46 27.03.2021
983 Clouds 6 1017 81 10000 9.77 290 19:24 27.03.2021
984 Clouds 6 1017 81 10000 9.77 290 18:57 27.03.2021
985 Clouds 6 1017 81 10000 9.77 290 18:38 27.03.2021
986 Clouds 6 1016 81 10000 8.75 280 18:19 27.03.2021
987 Clouds 6 1015 87 9000 9.77 290 17:29 27.03.2021
988 Clouds 6 1015 87 9000 9.77 290 16:57 27.03.2021
989 Clouds 7 1015 87 9000 9.77 290 16:38 27.03.2021
990 Clouds 7 1014 70 10000 11.32 270 16:19 27.03.2021
991 Clouds 7 1014 70 10000 11.32 270 15:39 27.03.2021
992 Clouds 8 1013 71 10000 10.29 260 14:55 27.03.2021
993 Clouds 8 1012 66 10000 10.29 270 14:24 27.03.2021
994 Clouds 8 1012 66 10000 10.29 270 13:39 27.03.2021
995 Clouds 8 1011 66 10000 11.32 270 13:19 27.03.2021
996 Clouds 8 1011 66 10000 11.32 270 12:41 27.03.2021
997 Clouds 8 1010 76 10000 9.26 260 11:49 27.03.2021
998 Clouds 7 1009 87 10000 7.72 250 11:31 27.03.2021
999 Clouds 6 1009 87 10000 7.72 250 10:49 27.03.2021
1000 Clouds 6 1009 93 10000 6.69 250 10:30 27.03.2021
1001 Clouds 5 1009 93 10000 6.69 250 09:47 27.03.2021
1002 Clouds 5 1008 87 10000 7.2 260 09:18 27.03.2021
1003 Rain 5 1008 87 10000 7.2 260 08:39 27.03.2021
1004 Rain 4 1007 93 10000 8.75 270 07:49 27.03.2021
1005 Clouds 4 1006 93 10000 10.29 270 06:59 27.03.2021
1006 Clouds 5 1006 93 10000 10.29 270 06:39 27.03.2021
1007 Rain 9 1005 62 10000 4.63 200 04:42 27.03.2021
1008 Clear 8 1007 66 10000 5.14 190 02:26 27.03.2021
1009 Clouds 9 1008 66 10000 5.66 180 00:34 27.03.2021
1010 Clouds 9 1009 66 10000 5.66 170 23:59 26.03.2021
1011 Clouds 10 1010 62 10000 4.63 160 23:27 26.03.2021
1012 Clouds 10 1010 62 10000 4.63 160 22:40 26.03.2021
1013 Clouds 10 1010 62 10000 5.14 180 21:53 26.03.2021
1014 Clouds 11 1011 58 10000 5.66 170 21:24 26.03.2021
1015 Clouds 11 1011 58 10000 5.66 170 20:58 26.03.2021
1016 Clouds 11 1011 58 10000 5.66 160 20:31 26.03.2021
1017 Clouds 11 1011 58 10000 5.66 160 19:53 26.03.2021
1018 Clouds 11 1011 58 10000 5.66 160 19:34 26.03.2021
1019 Clouds 12 1011 58 10000 5.14 170 18:55 26.03.2021
1020 Clouds 12 1011 58 10000 5.14 170 18:36 26.03.2021
1021 Clouds 13 1012 50 10000 4.63 180 18:18 26.03.2021
1022 Clouds 13 1012 50 10000 4.63 180 17:43 26.03.2021
1023 Clouds 13 1012 54 10000 4.12 200 16:53 26.03.2021
1024 Clouds 13 1013 50 10000 5.14 210 16:30 26.03.2021
1025 Clouds 13 1013 50 10000 5.14 210 15:43 26.03.2021
1026 Clouds 12 1013 58 10000 6.69 210 14:57 26.03.2021
1027 Clouds 13 1014 54 10000 8.23 210 14:20 26.03.2021
1028 Clouds 13 1014 54 10000 8.23 210 13:34 26.03.2021
1029 Clouds 11 1014 62 10000 5.66 210 12:49 26.03.2021
1030 Clouds 11 1015 76 9000 5.14 190 11:50 26.03.2021
1031 Clouds 9 1015 81 3800 5.14 200 11:31 26.03.2021
1032 Rain 8 1015 81 3800 5.14 200 10:46 26.03.2021
1033 Clouds 8 1015 76 9000 5.14 190 10:27 26.03.2021
1034 Clouds 8 1015 76 9000 5.14 190 09:42 26.03.2021
1035 Rain 8 1015 76 10000 6.17 190 09:18 26.03.2021
1036 Clouds 7 1015 76 10000 6.17 190 08:37 26.03.2021
1037 Clouds 6 1015 81 9000 6.69 190 07:59 26.03.2021
1038 Clouds 5 1015 81 8000 7.2 190 07:23 26.03.2021
1039 Clouds 4 1015 81 8000 7.2 190 06:57 26.03.2021
1040 Clouds 4 1015 75 8000 6.69 190 06:30 26.03.2021
1041 Clear 5 1016 81 5000 6.69 190 05:26 26.03.2021
1042 Clear 6 1017 81 6000 4.12 220 01:57 26.03.2021
1043 Clouds 7 1017 93 3500 4.12 210 00:27 26.03.2021
1044 Clouds 7 1017 93 3500 4.12 210 23:44 25.03.2021
1045 Clouds 7 1017 93 3900 4.63 200 22:56 25.03.2021
1046 Clouds 6 1017 81 4400 3.6 190 22:28 25.03.2021
1047 Clouds 7 1017 81 4400 3.6 190 21:51 25.03.2021
1048 Clouds 7 1017 81 4400 3.6 190 21:33 25.03.2021
1049 Clouds 7 1017 81 5000 2.57 210 20:45 25.03.2021
1050 Clouds 8 1017 71 6000 2.57 220 20:25 25.03.2021
1051 Clouds 9 1017 71 6000 2.57 220 19:46 25.03.2021
1052 Clouds 8 1017 76 6000 5.66 270 19:27 25.03.2021
1053 Clouds 9 1017 76 6000 5.66 270 18:49 25.03.2021
1054 Clouds 10 1017 71 9000 5.66 260 18:27 25.03.2021
1055 Clouds 10 1017 71 9000 5.66 260 17:52 25.03.2021
1056 Clouds 11 1017 71 9000 5.66 260 17:33 25.03.2021
1057 Clouds 11 1017 62 10000 6.17 250 16:52 25.03.2021
1058 Clouds 12 1017 58 10000 7.2 250 16:32 25.03.2021
1059 Clouds 12 1017 58 10000 7.2 250 15:46 25.03.2021
1060 Clouds 12 1017 62 10000 5.14 240 15:23 25.03.2021
1061 Clouds 12 1017 62 10000 5.14 240 14:48 25.03.2021
1062 Clear 12 1018 62 10000 5.14 250 14:18 25.03.2021
1063 Clouds 11 1018 58 10000 4.12 220 13:24 25.03.2021
1064 Clouds 11 1018 58 10000 4.12 220 12:46 25.03.2021
1065 Clouds 10 1018 66 10000 4.12 220 12:22 25.03.2021
1066 Clouds 10 1018 66 10000 4.12 220 11:53 25.03.2021
1067 Clouds 10 1018 66 10000 4.12 220 11:53 25.03.2021
1068 Clouds 9 1018 66 10000 4.12 220 11:33 25.03.2021
1069 Clouds 8 1018 76 8000 3.09 230 10:58 25.03.2021
1070 Clouds 8 1018 76 8000 3.09 230 10:39 25.03.2021
1071 Clouds 6 1018 87 6000 2.06 210 10:19 25.03.2021
1072 Clouds 6 1018 87 6000 2.06 210 09:43 25.03.2021
1073 Clouds 5 1018 93 6000 2.57 220 09:21 25.03.2021
1074 Clouds 4 1018 93 5000 4.12 230 08:30 25.03.2021
1075 Clouds 3 1017 100 5000 2.57 240 07:29 25.03.2021
1076 Clouds 3 1017 100 5000 2.57 240 06:43 25.03.2021
1077 Clouds 4 1017 93 5000 2.57 230 06:22 25.03.2021
1078 Clouds 4 1017 93 6000 4.63 260 04:51 25.03.2021
1079 Clouds 6 1017 93 2300 5.66 260 01:25 25.03.2021
1080 Clouds 6 1017 87 5000 6.17 250 00:19 25.03.2021
1081 Clouds 6 1017 87 5000 6.17 250 23:40 24.03.2021
1082 Clouds 6 1017 81 8000 4.12 240 23:19 24.03.2021
1083 Clouds 6 1017 81 8000 4.12 240 22:39 24.03.2021
1084 Clouds 6 1018 81 6000 5.66 260 21:57 24.03.2021
1085 Clouds 6 1018 81 6000 5.66 260 21:39 24.03.2021
1086 Clouds 6 1018 81 6000 4.12 240 21:19 24.03.2021
1087 Clouds 6 1018 81 6000 4.12 240 20:41 24.03.2021
1088 Clouds 7 1018 76 5000 5.66 250 20:18 24.03.2021
1089 Clouds 8 1018 76 5000 5.66 250 19:34 24.03.2021
1090 Clouds 9 1018 71 6000 5.66 240 18:56 24.03.2021
1091 Clouds 9 1018 71 6000 5.66 240 18:38 24.03.2021
1092 Clouds 9 1018 66 6000 5.66 240 18:19 24.03.2021
1093 Clouds 9 1018 66 6000 5.66 240 17:34 24.03.2021
1094 Clouds 10 1018 62 8000 8.23 250 16:59 24.03.2021
1095 Clouds 10 1018 62 8000 8.23 250 16:41 24.03.2021
1096 Clouds 11 1018 58 9000 10.29 250 16:20 24.03.2021
1097 Clouds 11 1018 58 9000 10.29 250 15:41 24.03.2021
1098 Clouds 11 1018 62 10000 9.26 250 15:21 24.03.2021
1099 Clouds 11 1018 62 10000 9.26 250 14:42 24.03.2021
1100 Clouds 11 1019 62 9000 8.75 240 14:23 24.03.2021
1101 Clouds 12 1019 62 9000 8.75 240 13:45 24.03.2021
1102 Clouds 11 1019 62 7000 8.75 250 13:24 24.03.2021
1103 Clouds 11 1019 62 7000 8.75 250 12:41 24.03.2021
1104 Clouds 11 1019 66 7000 5.14 240 12:20 24.03.2021
1105 Clouds 10 1019 66 7000 5.14 240 11:41 24.03.2021
1106 Clouds 10 1019 66 9000 6.69 240 10:53 24.03.2021
1107 Clouds 9 1019 71 9000 5.66 240 10:32 24.03.2021
1108 Clouds 9 1019 71 9000 5.66 240 09:58 24.03.2021
1109 Clouds 9 1019 71 9000 5.66 240 09:36 24.03.2021
1110 Clouds 8 1019 76 8000 5.66 230 09:18 24.03.2021
1111 Clouds 7 1019 76 8000 5.66 230 08:46 24.03.2021
1112 Clouds 7 1019 76 6000 4.63 210 08:24 24.03.2021
1113 Clouds 6 1019 81 5000 4.12 220 07:25 24.03.2021
1114 Clouds 6 1019 81 5000 4.12 220 06:49 24.03.2021
1115 Clouds 6 1020 70 10000 6.69 260 03:19 24.03.2021
1116 Clear 6 1021 75 10000 9.26 270 00:45 24.03.2021
1117 Clear 6 1021 75 10000 10.29 270 23:53 23.03.2021
1118 Clear 6 1021 81 6000 10.29 260 23:20 23.03.2021
1119 Clear 6 1021 81 6000 10.29 260 22:52 23.03.2021
1120 Clear 6 1021 87 6000 7.72 260 22:28 23.03.2021
1121 Clear 6 1021 87 6000 7.72 260 21:49 23.03.2021
1122 Clear 6 1021 87 5000 5.66 250 21:31 23.03.2021
1123 Clear 6 1021 87 5000 5.66 250 20:47 23.03.2021
1124 Clear 6 1021 87 5000 5.14 250 20:26 23.03.2021
1125 Clear 6 1021 87 5000 5.14 250 19:55 23.03.2021
1126 Clear 6 1021 81 6000 4.63 250 19:27 23.03.2021
1127 Clear 6 1021 81 6000 4.63 250 18:59 23.03.2021
1128 Clear 6 1021 81 6000 4.63 250 18:37 23.03.2021
1129 Clear 7 1021 81 7000 7.2 250 18:18 23.03.2021
1130 Clear 7 1021 81 7000 7.2 250 17:43 23.03.2021
1131 Clear 7 1021 81 7000 6.69 250 17:21 23.03.2021
1132 Clouds 7 1021 87 10000 7.72 260 16:26 23.03.2021
1133 Clouds 7 1021 87 10000 7.72 260 15:50 23.03.2021
1134 Clouds 7 1022 87 10000 6.69 270 15:23 23.03.2021
1135 Clouds 7 1022 87 10000 6.69 270 14:48 23.03.2021
1136 Clouds 8 1021 81 10000 7.2 250 14:19 23.03.2021
1137 Clouds 8 1021 81 10000 7.2 250 13:47 23.03.2021
1138 Clouds 8 1021 81 10000 6.17 260 13:24 23.03.2021
1139 Clouds 8 1021 81 10000 6.17 260 12:45 23.03.2021
1140 Clouds 7 1022 81 10000 6.69 260 12:26 23.03.2021
1141 Clouds 7 1022 81 10000 6.69 260 11:49 23.03.2021
1142 Clouds 7 1022 81 10000 6.69 260 11:49 23.03.2021
1143 Clouds 7 1021 84 10000 4.47 275 11:26 23.03.2021
1144 Clouds 6 1021 81 10000 4.63 260 10:42 23.03.2021
1145 Clouds 6 1021 81 10000 4.63 260 10:21 23.03.2021
1146 Clouds 6 1021 81 10000 4.63 260 09:51 23.03.2021
1147 Clouds 5 1021 87 10000 5.14 270 09:23 23.03.2021
1148 Clouds 5 1021 87 10000 5.14 270 08:55 23.03.2021
1149 Clouds 5 1021 87 10000 5.14 270 08:37 23.03.2021
1150 Clouds 5 1021 87 10000 5.14 270 08:37 23.03.2021
1151 Clouds 5 1021 89 10000 1.34 269 08:19 23.03.2021
1152 Clouds 5 1020 87 10000 6.17 270 07:27 23.03.2021
1153 Clouds 5 1020 87 10000 6.17 270 06:53 23.03.2021
1154 Clouds 5 1021 93 8000 6.17 270 03:57 23.03.2021
1155 Clouds 5 1021 87 10000 8.23 270 03:18 23.03.2021
1156 Clouds 5 1021 87 10000 6.69 280 23:56 22.03.2021
1157 Clouds 5 1021 81 10000 7.2 280 23:21 22.03.2021
1158 Clouds 5 1021 81 10000 7.2 280 22:44 22.03.2021
1159 Clouds 5 1021 87 10000 7.2 290 22:21 22.03.2021
1160 Clouds 5 1021 87 10000 7.2 290 21:51 22.03.2021
1161 Clouds 5 1021 87 10000 6.69 300 21:27 22.03.2021
1162 Clouds 5 1021 87 10000 6.69 300 20:49 22.03.2021
1163 Clouds 6 1021 81 10000 8.23 290 20:29 22.03.2021
1164 Clouds 6 1021 81 10000 8.23 290 19:58 22.03.2021
1165 Clouds 6 1021 81 10000 8.23 290 19:40 22.03.2021
1166 Clouds 6 1020 81 10000 7.72 300 19:21 22.03.2021
1167 Clouds 6 1020 81 10000 7.72 300 18:42 22.03.2021
1168 Clouds 6 1020 87 10000 8.23 310 18:23 22.03.2021
1169 Clouds 6 1020 87 10000 8.23 310 17:51 22.03.2021
1170 Clouds 6 1020 87 10000 8.75 300 17:23 22.03.2021
1171 Clouds 6 1020 87 10000 8.75 300 16:58 22.03.2021
1172 Clouds 6 1020 87 10000 8.75 300 16:39 22.03.2021
1173 Clouds 7 1020 76 10000 9.77 310 15:55 22.03.2021
1174 Clouds 7 1020 76 10000 9.77 310 15:37 22.03.2021
1175 Clouds 8 1019 84 10000 4.47 283 15:18 22.03.2021
1176 Clouds 8 1019 84 10000 4.47 283 15:18 22.03.2021
1177 Clouds 8 1020 71 10000 7.2 290 14:44 22.03.2021
1178 Clouds 8 1020 71 10000 7.2 290 14:24 22.03.2021
1179 Clouds 7 1020 76 10000 4.12 280 13:38 22.03.2021
1180 Clouds 7 1020 76 10000 4.12 280 13:18 22.03.2021
1181 Clouds 8 1020 70 10000 4.12 320 12:41 22.03.2021
1182 Clouds 7 1020 70 10000 4.12 320 12:19 22.03.2021
1183 Clouds 7 1020 75 10000 6.69 320 11:44 22.03.2021
1184 Clouds 7 1020 75 10000 6.69 320 11:21 22.03.2021
1185 Clouds 6 1020 75 10000 6.69 320 10:43 22.03.2021
1186 Clouds 6 1020 81 10000 6.17 330 10:24 22.03.2021
1187 Clouds 5 1020 81 10000 6.17 330 09:39 22.03.2021
1188 Clouds 4 1020 93 10000 3.09 320 09:21 22.03.2021
1189 Clouds 4 1020 93 10000 3.09 320 08:43 22.03.2021
1190 Clouds 3 1019 93 10000 7.2 330 08:24 22.03.2021
1191 Clouds 3 1019 93 10000 7.2 330 07:44 22.03.2021
1192 Clouds 2 1019 100 6000 6.69 330 06:57 22.03.2021
1193 Clouds 2 1019 100 6000 6.69 330 06:35 22.03.2021
1194 Clouds 1 1018 100 10000 4.12 320 02:33 22.03.2021
1195 Clouds 1 1018 87 10000 5.66 320 00:33 22.03.2021
1196 Clouds 1 1018 87 10000 4.12 310 23:54 21.03.2021
1197 Clouds 1 1018 87 10000 5.66 320 23:20 21.03.2021
1198 Clouds 1 1018 87 10000 5.66 320 23:20 21.03.2021
1199 Clouds 2 1018 87 10000 5.66 320 22:56 21.03.2021
1200 Clouds 3 1018 81 10000 4.63 310 22:20 21.03.2021
1201 Clouds 3 1018 81 10000 4.63 310 21:41 21.03.2021
1202 Clouds 3 1017 81 10000 5.66 320 21:22 21.03.2021
1203 Clouds 3 1017 81 10000 5.66 320 20:44 21.03.2021
1204 Clouds 4 1017 75 10000 5.66 330 20:26 21.03.2021
1205 Clouds 4 1017 75 10000 5.66 330 19:56 21.03.2021
1206 Clouds 5 1016 70 10000 7.72 320 19:23 21.03.2021
1207 Clouds 5 1016 70 10000 7.72 320 18:53 21.03.2021
1208 Clouds 5 1016 65 10000 9.77 310 18:31 21.03.2021
1209 Clouds 6 1016 65 10000 9.77 310 17:49 21.03.2021
1210 Clouds 7 1016 61 10000 8.23 330 17:22 21.03.2021
1211 Clouds 7 1016 61 10000 8.23 330 16:59 21.03.2021
1212 Clouds 7 1016 61 10000 8.23 330 16:41 21.03.2021
1213 Clouds 8 1016 53 10000 7.2 330 16:22 21.03.2021
1214 Clouds 8 1016 53 10000 7.2 330 15:41 21.03.2021
1215 Clouds 9 1016 46 10000 7.72 340 15:20 21.03.2021
1216 Clouds 9 1016 46 10000 7.72 340 14:46 21.03.2021
1217 Clouds 9 1016 53 10000 7.2 330 14:27 21.03.2021
1218 Clouds 9 1016 53 10000 7.2 330 13:55 21.03.2021
1219 Clouds 9 1016 53 10000 7.2 330 13:33 21.03.2021
1220 Clouds 9 1016 57 10000 7.2 340 12:42 21.03.2021
1221 Clouds 8 1016 57 10000 6.69 350 12:24 21.03.2021
1222 Clouds 8 1016 57 10000 6.69 350 11:41 21.03.2021
1223 Clouds 7 1016 61 10000 9.26 350 11:20 21.03.2021
1224 Clouds 7 1016 61 10000 9.26 350 10:44 21.03.2021
1225 Clouds 6 1015 70 10000 10.8 350 10:26 21.03.2021
1226 Clouds 5 1015 70 10000 10.8 350 09:47 21.03.2021
1227 Clouds 5 1014 70 10000 9.26 340 09:29 21.03.2021
1228 Clouds 5 1014 70 10000 9.26 340 08:54 21.03.2021
1229 Clouds 4 1013 75 10000 11.32 330 08:28 21.03.2021
1230 Clouds 4 1013 75 10000 11.32 330 07:50 21.03.2021
1231 Clouds 3 1012 81 10000 10.29 320 07:23 21.03.2021
1232 Clouds 4 1012 75 10000 11.32 320 05:59 21.03.2021
1233 Clouds 5 1012 100 8000 12.86 300 02:48 21.03.2021
1234 Clouds 5 1014 93 10000 12.86 290 00:57 21.03.2021
1235 Clouds 5 1014 93 10000 12.86 290 00:37 21.03.2021
1236 Clouds 5 1015 93 8000 11.32 290 00:19 21.03.2021
1237 Clouds 5 1015 93 8000 11.32 290 23:42 20.03.2021
1238 Clouds 5 1016 93 10000 10.8 280 23:19 20.03.2021
1239 Clouds 5 1016 93 6000 12.35 290 22:24 20.03.2021
1240 Clouds 5 1016 93 6000 12.35 290 21:49 20.03.2021
1241 Clouds 5 1017 93 10000 11.83 290 21:27 20.03.2021
1242 Clouds 5 1017 93 10000 11.83 290 20:58 20.03.2021
1243 Clouds 5 1017 93 10000 11.83 290 20:39 20.03.2021
1244 Clouds 5 1018 93 7000 11.83 290 20:21 20.03.2021
1245 Clouds 5 1018 93 7000 11.83 290 19:41 20.03.2021
1246 Clouds 5 1018 93 10000 12.35 290 19:22 20.03.2021
1247 Clouds 5 1018 93 10000 12.35 290 18:45 20.03.2021
1248 Clouds 5 1018 93 10000 12.35 290 18:45 20.03.2021
1249 Clouds 5 1018 87 10000 10.8 290 18:21 20.03.2021
1250 Clouds 5 1018 87 10000 10.8 290 17:44 20.03.2021
1251 Clouds 5 1019 87 10000 11.83 280 17:23 20.03.2021
1252 Clouds 5 1019 87 10000 11.83 280 16:44 20.03.2021
1253 Clouds 6 1020 87 10000 10.8 280 16:20 20.03.2021
1254 Clouds 6 1020 87 10000 10.8 280 15:54 20.03.2021
1255 Clouds 6 1020 87 10000 10.8 280 15:33 20.03.2021
1256 Clouds 5 1021 93 10000 10.29 280 14:42 20.03.2021
1257 Clouds 5 1022 93 4100 9.77 260 14:22 20.03.2021
1258 Clouds 5 1022 93 4100 9.77 260 13:32 20.03.2021
1259 Clouds 5 1023 93 5000 9.77 260 12:51 20.03.2021
1260 Clouds 4 1024 87 10000 9.26 260 12:26 20.03.2021
1261 Clouds 4 1024 87 10000 9.26 260 11:45 20.03.2021
1262 Clouds 4 1024 81 10000 8.75 260 11:27 20.03.2021
1263 Clouds 4 1024 81 10000 8.75 260 10:55 20.03.2021
1264 Clouds 4 1025 81 10000 7.2 250 10:28 20.03.2021
1265 Clouds 4 1025 81 10000 7.2 250 09:56 20.03.2021
1266 Clouds 3 1025 81 10000 6.69 250 09:27 20.03.2021
1267 Clouds 3 1025 81 10000 6.69 250 08:56 20.03.2021
1268 Clouds 2 1026 86 10000 6.17 240 08:30 20.03.2021
1269 Clouds 2 1026 86 10000 6.17 240 08:30 20.03.2021
1270 Clouds 1 1026 86 10000 6.17 240 07:52 20.03.2021
1271 Clouds 1 1026 80 10000 5.14 230 07:31 20.03.2021
1272 Clouds 0 1026 80 10000 5.14 230 06:52 20.03.2021
1273 Clouds 0 1027 74 10000 3.6 220 06:19 20.03.2021
1274 Clouds -2 1028 74 10000 3.09 260 03:59 20.03.2021
1275 Clouds -2 1028 74 10000 3.09 260 03:41 20.03.2021
1276 Clouds -3 1029 74 10000 0.51 20 00:18 20.03.2021
1277 Clouds -3 1029 74 10000 2.06 40 23:31 19.03.2021
1278 Clouds -3 1029 74 10000 2.06 40 22:50 19.03.2021
1279 Clouds -3 1029 74 10000 2.57 50 22:29 19.03.2021
1280 Clouds -2 1029 74 10000 2.57 50 21:58 19.03.2021
1281 Clouds -2 1029 69 10000 3.6 40 21:22 19.03.2021
1282 Clouds -1 1029 69 10000 3.6 40 20:59 19.03.2021
1283 Clouds -1 1029 69 10000 3.6 40 20:40 19.03.2021
1284 Clouds 0 1028 55 10000 4.12 30 20:22 19.03.2021
1285 Clouds 0 1028 55 10000 4.12 30 19:46 19.03.2021
1286 Clouds 1 1028 55 10000 6.17 20 19:20 19.03.2021
1287 Clouds 2 1028 55 10000 6.17 20 18:41 19.03.2021
1288 Clouds 2 1028 70 10000 1.03 20 18:20 19.03.2021
1289 Clouds 3 1028 70 10000 1.03 20 17:55 19.03.2021
1290 Clouds 2 1028 75 10000 3.09 100 17:32 19.03.2021
1291 Clouds 3 1028 75 10000 3.09 100 16:55 19.03.2021
1292 Clouds 4 1028 60 10000 3.6 40 16:31 19.03.2021
1293 Clouds 4 1028 60 10000 3.6 40 16:31 19.03.2021
1294 Clouds 4 1028 60 10000 3.6 40 15:58 19.03.2021
1295 Clouds 4 1027 60 10000 3.09 40 15:28 19.03.2021
1296 Clouds 4 1027 60 10000 3.09 40 14:48 19.03.2021
1297 Clouds 4 1028 70 10000 3.6 70 14:28 19.03.2021
1298 Clouds 4 1028 70 10000 3.6 70 13:42 19.03.2021
1299 Clouds 4 1027 70 10000 4.63 90 13:18 19.03.2021
1300 Clouds 4 1027 70 10000 4.63 90 12:38 19.03.2021
1301 Clouds 3 1026 75 10000 4.12 90 11:49 19.03.2021
1302 Clouds 4 1026 75 10000 4.63 90 10:59 19.03.2021
1303 Clouds 4 1026 75 10000 4.63 90 10:40 19.03.2021
1304 Clouds 3 1025 81 10000 2.57 60 10:19 19.03.2021
1305 Clouds 3 1025 81 10000 2.57 60 09:43 19.03.2021
1306 Clouds 2 1024 86 10000 3.6 50 09:22 19.03.2021
1307 Clouds 2 1024 86 10000 3.6 50 08:47 19.03.2021
1308 Snow 1 1024 80 10000 1.03 30 08:25 19.03.2021
1309 Snow 1 1024 80 10000 1.03 30 07:43 19.03.2021
1310 Clear 0 1023 75 10000 5.14 30 06:58 19.03.2021
1311 Clear -1 1022 80 10000 3.09 350 05:19 19.03.2021
1312 Clouds 0 1021 86 10000 3.6 40 00:58 19.03.2021
1313 Clouds 0 1021 86 10000 2.06 30 23:51 18.03.2021
1314 Clouds 0 1021 86 10000 2.06 10 23:27 18.03.2021
1315 Clouds -1 1021 86 10000 2.06 10 22:44 18.03.2021
1316 Clouds -1 1021 86 10000 2.06 10 22:44 18.03.2021
1317 Clouds 0 1021 80 10000 2.06 30 22:25 18.03.2021
1318 Clouds 0 1021 80 10000 2.06 30 21:40 18.03.2021
1319 Clouds 1 1020 75 10000 1.54 20 21:21 18.03.2021
1320 Clouds 1 1020 75 10000 1.54 20 20:39 18.03.2021
1321 Clouds 2 1020 65 10000 2.57 30 20:20 18.03.2021
1322 Clouds 3 1020 65 10000 2.57 30 19:42 18.03.2021
1323 Clouds 4 1020 52 10000 4.12 30 19:22 18.03.2021
1324 Clouds 5 1020 52 10000 4.12 30 18:41 18.03.2021
1325 Clouds 6 1020 45 10000 2.57 40 17:55 18.03.2021
1326 Clouds 6 1020 45 10000 3.09 40 17:27 18.03.2021
1327 Clouds 6 1020 45 10000 3.09 40 16:54 18.03.2021
1328 Clouds 6 1020 45 10000 3.09 40 16:35 18.03.2021
1329 Clouds 6 1021 39 10000 5.14 40 15:59 18.03.2021
1330 Clouds 7 1021 39 10000 5.14 40 15:41 18.03.2021
1331 Clouds 7 1021 42 10000 4.63 40 15:19 18.03.2021
1332 Clouds 7 1021 42 10000 4.63 40 15:19 18.03.2021
1333 Clouds 7 1021 42 10000 4.63 40 14:45 18.03.2021
1334 Clouds 7 1022 39 10000 4.12 30 14:19 18.03.2021
1335 Clouds 7 1022 39 10000 4.12 30 13:40 18.03.2021
1336 Clouds 7 1022 42 10000 3.6 30 13:21 18.03.2021
1337 Clouds 6 1022 42 10000 3.6 30 12:38 18.03.2021
1338 Clouds 6 1022 52 10000 3.09 30 12:19 18.03.2021
1339 Clouds 6 1022 52 10000 3.09 30 11:45 18.03.2021
1340 Clouds 5 1023 70 10000 2.06 40 11:25 18.03.2021
1341 Clouds 5 1023 70 10000 2.06 40 10:42 18.03.2021
1342 Clouds 4 1023 87 10000 3.91 18 10:23 18.03.2021
1343 Clouds 3 1023 87 10000 3.91 18 09:53 18.03.2021
1344 Clouds 3 1023 93 8000 3.52 18 09:27 18.03.2021
1345 Clouds 1 1023 93 8000 3.52 18 08:46 18.03.2021
1346 Clouds 0 1023 100 7000 1.54 300 08:26 18.03.2021
1347 Clouds 0 1023 100 7000 1.54 300 07:48 18.03.2021
1348 Clouds -1 1023 100 7000 1.03 0 06:54 18.03.2021
1349 Clouds 0 1023 93 10000 1.54 300 06:27 18.03.2021
1350 Clouds 0 1023 93 10000 1.54 300 05:40 18.03.2021
1351 Clouds 1 1025 93 6000 1.54 280 00:57 18.03.2021
1352 Clouds 1 1025 93 10000 1.54 310 23:58 17.03.2021
1353 Clouds 2 1025 93 10000 2.06 300 22:44 17.03.2021
1354 Clouds 3 1025 81 10000 2.57 300 22:25 17.03.2021
1355 Clouds 3 1025 81 10000 2.57 300 21:55 17.03.2021
1356 Clouds 3 1025 81 10000 2.57 300 21:33 17.03.2021
1357 Clouds 3 1025 81 10000 2.57 300 21:33 17.03.2021
1358 Clouds 3 1025 81 10000 3.6 330 20:58 17.03.2021
1359 Clouds 3 1025 81 10000 3.6 330 20:40 17.03.2021
1360 Clouds 4 1025 75 10000 4.12 330 20:21 17.03.2021
1361 Clouds 5 1025 75 10000 4.12 330 19:44 17.03.2021
1362 Clouds 5 1025 65 10000 4.63 330 19:21 17.03.2021
1363 Clouds 5 1025 65 10000 4.63 330 18:54 17.03.2021
1364 Clouds 5 1025 65 10000 4.63 330 18:36 17.03.2021
1365 Clouds 7 1024 46 10000 2.06 20 17:48 17.03.2021
1366 Clouds 7 1025 46 10000 2.06 20 17:26 17.03.2021
1367 Clouds 8 1025 46 10000 2.06 20 16:46 17.03.2021
1368 Clouds 7 1025 57 10000 1.54 20 16:25 17.03.2021
1369 Clouds 7 1025 57 10000 1.54 20 15:56 17.03.2021
1370 Clouds 8 1025 57 10000 1.54 20 15:36 17.03.2021
1371 Clouds 7 1025 65 10000 2.06 30 14:45 17.03.2021
1372 Clear 6 1024 81 10000 2.06 20 14:27 17.03.2021
1373 Clear 5 1024 81 10000 2.06 20 13:55 17.03.2021
1374 Clear 4 1024 87 10000 2.57 40 13:31 17.03.2021
1375 Clouds 5 1024 87 10000 2.57 40 12:54 17.03.2021
1376 Clouds 5 1024 87 10000 2.57 40 12:34 17.03.2021
1377 Clouds 5 1024 81 10000 3.09 40 11:51 17.03.2021
1378 Clouds 3 1023 93 5000 1.54 340 11:23 17.03.2021
1379 Clouds 3 1023 93 5000 1.54 340 10:55 17.03.2021
1380 Clouds 2 1023 93 5000 1.54 340 10:34 17.03.2021
1381 Clouds 1 1023 93 6000 1.54 20 09:50 17.03.2021
1382 Clouds 1 1022 93 10000 2.57 320 09:32 17.03.2021
1383 Clouds 1 1022 93 10000 2.57 320 09:00 17.03.2021
1384 Clouds 1 1022 93 10000 2.57 320 08:39 17.03.2021
1385 Clouds -1 1022 93 10000 1.54 340 08:20 17.03.2021
1386 Clouds -1 1022 93 10000 1.54 340 07:36 17.03.2021
1387 Clear -1 1021 93 10000 2.06 310 06:47 17.03.2021
1388 Clear -1 1020 93 10000 2.06 320 04:27 17.03.2021
1389 Clear 0 1020 86 10000 4.12 330 03:30 17.03.2021
1390 Clear 0 1020 86 10000 3.6 290 00:43 17.03.2021
1391 Clear 1 1020 80 10000 3.6 290 00:20 17.03.2021
1392 Clear 1 1020 87 10000 4.12 290 23:22 16.03.2021
1393 Clear 1 1020 87 10000 4.12 290 22:44 16.03.2021
1394 Clear 1 1020 80 10000 4.12 290 22:25 16.03.2021
1395 Clear 1 1020 80 10000 4.12 290 21:43 16.03.2021
1396 Clear 2 1020 75 10000 4.63 300 21:25 16.03.2021
1397 Clear 2 1020 75 10000 4.63 300 20:56 16.03.2021
1398 Clear 2 1019 81 10000 6.17 300 20:19 16.03.2021
1399 Clear 3 1019 81 10000 6.17 300 19:48 16.03.2021
1400 Clouds 3 1019 70 10000 7.72 310 19:28 16.03.2021
1401 Clouds 4 1019 70 10000 7.72 310 18:56 16.03.2021
1402 Clouds 4 1019 70 10000 7.72 310 18:36 16.03.2021
1403 Clouds 5 1018 65 10000 8.23 310 17:59 16.03.2021
1404 Clouds 5 1018 65 10000 8.23 310 17:40 16.03.2021
1405 Clouds 6 1018 65 10000 8.75 300 17:20 16.03.2021
1406 Clouds 6 1018 65 10000 8.75 300 16:46 16.03.2021
1407 Clouds 6 1018 70 10000 8.75 290 16:25 16.03.2021
1408 Clouds 6 1018 70 10000 8.75 290 15:45 16.03.2021
1409 Clouds 7 1018 65 10000 6.69 300 15:20 16.03.2021
1410 Clouds 7 1018 65 10000 6.69 300 14:57 16.03.2021
1411 Clouds 7 1018 65 10000 6.69 300 14:38 16.03.2021
1412 Clouds 7 1018 65 10000 6.17 320 14:18 16.03.2021
1413 Clouds 7 1018 65 10000 6.17 320 13:44 16.03.2021
1414 Clear 7 1018 65 10000 5.66 320 13:21 16.03.2021
1415 Clear 7 1018 65 10000 5.66 320 13:21 16.03.2021
1416 Clear 7 1018 65 10000 5.66 320 12:46 16.03.2021
1417 Clear 7 1018 70 10000 7.2 330 12:27 16.03.2021
1418 Clear 7 1018 70 10000 7.2 330 11:38 16.03.2021
1419 Clear 6 1017 75 10000 6.69 330 10:59 16.03.2021
1420 Clear 5 1017 87 10000 6.17 320 10:27 16.03.2021
1421 Clear 4 1017 87 10000 6.17 320 09:48 16.03.2021
1422 Clear 4 1017 87 10000 6.17 310 09:29 16.03.2021
1423 Clear 4 1017 87 10000 6.17 310 09:29 16.03.2021
1424 Clear 3 1017 87 10000 6.17 310 08:58 16.03.2021
1425 Clear 3 1017 87 10000 6.17 310 08:40 16.03.2021
1426 Clear 3 1016 93 10000 6.17 310 08:19 16.03.2021
1427 Clear 3 1016 93 10000 6.17 310 07:35 16.03.2021
1428 Clear 3 1016 100 9000 5.14 300 06:39 16.03.2021
1429 Clear 2 1015 100 750 4.63 290 05:52 16.03.2021
1430 Clear 2 1015 100 750 4.63 290 05:34 16.03.2021
1431 Clear 1 1014 93 10000 3.6 280 02:45 16.03.2021
1432 Clear 0 1014 100 10000 4.63 310 02:24 16.03.2021
1433 Clear 1 1013 80 10000 4.12 310 23:58 15.03.2021
1434 Clear 2 1013 75 10000 5.14 330 23:29 15.03.2021
1435 Clear 2 1013 75 10000 5.14 330 23:29 15.03.2021
1436 Clear 2 1013 75 10000 5.14 330 22:53 15.03.2021
1437 Clear 2 1013 75 10000 5.14 330 22:34 15.03.2021
1438 Clear 3 1011 75 10000 5.66 330 21:55 15.03.2021
1439 Clear 3 1011 75 10000 5.66 330 21:36 15.03.2021
1440 Clouds 3 1011 70 10000 6.69 340 21:18 15.03.2021
1441 Clouds 3 1011 70 10000 6.69 340 20:40 15.03.2021
1442 Clouds 4 1010 75 10000 4.12 330 20:22 15.03.2021
1443 Clouds 4 1010 75 10000 4.12 330 19:51 15.03.2021
1444 Clouds 4 1010 75 10000 4.12 330 19:33 15.03.2021
1445 Clouds 6 1009 65 10000 6.17 360 18:57 15.03.2021
1446 Clouds 6 1007 70 10000 10.8 350 18:32 15.03.2021
1447 Clouds 6 1007 70 10000 10.8 350 17:56 15.03.2021
1448 Clouds 6 1007 70 10000 10.8 350 17:33 15.03.2021
1449 Clouds 6 1006 75 10000 10.8 340 16:56 15.03.2021
1450 Clouds 6 1006 75 10000 10.8 340 16:35 15.03.2021
1451 Clouds 6 1005 75 10000 10.8 330 15:47 15.03.2021
1452 Clouds 6 1004 81 10000 8.75 340 15:27 15.03.2021
1453 Clouds 6 1004 81 10000 8.75 340 14:45 15.03.2021
1454 Clouds 6 1004 81 10000 8.75 340 14:45 15.03.2021
1455 Clouds 6 1003 75 10000 9.77 340 14:27 15.03.2021
1456 Clouds 6 1003 75 10000 9.77 340 13:55 15.03.2021
1457 Clouds 6 1003 75 10000 9.77 340 13:34 15.03.2021
1458 Clouds 6 1002 75 10000 11.32 340 12:51 15.03.2021
1459 Clouds 6 1001 87 10000 8.23 330 12:20 15.03.2021
1460 Clouds 6 1001 87 10000 8.23 330 11:58 15.03.2021
1461 Clouds 5 1001 87 10000 8.23 330 11:40 15.03.2021
1462 Clouds 5 1000 87 10000 10.29 320 11:21 15.03.2021
1463 Clouds 5 1000 87 10000 10.29 320 10:39 15.03.2021
1464 Clouds 5 1000 93 10000 10.29 300 10:21 15.03.2021
1465 Clouds 5 1000 93 10000 10.29 300 09:40 15.03.2021
1466 Clouds 5 999 93 9000 11.32 290 09:21 15.03.2021
1467 Clouds 5 999 93 9000 11.32 290 08:45 15.03.2021
1468 Clouds 5 999 87 10000 10.8 280 08:22 15.03.2021
1469 Clouds 5 999 87 10000 10.8 280 07:34 15.03.2021
1470 Clouds 5 999 93 10000 12.35 270 06:52 15.03.2021
1471 Clouds 5 1000 93 4200 10.8 260 05:37 15.03.2021
1472 Clouds 5 1001 81 10000 9.26 260 03:20 15.03.2021
1473 Clouds 5 1002 87 10000 8.23 260 00:42 15.03.2021
1474 Clouds 5 1003 81 10000 8.75 260 23:24 14.03.2021
1475 Clouds 5 1003 81 10000 8.75 260 22:50 14.03.2021
1476 Clouds 5 1003 81 10000 10.8 270 22:28 14.03.2021
1477 Clouds 5 1003 81 10000 10.8 270 21:56 14.03.2021
1478 Clouds 5 1003 81 10000 10.8 270 21:38 14.03.2021
1479 Clouds 5 1003 87 10000 9.26 260 21:18 14.03.2021
1480 Clouds 5 1003 87 10000 9.26 260 20:41 14.03.2021
1481 Clouds 5 1003 87 10000 9.77 270 20:23 14.03.2021
1482 Clouds 5 1003 87 10000 9.77 270 19:42 14.03.2021
1483 Clouds 5 1003 87 10000 10.29 280 19:19 14.03.2021
1484 Clouds 5 1003 87 10000 10.29 280 18:37 14.03.2021
1485 Clouds 6 1002 81 10000 10.29 290 17:56 14.03.2021
1486 Clouds 6 1002 81 10000 10.29 290 17:37 14.03.2021
1487 Clouds 6 1002 87 10000 11.83 280 17:19 14.03.2021
1488 Clouds 6 1002 87 10000 11.83 280 16:41 14.03.2021
1489 Clouds 6 1002 75 10000 12.35 290 16:21 14.03.2021
1490 Clouds 6 1002 75 10000 12.35 290 15:48 14.03.2021
1491 Clouds 7 1002 75 10000 11.83 280 15:24 14.03.2021
1492 Clouds 7 1002 75 10000 11.83 280 14:40 14.03.2021
1493 Clouds 8 1002 70 10000 11.83 290 14:20 14.03.2021
1494 Clouds 8 1002 70 10000 11.83 290 13:45 14.03.2021
1495 Clouds 8 1001 70 10000 11.83 280 13:26 14.03.2021
1496 Clouds 8 1001 70 10000 11.83 280 12:43 14.03.2021
1497 Clouds 7 1001 70 10000 9.26 290 12:23 14.03.2021
1498 Clouds 7 1001 70 10000 9.26 290 11:41 14.03.2021
1499 Clouds 7 1000 81 10000 10.29 290 11:22 14.03.2021
1500 Clouds 6 1000 81 10000 10.29 290 10:38 14.03.2021
1501 Clear 6 999 87 10000 7.72 290 10:20 14.03.2021
1502 Clear 6 999 87 10000 7.72 290 09:59 14.03.2021
1503 Clear 6 999 87 10000 7.72 290 09:41 14.03.2021
1504 Clear 5 998 87 10000 6.69 290 09:20 14.03.2021
1505 Clear 4 998 87 10000 6.69 290 08:40 14.03.2021
1506 Clouds 3 997 87 10000 5.66 310 07:59 14.03.2021
1507 Clouds 3 997 87 10000 5.66 310 07:33 14.03.2021
1508 Clouds 3 994 87 10000 8.23 330 05:42 14.03.2021
1509 Clouds 4 988 93 10000 8.23 310 01:35 14.03.2021
1510 Clouds 4 986 93 10000 7.2 310 00:49 14.03.2021
1511 Clouds 3 985 100 10000 7.2 300 00:18 14.03.2021
1512 Clouds 3 985 100 10000 7.2 300 23:42 13.03.2021
1513 Clouds 3 983 100 10000 5.14 310 23:20 13.03.2021
1514 Clouds 2 983 100 10000 5.14 310 22:49 13.03.2021
1515 Clouds 2 981 100 2400 2.06 310 22:25 13.03.2021
1516 Clouds 2 981 100 2400 2.06 310 21:40 13.03.2021
1517 Clouds 2 981 100 2400 2.06 310 21:40 13.03.2021
1518 Clouds 2 980 100 9000 2.06 270 21:19 13.03.2021
1519 Clouds 1 980 100 9000 2.06 270 20:48 13.03.2021
1520 Rain 1 980 100 10000 4.12 170 20:28 13.03.2021
1521 Clouds 1 980 100 10000 4.12 170 19:45 13.03.2021
1522 Rain 2 980 93 5000 6.17 200 19:27 13.03.2021
1523 Rain 3 980 93 5000 6.17 200 18:43 13.03.2021
1524 Rain 4 981 75 10000 7.2 200 18:21 13.03.2021
1525 Rain 5 981 75 10000 7.2 200 17:56 13.03.2021
1526 Rain 5 981 75 10000 7.2 200 17:35 13.03.2021
1527 Clouds 6 982 75 10000 7.72 230 16:59 13.03.2021
1528 Rain 6 982 75 10000 7.72 230 16:39 13.03.2021
1529 Clouds 6 983 70 10000 7.2 230 15:58 13.03.2021
1530 Clouds 6 983 81 10000 8.23 240 15:25 13.03.2021
1531 Clouds 6 983 81 10000 8.23 240 14:47 13.03.2021
1532 Clouds 6 984 75 10000 11.32 250 14:25 13.03.2021
1533 Clouds 6 984 75 10000 11.32 250 13:46 13.03.2021
1534 Clouds 6 984 81 10000 7.72 230 13:23 13.03.2021
1535 Clouds 6 984 81 10000 7.72 230 12:43 13.03.2021
1536 Clouds 4 984 93 6000 7.72 170 12:20 13.03.2021
1537 Rain 3 984 93 6000 7.72 170 11:46 13.03.2021
1538 Rain 3 985 87 4700 8.23 150 11:28 13.03.2021
1539 Rain 4 985 87 4700 8.23 150 10:50 13.03.2021
1540 Rain 4 987 93 6000 6.69 160 10:29 13.03.2021
1541 Rain 4 987 93 6000 6.69 160 09:47 13.03.2021
1542 Rain 4 988 87 10000 5.66 170 08:59 13.03.2021
1543 Rain 4 988 87 10000 5.66 170 08:41 13.03.2021
1544 Rain 4 989 87 10000 6.69 180 08:19 13.03.2021
1545 Clouds 4 989 87 10000 6.69 180 07:46 13.03.2021
1546 Clear 4 992 93 10000 6.17 210 06:18 13.03.2021
1547 Clouds 4 993 93 10000 6.17 230 02:54 13.03.2021
1548 Clouds 4 993 93 10000 9.77 260 00:56 13.03.2021
1549 Clouds 4 993 93 10000 8.75 270 23:57 12.03.2021
1550 Clouds 4 993 93 10000 7.72 250 23:32 12.03.2021
1551 Rain 4 993 93 10000 7.72 250 22:43 12.03.2021
1552 Clouds 4 993 93 10000 7.72 230 22:23 12.03.2021
1553 Clouds 4 993 93 10000 7.72 230 21:45 12.03.2021
1554 Clouds 4 993 93 10000 5.66 210 21:26 12.03.2021
1555 Clouds 3 993 93 10000 5.66 210 20:56 12.03.2021
1556 Clouds 3 993 93 10000 5.66 210 20:32 12.03.2021
1557 Rain 3 994 93 7000 6.17 220 19:59 12.03.2021
1558 Rain 3 994 93 7000 6.17 220 19:40 12.03.2021
1559 Rain 3 994 93 7000 6.17 220 19:40 12.03.2021
1560 Rain 4 994 93 3600 5.14 200 19:22 12.03.2021
1561 Rain 5 994 93 3600 5.14 200 18:36 12.03.2021
1562 Rain 5 995 87 10000 6.17 220 17:58 12.03.2021
1563 Clouds 5 995 87 10000 6.17 220 17:38 12.03.2021
1564 Clouds 5 996 87 10000 7.2 230 17:20 12.03.2021
1565 Clouds 5 996 87 10000 7.2 230 16:42 12.03.2021
1566 Clouds 6 996 75 10000 9.77 240 15:52 12.03.2021
1567 Clouds 6 996 75 10000 9.77 240 15:32 12.03.2021
1568 Clouds 6 997 81 10000 10.29 240 14:49 12.03.2021
1569 Clouds 6 997 81 10000 11.32 250 14:21 12.03.2021
1570 Clouds 6 997 81 10000 11.32 250 13:45 12.03.2021
1571 Clouds 6 997 70 10000 12.86 250 13:24 12.03.2021
1572 Clouds 7 997 70 10000 12.86 250 12:59 12.03.2021
1573 Clouds 7 997 70 10000 12.86 250 12:41 12.03.2021
1574 Clouds 6 997 75 10000 13.38 250 12:20 12.03.2021
1575 Clouds 6 997 75 10000 13.38 250 11:51 12.03.2021
1576 Clouds 6 997 75 10000 14.4 250 11:23 12.03.2021
1577 Clouds 6 997 75 10000 14.4 250 10:54 12.03.2021
1578 Clouds 6 997 81 10000 12.86 250 10:26 12.03.2021
1579 Clouds 5 997 81 10000 12.86 250 09:56 12.03.2021
1580 Clouds 5 996 81 10000 12.35 260 09:26 12.03.2021
1581 Clouds 5 996 81 10000 12.35 260 08:46 12.03.2021
1582 Clouds 5 995 81 10000 12.35 260 07:58 12.03.2021
1583 Clouds 5 995 81 10000 12.35 260 07:34 12.03.2021
1584 Clouds 5 995 81 10000 13.38 270 06:54 12.03.2021
1585 Clouds 5 994 87 10000 13.89 270 06:28 12.03.2021
1586 Clouds 5 994 87 10000 13.89 270 06:28 12.03.2021
1587 Clouds 5 992 87 7000 11.32 260 02:49 12.03.2021
1588 Clouds 6 991 81 10000 11.32 260 00:47 12.03.2021
1589 Clouds 5 990 87 10000 11.32 260 23:31 11.03.2021
1590 Clouds 5 990 87 10000 11.32 260 22:51 11.03.2021
1591 Clouds 5 989 81 10000 13.89 260 22:30 11.03.2021
1592 Clouds 6 989 81 10000 13.89 260 21:55 11.03.2021
1593 Clouds 6 989 81 10000 13.89 260 21:36 11.03.2021
1594 Clouds 6 988 81 10000 14.92 270 21:18 11.03.2021
1595 Clouds 6 988 81 10000 14.92 270 20:41 11.03.2021
1596 Clouds 6 988 81 10000 15.43 270 20:19 11.03.2021
1597 Clouds 6 988 81 10000 15.43 270 19:45 11.03.2021
1598 Clouds 5 986 93 10000 18.01 270 19:26 11.03.2021
1599 Clouds 5 986 93 10000 18.01 270 18:47 11.03.2021
1600 Clouds 6 983 87 6000 22.64 270 18:29 11.03.2021
1601 Rain 6 983 87 6000 22.64 270 17:44 11.03.2021
1602 Rain 6 981 100 7000 13.89 250 16:54 11.03.2021
1603 Rain 6 981 87 6000 12.35 230 16:28 11.03.2021
1604 Clouds 7 981 87 6000 12.35 230 15:49 11.03.2021
1605 Rain 7 982 87 6000 13.38 220 15:22 11.03.2021
1606 Rain 8 982 87 6000 13.38 220 14:49 11.03.2021
1607 Rain 8 983 81 5000 15.43 240 14:20 11.03.2021
1608 Rain 8 983 81 5000 15.43 240 13:59 11.03.2021
1609 Rain 8 983 81 5000 15.43 240 13:38 11.03.2021
1610 Rain 8 984 81 5000 11.83 220 13:18 11.03.2021
1611 Rain 9 984 81 5000 11.83 220 12:43 11.03.2021
1612 Clouds 9 985 81 9000 11.32 220 12:25 11.03.2021
1613 Clouds 9 985 81 9000 11.32 220 11:43 11.03.2021
1614 Clouds 9 986 81 10000 11.32 210 11:25 11.03.2021
1615 Rain 8 986 81 10000 11.32 210 10:44 11.03.2021
1616 Clouds 8 986 87 10000 9.26 200 10:21 11.03.2021
1617 Clouds 8 986 87 10000 9.26 200 09:45 11.03.2021
1618 Clouds 7 987 87 3800 10.29 190 09:23 11.03.2021
1619 Clouds 7 987 87 3800 10.29 190 08:47 11.03.2021
1620 Clouds 6 989 93 3100 8.75 190 08:20 11.03.2021
1621 Clouds 6 989 93 3100 8.75 190 07:34 11.03.2021
1622 Clouds 6 991 87 10000 8.23 190 06:50 11.03.2021
1623 Clouds 6 991 87 10000 8.23 190 06:50 11.03.2021
1624 Clouds 5 992 93 5000 8.75 190 06:30 11.03.2021
1625 Rain 5 994 87 4500 10.8 190 04:44 11.03.2021
1626 Rain 5 1001 87 4100 9.77 170 01:23 11.03.2021
1627 Rain 5 1003 87 3100 8.75 160 23:50 10.03.2021
1628 Rain 5 1005 81 4800 8.75 160 23:20 10.03.2021
1629 Rain 5 1005 81 4800 8.75 160 22:39 10.03.2021
1630 Rain 5 1005 81 4800 8.75 160 22:39 10.03.2021
1631 Rain 5 1006 75 5000 8.23 160 21:47 10.03.2021
1632 Rain 5 1008 81 7000 8.23 160 21:26 10.03.2021
1633 Rain 5 1008 81 7000 8.23 160 20:58 10.03.2021
1634 Clouds 5 1008 81 7000 8.23 160 20:39 10.03.2021
1635 Rain 4 1009 87 6000 7.72 160 20:20 10.03.2021
1636 Rain 4 1009 87 6000 7.72 160 19:40 10.03.2021
1637 Clouds 4 1010 87 4700 7.2 170 19:20 10.03.2021
1638 Rain 4 1010 87 4700 7.2 170 18:38 10.03.2021
1639 Rain 4 1011 75 8000 7.72 180 18:19 10.03.2021
1640 Rain 4 1011 75 8000 7.72 180 17:42 10.03.2021
1641 Rain 5 1012 65 10000 6.69 180 17:20 10.03.2021
1642 Rain 5 1012 65 10000 6.69 180 16:53 10.03.2021
1643 Clouds 6 1012 61 10000 8.23 180 16:30 10.03.2021
1644 Clouds 6 1012 61 10000 8.23 180 15:59 10.03.2021
1645 Clouds 5 1012 61 10000 8.23 180 15:38 10.03.2021
1646 Clouds 6 1013 61 10000 6.69 180 15:20 10.03.2021
1647 Clouds 6 1013 61 10000 6.69 180 14:38 10.03.2021
1648 Clouds 6 1014 61 10000 7.2 180 14:19 10.03.2021
1649 Clouds 6 1014 61 10000 7.2 180 13:34 10.03.2021
1650 Clouds 5 1015 65 10000 5.66 170 12:53 10.03.2021
1651 Clouds 5 1015 65 10000 5.66 170 12:32 10.03.2021
1652 Clouds 3 1016 70 10000 5.14 180 11:58 10.03.2021
1653 Clouds 3 1016 64 10000 3.09 170 11:30 10.03.2021
1654 Clouds 2 1016 64 10000 3.09 170 10:56 10.03.2021
1655 Clouds 2 1016 64 10000 3.09 170 10:34 10.03.2021
1656 Clouds 1 1017 64 10000 3.6 160 09:58 10.03.2021
1657 Clouds 1 1017 64 10000 3.6 160 09:40 10.03.2021
1658 Clouds 0 1017 74 10000 5.66 150 09:20 10.03.2021
1659 Clouds 0 1017 74 10000 5.66 150 08:46 10.03.2021
1660 Clouds -1 1017 80 10000 5.14 160 08:28 10.03.2021
1661 Clouds -1 1017 80 10000 5.14 160 08:28 10.03.2021
1662 Clouds -1 1017 80 10000 5.14 160 07:48 10.03.2021
1663 Clouds -2 1017 93 8000 4.63 160 07:29 10.03.2021
1664 Clouds -2 1017 93 8000 4.63 160 06:54 10.03.2021
1665 Clear -2 1017 93 4600 3.6 160 05:59 10.03.2021
1666 Clear -3 1018 100 5000 3.6 130 02:26 10.03.2021
1667 Clouds -2 1018 93 9000 4.63 120 23:49 09.03.2021
1668 Clouds -1 1019 93 9000 3.6 110 22:59 09.03.2021
1669 Clouds -1 1019 93 9000 3.6 110 22:39 09.03.2021
1670 Clouds -1 1019 93 10000 3.09 100 22:18 09.03.2021
1671 Clouds -1 1019 93 10000 3.09 100 21:45 09.03.2021
1672 Clouds -1 1019 86 10000 2.57 100 21:24 09.03.2021
1673 Clouds -1 1019 86 10000 2.57 100 20:58 09.03.2021
1674 Clouds -1 1019 86 10000 2.57 100 20:39 09.03.2021
1675 Clouds 0 1019 80 10000 3.6 110 20:20 09.03.2021
1676 Clouds 1 1019 80 10000 3.6 110 19:46 09.03.2021
1677 Clouds 1 1018 69 10000 3.09 110 19:26 09.03.2021
1678 Clouds 2 1018 69 10000 3.09 110 18:48 09.03.2021
1679 Clouds 3 1018 60 10000 3.09 110 18:25 09.03.2021
1680 Clouds 3 1018 60 10000 3.09 110 17:51 09.03.2021
1681 Clouds 3 1018 70 10000 3.6 100 17:30 09.03.2021
1682 Clouds 4 1018 70 10000 3.6 100 16:55 09.03.2021
1683 Clouds 4 1018 70 10000 3.6 100 16:36 09.03.2021
1684 Clouds 5 1017 60 10000 3.6 80 16:18 09.03.2021
1685 Clouds 5 1017 60 10000 3.6 80 15:40 09.03.2021
1686 Clouds 6 1018 56 10000 3.09 90 15:20 09.03.2021
1687 Clouds 6 1018 52 10000 2.57 90 14:28 09.03.2021
1688 Clouds 5 1018 52 10000 2.57 90 13:57 09.03.2021
1689 Clouds 5 1018 52 10000 2.57 90 13:38 09.03.2021
1690 Clear 5 1018 48 10000 3.09 70 13:19 09.03.2021
1691 Clouds 5 1018 48 10000 3.09 70 12:39 09.03.2021
1692 Clouds 6 1018 45 10000 2.06 100 12:19 09.03.2021
1693 Clouds 5 1018 45 10000 2.06 100 11:42 09.03.2021
1694 Clouds 4 1018 52 10000 2.06 110 11:21 09.03.2021
1695 Clouds 4 1018 52 10000 2.06 110 10:55 09.03.2021
1696 Clouds 4 1018 52 10000 2.06 110 10:36 09.03.2021
1697 Clouds 2 1019 64 10000 2.06 140 10:18 09.03.2021
1698 Clouds 2 1019 64 10000 2.06 140 09:42 09.03.2021
1699 Clouds 0 1019 86 10000 1.54 110 09:23 09.03.2021
1700 Clouds -1 1019 86 10000 1.54 110 08:46 09.03.2021
1701 Clouds -2 1018 86 10000 2.06 120 08:23 09.03.2021
1702 Clouds -2 1018 86 10000 2.06 120 07:40 09.03.2021
1703 Clear -3 1018 80 10000 1.54 110 07:21 09.03.2021
1704 Clouds -4 1018 86 10000 1.03 90 05:55 09.03.2021
1705 Clouds -3 1018 86 10000 1.03 90 05:37 09.03.2021
1706 Clouds -1 1020 74 10000 3.09 140 00:34 09.03.2021
1707 Clouds -1 1021 74 10000 4.12 140 23:45 08.03.2021
1708 Clouds -1 1021 64 10000 5.14 140 23:27 08.03.2021
1709 Clouds -1 1021 64 10000 5.14 140 22:55 08.03.2021
1710 Clouds -1 1021 64 10000 5.14 140 22:36 08.03.2021
1711 Clouds -1 1021 55 10000 4.63 140 22:18 08.03.2021
1712 Clouds -1 1021 55 10000 4.63 140 21:35 08.03.2021
1713 Clouds 0 1022 47 10000 4.12 130 20:48 08.03.2021
1714 Clouds 0 1022 47 10000 3.6 130 20:28 08.03.2021
1715 Clouds 1 1022 47 10000 3.6 130 19:59 08.03.2021
1716 Clouds 1 1022 47 10000 3.6 130 19:38 08.03.2021
1717 Clouds 2 1022 48 10000 3.09 120 18:48 08.03.2021
1718 Clouds 3 1022 44 10000 2.57 120 18:23 08.03.2021
1719 Clouds 3 1022 44 10000 2.57 120 17:57 08.03.2021
1720 Clouds 3 1022 44 10000 2.57 120 17:39 08.03.2021
1721 Clouds 5 1022 36 10000 3.09 100 16:59 08.03.2021
1722 Clouds 5 1022 36 10000 3.09 100 16:40 08.03.2021
1723 Clouds 6 1023 28 10000 2.06 190 16:21 08.03.2021
1724 Clouds 6 1023 28 10000 2.06 190 15:38 08.03.2021
1725 Clouds 6 1023 36 10000 3.6 30 15:20 08.03.2021
1726 Clouds 6 1023 38 10000 3.09 20 14:21 08.03.2021
1727 Clouds 6 1023 38 10000 3.09 20 13:54 08.03.2021
1728 Clouds 5 1023 48 10000 1.03 340 13:23 08.03.2021
1729 Clouds 5 1023 48 10000 1.03 340 12:56 08.03.2021
1730 Clouds 5 1024 48 10000 1.03 350 12:29 08.03.2021
1731 Clouds 4 1024 48 10000 1.03 350 11:50 08.03.2021
1732 Clouds 3 1024 75 10000 0.51 0 11:30 08.03.2021
1733 Clouds 3 1024 75 10000 0.51 0 10:57 08.03.2021
1734 Clouds 2 1024 75 10000 0.51 0 10:39 08.03.2021
1735 Clouds 1 1024 86 10000 0.51 70 10:18 08.03.2021
1736 Clouds -1 1023 93 10000 0.51 0 09:27 08.03.2021
1737 Clouds -2 1023 93 10000 0.51 0 08:52 08.03.2021
1738 Clouds -3 1023 93 10000 0.51 300 08:25 08.03.2021
1739 Clouds -4 1022 93 10000 0.51 310 07:22 08.03.2021
1740 Clouds -3 1022 93 10000 0.51 360 05:46 08.03.2021
1741 Clouds -4 1021 93 10000 3.09 30 02:43 08.03.2021
1742 Clouds -4 1021 93 10000 1.03 360 00:43 08.03.2021
1743 Clouds -3 1021 80 10000 2.57 30 23:53 07.03.2021
1744 Clouds -2 1021 74 10000 1.54 360 23:22 07.03.2021
1745 Clouds -1 1021 74 10000 1.54 360 22:49 07.03.2021
1746 Clouds 0 1020 64 10000 2.57 70 22:29 07.03.2021
1747 Clouds 0 1020 64 10000 2.57 70 21:58 07.03.2021
1748 Clouds 0 1020 64 10000 2.57 70 21:39 07.03.2021
1749 Clouds 1 1019 69 10000 2.57 50 21:21 07.03.2021
1750 Clouds 1 1019 69 10000 2.57 50 20:41 07.03.2021
1751 Clouds 1 1019 75 10000 6.17 330 20:23 07.03.2021
1752 Clouds 2 1019 75 10000 6.17 330 19:55 07.03.2021
1753 Clouds 2 1019 75 10000 6.17 330 19:37 07.03.2021
1754 Clouds 3 1018 75 10000 5.66 320 19:19 07.03.2021
1755 Clouds 3 1018 75 10000 5.66 320 18:40 07.03.2021
1756 Clouds 3 1017 70 10000 7.72 320 18:18 07.03.2021
1757 Clouds 4 1017 70 10000 7.72 320 17:39 07.03.2021
1758 Clouds 4 1017 70 10000 9.26 310 17:20 07.03.2021
1759 Clouds 5 1017 70 10000 9.26 310 16:54 07.03.2021
1760 Clouds 5 1017 70 10000 9.26 310 16:36 07.03.2021
1761 Clouds 5 1017 70 10000 9.26 310 16:36 07.03.2021
1762 Clouds 5 1017 75 10000 10.8 310 16:18 07.03.2021
1763 Clouds 5 1017 75 10000 10.8 310 15:41 07.03.2021
1764 Clouds 6 1017 87 10000 8.23 300 15:20 07.03.2021
1765 Clouds 5 1018 87 10000 9.77 300 14:30 07.03.2021
1766 Clouds 5 1018 87 10000 9.77 300 14:30 07.03.2021
1767 Clouds 5 1018 87 10000 9.77 300 14:30 07.03.2021
1768 Clouds 6 1018 87 10000 9.77 300 13:59 07.03.2021
1769 Clouds 5 1018 87 10000 9.77 300 13:39 07.03.2021
1770 Clouds 5 1019 81 5000 10.29 290 13:18 07.03.2021
1771 Clouds 5 1019 81 5000 10.29 290 12:43 07.03.2021
1772 Clouds 5 1019 81 10000 10.8 290 12:24 07.03.2021
1773 Clouds 5 1019 75 10000 10.8 290 11:25 07.03.2021
1774 Clouds 5 1019 75 10000 10.8 290 10:59 07.03.2021
1775 Clouds 5 1019 75 10000 10.8 290 10:38 07.03.2021
1776 Clouds 5 1020 81 10000 12.86 290 10:19 07.03.2021
1777 Clouds 4 1020 81 10000 12.86 290 09:40 07.03.2021
1778 Clouds 4 1020 75 10000 10.29 290 09:21 07.03.2021
1779 Clouds 4 1020 75 10000 10.29 290 08:45 07.03.2021
1780 Clouds 3 1020 75 10000 10.8 280 08:23 07.03.2021
1781 Clouds 3 1020 81 10000 11.83 290 07:25 07.03.2021
1782 Clouds 3 1023 75 10000 11.83 280 02:40 07.03.2021
1783 Clouds 3 1024 70 10000 12.35 300 00:38 07.03.2021
1784 Clouds 3 1025 75 10000 9.77 290 23:41 06.03.2021
1785 Clouds 3 1025 65 10000 10.8 290 23:23 06.03.2021
1786 Clouds 4 1025 65 10000 10.8 290 22:47 06.03.2021
1787 Clouds 4 1026 70 10000 11.83 290 22:27 06.03.2021
1788 Clouds 4 1026 70 10000 11.83 290 21:57 06.03.2021
1789 Clouds 4 1026 70 10000 9.77 280 21:21 06.03.2021
1790 Clouds 4 1026 70 10000 9.77 280 20:49 06.03.2021
1791 Clouds 4 1027 65 10000 12.35 290 20:27 06.03.2021
1792 Clouds 4 1027 65 10000 12.35 290 19:49 06.03.2021
1793 Clouds 4 1027 65 10000 11.32 290 19:22 06.03.2021
1794 Clouds 4 1027 65 10000 11.32 290 18:54 06.03.2021
1795 Clouds 4 1027 65 10000 11.32 290 18:36 06.03.2021
1796 Clouds 4 1027 65 10000 13.38 300 18:18 06.03.2021
1797 Clouds 4 1027 65 10000 13.38 300 17:42 06.03.2021
1798 Clouds 4 1027 65 10000 12.86 300 17:21 06.03.2021
1799 Clouds 5 1027 65 10000 12.86 300 16:43 06.03.2021
1800 Clouds 4 1028 75 10000 13.38 300 16:24 06.03.2021
1801 Clouds 4 1028 75 10000 13.38 300 15:51 06.03.2021
1802 Clouds 5 1028 65 10000 12.35 310 15:31 06.03.2021
1803 Clouds 5 1028 65 10000 12.35 310 14:53 06.03.2021
1804 Clouds 5 1029 70 10000 13.89 300 14:29 06.03.2021
1805 Clouds 5 1029 70 10000 13.89 300 14:29 06.03.2021
1806 Clouds 5 1029 70 10000 13.89 300 13:42 06.03.2021
1807 Clouds 6 1029 65 10000 12.86 300 13:20 06.03.2021
1808 Clouds 5 1029 65 10000 12.86 300 12:44 06.03.2021
1809 Clouds 6 1029 70 10000 11.32 300 12:20 06.03.2021
1810 Clouds 5 1029 70 10000 11.32 300 11:56 06.03.2021
1811 Clouds 5 1030 75 10000 9.77 320 11:22 06.03.2021
1812 Clouds 5 1030 75 10000 9.77 320 10:49 06.03.2021
1813 Clouds 4 1030 87 10000 7.72 300 10:24 06.03.2021
1814 Clouds 4 1030 87 10000 7.72 300 09:49 06.03.2021
1815 Clouds 4 1029 87 10000 7.2 310 09:21 06.03.2021
1816 Clouds 4 1029 87 10000 7.2 310 08:52 06.03.2021
1817 Clouds 3 1029 93 10000 7.72 300 08:22 06.03.2021
1818 Clouds 3 1029 93 10000 7.72 300 07:41 06.03.2021
1819 Clouds 2 1029 93 10000 5.14 290 07:20 06.03.2021
1820 Clouds 1 1029 93 10000 5.14 300 05:38 06.03.2021
1821 Clear 1 1029 80 10000 5.14 250 02:51 06.03.2021
1822 Clear -1 1030 93 10000 3.6 260 01:27 06.03.2021
1823 Clear -1 1030 93 10000 3.6 260 00:44 06.03.2021
1824 Clear -2 1030 93 10000 3.09 270 23:39 05.03.2021
1825 Clear -2 1030 93 10000 3.09 270 23:39 05.03.2021
1826 Clear -2 1030 86 10000 4.12 280 23:18 05.03.2021
1827 Clear -2 1030 86 10000 4.12 280 22:43 05.03.2021
1828 Clear -1 1029 86 10000 5.14 290 22:20 05.03.2021
1829 Clear -1 1029 86 10000 5.14 290 21:42 05.03.2021
1830 Clear 0 1029 75 10000 5.66 290 21:23 05.03.2021
1831 Clear 0 1029 75 10000 5.66 290 20:43 05.03.2021
1832 Clear 1 1029 75 10000 7.2 290 20:23 05.03.2021
1833 Clear 1 1029 75 10000 7.2 290 19:44 05.03.2021
1834 Clear 2 1028 70 10000 6.17 290 19:22 05.03.2021
1835 Clear 3 1028 70 10000 6.17 290 18:44 05.03.2021
1836 Clear 3 1028 65 10000 6.17 280 18:25 05.03.2021
1837 Clear 4 1028 65 10000 6.17 280 17:51 05.03.2021
1838 Clear 4 1028 65 10000 6.17 280 17:32 05.03.2021
1839 Clear 6 1027 56 10000 5.66 290 16:43 05.03.2021
1840 Clear 6 1027 56 10000 5.66 300 16:23 05.03.2021
1841 Clear 6 1027 56 10000 5.66 300 15:54 05.03.2021
1842 Clear 6 1027 52 10000 4.63 270 15:27 05.03.2021
1843 Clear 6 1027 52 10000 4.63 270 14:46 05.03.2021
1844 Clear 6 1027 52 10000 4.63 270 14:27 05.03.2021
1845 Clear 6 1027 52 10000 4.63 270 13:44 05.03.2021
1846 Clear 6 1027 56 10000 5.66 280 13:21 05.03.2021
1847 Clear 6 1027 56 10000 5.66 280 12:45 05.03.2021
1848 Clear 5 1027 60 10000 4.63 290 11:40 05.03.2021
1849 Clear 4 1027 75 10000 3.6 280 11:20 05.03.2021
1850 Clear 4 1027 75 10000 3.6 280 10:57 05.03.2021
1851 Clear 4 1027 75 10000 3.6 280 10:37 05.03.2021
1852 Clear 2 1026 80 10000 1.54 260 10:19 05.03.2021
1853 Clear 1 1026 80 10000 1.54 260 09:42 05.03.2021
1854 Clear 0 1026 80 10000 2.06 240 09:23 05.03.2021
1855 Clear -1 1026 80 10000 2.06 240 08:39 05.03.2021
1856 Clear -2 1025 74 10000 1.03 310 08:20 05.03.2021
1857 Clear -2 1025 74 10000 1.03 310 07:35 05.03.2021
1858 Clear -3 1025 80 10000 3.6 310 06:44 05.03.2021
1859 Clear -2 1025 74 10000 2.06 250 06:26 05.03.2021
1860 Clear -2 1024 69 10000 4.63 360 01:40 05.03.2021
1861 Clear -1 1023 80 10000 4.63 20 23:55 04.03.2021
1862 Clear -1 1022 86 10000 2.57 360 23:25 04.03.2021
1863 Clear -1 1022 80 10000 1.54 20 22:31 04.03.2021
1864 Clear -1 1022 80 10000 1.54 20 21:56 04.03.2021
1865 Clear -1 1022 80 10000 1.54 20 21:34 04.03.2021
1866 Clear 0 1021 64 10000 3.09 50 20:59 04.03.2021
1867 Clear 0 1021 64 10000 3.09 50 20:59 04.03.2021
1868 Clear 0 1021 64 10000 3.09 50 20:40 04.03.2021
1869 Clear 1 1021 64 10000 4.12 40 20:21 04.03.2021
1870 Clear 1 1021 64 10000 4.12 40 19:53 04.03.2021
1871 Clouds 1 1020 60 10000 5.66 40 19:27 04.03.2021
1872 Clouds 2 1020 60 10000 5.66 40 18:54 04.03.2021
1873 Clouds 3 1020 52 10000 9.26 30 18:31 04.03.2021
1874 Clouds 3 1020 52 10000 9.26 30 17:59 04.03.2021
1875 Clouds 4 1020 52 10000 9.26 30 17:39 04.03.2021
1876 Clouds 4 1019 52 10000 5.66 40 17:20 04.03.2021
1877 Clouds 5 1019 52 10000 5.66 40 16:44 04.03.2021
1878 Clouds 5 1019 60 10000 4.12 40 16:24 04.03.2021
1879 Clouds 5 1019 60 10000 4.12 40 15:48 04.03.2021
1880 Clouds 4 1019 75 10000 4.12 40 15:29 04.03.2021
1881 Clouds 4 1019 75 10000 4.12 40 14:44 04.03.2021
1882 Clouds 4 1019 81 10000 3.09 60 14:18 04.03.2021
1883 Clouds 3 1019 81 10000 3.09 60 13:42 04.03.2021
1884 Clouds 3 1019 81 10000 6.17 30 13:22 04.03.2021
1885 Clouds 3 1019 81 10000 6.17 30 12:42 04.03.2021
1886 Clouds 3 1018 81 10000 5.14 50 12:20 04.03.2021
1887 Clouds 3 1018 81 10000 5.14 50 11:42 04.03.2021
1888 Clouds 3 1018 87 10000 6.17 30 11:20 04.03.2021
1889 Clouds 3 1018 87 10000 6.17 30 10:37 04.03.2021
1890 Clouds 3 1018 87 10000 4.63 360 10:18 04.03.2021
1891 Clouds 3 1018 87 10000 4.63 360 09:36 04.03.2021
1892 Clouds 3 1017 87 10000 4.12 290 08:56 04.03.2021
1893 Clouds 3 1017 87 10000 4.12 290 08:34 04.03.2021
1894 Clouds 3 1017 87 10000 3.6 300 07:49 04.03.2021
1895 Clouds 3 1017 87 10000 7.2 290 07:19 04.03.2021
1896 Clouds 4 1017 87 10000 7.2 290 06:24 04.03.2021
1897 Clouds 4 1019 81 10000 7.72 280 02:39 04.03.2021
1898 Clouds 3 1020 87 10000 7.2 280 01:24 04.03.2021
1899 Clouds 3 1021 87 10000 4.63 290 22:43 03.03.2021
1900 Clouds 2 1021 100 10000 8.23 290 22:25 03.03.2021
1901 Clouds 2 1021 100 10000 8.23 290 21:43 03.03.2021
1902 Clear 2 1022 93 700 7.72 280 21:24 03.03.2021
1903 Clear 2 1022 93 700 7.72 280 20:57 03.03.2021
1904 Clear 2 1022 93 700 7.72 280 20:39 03.03.2021
1905 Clear 2 1022 93 800 7.2 280 19:59 03.03.2021
1906 Clear 2 1022 93 800 7.2 280 19:40 03.03.2021
1907 Clear 3 1021 87 4900 7.2 270 19:20 03.03.2021
1908 Clear 4 1021 87 4900 7.2 270 18:45 03.03.2021
1909 Clear 5 1021 87 6000 2.06 280 18:21 03.03.2021
1910 Clear 6 1021 87 6000 2.06 280 17:43 03.03.2021
1911 Clear 7 1022 81 8000 0.51 0 17:18 03.03.2021
1912 Clear 8 1022 81 8000 0.51 0 16:41 03.03.2021
1913 Clear 8 1022 76 8000 2.57 280 16:22 03.03.2021
1914 Clear 8 1022 76 8000 2.57 280 15:33 03.03.2021
1915 Clear 8 1023 76 10000 1.03 0 14:58 03.03.2021
1916 Clear 7 1024 87 8000 0.51 110 14:30 03.03.2021
1917 Clear 8 1024 87 8000 0.51 110 13:53 03.03.2021
1918 Clear 8 1024 87 8000 0.51 110 13:33 03.03.2021
1919 Clear 6 1025 100 2200 1.54 120 12:58 03.03.2021
1920 Clear 6 1025 100 2200 1.54 120 12:39 03.03.2021
1921 Clear 5 1025 100 1100 1.03 50 12:19 03.03.2021
1922 Clear 5 1025 100 1100 1.03 50 11:42 03.03.2021
1923 Clear 3 1026 100 1000 1.03 120 11:21 03.03.2021
1924 Clear 3 1026 100 1000 1.03 120 10:41 03.03.2021
1925 Clear 2 1026 93 7000 1.03 0 10:19 03.03.2021
1926 Clear 1 1026 93 7000 1.03 0 09:40 03.03.2021
1927 Clear 0 1027 93 3000 0.51 130 08:46 03.03.2021
1928 Clear -1 1027 100 2900 1.03 140 08:23 03.03.2021
1929 Clear -1 1027 100 2900 1.03 140 07:52 03.03.2021
1930 Clear -1 1027 100 150 1.03 120 06:55 03.03.2021
1931 Clear -1 1028 100 250 1.54 100 06:18 03.03.2021
1932 Clear -1 1028 100 500 1.54 100 05:30 03.03.2021
1933 Clear -1 1028 100 500 1.54 100 04:36 03.03.2021
1934 Clear -1 1029 100 300 1.03 100 03:52 03.03.2021
1935 Clear 0 1031 100 800 1.54 110 00:18 03.03.2021
1936 Clear 0 1031 100 800 1.54 110 23:32 02.03.2021
1937 Clear 0 1031 100 250 2.06 110 22:48 02.03.2021
1938 Clear 0 1032 93 350 1.54 0 22:21 02.03.2021
1939 Clear 0 1032 93 350 1.54 0 21:51 02.03.2021
1940 Clear 1 1032 100 1000 1.54 100 21:32 02.03.2021
1941 Clear 1 1032 100 1000 1.54 100 20:55 02.03.2021
1942 Clear 0 1032 100 1000 1.54 100 20:37 02.03.2021
1943 Clear 2 1032 93 3900 2.06 110 20:19 02.03.2021
1944 Clear 3 1032 93 3900 2.06 110 19:46 02.03.2021
1945 Clear 4 1032 87 10000 3.6 110 19:26 02.03.2021
1946 Clear 5 1032 87 10000 3.6 110 18:41 02.03.2021
1947 Clear 7 1032 70 10000 1.54 0 18:21 02.03.2021
1948 Clear 6 1032 70 10000 1.54 0 17:57 02.03.2021
1949 Clear 6 1032 70 10000 1.54 0 17:39 02.03.2021
1950 Clear 9 1032 71 10000 2.57 100 17:19 02.03.2021
1951 Clear 8 1032 71 10000 2.57 100 16:44 02.03.2021
1952 Clear 9 1033 53 10000 2.57 30 15:54 02.03.2021
1953 Clear 10 1033 62 10000 2.57 30 15:27 02.03.2021
1954 Clear 10 1033 62 10000 2.57 30 14:49 02.03.2021
1955 Clear 9 1033 66 10000 2.57 20 14:19 02.03.2021
1956 Clear 9 1033 66 10000 2.57 20 14:19 02.03.2021
1957 Clear 9 1033 66 10000 2.57 20 13:44 02.03.2021
1958 Clear 8 1034 81 10000 1.54 20 13:24 02.03.2021
1959 Clear 7 1034 81 10000 1.54 20 12:47 02.03.2021
1960 Clear 6 1034 100 10000 0.44 40 12:25 02.03.2021
1961 Clear 6 1034 100 10000 0.44 40 11:45 02.03.2021
1962 Clear 4 1035 93 450 0.51 0 11:23 02.03.2021
1963 Clear 2 1035 93 450 0.51 0 10:49 02.03.2021
1964 Clear 1 1034 100 250 0.51 150 10:29 02.03.2021
1965 Clear -1 1034 100 250 0.51 150 09:43 02.03.2021
1966 Clear -1 1034 93 150 0.51 0 09:24 02.03.2021
1967 Clear -1 1034 93 150 0.51 0 08:53 02.03.2021
1968 Clear -1 1034 93 150 0.51 0 08:33 02.03.2021
1969 Clear -1 1034 100 100 0.51 0 07:46 02.03.2021
1970 Clear -1 1034 100 150 1.44 342 06:37 02.03.2021
1971 Clear 0 1034 93 150 0.51 350 05:50 02.03.2021
1972 Clear 0 1034 93 150 1.54 330 05:32 02.03.2021
1973 Clear 0 1034 100 200 1.54 340 04:24 02.03.2021
1974 Clear 0 1034 100 350 3.09 300 01:42 02.03.2021
1975 Clear 0 1034 100 350 3.09 300 01:42 02.03.2021
1976 Clear 1 1034 100 3900 4.63 270 01:19 02.03.2021
1977 Clear 1 1034 93 10000 3.09 280 23:29 01.03.2021
1978 Clear 1 1034 93 10000 3.09 280 22:56 01.03.2021
1979 Clear 2 1034 93 10000 3.09 280 22:38 01.03.2021
1980 Clear 2 1034 87 10000 3.6 290 22:19 01.03.2021
1981 Clear 3 1034 87 10000 3.6 290 21:41 01.03.2021
1982 Clear 3 1034 87 10000 4.12 300 21:23 01.03.2021
1983 Clear 4 1034 87 10000 4.12 300 20:42 01.03.2021
1984 Clear 4 1034 93 10000 5.14 300 20:20 01.03.2021
1985 Clear 4 1034 93 10000 5.14 300 19:43 01.03.2021
1986 Clouds 5 1034 87 10000 4.63 290 19:24 01.03.2021
1987 Clouds 6 1034 87 10000 4.63 290 18:42 01.03.2021
1988 Clouds 7 1034 76 10000 4.63 290 18:23 01.03.2021
1989 Clouds 7 1034 76 10000 4.63 290 17:47 01.03.2021
1990 Clouds 9 1034 76 10000 3.09 290 17:22 01.03.2021
1991 Clouds 9 1034 76 10000 3.09 290 16:46 01.03.2021
1992 Clouds 9 1035 76 10000 4.63 300 16:27 01.03.2021
1993 Clouds 9 1035 76 10000 4.63 300 15:49 01.03.2021
1994 Clouds 9 1035 76 10000 3.6 260 15:23 01.03.2021
1995 Clouds 9 1035 76 10000 3.6 260 14:58 01.03.2021
1996 Clouds 9 1035 76 10000 3.6 260 14:39 01.03.2021
1997 Clouds 8 1035 81 10000 3.09 270 13:56 01.03.2021
1998 Clouds 8 1035 81 10000 3.09 270 13:37 01.03.2021
1999 Clouds 6 1036 100 10000 2.57 260 13:18 01.03.2021
2000 Clouds 6 1036 100 10000 2.57 260 12:42 01.03.2021
2001 Clouds 5 1036 100 8000 2.57 260 12:22 01.03.2021
2002 Clouds 4 1036 100 8000 2.57 260 11:47 01.03.2021
2003 Clouds 4 1036 93 650 2.06 250 11:23 01.03.2021
2004 Clouds 3 1036 93 650 2.06 250 10:42 01.03.2021
2005 Clouds 3 1035 100 300 1.54 260 10:22 01.03.2021
2006 Clouds 3 1035 100 300 1.54 260 09:50 01.03.2021
2007 Clouds 2 1035 100 400 3.09 280 09:28 01.03.2021
2008 Clouds 2 1035 100 400 3.09 280 08:56 01.03.2021
2009 Clouds 2 1035 100 400 3.6 290 08:32 01.03.2021
2010 Clouds 1 1035 100 300 3.09 300 07:32 01.03.2021
2011 Clear 1 1035 100 400 3.6 300 06:25 01.03.2021
2012 Clear 2 1035 100 650 3.09 280 02:40 01.03.2021
2013 Clear 3 1035 100 9000 5.14 300 23:47 28.02.2021
2014 Clear 3 1035 100 800 4.12 300 22:57 28.02.2021
2015 Clear 3 1035 100 800 4.12 300 22:38 28.02.2021
2016 Clear 3 1035 93 4500 4.12 300 22:20 28.02.2021
2017 Clear 3 1035 93 4500 4.12 300 21:45 28.02.2021
2018 Clear 3 1035 100 6000 4.63 290 21:23 28.02.2021
2019 Clear 3 1035 100 6000 4.63 290 20:46 28.02.2021
2020 Clear 3 1035 93 10000 4.63 300 20:26 28.02.2021
2021 Clear 4 1035 93 10000 4.63 300 19:46 28.02.2021
2022 Clear 4 1035 87 10000 5.66 300 19:27 28.02.2021
2023 Clear 5 1035 87 10000 5.66 300 18:47 28.02.2021
2024 Clear 5 1035 81 10000 6.17 300 18:28 28.02.2021
2025 Clear 5 1035 81 10000 6.17 300 18:28 28.02.2021
2026 Clear 6 1035 81 10000 6.17 300 17:58 28.02.2021
2027 Clear 6 1035 81 10000 6.17 300 17:38 28.02.2021
2028 Clear 6 1035 81 10000 6.17 300 17:38 28.02.2021
2029 Clear 7 1035 76 10000 6.17 310 17:20 28.02.2021
2030 Clear 8 1035 76 10000 6.17 310 16:48 28.02.2021
2031 Clear 8 1035 71 10000 8.23 320 16:29 28.02.2021
2032 Clear 8 1035 71 10000 8.23 320 15:52 28.02.2021
2033 Clear 8 1035 71 10000 8.23 320 15:52 28.02.2021
2034 Clear 8 1035 71 10000 9.77 300 15:28 28.02.2021
2035 Clear 8 1035 71 10000 9.77 300 14:58 28.02.2021
2036 Clear 8 1035 71 10000 9.77 300 14:35 28.02.2021
2037 Clear 8 1035 76 10000 6.69 330 13:59 28.02.2021
2038 Clouds 8 1035 76 10000 6.69 330 13:38 28.02.2021
2039 Clouds 8 1036 71 10000 9.77 300 13:19 28.02.2021
2040 Clouds 8 1036 71 10000 9.77 300 12:53 28.02.2021
2041 Clouds 8 1036 71 10000 9.77 300 12:35 28.02.2021
2042 Clouds 7 1036 81 10000 7.2 290 11:58 28.02.2021
2043 Clouds 7 1036 81 10000 7.2 290 11:40 28.02.2021
2044 Clouds 7 1036 87 10000 6.69 320 11:21 28.02.2021
2045 Clouds 6 1036 87 10000 6.69 320 10:43 28.02.2021
2046 Clouds 6 1036 87 10000 7.72 300 10:25 28.02.2021
2047 Clouds 6 1036 87 10000 7.72 300 09:40 28.02.2021
2048 Clouds 5 1036 93 10000 6.17 280 09:21 28.02.2021
2049 Clouds 4 1036 93 10000 6.17 280 08:45 28.02.2021
2050 Clouds 4 1036 93 10000 5.66 280 08:26 28.02.2021
2051 Clear 4 1036 93 10000 5.66 280 07:46 28.02.2021
2052 Clear 4 1036 93 10000 5.14 280 07:28 28.02.2021
2053 Clear 4 1037 100 10000 3.09 280 06:24 28.02.2021
2054 Clear 5 1037 100 9000 3.09 300 05:21 28.02.2021
2055 Clear 4 1037 100 1000 3.6 300 02:40 28.02.2021
2056 Clear 4 1037 93 6000 5.14 290 01:36 28.02.2021
2057 Clouds 4 1037 100 7000 6.69 280 00:43 28.02.2021
2058 Clouds 4 1037 100 7000 6.69 290 00:23 28.02.2021
2059 Clouds 4 1037 100 7000 6.69 290 23:44 27.02.2021
2060 Clouds 4 1037 93 6000 6.69 280 23:19 27.02.2021
2061 Clouds 4 1037 93 6000 6.69 280 22:44 27.02.2021
2062 Clouds 4 1037 93 4600 5.66 280 22:19 27.02.2021
2063 Clouds 4 1037 93 4600 5.66 280 21:41 27.02.2021
2064 Clouds 4 1037 93 10000 5.66 280 21:23 27.02.2021
2065 Clouds 4 1037 93 10000 5.66 280 20:48 27.02.2021
2066 Clouds 4 1037 93 10000 7.2 290 20:27 27.02.2021
2067 Clouds 4 1037 93 10000 7.2 290 19:45 27.02.2021
2068 Clear 5 1037 87 10000 6.69 280 19:27 27.02.2021
2069 Clear 5 1037 87 10000 6.69 280 18:45 27.02.2021
2070 Clear 6 1037 81 10000 8.23 280 18:21 27.02.2021
2071 Clear 6 1037 81 10000 8.23 280 17:57 27.02.2021
2072 Clear 7 1037 81 10000 8.23 280 17:36 27.02.2021
2073 Clear 7 1037 65 10000 8.23 290 17:18 27.02.2021
2074 Clear 8 1037 65 10000 8.23 290 16:48 27.02.2021
2075 Clear 9 1037 71 10000 7.2 290 16:26 27.02.2021
2076 Clear 9 1037 71 10000 7.2 290 15:43 27.02.2021
2077 Clear 10 1037 66 10000 5.14 280 15:18 27.02.2021
2078 Clear 10 1037 66 10000 5.14 280 14:40 27.02.2021
2079 Clear 10 1037 76 10000 3.6 300 14:20 27.02.2021
2080 Clear 9 1037 76 10000 3.6 300 13:40 27.02.2021
2081 Clouds 8 1037 81 10000 4.63 320 13:19 27.02.2021
2082 Clouds 8 1037 81 10000 4.63 320 12:45 27.02.2021
2083 Clouds 8 1037 87 10000 4.63 320 12:24 27.02.2021
2084 Clouds 7 1037 87 10000 4.63 320 11:47 27.02.2021
2085 Clouds 7 1037 87 10000 5.14 330 11:29 27.02.2021
2086 Clouds 7 1037 87 10000 5.14 330 10:50 27.02.2021
2087 Clouds 7 1036 87 10000 6.17 310 10:32 27.02.2021
2088 Clouds 6 1036 87 10000 6.17 310 09:53 27.02.2021
2089 Clouds 6 1036 93 10000 5.66 330 09:31 27.02.2021
2090 Clouds 5 1036 93 10000 5.66 330 08:43 27.02.2021
2091 Clouds 5 1035 100 10000 3.09 310 08:24 27.02.2021
2092 Clouds 5 1035 100 10000 3.09 310 07:58 27.02.2021
2093 Clouds 4 1035 100 10000 2.57 290 06:55 27.02.2021
2094 Clear 5 1033 87 10000 6.17 320 01:24 27.02.2021
2095 Clear 4 1033 93 10000 6.17 300 00:31 27.02.2021
2096 Clear 5 1033 93 10000 6.17 300 23:41 26.02.2021
2097 Clear 5 1032 93 10000 7.2 310 23:22 26.02.2021
2098 Clear 4 1032 93 10000 7.2 310 22:38 26.02.2021
2099 Clear 4 1031 93 10000 9.77 310 22:19 26.02.2021
2100 Clear 4 1031 93 10000 9.77 310 21:36 26.02.2021
2101 Clear 5 1031 87 10000 9.77 310 20:56 26.02.2021
2102 Clear 5 1031 87 10000 9.77 310 20:56 26.02.2021
2103 Clear 5 1031 87 10000 9.77 310 20:37 26.02.2021
2104 Clear 5 1031 93 10000 7.72 290 20:19 26.02.2021
2105 Clear 5 1030 87 10000 7.72 300 19:27 26.02.2021
2106 Clear 5 1030 87 10000 7.72 300 18:57 26.02.2021
2107 Clear 5 1029 81 10000 10.29 300 18:38 26.02.2021
2108 Clear 6 1029 81 10000 10.29 300 18:19 26.02.2021
2109 Clear 6 1029 81 10000 10.29 300 17:38 26.02.2021
2110 Clear 6 1029 81 10000 10.29 300 17:19 26.02.2021
2111 Clear 7 1029 81 10000 10.29 300 16:48 26.02.2021
2112 Clear 7 1029 76 10000 10.8 300 16:30 26.02.2021
2113 Clear 8 1029 76 10000 10.8 300 15:48 26.02.2021
2114 Clear 8 1029 71 10000 12.86 300 15:29 26.02.2021
2115 Clear 8 1029 71 10000 12.86 300 14:59 26.02.2021
2116 Clear 8 1029 71 10000 12.86 300 14:41 26.02.2021
2117 Clear 8 1029 76 10000 10.8 300 14:22 26.02.2021
2118 Clear 8 1029 76 10000 10.8 300 13:39 26.02.2021
2119 Clear 8 1029 76 10000 10.29 280 13:20 26.02.2021
2120 Clear 8 1029 76 10000 10.29 280 12:33 26.02.2021
2121 Clear 8 1029 81 10000 8.75 290 11:49 26.02.2021
2122 Clear 7 1028 87 10000 9.77 290 11:28 26.02.2021
2123 Clear 7 1028 87 10000 9.77 290 10:45 26.02.2021
2124 Clear 5 1028 93 10000 6.69 280 09:50 26.02.2021
2125 Clear 4 1027 100 10000 7.72 270 09:30 26.02.2021
2126 Clear 4 1027 100 10000 7.72 270 08:53 26.02.2021
2127 Clear 3 1027 93 10000 6.69 270 08:19 26.02.2021
2128 Clear 3 1027 93 10000 6.69 270 07:48 26.02.2021
2129 Clouds 3 1027 93 10000 6.17 260 06:36 26.02.2021
2130 Clouds 3 1026 93 10000 6.69 270 05:27 26.02.2021
2131 Clouds 3 1026 87 10000 6.17 260 03:46 26.02.2021
2132 Clouds 4 1026 87 10000 7.2 260 01:37 26.02.2021
2133 Clouds 5 1026 87 10000 6.17 260 23:56 25.02.2021
2134 Clouds 5 1026 87 10000 5.66 270 23:28 25.02.2021
2135 Clouds 5 1026 87 10000 5.66 270 22:49 25.02.2021
2136 Clouds 5 1025 87 10000 6.17 270 22:19 25.02.2021
2137 Clouds 5 1025 87 10000 6.17 270 21:38 25.02.2021
2138 Rain 6 1025 81 10000 7.2 270 21:19 25.02.2021
2139 Clouds 6 1025 81 10000 7.2 270 20:41 25.02.2021
2140 Rain 6 1025 81 10000 5.66 260 20:22 25.02.2021
2141 Clouds 6 1025 81 10000 5.66 260 19:52 25.02.2021
2142 Clouds 6 1024 87 10000 7.2 270 19:22 25.02.2021
2143 Clouds 6 1024 87 10000 7.2 270 18:57 25.02.2021
2144 Clouds 7 1023 87 10000 8.23 260 18:24 25.02.2021
2145 Clouds 7 1023 87 10000 8.23 260 17:49 25.02.2021
2146 Clouds 8 1022 87 10000 4.63 250 17:26 25.02.2021
2147 Clouds 8 1022 87 10000 4.63 250 16:46 25.02.2021
2148 Clouds 8 1022 87 10000 7.2 250 16:25 25.02.2021
2149 Clouds 8 1022 81 10000 9.26 260 15:30 25.02.2021
2150 Clouds 9 1022 81 10000 9.26 260 14:58 25.02.2021
2151 Clouds 9 1022 71 10000 11.32 260 14:26 25.02.2021
2152 Clouds 10 1022 71 10000 11.32 260 13:55 25.02.2021
2153 Clouds 11 1022 71 10000 9.26 250 13:27 25.02.2021
2154 Clouds 11 1022 71 10000 9.26 250 12:56 25.02.2021
2155 Clouds 12 1021 67 10000 9.26 250 12:22 25.02.2021
2156 Clouds 13 1021 67 10000 9.26 250 11:47 25.02.2021
2157 Clouds 12 1021 71 10000 5.66 240 11:21 25.02.2021
2158 Clouds 12 1021 71 10000 5.66 240 10:47 25.02.2021
2159 Clouds 11 1022 76 10000 7.72 220 10:29 25.02.2021
2160 Clouds 11 1022 76 10000 7.72 220 09:45 25.02.2021
2161 Clouds 11 1022 81 10000 6.17 230 09:19 25.02.2021
2162 Clouds 10 1021 76 10000 6.17 210 08:28 25.02.2021
2163 Clouds 9 1021 76 10000 6.17 210 07:58 25.02.2021
2164 Clouds 9 1021 76 10000 6.17 210 07:38 25.02.2021
2165 Clouds 10 1021 76 10000 6.17 210 06:57 25.02.2021
2166 Clouds 10 1022 62 10000 6.69 210 04:22 25.02.2021
2167 Clouds 12 1023 58 10000 6.17 210 01:39 25.02.2021
2168 Clouds 13 1023 58 10000 6.69 210 00:46 25.02.2021
2169 Clouds 13 1023 67 10000 6.17 200 23:56 24.02.2021
2170 Clouds 13 1024 67 10000 6.17 200 23:32 24.02.2021
2171 Clouds 13 1024 67 10000 6.17 200 22:47 24.02.2021
2172 Clouds 14 1024 72 10000 6.17 200 22:29 24.02.2021
2173 Clouds 13 1024 72 10000 6.17 200 21:48 24.02.2021
2174 Clouds 14 1024 67 10000 6.17 210 21:25 24.02.2021
2175 Clouds 14 1024 67 10000 6.17 210 20:48 24.02.2021
2176 Clouds 14 1024 67 10000 6.17 210 20:26 24.02.2021
2177 Clouds 13 1024 67 10000 6.17 210 19:40 24.02.2021
2178 Clouds 13 1024 67 10000 7.2 220 19:20 24.02.2021
2179 Clouds 13 1024 67 10000 7.2 220 18:50 24.02.2021
2180 Clouds 13 1024 67 10000 6.69 230 18:30 24.02.2021
2181 Clouds 14 1024 67 10000 6.69 230 17:39 24.02.2021
2182 Clouds 13 1024 67 10000 8.75 230 17:21 24.02.2021
2183 Clouds 13 1024 67 10000 8.75 230 16:46 24.02.2021
2184 Clouds 13 1025 67 10000 8.23 230 16:21 24.02.2021
2185 Clouds 14 1025 67 10000 8.23 230 15:50 24.02.2021
2186 Clouds 14 1025 67 10000 9.26 230 15:31 24.02.2021
2187 Clouds 14 1025 67 10000 9.26 230 14:47 24.02.2021
2188 Clouds 14 1025 62 10000 9.26 240 14:27 24.02.2021
2189 Clouds 14 1025 62 10000 9.26 240 13:42 24.02.2021
2190 Clouds 14 1025 62 10000 9.77 240 13:23 24.02.2021
2191 Clouds 14 1025 62 10000 9.77 240 12:57 24.02.2021
2192 Clouds 14 1025 62 10000 9.77 240 12:35 24.02.2021
2193 Clouds 14 1025 62 10000 8.75 230 11:53 24.02.2021
2194 Clouds 14 1025 67 10000 8.23 220 11:31 24.02.2021
2195 Clouds 13 1025 67 10000 8.23 220 10:41 24.02.2021
2196 Clouds 12 1025 71 10000 7.2 210 10:22 24.02.2021
2197 Clouds 12 1025 71 10000 8.23 210 09:26 24.02.2021
2198 Clouds 11 1025 71 10000 8.23 210 08:50 24.02.2021
2199 Clouds 11 1025 76 10000 7.2 210 08:32 24.02.2021
2200 Clouds 11 1025 76 10000 7.2 210 07:38 24.02.2021
2201 Clouds 11 1025 76 10000 7.2 210 07:18 24.02.2021
2202 Clouds 10 1025 81 10000 6.17 210 05:26 24.02.2021
2203 Clouds 9 1026 76 10000 6.69 200 01:59 24.02.2021
2204 Clouds 9 1026 87 10000 3.09 180 23:39 23.02.2021
2205 Clouds 9 1026 81 10000 5.66 180 22:50 23.02.2021
2206 Clouds 9 1027 87 10000 4.63 190 22:23 23.02.2021
2207 Clouds 9 1027 87 10000 4.63 190 21:49 23.02.2021
2208 Clouds 10 1027 82 10000 4.12 210 21:26 23.02.2021
2209 Clouds 10 1027 82 10000 4.12 210 20:59 23.02.2021
2210 Clouds 10 1027 82 10000 4.12 210 20:39 23.02.2021
2211 Clouds 11 1028 76 10000 4.12 240 20:20 23.02.2021
2212 Clouds 11 1028 76 10000 4.12 240 19:46 23.02.2021
2213 Clouds 11 1027 76 10000 6.17 260 19:26 23.02.2021
2214 Clouds 11 1027 76 10000 6.17 260 18:44 23.02.2021
2215 Clouds 11 1026 71 10000 5.66 250 18:26 23.02.2021
2216 Clouds 11 1026 71 10000 5.66 250 17:53 23.02.2021
2217 Clouds 11 1027 76 10000 3.09 240 17:27 23.02.2021
2218 Clouds 11 1027 76 10000 3.09 240 16:46 23.02.2021
2219 Clouds 11 1027 71 10000 6.17 250 16:24 23.02.2021
2220 Clouds 12 1027 71 10000 6.17 250 15:50 23.02.2021
2221 Clouds 12 1027 71 10000 6.17 250 15:50 23.02.2021
2222 Clouds 12 1026 62 10000 6.69 230 15:31 23.02.2021
2223 Clouds 13 1026 62 10000 6.69 230 14:57 23.02.2021
2224 Clouds 13 1026 62 10000 6.69 230 14:38 23.02.2021
2225 Clouds 12 1027 71 10000 4.12 210 14:19 23.02.2021
2226 Clouds 12 1027 71 10000 4.12 210 13:38 23.02.2021
2227 Clouds 12 1027 66 10000 4.12 220 13:19 23.02.2021
2228 Clouds 12 1027 66 10000 4.12 220 12:46 23.02.2021
2229 Clouds 11 1026 66 10000 3.6 210 12:19 23.02.2021
2230 Clouds 11 1026 66 10000 3.6 210 11:45 23.02.2021
2231 Clouds 11 1026 71 10000 5.14 190 11:19 23.02.2021
2232 Clouds 10 1026 71 10000 5.14 190 10:40 23.02.2021
2233 Clouds 10 1026 71 10000 5.66 190 10:19 23.02.2021
2234 Clouds 9 1026 71 10000 5.66 190 09:42 23.02.2021
2235 Clouds 9 1025 76 10000 5.14 200 09:21 23.02.2021
2236 Clouds 9 1025 76 10000 5.14 200 08:47 23.02.2021
2237 Clear 8 1025 76 9000 3.09 220 08:21 23.02.2021
2238 Clear 8 1025 76 9000 3.09 220 07:48 23.02.2021
2239 Clouds 7 1024 81 10000 3.09 240 05:29 23.02.2021
2240 Clouds 9 1023 66 10000 4.63 250 02:54 23.02.2021
2241 Clouds 9 1023 66 10000 4.63 250 02:33 23.02.2021
2242 Clouds 11 1021 54 10000 5.14 240 00:20 23.02.2021
2243 Clouds 11 1021 54 10000 5.14 240 23:46 22.02.2021
2244 Clouds 11 1021 54 10000 5.66 220 23:20 22.02.2021
2245 Clouds 10 1021 54 10000 5.66 220 22:39 22.02.2021
2246 Clouds 10 1020 54 10000 5.14 210 22:20 22.02.2021
2247 Clouds 10 1020 54 10000 5.14 210 21:40 22.02.2021
2248 Clouds 10 1020 58 10000 5.14 210 21:21 22.02.2021
2249 Clouds 10 1020 58 10000 5.14 210 20:49 22.02.2021
2250 Clouds 10 1019 58 10000 5.66 200 20:27 22.02.2021
2251 Clouds 10 1019 58 10000 5.66 200 19:51 22.02.2021
2252 Clouds 11 1019 54 10000 5.14 220 19:30 22.02.2021
2253 Clouds 11 1019 54 10000 5.14 220 18:56 22.02.2021
2254 Clouds 11 1019 54 10000 5.14 220 18:37 22.02.2021
2255 Clouds 12 1018 47 10000 4.63 220 18:18 22.02.2021
2256 Clouds 13 1018 44 10000 5.66 220 17:24 22.02.2021
2257 Clouds 14 1018 44 10000 5.66 220 16:54 22.02.2021
2258 Clouds 14 1018 44 10000 5.66 220 16:54 22.02.2021
2259 Clouds 15 1017 41 10000 4.63 210 16:31 22.02.2021
2260 Clouds 15 1017 41 10000 4.63 210 15:44 22.02.2021
2261 Clouds 16 1017 39 10000 5.14 210 15:25 22.02.2021
2262 Clouds 16 1017 39 10000 5.14 210 14:47 22.02.2021
2263 Clouds 16 1017 39 10000 5.14 210 14:47 22.02.2021
2264 Clouds 15 1017 44 10000 5.14 200 14:23 22.02.2021
2265 Clouds 15 1017 44 10000 5.14 200 13:46 22.02.2021
2266 Clouds 15 1017 44 10000 5.14 200 13:46 22.02.2021
2267 Clear 14 1017 44 10000 5.14 200 12:56 22.02.2021
2268 Clear 12 1017 71 10000 2.06 200 12:24 22.02.2021
2269 Clear 12 1017 71 10000 2.06 200 11:58 22.02.2021
2270 Clear 11 1017 71 10000 2.06 200 11:39 22.02.2021
2271 Clear 9 1017 87 6000 1.54 190 11:20 22.02.2021
2272 Clear 7 1017 87 6000 1.54 190 10:45 22.02.2021
2273 Clear 5 1016 100 2900 1.03 160 10:22 22.02.2021
2274 Clear 5 1016 100 2900 1.03 160 09:41 22.02.2021
2275 Clear 4 1016 100 2500 2.06 190 09:22 22.02.2021
2276 Clear 2 1016 100 2500 2.06 190 08:49 22.02.2021
2277 Clear 2 1016 100 1900 2.57 140 08:24 22.02.2021
2278 Clear 1 1016 100 1900 2.57 140 07:53 22.02.2021
2279 Clear 2 1016 93 1700 3.09 150 07:25 22.02.2021
2280 Clear 2 1016 93 1900 3.09 140 06:29 22.02.2021
2281 Clear 2 1016 93 1900 3.09 140 05:38 22.02.2021
2282 Clear 3 1016 100 1200 0.51 40 03:25 22.02.2021
2283 Clear 3 1016 100 1200 0.51 40 02:48 22.02.2021
2284 Clear 4 1016 100 2400 2.57 140 00:45 22.02.2021
2285 Clear 4 1016 100 3500 1.54 130 00:20 22.02.2021
2286 Clear 4 1016 93 5000 2.57 140 23:29 21.02.2021
2287 Clear 4 1016 93 5000 2.57 140 22:51 21.02.2021
2288 Clear 5 1016 100 6000 2.06 150 22:22 21.02.2021
2289 Clear 5 1016 100 6000 2.06 150 21:37 21.02.2021
2290 Clear 5 1016 100 8000 3.09 150 21:19 21.02.2021
2291 Clear 5 1016 100 8000 3.09 150 20:43 21.02.2021
2292 Clear 6 1015 87 10000 3.6 130 20:20 21.02.2021
2293 Clear 6 1015 87 10000 3.6 130 19:51 21.02.2021
2294 Clear 6 1015 87 10000 3.6 130 19:33 21.02.2021
2295 Clouds 8 1015 81 10000 2.06 120 18:52 21.02.2021
2296 Clouds 10 1014 66 10000 1.03 130 18:26 21.02.2021
2297 Clouds 13 1014 58 10000 2.06 200 17:30 21.02.2021
2298 Clouds 13 1014 58 10000 2.06 200 16:59 21.02.2021
2299 Clouds 14 1014 58 10000 2.06 200 16:39 21.02.2021
2300 Clouds 14 1014 55 10000 3.09 170 16:20 21.02.2021
2301 Clouds 15 1014 55 10000 2.06 200 15:23 21.02.2021
2302 Clouds 15 1014 55 10000 2.06 200 14:56 21.02.2021
2303 Clouds 15 1014 55 10000 2.06 200 14:37 21.02.2021
2304 Clouds 14 1014 55 10000 2.57 210 13:49 21.02.2021
2305 Clouds 14 1014 58 10000 3.6 240 13:28 21.02.2021
2306 Clouds 14 1014 58 10000 3.09 220 12:32 21.02.2021
2307 Clouds 13 1014 58 10000 3.09 220 11:59 21.02.2021
2308 Clouds 13 1014 58 10000 3.09 220 11:41 21.02.2021
2309 Clouds 12 1014 62 10000 2.06 210 10:46 21.02.2021
2310 Clouds 10 1013 71 10000 1.54 220 10:21 21.02.2021
2311 Clouds 8 1013 71 10000 1.54 220 09:43 21.02.2021
2312 Clouds 7 1013 76 10000 1.54 200 09:24 21.02.2021
2313 Clouds 7 1013 76 10000 1.54 200 08:36 21.02.2021
2314 Clouds 7 1012 76 10000 4.63 200 07:58 21.02.2021
2315 Clouds 7 1012 76 10000 2.57 200 07:23 21.02.2021
2316 Clouds 7 1012 76 10000 1.54 200 06:24 21.02.2021
2317 Clouds 8 1012 76 10000 6.17 190 02:43 21.02.2021
2318 Clouds 8 1011 76 10000 6.17 180 01:59 21.02.2021
2319 Clouds 9 1012 71 10000 7.2 170 00:22 21.02.2021
2320 Clouds 9 1012 71 10000 7.2 170 23:59 20.02.2021
2321 Clouds 9 1012 71 10000 6.69 170 22:58 20.02.2021
2322 Clouds 9 1012 71 10000 6.69 170 22:34 20.02.2021
2323 Clouds 9 1012 76 10000 7.2 170 21:59 20.02.2021
2324 Clouds 9 1012 76 10000 7.2 170 21:41 20.02.2021
2325 Clouds 9 1012 81 10000 6.17 160 21:18 20.02.2021
2326 Clouds 9 1012 81 10000 6.17 160 20:42 20.02.2021
2327 Clouds 8 1012 87 10000 4.63 150 20:21 20.02.2021
2328 Clouds 8 1012 87 10000 4.63 150 19:49 20.02.2021
2329 Clouds 9 1012 76 10000 4.63 160 19:19 20.02.2021
2330 Clouds 9 1012 76 10000 4.63 160 18:37 20.02.2021
2331 Clouds 9 1012 76 10000 4.63 160 18:19 20.02.2021
2332 Clouds 10 1012 76 10000 4.63 160 17:36 20.02.2021
2333 Clouds 11 1012 71 10000 4.63 150 16:54 20.02.2021
2334 Clouds 12 1013 67 10000 3.6 160 16:27 20.02.2021
2335 Clouds 12 1013 67 10000 3.6 160 15:46 20.02.2021
2336 Clouds 12 1013 66 10000 5.66 180 15:21 20.02.2021
2337 Clouds 12 1013 66 10000 5.66 180 14:44 20.02.2021
2338 Clouds 12 1013 66 10000 4.63 170 14:23 20.02.2021
2339 Clouds 12 1013 66 10000 4.63 170 13:41 20.02.2021
2340 Clouds 11 1014 71 10000 3.09 180 13:23 20.02.2021
2341 Clouds 10 1014 71 10000 3.09 180 12:50 20.02.2021
2342 Clouds 10 1014 71 10000 4.12 180 12:23 20.02.2021
2343 Clouds 9 1014 71 10000 4.12 180 11:43 20.02.2021
2344 Clouds 8 1014 71 10000 4.63 170 11:24 20.02.2021
2345 Clouds 8 1014 71 10000 4.63 170 10:47 20.02.2021
2346 Clouds 6 1014 76 10000 5.66 170 09:54 20.02.2021
2347 Clouds 6 1014 81 10000 5.14 170 09:28 20.02.2021
2348 Clouds 6 1014 81 10000 5.14 170 08:36 20.02.2021
2349 Clouds 5 1013 75 10000 7.2 170 07:57 20.02.2021
2350 Clouds 6 1014 75 10000 7.72 170 02:46 20.02.2021
2351 Clouds 6 1014 75 10000 6.69 170 02:24 20.02.2021
2352 Clouds 6 1014 75 10000 6.69 170 01:49 20.02.2021
2353 Clouds 6 1015 75 10000 6.17 180 00:45 20.02.2021
2354 Clouds 6 1014 75 10000 6.17 180 23:55 19.02.2021
2355 Clouds 6 1014 75 10000 6.69 180 23:18 19.02.2021
2356 Clouds 5 1014 75 10000 6.69 170 22:27 19.02.2021
2357 Clouds 5 1014 75 10000 6.69 170 21:58 19.02.2021
2358 Clouds 5 1014 75 10000 6.69 170 21:32 19.02.2021
2359 Clouds 4 1014 81 10000 6.17 170 20:49 19.02.2021
2360 Clouds 4 1014 81 10000 6.17 170 20:30 19.02.2021
2361 Clouds 4 1014 81 10000 6.17 170 19:57 19.02.2021
2362 Clouds 4 1014 87 10000 5.66 180 19:27 19.02.2021
2363 Clouds 4 1014 87 10000 5.66 180 18:57 19.02.2021
2364 Clouds 4 1014 87 10000 5.66 180 18:34 19.02.2021
2365 Clouds 4 1014 87 10000 2.57 180 17:51 19.02.2021
2366 Clouds 4 1015 87 9000 3.6 230 17:23 19.02.2021
2367 Clouds 5 1015 87 9000 3.6 230 16:39 19.02.2021
2368 Clouds 5 1014 81 10000 6.69 250 16:20 19.02.2021
2369 Clouds 5 1014 81 10000 6.69 250 15:45 19.02.2021
2370 Clouds 5 1014 81 10000 9.26 260 15:27 19.02.2021
2371 Clouds 6 1014 81 10000 9.26 260 14:38 19.02.2021
2372 Clouds 7 1014 76 10000 7.2 240 14:20 19.02.2021
2373 Clouds 7 1014 76 10000 7.2 240 13:44 19.02.2021
2374 Clouds 7 1013 81 10000 5.66 240 13:24 19.02.2021
2375 Clouds 6 1013 81 10000 5.66 240 12:44 19.02.2021
2376 Clouds 6 1013 81 10000 6.17 240 12:23 19.02.2021
2377 Clouds 6 1013 81 10000 6.17 240 11:51 19.02.2021
2378 Clouds 6 1012 81 10000 5.14 250 11:26 19.02.2021
2379 Clouds 6 1012 81 10000 5.14 250 10:51 19.02.2021
2380 Clouds 5 1012 93 10000 6.69 260 10:22 19.02.2021
2381 Clouds 4 1012 93 10000 6.69 260 09:48 19.02.2021
2382 Clouds 4 1011 87 10000 5.66 250 09:26 19.02.2021
2383 Clouds 4 1011 87 10000 5.66 250 08:53 19.02.2021
2384 Clouds 4 1010 87 10000 8.75 260 08:24 19.02.2021
2385 Clouds 4 1010 87 10000 8.75 260 07:49 19.02.2021
2386 Clouds 3 1008 87 10000 7.2 250 07:30 19.02.2021
2387 Clouds 3 1008 87 10000 7.2 250 06:54 19.02.2021
2388 Clouds 3 1007 93 10000 5.14 240 05:30 19.02.2021
2389 Clouds 3 1007 93 10000 5.14 240 04:41 19.02.2021
2390 Rain 5 1004 87 10000 9.77 270 01:48 19.02.2021
2391 Rain 6 1004 93 7000 7.2 190 00:37 19.02.2021
2392 Rain 6 1004 93 5000 7.2 160 23:56 18.02.2021
2393 Rain 6 1004 93 5000 7.2 160 23:35 18.02.2021
2394 Rain 6 1004 87 4900 6.69 170 22:50 18.02.2021
2395 Rain 6 1005 81 9000 7.72 160 22:30 18.02.2021
2396 Rain 6 1005 81 9000 7.72 160 21:52 18.02.2021
2397 Rain 7 1005 71 10000 8.23 160 21:26 18.02.2021
2398 Rain 7 1005 71 10000 8.23 160 20:44 18.02.2021
2399 Rain 7 1006 76 10000 8.23 150 20:24 18.02.2021
2400 Clouds 6 1006 76 10000 8.23 150 19:56 18.02.2021
2401 Clouds 6 1006 76 10000 8.23 150 19:37 18.02.2021
2402 Clouds 7 1007 76 10000 6.69 150 19:18 18.02.2021
2403 Clouds 7 1007 76 10000 6.69 150 18:42 18.02.2021
2404 Clouds 7 1007 76 10000 6.69 150 18:24 18.02.2021
2405 Clouds 7 1007 76 10000 6.69 150 17:42 18.02.2021
2406 Clouds 7 1008 81 10000 6.69 140 17:23 18.02.2021
2407 Clouds 7 1008 81 10000 6.69 140 16:41 18.02.2021
2408 Clouds 8 1009 76 10000 6.17 140 16:22 18.02.2021
2409 Clouds 8 1009 76 10000 6.17 140 15:41 18.02.2021
2410 Clouds 9 1010 71 10000 5.14 150 15:22 18.02.2021
2411 Clouds 9 1010 71 10000 5.14 150 14:50 18.02.2021
2412 Clouds 9 1011 76 10000 5.14 150 14:29 18.02.2021
2413 Clouds 9 1011 76 10000 5.14 150 13:46 18.02.2021
2414 Clouds 8 1012 87 10000 6.17 150 13:20 18.02.2021
2415 Clouds 8 1012 87 10000 6.17 150 12:53 18.02.2021
2416 Clouds 7 1013 87 10000 5.66 160 12:25 18.02.2021
2417 Clouds 7 1013 87 10000 5.66 160 11:47 18.02.2021
2418 Clouds 7 1013 87 10000 6.17 180 11:27 18.02.2021
2419 Clouds 6 1013 87 10000 6.17 180 10:53 18.02.2021
2420 Clouds 6 1013 87 10000 6.17 180 10:35 18.02.2021
2421 Clouds 6 1013 93 6000 5.66 170 09:57 18.02.2021
2422 Clouds 6 1013 93 6000 6.69 170 09:28 18.02.2021
2423 Clouds 5 1013 93 6000 6.69 170 08:48 18.02.2021
2424 Clouds 5 1013 100 5000 6.69 180 08:30 18.02.2021
2425 Clouds 5 1013 100 5000 6.69 180 07:47 18.02.2021
2426 Clouds 6 1013 100 2700 5.14 180 07:20 18.02.2021
2427 Clouds 6 1013 100 4100 4.12 180 05:42 18.02.2021
2428 Clouds 6 1013 100 4100 4.12 180 05:42 18.02.2021
2429 Clouds 6 1014 93 2400 5.14 190 00:26 18.02.2021
2430 Clouds 6 1014 93 2400 5.14 190 23:38 17.02.2021
2431 Clouds 6 1014 93 2400 5.14 190 23:38 17.02.2021
2432 Clouds 5 1014 93 2300 6.17 190 22:59 17.02.2021
2433 Rain 5 1014 93 2300 6.17 190 22:39 17.02.2021
2434 Clouds 5 1014 100 1600 6.17 170 22:21 17.02.2021
2435 Rain 5 1014 100 1600 6.17 170 21:44 17.02.2021
2436 Rain 5 1014 93 2100 5.14 180 21:20 17.02.2021
2437 Rain 4 1014 93 2100 5.14 180 20:42 17.02.2021
2438 Rain 4 1014 100 1500 4.12 170 20:23 17.02.2021
2439 Clouds 4 1014 100 1500 4.12 170 19:38 17.02.2021
2440 Clouds 4 1014 100 800 3.09 190 18:59 17.02.2021
2441 Clouds 4 1014 100 800 3.09 190 18:40 17.02.2021
2442 Clouds 3 1013 93 800 2.57 220 17:59 17.02.2021
2443 Clouds 3 1013 93 800 2.57 220 17:36 17.02.2021
2444 Clouds 3 1013 100 1700 4.63 250 17:18 17.02.2021
2445 Clouds 3 1013 100 1700 4.63 250 16:42 17.02.2021
2446 Clouds 4 1013 93 6000 6.69 250 16:22 17.02.2021
2447 Clouds 5 1013 93 6000 6.69 250 15:43 17.02.2021
2448 Clouds 5 1012 100 5000 6.69 250 15:22 17.02.2021
2449 Clouds 5 1012 100 5000 6.69 250 14:45 17.02.2021
2450 Clouds 5 1012 100 1600 6.69 250 14:26 17.02.2021
2451 Clouds 4 1012 100 1600 6.69 250 13:45 17.02.2021
2452 Clouds 5 1011 100 1900 7.2 260 13:27 17.02.2021
2453 Clouds 4 1011 100 1900 7.2 260 12:44 17.02.2021
2454 Clouds 4 1010 100 300 6.17 250 12:22 17.02.2021
2455 Clouds 4 1010 100 300 6.17 250 11:38 17.02.2021
2456 Clouds 4 1009 93 450 5.66 260 11:18 17.02.2021
2457 Clouds 4 1009 93 450 5.66 260 10:44 17.02.2021
2458 Clouds 3 1009 100 300 5.66 260 10:24 17.02.2021
2459 Clouds 3 1009 100 300 5.66 260 09:45 17.02.2021
2460 Clouds 3 1008 100 250 6.17 260 09:25 17.02.2021
2461 Clouds 3 1008 100 250 6.17 260 08:43 17.02.2021
2462 Clouds 3 1007 100 1300 6.69 250 08:22 17.02.2021
2463 Clouds 3 1007 100 1300 6.69 250 07:34 17.02.2021
2464 Clouds 3 1006 100 250 7.2 260 06:35 17.02.2021
2465 Clouds 3 1006 100 250 7.2 260 06:35 17.02.2021
2466 Rain 4 1005 93 1900 5.14 210 02:44 17.02.2021
2467 Rain 4 1005 93 2100 5.14 190 02:22 17.02.2021
2468 Rain 3 1005 93 1800 5.14 180 01:30 17.02.2021
2469 Clouds 3 1006 93 3200 5.14 180 00:24 17.02.2021
2470 Clouds 3 1006 93 3200 5.14 180 23:38 16.02.2021
2471 Clouds 3 1006 100 2100 2.57 180 22:45 16.02.2021
2472 Rain 3 1007 100 3200 4.12 170 22:26 16.02.2021
2473 Rain 3 1007 100 3200 4.12 170 21:59 16.02.2021
2474 Rain 3 1007 100 3200 4.12 170 21:39 16.02.2021
2475 Rain 3 1008 100 2800 3.09 170 21:21 16.02.2021
2476 Clouds 3 1008 100 2800 3.09 170 20:47 16.02.2021
2477 Clouds 3 1008 93 2200 4.12 160 20:24 16.02.2021
2478 Rain 3 1008 93 2200 4.12 160 19:48 16.02.2021
2479 Rain 3 1009 93 1500 3.6 170 19:28 16.02.2021
2480 Rain 3 1009 93 1500 3.6 170 18:50 16.02.2021
2481 Rain 2 1009 100 550 4.12 150 18:26 16.02.2021
2482 Rain 2 1009 100 550 4.12 150 17:56 16.02.2021
2483 Rain 2 1009 100 550 4.12 150 17:37 16.02.2021
2484 Rain 2 1010 100 1100 4.63 150 17:19 16.02.2021
2485 Clouds 2 1010 100 1100 4.63 150 16:42 16.02.2021
2486 Clouds 3 1012 93 1300 3.6 160 16:20 16.02.2021
2487 Clouds 3 1012 93 1300 3.6 160 15:36 16.02.2021
2488 Clouds 3 1012 93 2100 3.6 160 15:18 16.02.2021
2489 Clouds 3 1012 93 2100 3.6 160 14:41 16.02.2021
2490 Clouds 2 1013 100 2200 2.06 190 14:23 16.02.2021
2491 Clouds 2 1013 100 2200 2.06 190 13:47 16.02.2021
2492 Rain 2 1013 93 650 5.14 140 13:22 16.02.2021
2493 Rain 2 1013 93 650 5.14 140 12:43 16.02.2021
2494 Clouds 1 1015 100 800 2.06 160 12:20 16.02.2021
2495 Clouds 1 1015 100 800 2.06 160 11:44 16.02.2021
2496 Clouds 1 1016 100 800 2.57 160 11:22 16.02.2021
2497 Clouds 1 1016 100 800 2.57 160 10:49 16.02.2021
2498 Clouds 1 1016 93 1000 2.57 150 10:30 16.02.2021
2499 Clouds 1 1016 93 1000 2.57 150 09:55 16.02.2021
2500 Clouds 0 1016 100 1100 4.12 150 09:29 16.02.2021
2501 Clouds 0 1016 100 1100 4.12 150 08:58 16.02.2021
2502 Clouds 0 1016 100 1100 4.12 150 08:38 16.02.2021
2503 Clouds 0 1017 93 1500 2.57 150 08:18 16.02.2021
2504 Clouds 0 1017 93 1200 1.54 130 07:18 16.02.2021
2505 Clouds 0 1017 93 1200 1.54 130 07:18 16.02.2021
2506 Clouds -1 1018 93 600 1.54 130 03:21 16.02.2021
2507 Clouds -2 1019 100 1100 1.54 160 00:44 16.02.2021
2508 Clouds -2 1018 93 5000 2.57 140 23:31 15.02.2021
2509 Clouds -2 1018 93 5000 2.57 140 22:59 15.02.2021
2510 Clouds -2 1018 93 5000 2.57 140 22:40 15.02.2021
2511 Clouds -2 1019 93 6000 1.54 130 21:59 15.02.2021
2512 Clouds -2 1019 93 6000 1.54 130 21:38 15.02.2021
2513 Clouds -2 1019 93 5000 2.06 130 21:19 15.02.2021
2514 Clouds -2 1019 93 5000 2.06 130 20:45 15.02.2021
2515 Clouds -2 1019 93 2400 3.09 140 20:24 15.02.2021
2516 Clouds -2 1019 93 2400 3.09 140 19:44 15.02.2021
2517 Snow -2 1019 93 3600 3.6 160 19:22 15.02.2021
2518 Snow -2 1019 93 3600 3.6 160 18:44 15.02.2021
2519 Snow -2 1020 93 1600 4.12 150 18:26 15.02.2021
2520 Snow -2 1020 93 1600 4.12 150 17:42 15.02.2021
2521 Snow -2 1020 86 2600 4.63 160 17:22 15.02.2021
2522 Snow -2 1020 86 2600 4.63 160 16:55 15.02.2021
2523 Snow -1 1021 51 10000 4.63 160 16:27 15.02.2021
2524 Snow -1 1021 51 10000 4.63 160 15:50 15.02.2021
2525 Snow -1 1021 47 10000 6.69 150 15:23 15.02.2021
2526 Snow 0 1021 47 10000 6.69 150 14:54 15.02.2021
2527 Snow 0 1021 47 10000 6.69 150 14:36 15.02.2021
2528 Snow 0 1023 40 10000 6.69 180 14:18 15.02.2021
2529 Snow 1 1023 40 10000 6.69 180 13:45 15.02.2021
2530 Snow 0 1023 40 10000 8.75 160 13:18 15.02.2021
2531 Snow 0 1023 40 10000 8.75 160 12:43 15.02.2021
2532 Snow 0 1024 40 10000 7.2 160 12:20 15.02.2021
2533 Snow 0 1024 40 10000 7.2 160 12:20 15.02.2021
2534 Snow 0 1024 40 10000 7.2 160 11:42 15.02.2021
2535 Snow 0 1025 37 10000 7.2 170 11:19 15.02.2021
2536 Snow 0 1025 37 10000 7.2 170 10:46 15.02.2021
2537 Snow 0 1025 37 10000 8.23 150 10:23 15.02.2021
2538 Snow 0 1025 37 10000 8.23 150 09:54 15.02.2021
2539 Snow 0 1025 37 10000 8.23 150 09:33 15.02.2021
2540 Snow 0 1027 37 10000 7.72 170 08:45 15.02.2021
2541 Snow -1 1027 37 10000 7.72 170 07:40 15.02.2021
2542 Snow 0 1027 37 10000 8.75 160 06:58 15.02.2021
2543 Snow 0 1027 37 10000 8.75 160 06:37 15.02.2021
2544 Clouds -2 1033 50 10000 6.69 160 02:30 15.02.2021
2545 Clouds -2 1033 54 10000 7.72 160 00:45 15.02.2021
2546 Clouds -2 1034 54 10000 7.72 170 23:41 14.02.2021
2547 Clouds -2 1034 59 10000 6.17 170 23:22 14.02.2021
2548 Clouds -2 1034 59 10000 6.17 170 22:38 14.02.2021
2549 Clouds -2 1035 59 10000 5.14 160 22:19 14.02.2021
2550 Clouds -2 1035 59 10000 5.14 160 21:47 14.02.2021
2551 Clouds -2 1035 59 10000 4.63 160 21:28 14.02.2021
2552 Clouds -2 1035 59 10000 4.63 160 20:44 14.02.2021
2553 Clouds -2 1036 59 10000 4.12 160 20:26 14.02.2021
2554 Clouds -2 1036 59 10000 4.12 160 19:46 14.02.2021
2555 Clouds -2 1036 59 10000 4.12 160 18:51 14.02.2021
2556 Clouds -2 1036 59 10000 4.12 160 18:51 14.02.2021
2557 Clouds -2 1037 59 10000 4.12 150 18:29 14.02.2021
2558 Clouds -2 1037 59 10000 4.12 150 17:56 14.02.2021
2559 Clouds -2 1037 59 10000 4.12 150 17:35 14.02.2021
2560 Clouds -1 1037 55 10000 2.57 150 16:52 14.02.2021
2561 Clouds -1 1038 51 10000 2.57 140 16:27 14.02.2021
2562 Clouds 0 1038 51 10000 2.57 140 15:49 14.02.2021
2563 Clouds 0 1038 51 10000 3.6 170 15:30 14.02.2021
2564 Clouds 0 1038 51 10000 3.6 170 14:48 14.02.2021
2565 Clouds -1 1039 55 10000 2.06 170 14:27 14.02.2021
2566 Clouds -1 1039 55 10000 2.06 170 13:49 14.02.2021
2567 Clouds -1 1039 59 9000 2.57 180 13:27 14.02.2021
2568 Clouds -1 1039 59 9000 2.57 180 12:40 14.02.2021
2569 Clouds -2 1040 64 10000 2.57 180 12:19 14.02.2021
2570 Clouds -2 1040 64 10000 2.57 180 11:50 14.02.2021
2571 Clear -4 1040 86 6000 1.54 0 11:21 14.02.2021
2572 Clear -5 1040 86 6000 1.54 0 10:37 14.02.2021
2573 Clear -9 1040 85 6000 1.03 180 09:56 14.02.2021
2574 Clear -9 1040 85 6000 1.03 180 09:38 14.02.2021
2575 Clear -11 1040 85 5000 2.57 210 09:19 14.02.2021
2576 Clear -10 1040 85 5000 2.57 210 08:35 14.02.2021
2577 Clear -11 1040 92 6000 2.57 210 07:56 14.02.2021
2578 Clouds -11 1040 85 7000 2.06 190 06:49 14.02.2021
2579 Clear -11 1040 85 6000 1.54 250 05:41 14.02.2021
2580 Clear -9 1040 85 6000 1.54 240 03:30 14.02.2021
2581 Clear -9 1041 85 5000 3.09 260 01:57 14.02.2021
2582 Clear -9 1041 92 6000 2.06 260 00:47 14.02.2021
2583 Clear -9 1041 92 5000 2.06 270 00:22 14.02.2021
2584 Clear -9 1041 92 5000 2.06 270 23:40 13.02.2021
2585 Clear -8 1041 92 7000 2.06 250 23:20 13.02.2021
2586 Clear -9 1041 92 7000 2.06 250 22:41 13.02.2021
2587 Clear -9 1041 86 9000 2.57 260 22:18 13.02.2021
2588 Clear -8 1041 86 9000 2.57 260 21:42 13.02.2021
2589 Clear -9 1041 86 10000 2.06 230 20:54 13.02.2021
2590 Clear -8 1041 79 10000 1.54 260 20:30 13.02.2021
2591 Clear -8 1041 79 10000 1.54 260 20:30 13.02.2021
2592 Clear -7 1041 79 10000 1.54 260 19:55 13.02.2021
2593 Clear -7 1041 79 10000 1.54 260 19:37 13.02.2021
2594 Clear -6 1041 74 10000 1.03 340 19:18 13.02.2021
2595 Clear -5 1041 74 10000 1.03 340 18:38 13.02.2021
2596 Clear -3 1041 63 10000 1.54 330 17:57 13.02.2021
2597 Clear -3 1041 63 10000 1.54 330 17:38 13.02.2021
2598 Clear -2 1041 55 10000 2.57 340 17:19 13.02.2021
2599 Clear -1 1041 55 10000 2.57 340 16:42 13.02.2021
2600 Clear -1 1041 59 10000 1.03 280 16:20 13.02.2021
2601 Clear -1 1041 59 10000 1.03 280 15:34 13.02.2021
2602 Clear -1 1041 64 10000 2.06 270 14:51 13.02.2021
2603 Clear -1 1041 74 7000 1.54 350 14:31 13.02.2021
2604 Clear -1 1041 74 7000 1.54 350 13:48 13.02.2021
2605 Clear -1 1041 69 7000 0.51 260 13:24 13.02.2021
2606 Clear -1 1041 69 7000 0.51 260 12:46 13.02.2021
2607 Clear -3 1041 80 8000 1.54 270 12:18 13.02.2021
2608 Clear -4 1041 80 8000 1.54 270 11:45 13.02.2021
2609 Clear -5 1041 86 7000 0.99 345 11:19 13.02.2021
2610 Clear -6 1041 86 7000 0.99 345 10:46 13.02.2021
2611 Clear -8 1041 92 7000 1.03 270 10:25 13.02.2021
2612 Clear -9 1041 92 7000 1.03 270 09:55 13.02.2021
2613 Clear -10 1041 85 8000 1.54 280 09:30 13.02.2021
2614 Clear -10 1041 85 8000 1.54 280 08:55 13.02.2021
2615 Clear -10 1041 85 8000 1.54 280 08:34 13.02.2021
2616 Clear -10 1041 85 8000 1.54 280 07:52 13.02.2021
2617 Clear -10 1041 92 6000 2.57 270 06:39 13.02.2021
2618 Clear -10 1040 92 9000 2.06 270 05:26 13.02.2021
2619 Clear -10 1040 92 10000 1.54 300 03:58 13.02.2021
2620 Clear -8 1040 79 10000 1.54 290 01:43 13.02.2021
2621 Clear -7 1040 93 10000 2.06 290 00:36 13.02.2021
2622 Clear -8 1040 86 10000 1.54 360 23:54 12.02.2021
2623 Clear -7 1040 79 10000 1.54 330 23:24 12.02.2021
2624 Clear -9 1040 79 10000 1.54 330 22:44 12.02.2021
2625 Clear -8 1040 79 10000 2.06 10 22:25 12.02.2021
2626 Clear -9 1040 79 10000 2.06 10 21:46 12.02.2021
2627 Clear -8 1040 73 10000 2.57 360 21:27 12.02.2021
2628 Clear -8 1040 73 10000 2.57 360 20:49 12.02.2021
2629 Clear -8 1040 74 10000 3.09 360 20:30 12.02.2021
2630 Clear -7 1040 74 10000 3.09 360 19:58 12.02.2021
2631 Clear -6 1040 74 10000 3.09 360 19:38 12.02.2021
2632 Clear -5 1039 74 10000 4.12 10 18:58 12.02.2021
2633 Clear -5 1039 68 10000 4.12 30 18:30 12.02.2021
2634 Clear -4 1039 68 10000 4.12 30 17:47 12.02.2021
2635 Clear -3 1039 59 10000 3.6 30 17:22 12.02.2021
2636 Clear -3 1039 59 10000 3.6 30 16:36 12.02.2021
2637 Clear -2 1039 54 10000 5.14 30 15:47 12.02.2021
2638 Clear -2 1039 54 10000 3.6 40 15:21 12.02.2021
2639 Clear -2 1039 54 10000 3.6 40 14:43 12.02.2021
2640 Clear -2 1039 59 10000 4.63 30 14:24 12.02.2021
2641 Clear -2 1039 59 10000 4.63 30 13:41 12.02.2021
2642 Clear -2 1039 59 10000 3.6 50 13:22 12.02.2021
2643 Clear -3 1039 59 10000 3.6 50 12:49 12.02.2021
2644 Clear -2 1038 54 10000 4.12 50 12:31 12.02.2021
2645 Clear -3 1038 54 10000 4.12 50 11:43 12.02.2021
2646 Clear -4 1038 58 10000 3.6 60 11:20 12.02.2021
2647 Clear -5 1038 58 10000 3.6 60 10:46 12.02.2021
2648 Clear -7 1038 73 10000 2.57 60 09:52 12.02.2021
2649 Clear -10 1037 85 10000 3.6 60 09:29 12.02.2021
2650 Clear -10 1037 85 10000 3.6 60 08:57 12.02.2021
2651 Clear -8 1037 85 10000 3.6 60 08:39 12.02.2021
2652 Clear -8 1037 79 10000 3.6 60 08:18 12.02.2021
2653 Clear -8 1037 79 10000 3.6 60 07:50 12.02.2021
2654 Clear -8 1037 79 10000 4.63 60 06:55 12.02.2021
2655 Clear -10 1036 79 10000 4.12 60 05:49 12.02.2021
2656 Clear -10 1036 73 10000 3.09 70 05:24 12.02.2021
2657 Clear -9 1035 68 10000 3.6 70 01:56 12.02.2021
2658 Clouds -7 1035 68 10000 4.12 60 23:44 11.02.2021
2659 Clouds -7 1034 73 10000 4.12 50 23:22 11.02.2021
2660 Clouds -7 1034 73 10000 4.12 50 22:58 11.02.2021
2661 Clouds -7 1034 73 10000 4.12 50 22:39 11.02.2021
2662 Clouds -6 1034 79 10000 3.6 50 22:21 11.02.2021
2663 Clouds -6 1034 79 10000 3.6 50 21:39 11.02.2021
2664 Clouds -5 1033 80 10000 4.63 60 21:19 11.02.2021
2665 Clouds -5 1033 80 10000 4.63 60 20:46 11.02.2021
2666 Clouds -5 1033 80 10000 3.6 50 20:22 11.02.2021
2667 Clouds -5 1033 80 10000 3.6 50 19:50 11.02.2021
2668 Clouds -5 1033 80 10000 2.57 60 19:31 11.02.2021
2669 Clouds -5 1033 80 10000 2.57 60 18:58 11.02.2021
2670 Clouds -5 1033 86 10000 4.63 30 18:30 11.02.2021
2671 Snow -4 1032 86 5000 4.12 30 17:55 11.02.2021
2672 Snow -4 1032 86 5000 4.12 30 17:36 11.02.2021
2673 Clouds -4 1032 74 10000 5.14 40 17:18 11.02.2021
2674 Clouds -3 1032 74 10000 4.63 30 16:41 11.02.2021
2675 Clouds -3 1031 76 10000 1.79 35 16:22 11.02.2021
2676 Clouds -3 1030 64 10000 5.66 30 15:44 11.02.2021
2677 Snow -3 1030 64 10000 5.66 30 15:26 11.02.2021
2678 Clouds -3 1030 64 10000 5.66 30 14:47 11.02.2021
2679 Snow -2 1030 69 10000 5.14 30 14:29 11.02.2021
2680 Snow -3 1030 69 10000 5.14 30 13:41 11.02.2021
2681 Snow -3 1030 69 10000 6.69 30 13:19 11.02.2021
2682 Snow -3 1030 69 10000 6.69 30 12:53 11.02.2021
2683 Snow -2 1029 64 10000 6.17 40 12:30 11.02.2021
2684 Clouds -3 1029 64 10000 6.17 40 11:46 11.02.2021
2685 Clouds -3 1029 74 10000 7.2 40 11:25 11.02.2021
2686 Clouds -3 1029 74 10000 7.2 40 10:45 11.02.2021
2687 Clouds -4 1028 80 10000 6.69 40 10:26 11.02.2021
2688 Clouds -4 1028 80 10000 6.69 40 09:54 11.02.2021
2689 Clouds -6 1028 80 10000 4.63 10 09:24 11.02.2021
2690 Clouds -6 1028 80 10000 4.63 10 08:54 11.02.2021
2691 Clouds -6 1027 86 2900 6.17 20 08:28 11.02.2021
2692 Clouds -5 1027 86 2900 6.17 20 07:39 11.02.2021
2693 Clouds -5 1026 86 8000 5.14 10 06:41 11.02.2021
2694 Clouds -5 1026 80 10000 2.57 350 05:38 11.02.2021
2695 Clouds -7 1024 79 10000 2.57 10 02:29 11.02.2021
2696 Clouds -7 1023 74 10000 4.12 10 01:29 11.02.2021
2697 Clouds -6 1022 74 10000 4.12 10 00:22 11.02.2021
2698 Clouds -6 1022 74 10000 4.12 10 23:45 10.02.2021
2699 Clouds -5 1021 68 10000 5.66 10 23:18 10.02.2021
2700 Clouds -5 1021 68 10000 5.66 10 22:42 10.02.2021
2701 Clouds -5 1021 68 10000 5.14 360 22:18 10.02.2021
2702 Clouds -4 1021 68 10000 5.14 360 21:39 10.02.2021
2703 Clouds -4 1020 59 10000 8.23 30 21:20 10.02.2021
2704 Clouds -4 1020 59 10000 8.23 30 20:47 10.02.2021
2705 Clouds -4 1019 59 10000 8.75 30 20:24 10.02.2021
2706 Clouds -4 1019 59 10000 8.75 30 19:48 10.02.2021
2707 Clouds -4 1019 59 10000 8.75 30 19:27 10.02.2021
2708 Clouds -3 1019 59 10000 8.75 30 18:47 10.02.2021
2709 Clouds -3 1018 59 10000 7.2 40 18:26 10.02.2021
2710 Clouds -2 1018 59 10000 7.2 40 17:57 10.02.2021
2711 Clouds -2 1017 54 10000 8.75 30 17:26 10.02.2021
2712 Clouds -2 1017 54 10000 8.75 30 16:59 10.02.2021
2713 Clouds -2 1017 54 10000 8.75 30 16:41 10.02.2021
2714 Clouds -2 1016 55 10000 7.72 40 16:22 10.02.2021
2715 Clouds -1 1015 59 10000 8.23 30 15:24 10.02.2021
2716 Clouds -2 1015 59 10000 8.23 30 14:53 10.02.2021
2717 Clouds -2 1015 59 10000 8.23 30 14:34 10.02.2021
2718 Clouds -2 1015 59 10000 8.23 30 13:55 10.02.2021
2719 Clouds -2 1015 59 10000 8.23 30 13:55 10.02.2021
2720 Clouds -2 1014 59 10000 6.69 30 13:30 10.02.2021
2721 Clouds -2 1014 59 10000 6.69 30 12:55 10.02.2021
2722 Clouds -2 1014 64 10000 8.23 30 12:31 10.02.2021
2723 Clouds -2 1014 64 10000 8.23 30 11:59 10.02.2021
2724 Clouds -2 1014 64 10000 8.23 30 11:39 10.02.2021
2725 Clouds -3 1013 74 10000 5.66 50 11:21 10.02.2021
2726 Clouds -3 1013 74 10000 5.66 50 10:37 10.02.2021
2727 Clouds -4 1013 80 10000 4.63 40 10:18 10.02.2021
2728 Clouds -4 1013 80 10000 4.63 40 09:33 10.02.2021
2729 Clouds -5 1012 86 10000 4.12 40 08:57 10.02.2021
2730 Clouds -5 1012 86 10000 4.12 40 08:39 10.02.2021
2731 Clouds -6 1012 80 10000 4.12 50 07:52 10.02.2021
2732 Clouds -6 1011 80 10000 5.14 30 06:44 10.02.2021
2733 Clouds -4 1012 80 10000 4.12 50 02:45 10.02.2021
2734 Clouds -4 1011 86 4200 3.6 60 00:25 10.02.2021
2735 Clouds -4 1011 86 4200 3.6 60 23:34 09.02.2021
2736 Clouds -3 1011 74 10000 4.12 60 22:54 09.02.2021
2737 Clouds -3 1011 68 10000 4.12 60 22:24 09.02.2021
2738 Clouds -3 1011 68 10000 4.12 60 21:52 09.02.2021
2739 Clouds -3 1011 68 10000 4.12 60 21:33 09.02.2021
2740 Clouds -3 1011 63 10000 4.63 60 20:50 09.02.2021
2741 Clouds -3 1011 63 10000 4.12 60 20:27 09.02.2021
2742 Clouds -3 1011 63 10000 4.12 60 19:59 09.02.2021
2743 Clouds -3 1011 63 10000 4.12 60 19:38 09.02.2021
2744 Clouds -3 1011 68 10000 3.6 70 18:58 09.02.2021
2745 Clouds -3 1011 68 10000 3.6 70 18:37 09.02.2021
2746 Clouds -2 1010 64 10000 5.66 50 17:58 09.02.2021
2747 Clouds -2 1010 64 10000 5.66 50 17:40 09.02.2021
2748 Clouds -2 1010 59 10000 4.63 50 17:21 09.02.2021
2749 Clouds -2 1010 59 10000 4.63 50 16:42 09.02.2021
2750 Clouds -2 1010 54 10000 5.66 50 16:19 09.02.2021
2751 Clouds -2 1010 54 10000 5.66 50 15:50 09.02.2021
2752 Clouds -1 1010 51 10000 5.66 50 15:26 09.02.2021
2753 Clouds -1 1010 51 10000 5.66 50 14:55 09.02.2021
2754 Clouds -1 1010 51 10000 5.66 50 14:28 09.02.2021
2755 Clouds -1 1010 51 10000 5.66 50 13:52 09.02.2021
2756 Clouds -1 1010 51 10000 6.17 60 13:26 09.02.2021
2757 Clouds -1 1010 51 10000 6.17 60 12:54 09.02.2021
2758 Clouds -1 1010 51 10000 6.17 60 12:36 09.02.2021
2759 Clouds -2 1010 54 10000 6.69 60 11:59 09.02.2021
2760 Clouds -2 1010 54 10000 6.69 60 11:59 09.02.2021
2761 Clouds -2 1010 54 10000 6.69 60 11:40 09.02.2021
2762 Clouds -2 1010 54 10000 7.2 60 11:20 09.02.2021
2763 Clouds -2 1010 54 10000 7.2 60 11:20 09.02.2021
2764 Clouds -2 1010 54 10000 7.2 60 10:50 09.02.2021
2765 Clouds -2 1009 59 10000 7.2 60 10:19 09.02.2021
2766 Clouds -2 1009 59 10000 7.2 60 09:43 09.02.2021
2767 Clouds -3 1009 59 10000 5.66 60 09:25 09.02.2021
2768 Clouds -3 1009 59 10000 5.66 60 08:47 09.02.2021
2769 Clouds -3 1008 63 10000 6.69 60 08:26 09.02.2021
2770 Clouds -3 1008 63 10000 7.2 50 07:29 09.02.2021
2771 Clouds -3 1008 63 10000 7.2 50 04:55 09.02.2021
2772 Clouds -3 1008 63 10000 8.23 50 03:42 09.02.2021
2773 Snow -3 1008 63 10000 7.2 50 01:20 09.02.2021
2774 Snow -3 1008 63 10000 6.69 50 23:58 08.02.2021
2775 Snow -3 1008 68 10000 7.72 60 23:22 08.02.2021
2776 Snow -3 1008 68 10000 7.72 60 22:46 08.02.2021
2777 Snow -3 1008 68 10000 6.69 60 22:26 08.02.2021
2778 Snow -3 1008 68 10000 6.69 60 21:58 08.02.2021
2779 Snow -3 1008 68 10000 6.69 60 21:38 08.02.2021
2780 Snow -3 1008 68 10000 8.23 60 21:19 08.02.2021
2781 Snow -3 1008 68 10000 8.23 60 20:44 08.02.2021
2782 Snow -3 1008 68 10000 6.69 50 20:23 08.02.2021
2783 Snow -3 1008 68 10000 6.69 50 19:49 08.02.2021
2784 Snow -2 1008 59 10000 6.69 70 19:27 08.02.2021
2785 Snow -2 1008 59 10000 6.69 70 18:50 08.02.2021
2786 Snow -2 1008 59 10000 8.75 70 18:25 08.02.2021
2787 Snow -2 1008 59 10000 8.75 70 17:59 08.02.2021
2788 Snow -2 1008 59 10000 8.75 70 17:41 08.02.2021
2789 Snow -2 1008 64 10000 8.75 70 17:21 08.02.2021
2790 Snow -2 1008 64 10000 8.75 70 16:40 08.02.2021
2791 Snow -2 1008 64 10000 7.2 70 16:20 08.02.2021
2792 Snow -2 1008 64 10000 7.2 70 15:38 08.02.2021
2793 Clouds -2 1008 64 10000 8.75 70 15:19 08.02.2021
2794 Clouds -2 1008 64 10000 8.75 70 14:51 08.02.2021
2795 Clouds -2 1009 74 10000 6.69 70 14:29 08.02.2021
2796 Clouds -2 1009 74 10000 6.69 70 13:54 08.02.2021
2797 Clouds -2 1009 74 3400 8.75 70 13:28 08.02.2021
2798 Clouds -2 1009 74 3400 8.75 70 13:28 08.02.2021
2799 Clouds -2 1009 74 3400 8.75 70 12:42 08.02.2021
2800 Clouds -3 1010 80 6000 8.23 70 12:24 08.02.2021
2801 Clouds -3 1010 80 6000 8.23 70 11:39 08.02.2021
2802 Clouds -3 1010 80 2400 7.72 60 11:18 08.02.2021
2803 Clouds -3 1010 80 2400 7.72 60 10:39 08.02.2021
2804 Snow -3 1010 80 2800 8.75 70 10:20 08.02.2021
2805 Clouds -3 1010 80 2800 8.75 70 09:48 08.02.2021
2806 Clouds -3 1010 80 1900 5.66 70 09:21 08.02.2021
2807 Clouds -3 1011 86 9000 6.69 70 08:31 08.02.2021
2808 Clouds -3 1011 86 9000 6.69 70 07:49 08.02.2021
2809 Clouds -3 1011 86 2300 7.2 70 07:21 08.02.2021
2810 Clouds -2 1011 59 10000 10.8 90 05:28 08.02.2021
2811 Clouds -3 1012 86 1300 7.72 70 02:27 08.02.2021
2812 Snow -3 1013 86 1200 7.2 70 00:43 08.02.2021
2813 Snow -2 1013 69 8000 7.72 80 00:18 08.02.2021
2814 Snow -2 1013 69 8000 7.72 80 23:46 07.02.2021
2815 Snow -3 1014 93 500 6.69 80 23:19 07.02.2021
2816 Snow -3 1014 93 500 6.69 80 22:43 07.02.2021
2817 Snow -2 1014 80 7000 7.72 70 22:24 07.02.2021
2818 Snow -2 1014 80 7000 7.72 70 21:51 07.02.2021
2819 Snow -2 1014 80 10000 6.69 70 21:26 07.02.2021
2820 Snow -2 1014 80 10000 6.69 70 20:53 07.02.2021
2821 Snow -2 1014 80 10000 6.69 70 20:33 07.02.2021
2822 Clouds -2 1014 80 10000 7.2 70 19:55 07.02.2021
2823 Clouds -2 1014 80 10000 7.72 70 19:31 07.02.2021
2824 Clouds -2 1014 80 10000 7.72 70 18:56 07.02.2021
2825 Clouds -2 1014 80 10000 7.72 70 18:36 07.02.2021
2826 Clouds -2 1014 59 10000 10.29 100 18:18 07.02.2021
2827 Clouds -2 1014 59 10000 10.29 100 17:41 07.02.2021
2828 Clouds -2 1014 59 10000 8.75 100 17:19 07.02.2021
2829 Clouds -2 1014 59 10000 8.75 100 16:47 07.02.2021
2830 Clouds -2 1015 59 10000 9.77 90 16:26 07.02.2021
2831 Clouds -1 1015 59 10000 9.77 90 15:55 07.02.2021
2832 Clouds -1 1015 59 10000 9.77 90 15:37 07.02.2021
2833 Clouds -1 1015 55 10000 9.77 100 15:18 07.02.2021
2834 Clouds -1 1015 55 10000 9.77 100 14:39 07.02.2021
2835 Clouds -1 1015 55 10000 10.29 100 14:19 07.02.2021
2836 Clouds -1 1015 55 10000 10.29 100 13:36 07.02.2021
2837 Clouds -1 1016 55 10000 11.32 100 12:59 07.02.2021
2838 Clouds -1 1016 55 10000 11.32 100 12:38 07.02.2021
2839 Clouds -1 1016 55 10000 9.77 100 12:19 07.02.2021
2840 Clouds -1 1016 59 10000 10.8 100 11:28 07.02.2021
2841 Clouds -1 1016 59 10000 10.8 100 10:58 07.02.2021
2842 Clouds -2 1016 55 10000 10.29 100 10:29 07.02.2021
2843 Clouds -2 1016 55 10000 10.29 100 09:51 07.02.2021
2844 Clouds -2 1015 59 10000 9.77 100 09:25 07.02.2021
2845 Clouds -2 1015 59 10000 9.77 100 08:50 07.02.2021
2846 Clouds -2 1016 59 10000 11.83 100 07:56 07.02.2021
2847 Clouds -2 1017 80 10000 8.23 80 06:21 07.02.2021
2848 Clouds -3 1017 80 9000 8.75 80 04:34 07.02.2021
2849 Snow -3 1019 74 10000 7.72 80 02:31 07.02.2021
2850 Snow -3 1019 80 8000 9.26 80 00:38 07.02.2021
2851 Snow -2 1020 80 10000 6.69 80 23:51 06.02.2021
2852 Snow -3 1020 80 10000 7.2 80 22:54 06.02.2021
2853 Snow -2 1020 74 10000 7.72 90 22:21 06.02.2021
2854 Snow -2 1020 74 10000 7.72 90 21:37 06.02.2021
2855 Snow -2 1020 80 10000 7.72 80 21:19 06.02.2021
2856 Snow -2 1020 80 10000 7.72 80 20:44 06.02.2021
2857 Snow -2 1020 80 10000 7.2 80 20:22 06.02.2021
2858 Snow -2 1020 80 10000 7.2 80 19:46 06.02.2021
2859 Clouds -2 1021 74 10000 8.75 80 19:25 06.02.2021
2860 Clouds -2 1021 74 10000 8.75 80 18:45 06.02.2021
2861 Clouds -2 1021 69 10000 7.72 80 18:26 06.02.2021
2862 Clouds -2 1021 69 10000 7.72 80 17:41 06.02.2021
2863 Clouds -2 1021 69 10000 7.72 90 17:21 06.02.2021
2864 Clouds -2 1021 69 10000 7.72 90 16:55 06.02.2021
2865 Clouds -2 1021 69 10000 7.72 80 16:30 06.02.2021
2866 Clouds -2 1021 69 10000 7.72 80 15:55 06.02.2021
2867 Clouds -2 1021 69 10000 7.72 80 15:36 06.02.2021
2868 Clouds -2 1021 69 10000 7.72 80 15:18 06.02.2021
2869 Clouds -1 1021 69 10000 7.72 80 14:43 06.02.2021
2870 Clouds -1 1022 74 10000 9.26 80 14:22 06.02.2021
2871 Clouds -1 1022 74 10000 9.26 80 14:22 06.02.2021
2872 Clouds -1 1022 74 10000 9.26 80 13:47 06.02.2021
2873 Clouds -1 1022 74 10000 8.23 80 12:51 06.02.2021
2874 Clouds -1 1022 74 10000 7.72 90 12:21 06.02.2021
2875 Clouds -1 1022 74 10000 7.72 90 11:45 06.02.2021
2876 Clouds -1 1022 80 10000 6.69 80 11:22 06.02.2021
2877 Clouds -2 1022 80 10000 6.69 80 10:56 06.02.2021
2878 Clouds -2 1022 80 10000 8.23 90 10:28 06.02.2021
2879 Clouds -2 1022 80 10000 8.23 90 09:56 06.02.2021
2880 Clouds -2 1022 80 10000 8.23 90 09:36 06.02.2021
2881 Clouds -2 1021 86 10000 7.72 80 09:18 06.02.2021
2882 Clouds -2 1021 86 10000 7.72 80 08:33 06.02.2021
2883 Clouds -2 1021 86 10000 6.69 80 07:59 06.02.2021
2884 Clouds -2 1021 86 10000 7.2 80 05:43 06.02.2021
2885 Clouds -2 1021 86 10000 8.23 90 03:56 06.02.2021
2886 Clouds -2 1020 74 10000 6.69 100 01:42 06.02.2021
2887 Clouds -1 1020 74 10000 8.23 100 00:47 06.02.2021
2888 Clouds -1 1020 74 10000 8.75 100 00:19 06.02.2021
2889 Clouds -1 1020 74 10000 8.75 100 23:43 05.02.2021
2890 Clouds -1 1020 74 10000 9.26 100 23:24 05.02.2021
2891 Clouds -1 1020 74 10000 9.26 100 22:47 05.02.2021
2892 Clouds -1 1020 74 10000 8.23 100 22:20 05.02.2021
2893 Clouds -1 1020 74 10000 8.23 100 21:47 05.02.2021
2894 Clouds -1 1020 80 10000 7.2 100 21:28 05.02.2021
2895 Clouds -1 1020 80 10000 7.2 100 20:46 05.02.2021
2896 Clouds 0 1019 80 10000 8.23 100 19:52 05.02.2021
2897 Clouds 0 1019 80 10000 6.69 90 19:20 05.02.2021
2898 Clouds 0 1019 80 10000 6.69 90 18:54 05.02.2021
2899 Clouds 0 1019 75 10000 7.2 100 18:28 05.02.2021
2900 Clouds 0 1019 75 10000 7.2 100 17:47 05.02.2021
2901 Clouds 0 1019 75 10000 8.23 100 17:27 05.02.2021
2902 Clouds 0 1019 75 10000 8.23 100 16:50 05.02.2021
2903 Clouds 1 1018 80 10000 8.23 100 16:28 05.02.2021
2904 Clouds 1 1018 80 10000 8.23 100 15:58 05.02.2021
2905 Clouds 1 1018 75 10000 7.72 110 15:27 05.02.2021
2906 Clouds 1 1018 75 10000 7.72 110 14:57 05.02.2021
2907 Clouds 1 1018 75 10000 7.72 110 14:37 05.02.2021
2908 Snow 1 1019 80 10000 7.72 100 14:18 05.02.2021
2909 Snow 1 1019 80 10000 7.72 100 13:39 05.02.2021
2910 Clouds 1 1019 80 10000 7.72 100 13:19 05.02.2021
2911 Clouds 1 1019 80 10000 7.72 100 12:41 05.02.2021
2912 Clouds 1 1019 80 10000 7.72 100 12:41 05.02.2021
2913 Clouds 1 1019 80 10000 6.69 100 11:59 05.02.2021
2914 Clouds 1 1019 80 10000 6.69 100 11:38 05.02.2021
2915 Clouds 1 1019 80 10000 5.66 100 11:19 05.02.2021
2916 Clouds 0 1019 80 10000 5.66 100 10:46 05.02.2021
2917 Clouds 0 1019 80 10000 5.66 90 10:24 05.02.2021
2918 Clouds 0 1019 80 10000 5.66 90 09:42 05.02.2021
2919 Clouds -1 1019 93 10000 4.12 90 09:23 05.02.2021
2920 Clouds -1 1019 93 10000 4.12 90 08:40 05.02.2021
2921 Clouds -1 1019 93 10000 3.6 90 07:41 05.02.2021
2922 Clouds -1 1019 86 10000 3.6 80 07:22 05.02.2021
2923 Clouds 0 1019 86 10000 3.6 80 06:32 05.02.2021
2924 Clouds 0 1018 93 10000 4.63 80 05:33 05.02.2021
2925 Clouds -1 1019 93 10000 3.09 60 02:26 05.02.2021
2926 Clouds -1 1019 93 10000 3.09 60 01:43 05.02.2021
2927 Clouds -1 1019 86 10000 3.09 70 00:37 05.02.2021
2928 Clouds -1 1019 86 10000 3.09 80 00:19 05.02.2021
2929 Clouds -1 1019 86 10000 3.09 80 23:42 04.02.2021
2930 Clouds -1 1019 86 10000 3.09 80 23:42 04.02.2021
2931 Clouds -1 1019 93 10000 2.57 80 23:23 04.02.2021
2932 Clouds -1 1019 93 10000 2.57 80 22:55 04.02.2021
2933 Clouds -1 1019 93 10000 2.57 80 22:35 04.02.2021
2934 Clouds -1 1019 93 10000 3.09 60 21:58 04.02.2021
2935 Clouds -1 1019 93 10000 3.09 60 21:40 04.02.2021
2936 Snow -1 1018 93 10000 3.09 70 20:58 04.02.2021
2937 Snow -1 1018 93 10000 3.09 70 20:34 04.02.2021
2938 Clouds -1 1018 86 10000 3.6 70 19:53 04.02.2021
2939 Clouds -1 1018 86 10000 3.6 70 19:32 04.02.2021
2940 Snow -1 1018 86 10000 3.6 70 18:51 04.02.2021
2941 Clouds -1 1018 86 10000 3.09 70 18:24 04.02.2021
2942 Clouds -1 1018 86 10000 3.09 70 17:51 04.02.2021
2943 Clouds -1 1017 86 10000 2.06 60 17:24 04.02.2021
2944 Clouds -1 1017 86 10000 2.06 60 16:56 04.02.2021
2945 Clouds -1 1017 86 10000 2.06 60 16:38 04.02.2021
2946 Clouds -1 1017 86 10000 2.06 80 16:18 04.02.2021
2947 Clouds -1 1017 86 10000 2.06 80 15:39 04.02.2021
2948 Clouds -1 1017 86 10000 2.57 80 15:20 04.02.2021
2949 Clouds -1 1017 86 10000 2.57 80 14:42 04.02.2021
2950 Clouds -1 1016 86 7000 2.06 80 14:20 04.02.2021
2951 Clouds -1 1016 86 7000 2.06 80 13:45 04.02.2021
2952 Snow -1 1016 80 10000 3.09 70 13:20 04.02.2021
2953 Clouds -1 1016 80 10000 3.09 70 12:52 04.02.2021
2954 Clouds -1 1016 80 10000 3.09 70 12:52 04.02.2021
2955 Snow -1 1016 86 7000 2.57 70 11:54 04.02.2021
2956 Snow -1 1016 86 7000 2.57 70 11:34 04.02.2021
2957 Clouds -1 1014 86 3200 3.09 60 10:54 04.02.2021
2958 Clouds -1 1014 86 3200 3.09 60 10:33 04.02.2021
2959 Snow -1 1014 80 10000 3.6 60 09:45 04.02.2021
2960 Snow -1 1013 86 10000 3.6 60 09:20 04.02.2021
2961 Clouds -1 1013 86 10000 3.6 60 08:51 04.02.2021
2962 Snow -1 1011 86 3400 4.12 60 08:25 04.02.2021
2963 Snow -1 1011 86 3400 4.12 60 07:56 04.02.2021
2964 Snow -1 1011 86 3400 4.12 60 07:33 04.02.2021
2965 Clouds -1 1010 86 10000 5.14 60 06:45 04.02.2021
2966 Snow -1 1009 86 8000 4.63 60 05:45 04.02.2021
2967 Snow 0 1005 86 10000 4.63 60 02:30 04.02.2021
2968 Snow 0 1003 86 10000 5.14 70 01:24 04.02.2021
2969 Snow 0 1002 93 3600 5.66 60 00:20 04.02.2021
2970 Snow 0 1001 100 1400 6.69 60 23:30 03.02.2021
2971 Snow 0 1001 100 1400 6.69 60 22:38 03.02.2021
2972 Snow 0 1000 100 2600 4.63 70 22:20 03.02.2021
2973 Snow 0 1000 100 2600 4.63 70 21:51 03.02.2021
2974 Snow 0 999 100 3100 6.69 70 21:24 03.02.2021
2975 Snow 0 999 100 3100 6.69 70 20:54 03.02.2021
2976 Snow 0 999 100 3100 6.69 70 20:35 03.02.2021
2977 Snow 0 999 100 1400 7.2 80 19:55 03.02.2021
2978 Snow 0 998 100 1800 7.2 80 19:27 03.02.2021
2979 Snow 0 998 100 1800 7.2 80 18:58 03.02.2021
2980 Snow 0 998 100 1800 7.2 80 18:39 03.02.2021
2981 Snow 0 998 100 800 7.2 80 18:19 03.02.2021
2982 Snow 0 998 100 800 7.2 80 17:46 03.02.2021
2983 Snow 0 998 100 1400 7.2 80 17:26 03.02.2021
2984 Snow 0 998 100 1400 7.2 80 16:48 03.02.2021
2985 Snow 0 998 93 1500 6.69 80 16:26 03.02.2021
2986 Snow 0 998 93 1500 6.69 80 15:41 03.02.2021
2987 Snow 0 998 100 1900 6.69 90 15:22 03.02.2021
2988 Snow 0 998 100 1900 6.69 90 14:47 03.02.2021
2989 Snow 0 998 100 2100 7.2 100 14:24 03.02.2021
2990 Snow 0 998 100 2100 7.2 100 13:50 03.02.2021
2991 Snow 0 999 100 1300 7.2 100 13:21 03.02.2021
2992 Snow 0 999 100 1300 7.2 100 12:46 03.02.2021
2993 Snow 0 999 100 1300 8.23 100 12:22 03.02.2021
2994 Snow 0 999 100 1300 8.23 100 11:47 03.02.2021
2995 Snow 0 999 100 550 5.66 100 11:28 03.02.2021
2996 Snow 0 999 100 550 5.66 100 10:52 03.02.2021
2997 Snow 0 999 93 800 6.69 90 10:21 03.02.2021
2998 Snow 0 999 93 800 6.69 90 09:47 03.02.2021
2999 Snow 0 1000 86 1000 6.17 100 09:27 03.02.2021
3000 Snow 0 1000 86 1000 6.17 100 08:52 03.02.2021
3001 Snow 0 1000 75 10000 6.69 100 08:27 03.02.2021
3002 Snow 0 1000 75 10000 6.69 100 07:39 03.02.2021
3003 Snow 0 1000 86 7000 5.14 80 06:41 03.02.2021
3004 Snow -1 1001 86 8000 3.6 80 04:54 03.02.2021
3005 Snow 0 1001 80 10000 3.09 70 04:29 03.02.2021
3006 Snow 0 1001 86 10000 4.12 70 03:24 03.02.2021
3007 Clouds 0 1001 86 10000 4.12 70 02:36 03.02.2021
3008 Clouds 0 1001 80 10000 3.09 70 00:36 03.02.2021
3009 Clouds -1 1001 80 10000 3.09 60 23:56 02.02.2021
3010 Clouds -1 1001 80 10000 3.09 60 23:36 02.02.2021
3011 Clouds -1 1002 80 10000 3.6 70 23:18 02.02.2021
3012 Clouds -1 1002 80 9000 2.06 100 22:23 02.02.2021
3013 Snow -1 1002 80 9000 2.06 100 21:58 02.02.2021
3014 Snow -1 1002 80 9000 2.06 100 21:39 02.02.2021
3015 Snow -1 1002 80 10000 2.57 80 21:19 02.02.2021
3016 Snow -1 1002 80 10000 2.57 80 20:44 02.02.2021
3017 Snow -1 1001 80 10000 3.09 80 20:20 02.02.2021
3018 Snow -1 1001 80 10000 3.09 80 19:48 02.02.2021
3019 Snow -1 1001 86 10000 2.06 80 19:29 02.02.2021
3020 Snow -1 1001 86 10000 2.06 80 18:46 02.02.2021
3021 Snow -1 1001 80 10000 2.06 80 18:26 02.02.2021
3022 Clouds -1 1001 80 10000 2.06 80 17:51 02.02.2021
3023 Clouds -1 1001 74 10000 1.54 70 17:24 02.02.2021
3024 Clouds -1 1001 74 10000 1.54 70 16:58 02.02.2021
3025 Clouds -1 1001 74 10000 1.54 70 16:38 02.02.2021
3026 Clouds 0 1001 74 10000 1.03 0 16:18 02.02.2021
3027 Clouds 0 1001 74 10000 1.03 0 15:42 02.02.2021
3028 Clouds 0 1001 74 10000 1.03 60 15:21 02.02.2021
3029 Clouds 0 1001 74 10000 1.03 60 14:41 02.02.2021
3030 Clouds 0 1001 80 10000 1.03 30 14:20 02.02.2021
3031 Clouds 0 1001 80 10000 1.03 30 13:54 02.02.2021
3032 Clouds 0 1001 80 10000 1.03 30 13:36 02.02.2021
3033 Clouds 0 1001 74 10000 0.51 200 13:18 02.02.2021
3034 Clouds 0 1001 74 10000 0.51 200 12:36 02.02.2021
3035 Clouds -2 1001 86 8000 0.66 49 11:45 02.02.2021
3036 Clouds -3 1002 93 8000 1.03 300 11:22 02.02.2021
3037 Clouds -3 1002 93 8000 1.03 300 11:22 02.02.2021
3038 Clouds -3 1002 93 8000 1.03 300 10:55 02.02.2021
3039 Clouds -5 1002 93 5000 1.54 280 10:27 02.02.2021
3040 Clouds -5 1002 93 5000 1.54 280 09:47 02.02.2021
3041 Clouds -6 1001 93 5000 1.03 270 09:26 02.02.2021
3042 Clouds -6 1001 93 5000 1.03 270 08:55 02.02.2021
3043 Clouds -6 1001 93 5000 1.03 270 08:32 02.02.2021
3044 Clouds -6 1001 100 5000 1.54 280 07:37 02.02.2021
3045 Clouds -6 1000 93 6000 1.54 270 06:43 02.02.2021
3046 Clouds -5 1000 93 7000 1.03 320 06:21 02.02.2021
3047 Clouds -5 1000 93 7000 1.03 320 05:46 02.02.2021
3048 Clouds -4 1000 93 10000 1.54 330 02:45 02.02.2021
3049 Clouds -4 999 86 10000 1.03 300 02:23 02.02.2021
3050 Clouds -3 999 80 10000 1.03 320 00:36 02.02.2021
3051 Clouds -2 999 80 10000 1.54 10 23:37 01.02.2021
3052 Clouds -2 998 86 10000 0.51 0 22:51 01.02.2021
3053 Clouds -2 998 86 10000 0.51 0 22:33 01.02.2021
3054 Clouds -2 998 80 10000 1.03 0 21:55 01.02.2021
3055 Clouds -2 998 80 10000 1.03 0 21:37 01.02.2021
3056 Clouds -1 998 74 10000 1.54 50 21:18 01.02.2021
3057 Clouds -1 998 74 10000 1.54 50 20:40 01.02.2021
3058 Clouds -1 998 74 10000 3.6 110 20:22 01.02.2021
3059 Clouds -1 998 74 10000 3.6 110 19:41 01.02.2021
3060 Clouds -1 998 69 10000 3.6 110 19:21 01.02.2021
3061 Clouds -1 998 69 10000 3.6 110 19:21 01.02.2021
3062 Clouds -1 998 69 10000 3.6 110 18:49 01.02.2021
3063 Clouds -1 998 64 10000 3.6 100 18:29 01.02.2021
3064 Clouds -1 998 64 10000 3.6 100 17:48 01.02.2021
3065 Clouds 0 998 60 10000 4.63 110 17:26 01.02.2021
3066 Clouds 0 998 60 10000 4.63 110 16:58 01.02.2021
3067 Clouds 1 998 60 10000 4.63 110 16:32 01.02.2021
3068 Clouds 1 998 55 10000 4.63 100 15:48 01.02.2021
3069 Clouds 1 998 60 10000 4.12 100 15:20 01.02.2021
3070 Clouds 1 998 60 10000 4.12 100 14:53 01.02.2021
3071 Clouds 1 998 60 10000 4.12 100 14:34 01.02.2021
3072 Clouds 1 998 55 10000 4.63 120 13:55 01.02.2021
3073 Clouds 1 998 55 10000 4.63 120 13:37 01.02.2021
3074 Clouds 1 998 60 10000 5.14 130 13:19 01.02.2021
3075 Clouds 1 998 60 10000 5.14 130 12:42 01.02.2021
3076 Clouds 1 998 64 10000 4.63 110 12:22 01.02.2021
3077 Clouds 1 998 64 10000 4.63 110 11:40 01.02.2021
3078 Clouds -1 998 86 10000 4.63 110 11:19 01.02.2021
3079 Clouds -2 998 86 10000 4.63 110 10:45 01.02.2021
3080 Clouds -3 998 86 9000 4.12 100 10:20 01.02.2021
3081 Clouds -3 998 86 9000 4.12 100 09:44 01.02.2021
3082 Clouds -4 999 93 6000 4.12 110 09:21 01.02.2021
3083 Clouds -4 999 93 6000 4.12 110 08:44 01.02.2021
3084 Clouds -4 998 93 5000 4.12 100 07:50 01.02.2021
3085 Clouds -5 998 93 4000 3.09 110 06:34 01.02.2021
3086 Clouds -4 999 93 5000 2.57 150 04:21 01.02.2021
3087 Clouds -3 1000 93 7000 2.06 200 01:31 01.02.2021
3088 Clouds -1 1000 86 7000 1.54 200 23:45 31.01.2021
3089 Clouds -1 1000 93 4200 1.54 180 22:44 31.01.2021
3090 Clouds -1 1000 100 4100 2.57 190 22:25 31.01.2021
3091 Clouds -1 1000 100 4100 2.57 190 21:56 31.01.2021
3092 Clouds -1 1000 100 4100 2.57 190 21:37 31.01.2021
3093 Clouds -1 1001 93 4800 2.06 220 21:18 31.01.2021
3094 Clouds -1 1001 93 4800 2.06 220 20:40 31.01.2021
3095 Clouds -1 1000 93 5000 2.06 200 20:18 31.01.2021
3096 Clouds 0 1000 93 5000 2.06 200 19:37 31.01.2021
3097 Clouds 0 1001 93 10000 3.6 220 19:19 31.01.2021
3098 Clouds 0 1001 93 10000 3.6 220 18:44 31.01.2021
3099 Clouds 1 1001 87 5000 3.6 240 18:24 31.01.2021
3100 Clouds 1 1001 87 5000 3.6 240 17:49 31.01.2021
3101 Clear 2 1001 75 10000 3.6 260 17:24 31.01.2021
3102 Clear 2 1001 75 10000 3.6 260 16:59 31.01.2021
3103 Clear 2 1001 75 10000 3.6 260 16:39 31.01.2021
3104 Clear 3 1001 75 10000 6.17 270 16:19 31.01.2021
3105 Clear 3 1001 75 10000 6.17 270 15:48 31.01.2021
3106 Clear 3 1002 75 10000 5.14 250 14:55 31.01.2021
3107 Clear 3 1002 70 10000 5.14 260 14:28 31.01.2021
3108 Clear 4 1002 70 10000 5.14 260 13:59 31.01.2021
3109 Clear 4 1002 70 10000 5.14 260 13:38 31.01.2021
3110 Clear 3 1003 75 10000 5.14 270 13:18 31.01.2021
3111 Clear 4 1003 75 10000 5.14 270 12:45 31.01.2021
3112 Clear 3 1003 75 10000 6.17 260 12:20 31.01.2021
3113 Clear 2 1003 75 10000 6.17 260 11:39 31.01.2021
3114 Clear 2 1003 80 10000 4.63 250 11:19 31.01.2021
3115 Clear 1 1003 80 10000 4.63 250 10:45 31.01.2021
3116 Clear 0 1003 93 10000 4.12 250 10:26 31.01.2021
3117 Clear -1 1003 93 10000 4.12 250 09:39 31.01.2021
3118 Clear -1 1002 93 10000 3.6 250 08:34 31.01.2021
3119 Clear -1 1002 93 10000 3.6 250 08:34 31.01.2021
3120 Clear -1 1002 93 10000 3.6 250 08:34 31.01.2021
3121 Clear -1 1002 93 10000 4.63 260 07:55 31.01.2021
3122 Clouds -1 1002 93 10000 5.66 260 06:45 31.01.2021
3123 Clouds 0 1003 93 10000 6.69 250 03:46 31.01.2021
3124 Clear -2 1004 86 10000 6.17 250 00:28 31.01.2021
3125 Clear -2 1004 86 10000 6.17 250 23:59 30.01.2021
3126 Clear -2 1004 80 10000 6.69 250 23:28 30.01.2021
3127 Clear -3 1004 80 10000 6.69 250 22:43 30.01.2021
3128 Clear -3 1004 80 10000 6.17 250 22:23 30.01.2021
3129 Clear -3 1004 80 10000 6.17 250 21:39 30.01.2021
3130 Clear -3 1004 80 10000 3.6 240 21:20 30.01.2021
3131 Clear -3 1004 80 10000 3.6 240 20:43 30.01.2021
3132 Clear -3 1004 80 10000 3.09 230 20:24 30.01.2021
3133 Clear -4 1004 80 10000 3.09 230 19:42 30.01.2021
3134 Clear -3 1004 80 10000 4.63 270 19:24 30.01.2021
3135 Clear -3 1004 80 10000 4.63 270 18:40 30.01.2021
3136 Clear -2 1004 74 10000 5.14 270 18:21 30.01.2021
3137 Clear -2 1004 74 10000 5.14 270 17:54 30.01.2021
3138 Clear -2 1004 74 10000 4.12 260 17:19 30.01.2021
3139 Clear -1 1004 74 10000 4.12 260 16:44 30.01.2021
3140 Clear -1 1004 64 10000 4.12 260 16:24 30.01.2021
3141 Clear 0 1004 64 10000 4.12 260 15:54 30.01.2021
3142 Clear 0 1004 64 10000 4.12 260 15:36 30.01.2021
3143 Clear 0 1004 69 10000 4.12 260 15:18 30.01.2021
3144 Clear 0 1004 69 10000 4.12 260 14:41 30.01.2021
3145 Clear 0 1004 64 10000 3.09 260 14:19 30.01.2021
3146 Clear 0 1004 74 10000 2.06 290 13:29 30.01.2021
3147 Clear 0 1004 74 10000 2.06 290 12:48 30.01.2021
3148 Clear -1 1004 80 10000 1.54 280 12:28 30.01.2021
3149 Clear -1 1004 80 10000 1.54 280 11:55 30.01.2021
3150 Clear -2 1004 80 10000 1.03 330 11:25 30.01.2021
3151 Clear -2 1004 80 10000 1.03 330 10:47 30.01.2021
3152 Clear -4 1004 93 10000 1.54 330 09:48 30.01.2021
3153 Clear -4 1004 93 10000 2.57 350 09:26 30.01.2021
3154 Clear -4 1004 93 10000 2.57 350 08:47 30.01.2021
3155 Clear -4 1003 86 10000 4.12 360 07:48 30.01.2021
3156 Clouds -4 1003 86 10000 4.63 10 06:49 30.01.2021
3157 Clouds -2 1003 80 10000 4.63 360 05:43 30.01.2021
3158 Clouds -1 1002 86 10000 3.6 360 03:35 30.01.2021
3159 Clouds -1 1001 86 10000 4.63 20 02:24 30.01.2021
3160 Clouds -1 1001 86 10000 7.2 30 01:29 30.01.2021
3161 Clouds -1 1001 86 10000 7.2 30 00:39 30.01.2021
3162 Clouds -1 1001 80 10000 7.2 30 00:20 30.01.2021
3163 Clouds -1 1001 80 10000 7.2 30 23:45 29.01.2021
3164 Clouds -1 1000 80 10000 6.17 30 23:21 29.01.2021
3165 Snow -1 1000 80 10000 6.17 30 22:44 29.01.2021
3166 Clouds -1 1000 80 10000 5.14 40 22:20 29.01.2021
3167 Snow -1 999 86 8000 4.12 50 21:29 29.01.2021
3168 Snow -1 999 86 8000 4.12 50 20:59 29.01.2021
3169 Snow -1 999 86 8000 4.12 50 20:40 29.01.2021
3170 Snow -1 999 93 1900 3.6 70 20:18 29.01.2021
3171 Snow -1 999 93 1900 3.6 70 19:38 29.01.2021
3172 Snow 0 998 86 2400 3.09 100 19:18 29.01.2021
3173 Snow 0 998 86 2400 3.09 100 18:42 29.01.2021
3174 Snow 0 997 80 10000 3.6 70 17:45 29.01.2021
3175 Snow 0 997 80 10000 4.12 70 17:22 29.01.2021
3176 Snow 0 997 80 10000 4.12 70 16:47 29.01.2021
3177 Snow 0 996 74 10000 4.63 90 16:24 29.01.2021
3178 Snow 0 996 74 10000 4.63 90 15:52 29.01.2021
3179 Snow 0 996 74 10000 4.63 90 15:34 29.01.2021
3180 Snow 0 996 69 10000 4.63 90 14:56 29.01.2021
3181 Snow 0 997 69 10000 5.66 100 14:18 29.01.2021
3182 Snow 0 997 69 10000 5.66 100 13:45 29.01.2021
3183 Snow 0 997 64 10000 5.14 110 13:26 29.01.2021
3184 Snow 0 997 69 10000 6.17 110 12:30 29.01.2021
3185 Snow 0 997 69 10000 6.17 110 11:51 29.01.2021
3186 Clouds 0 997 69 10000 6.69 100 11:20 29.01.2021
3187 Snow 0 997 69 10000 6.69 100 10:58 29.01.2021
3188 Snow 0 997 69 10000 6.69 100 10:39 29.01.2021
3189 Clouds -1 997 69 10000 4.63 110 09:56 29.01.2021
3190 Clouds 0 997 69 10000 4.63 110 09:36 29.01.2021
3191 Clouds -1 998 69 10000 6.17 110 08:48 29.01.2021
3192 Clouds -1 998 69 10000 6.17 110 08:26 29.01.2021
3193 Clouds -1 998 69 10000 6.17 110 07:44 29.01.2021
3194 Clouds -1 999 86 10000 5.14 120 07:23 29.01.2021
3195 Snow -1 999 86 10000 5.14 120 06:35 29.01.2021
3196 Snow -2 1002 86 10000 4.63 120 03:53 29.01.2021
3197 Clouds -3 1004 93 10000 1.03 140 00:51 29.01.2021
3198 Clouds -3 1004 93 10000 1.54 110 00:23 29.01.2021
3199 Clouds -3 1004 93 10000 1.54 110 23:55 28.01.2021
3200 Clouds -3 1004 93 10000 1.54 110 23:36 28.01.2021
3201 Clouds -3 1004 93 10000 2.57 90 23:18 28.01.2021
3202 Clouds -3 1004 93 10000 2.57 90 22:41 28.01.2021
3203 Clouds -3 1004 80 10000 1.54 90 22:21 28.01.2021
3204 Clouds -3 1004 80 10000 1.54 90 21:42 28.01.2021
3205 Clouds -3 1004 80 10000 2.57 70 21:23 28.01.2021
3206 Clouds -2 1004 80 10000 2.57 70 20:46 28.01.2021
3207 Clouds -2 1005 86 10000 2.57 70 20:19 28.01.2021
3208 Clouds -2 1005 86 10000 2.57 70 19:52 28.01.2021
3209 Clouds -2 1005 80 10000 2.57 50 19:29 28.01.2021
3210 Clouds -2 1005 80 10000 2.57 50 18:53 28.01.2021
3211 Clouds -2 1005 80 10000 2.57 50 18:34 28.01.2021
3212 Clouds -1 1005 80 10000 2.06 40 17:58 28.01.2021
3213 Clouds -1 1005 80 10000 2.06 40 17:40 28.01.2021
3214 Clouds -1 1004 74 10000 1.54 70 17:21 28.01.2021
3215 Clouds -1 1004 74 10000 1.54 70 16:43 28.01.2021
3216 Clouds 0 1003 69 10000 2.06 70 16:21 28.01.2021
3217 Clouds 0 1003 69 10000 2.06 70 15:38 28.01.2021
3218 Clouds 0 1003 74 10000 3.09 40 14:58 28.01.2021
3219 Clouds 0 1003 74 10000 3.09 40 14:39 28.01.2021
3220 Clouds 0 1003 74 10000 3.09 40 14:39 28.01.2021
3221 Clouds 0 1004 74 10000 3.09 30 14:20 28.01.2021
3222 Clouds 0 1004 74 10000 3.09 30 13:40 28.01.2021
3223 Clouds 0 1004 69 10000 3.6 30 12:52 28.01.2021
3224 Clouds 0 1004 69 10000 3.6 30 12:33 28.01.2021
3225 Clouds 0 1005 74 10000 3.09 20 11:59 28.01.2021
3226 Clouds 0 1005 74 10000 3.09 20 11:40 28.01.2021
3227 Clouds -1 1005 86 10000 2.57 360 11:19 28.01.2021
3228 Clouds -1 1005 86 10000 2.57 360 10:50 28.01.2021
3229 Clouds -2 1004 93 10000 2.57 350 10:27 28.01.2021
3230 Clouds -2 1004 93 10000 2.57 350 09:44 28.01.2021
3231 Clouds -3 1005 93 10000 2.57 360 09:22 28.01.2021
3232 Clouds -3 1005 93 10000 2.57 360 08:54 28.01.2021
3233 Clouds -3 1005 93 10000 3.6 340 08:18 28.01.2021
3234 Clouds -3 1005 93 10000 3.6 340 07:44 28.01.2021
3235 Clouds -2 1005 93 10000 3.09 320 06:49 28.01.2021
3236 Clouds -2 1006 93 10000 2.57 310 05:56 28.01.2021
3237 Clouds -1 1006 86 10000 4.12 350 03:52 28.01.2021
3238 Clouds 1 1005 100 10000 6.69 320 01:38 28.01.2021
3239 Clouds 2 1005 100 1500 5.14 260 23:48 27.01.2021
3240 Clouds 2 1005 93 1100 3.6 240 23:23 27.01.2021
3241 Clouds 2 1005 93 1100 3.6 240 22:42 27.01.2021
3242 Snow 1 1005 100 1800 2.57 230 22:22 27.01.2021
3243 Clouds 1 1005 100 1800 2.57 230 21:43 27.01.2021
3244 Rain 1 1005 100 2500 3.09 210 21:23 27.01.2021
3245 Rain 1 1005 100 2500 3.09 210 21:23 27.01.2021
3246 Clouds 1 1005 100 2500 3.09 210 20:52 27.01.2021
3247 Rain 1 1006 93 3100 3.09 200 20:27 27.01.2021
3248 Clouds 1 1006 93 3100 3.09 200 19:50 27.01.2021
3249 Clouds 1 1006 93 2300 3.09 190 19:26 27.01.2021
3250 Clouds 1 1006 93 2300 3.09 190 18:57 27.01.2021
3251 Clouds 1 1006 93 2300 3.09 190 18:38 27.01.2021
3252 Clouds 1 1007 93 3800 2.57 200 18:20 27.01.2021
3253 Clouds 1 1007 93 3800 2.57 200 17:39 27.01.2021
3254 Clouds 1 1007 87 5000 3.6 210 17:18 27.01.2021
3255 Clouds 1 1007 87 5000 3.6 210 16:43 27.01.2021
3256 Clouds 2 1007 87 10000 3.6 210 16:24 27.01.2021
3257 Clouds 2 1007 87 10000 3.6 210 15:49 27.01.2021
3258 Clouds 2 1007 87 10000 4.12 200 15:29 27.01.2021
3259 Clouds 2 1007 87 10000 4.12 200 14:39 27.01.2021
3260 Clouds 2 1008 87 10000 5.14 220 14:19 27.01.2021
3261 Clouds 2 1008 87 10000 5.14 220 13:40 27.01.2021
3262 Clouds 2 1008 87 8000 4.12 230 12:46 27.01.2021
3263 Clouds 2 1008 87 6000 5.66 220 12:26 27.01.2021
3264 Clouds 2 1008 87 6000 5.66 220 11:52 27.01.2021
3265 Clouds 2 1008 93 4100 4.63 210 11:26 27.01.2021
3266 Clouds 2 1008 93 4100 4.63 210 10:52 27.01.2021
3267 Clouds 2 1009 100 1900 4.12 210 10:26 27.01.2021
3268 Clouds 2 1009 100 1900 4.12 210 09:59 27.01.2021
3269 Clouds 2 1009 100 1900 4.12 210 09:34 27.01.2021
3270 Clouds 2 1009 100 1200 4.63 210 08:48 27.01.2021
3271 Clouds 2 1009 100 800 4.63 220 07:59 27.01.2021
3272 Clouds 2 1009 100 800 4.63 220 07:40 27.01.2021
3273 Clouds 2 1009 100 3400 4.12 210 06:48 27.01.2021
3274 Clouds 2 1010 100 3900 4.63 210 05:58 27.01.2021
3275 Clouds 2 1010 100 3900 4.63 210 05:35 27.01.2021
3276 Clouds 0 1011 93 10000 5.14 200 02:46 27.01.2021
3277 Clouds 0 1011 86 10000 5.66 210 02:21 27.01.2021
3278 Clouds 0 1011 86 10000 5.66 210 01:47 27.01.2021
3279 Clouds 0 1012 80 10000 5.14 220 00:32 27.01.2021
3280 Clouds 0 1012 80 10000 5.14 220 23:44 26.01.2021
3281 Clouds -1 1013 86 10000 4.12 240 23:26 26.01.2021
3282 Clouds -1 1013 86 10000 4.12 240 22:46 26.01.2021
3283 Clouds -2 1013 93 10000 3.09 260 22:22 26.01.2021
3284 Clouds -2 1013 93 10000 3.09 260 21:53 26.01.2021
3285 Clouds -1 1013 86 10000 4.12 260 21:28 26.01.2021
3286 Clouds -1 1013 86 10000 4.12 260 20:58 26.01.2021
3287 Clouds -1 1013 86 10000 4.12 260 20:39 26.01.2021
3288 Clouds 0 1013 80 10000 4.12 270 20:20 26.01.2021
3289 Clouds 1 1013 80 10000 4.12 270 19:44 26.01.2021
3290 Clouds 1 1013 87 10000 5.14 280 19:20 26.01.2021
3291 Clouds 1 1013 87 10000 5.14 280 18:47 26.01.2021
3292 Clouds 2 1013 81 10000 5.66 290 18:27 26.01.2021
3293 Clouds 2 1013 81 10000 5.66 290 17:51 26.01.2021
3294 Clouds 2 1012 81 10000 5.66 290 17:30 26.01.2021
3295 Clouds 2 1012 81 10000 5.66 290 16:56 26.01.2021
3296 Clouds 3 1012 81 10000 5.66 290 16:37 26.01.2021
3297 Clouds 3 1012 75 10000 6.17 310 16:18 26.01.2021
3298 Clouds 3 1012 75 10000 6.17 310 15:44 26.01.2021
3299 Clouds 4 1011 65 10000 6.69 330 15:24 26.01.2021
3300 Clouds 4 1011 65 10000 6.69 330 14:43 26.01.2021
3301 Clouds 4 1011 65 10000 7.2 330 14:25 26.01.2021
3302 Clouds 4 1011 65 10000 7.2 330 13:34 26.01.2021
3303 Clouds 3 1010 75 10000 7.72 320 12:58 26.01.2021
3304 Clouds 3 1010 75 10000 7.72 320 12:38 26.01.2021
3305 Clouds 2 1010 87 10000 6.17 300 12:19 26.01.2021
3306 Clouds 2 1010 87 10000 6.17 300 11:50 26.01.2021
3307 Clouds 2 1009 93 10000 7.2 270 11:20 26.01.2021
3308 Clouds 1 1009 93 10000 7.2 270 10:42 26.01.2021
3309 Clouds 0 1009 100 5000 3.6 260 10:22 26.01.2021
3310 Clouds -1 1009 100 5000 3.6 260 09:40 26.01.2021
3311 Clear 0 1009 93 4200 3.09 270 09:22 26.01.2021
3312 Clear -1 1009 93 4200 3.09 270 08:49 26.01.2021
3313 Clear -1 1008 100 3300 4.12 300 08:18 26.01.2021
3314 Clouds -2 1008 100 3000 2.57 290 07:25 26.01.2021
3315 Clouds -2 1007 93 650 3.6 280 05:58 26.01.2021
3316 Clouds -2 1007 93 650 3.6 280 05:38 26.01.2021
3317 Snow -1 1006 93 5000 2.06 230 03:42 26.01.2021
3318 Clouds -1 1006 93 10000 1.54 250 01:35 26.01.2021
3319 Clouds -1 1005 100 10000 2.57 210 00:36 26.01.2021
3320 Clouds -2 1005 93 10000 3.6 260 23:34 25.01.2021
3321 Clouds -1 1005 93 10000 1.54 260 22:52 25.01.2021
3322 Clouds -2 1005 93 10000 1.54 260 22:33 25.01.2021
3323 Clouds -1 1005 93 10000 5.66 260 21:48 25.01.2021
3324 Clouds -2 1004 93 10000 3.6 250 21:23 25.01.2021
3325 Clouds -1 1004 93 10000 3.6 250 20:50 25.01.2021
3326 Clouds -1 1004 93 10000 3.6 250 20:32 25.01.2021
3327 Clouds 0 1004 80 10000 2.57 250 19:51 25.01.2021
3328 Clouds 1 1003 87 10000 2.57 250 19:28 25.01.2021
3329 Clouds 1 1003 87 10000 2.57 250 18:48 25.01.2021
3330 Clouds 2 1003 81 10000 4.63 260 18:28 25.01.2021
3331 Clouds 2 1003 81 10000 4.63 260 17:58 25.01.2021
3332 Clouds 2 1003 81 10000 4.63 260 17:39 25.01.2021
3333 Clouds 2 1002 81 10000 6.69 270 17:20 25.01.2021
3334 Clouds 3 1002 81 10000 6.69 270 16:41 25.01.2021
3335 Clouds 3 1002 75 10000 5.14 280 16:21 25.01.2021
3336 Clouds 4 1002 75 10000 5.14 280 15:49 25.01.2021
3337 Clouds 4 1001 75 10000 5.14 270 15:29 25.01.2021
3338 Clouds 4 1001 75 10000 5.14 270 14:46 25.01.2021
3339 Clouds 4 1001 81 10000 6.69 280 14:19 25.01.2021
3340 Clouds 3 1001 81 10000 6.69 280 13:52 25.01.2021
3341 Clouds 3 1000 87 10000 5.14 270 13:28 25.01.2021
3342 Clouds 3 1000 87 10000 5.14 270 12:46 25.01.2021
3343 Clouds 2 1000 93 10000 5.14 270 12:24 25.01.2021
3344 Clouds 2 1000 93 10000 5.14 270 11:48 25.01.2021
3345 Clouds 1 1000 100 10000 4.12 270 11:19 25.01.2021
3346 Clouds 1 1000 100 10000 4.12 270 10:42 25.01.2021
3347 Clouds 0 999 100 10000 4.63 260 10:20 25.01.2021
3348 Clouds 0 999 100 10000 4.63 260 09:46 25.01.2021
3349 Clouds -2 998 100 10000 3.6 270 09:27 25.01.2021
3350 Clouds -2 998 93 8000 4.12 270 08:30 25.01.2021
3351 Clouds -2 998 93 8000 4.12 270 07:45 25.01.2021
3352 Clouds -1 998 100 10000 3.6 270 07:25 25.01.2021
3353 Clouds -1 997 100 10000 3.6 260 06:22 25.01.2021
3354 Clouds 0 997 100 3400 3.09 250 01:34 25.01.2021
3355 Clouds 0 996 100 3400 2.06 270 23:52 24.01.2021
3356 Clouds 0 996 100 3800 3.09 250 23:20 24.01.2021
3357 Clouds 0 996 100 3800 3.09 250 23:20 24.01.2021
3358 Clouds 0 996 100 3800 3.09 250 22:46 24.01.2021
3359 Clouds 0 996 100 2600 2.06 240 22:27 24.01.2021
3360 Clouds 0 996 100 2600 2.06 240 22:25 24.01.2021
3361 Clouds 0 996 100 2600 2.06 240 21:51 24.01.2021
3362 Clouds 1 996 93 7000 2.06 210 21:24 24.01.2021
3363 Clouds 1 996 93 7000 2.06 210 20:46 24.01.2021
3364 Clouds 1 996 93 6000 1.54 220 20:23 24.01.2021
3365 Clouds 2 996 93 6000 1.54 220 19:56 24.01.2021
3366 Clouds 2 996 93 6000 1.54 220 19:36 24.01.2021
3367 Snow 2 996 93 5000 1.54 210 19:18 24.01.2021
3368 Snow 2 996 93 5000 1.54 210 18:41 24.01.2021
3369 Snow 2 996 93 7000 1.54 240 18:21 24.01.2021
3370 Rain 2 996 93 7000 1.54 240 17:57 24.01.2021
3371 Rain 2 996 93 7000 1.54 240 17:38 24.01.2021
3372 Rain 3 996 87 6000 2.57 230 17:18 24.01.2021
3373 Rain 3 996 87 6000 2.57 230 16:41 24.01.2021
3374 Rain 3 996 87 6000 1.03 0 16:20 24.01.2021
3375 Clouds 3 996 87 6000 1.03 0 15:45 24.01.2021
3376 Rain 3 996 87 4900 1.54 210 15:20 24.01.2021
3377 Clouds 3 996 87 4900 1.54 210 14:51 24.01.2021
3378 Rain 3 996 93 5000 1.54 220 14:26 24.01.2021
3379 Rain 3 996 93 5000 1.54 220 13:36 24.01.2021
3380 Clouds 1 996 100 3700 1.54 210 12:55 24.01.2021
3381 Clouds 1 996 100 3700 1.54 210 12:36 24.01.2021
3382 Clouds 1 995 93 2700 1.03 250 12:18 24.01.2021
3383 Clouds 1 995 93 2700 1.03 250 11:43 24.01.2021
3384 Clouds 0 995 93 2600 1.54 230 11:22 24.01.2021
3385 Clouds 0 995 93 2600 1.54 230 10:36 24.01.2021
3386 Clouds 0 995 93 2600 1.54 230 10:36 24.01.2021
3387 Clouds -1 995 100 1800 2.57 230 09:53 24.01.2021
3388 Clouds 0 994 93 5000 1.54 240 09:22 24.01.2021
3389 Clouds 0 994 93 5000 1.54 240 08:52 24.01.2021
3390 Clouds -1 994 93 2100 1.54 230 06:49 24.01.2021
3391 Clouds 1 993 100 5000 4.12 190 02:34 24.01.2021
3392 Clouds 1 993 87 10000 4.12 210 00:59 24.01.2021
3393 Clouds 1 993 93 10000 5.14 200 00:24 24.01.2021
3394 Clouds 2 993 93 10000 5.14 200 23:47 23.01.2021
3395 Clouds 2 992 93 10000 5.14 190 23:25 23.01.2021
3396 Clouds 2 992 93 10000 5.14 190 22:42 23.01.2021
3397 Clouds 3 992 87 10000 4.12 200 22:24 23.01.2021
3398 Clouds 3 992 87 10000 4.12 200 21:50 23.01.2021
3399 Clouds 3 992 81 9000 5.66 190 21:21 23.01.2021
3400 Clouds 3 992 81 9000 5.66 190 20:47 23.01.2021
3401 Clouds 3 992 75 10000 5.66 180 20:22 23.01.2021
3402 Clouds 3 992 75 10000 5.66 180 19:46 23.01.2021
3403 Clouds 3 992 81 10000 4.63 170 19:22 23.01.2021
3404 Clouds 3 992 81 10000 4.63 170 18:49 23.01.2021
3405 Clouds 3 992 87 10000 4.63 170 18:26 23.01.2021
3406 Clouds 3 992 87 10000 4.63 170 17:48 23.01.2021
3407 Clouds 3 992 87 9000 4.63 170 17:27 23.01.2021
3408 Clouds 3 992 87 9000 4.63 170 16:50 23.01.2021
3409 Clouds 3 992 87 7000 5.14 200 16:30 23.01.2021
3410 Clouds 3 992 87 7000 5.14 200 15:42 23.01.2021
3411 Clouds 3 992 87 6000 5.66 200 15:23 23.01.2021
3412 Clouds 3 992 87 6000 5.66 200 14:34 23.01.2021
3413 Clouds 3 993 81 7000 6.17 180 13:56 23.01.2021
3414 Clouds 3 993 81 7000 6.17 180 13:36 23.01.2021
3415 Clouds 3 994 75 8000 5.14 170 12:57 23.01.2021
3416 Clouds 3 994 75 8000 5.14 170 12:37 23.01.2021
3417 Clouds 3 994 93 5000 4.63 170 12:18 23.01.2021
3418 Clouds 2 994 93 5000 4.63 170 11:33 23.01.2021
3419 Clouds 1 994 93 6000 5.14 170 10:52 23.01.2021
3420 Clouds 1 994 93 5000 5.66 180 10:22 23.01.2021
3421 Clouds 1 994 93 5000 5.66 180 09:49 23.01.2021
3422 Clouds 0 994 93 5000 5.66 180 08:57 23.01.2021
3423 Clouds 1 994 93 5000 5.66 180 08:37 23.01.2021
3424 Clouds 1 994 100 4000 5.66 190 07:37 23.01.2021
3425 Clouds 1 994 93 9000 5.14 200 05:44 23.01.2021
3426 Clouds 3 993 81 10000 6.17 220 00:56 23.01.2021
3427 Clouds 3 992 81 10000 7.2 240 23:53 22.01.2021
3428 Clouds 4 992 81 10000 7.2 240 23:34 22.01.2021
3429 Clouds 4 991 81 10000 9.77 260 22:40 22.01.2021
3430 Clouds 4 990 81 10000 10.29 250 21:56 22.01.2021
3431 Clouds 4 990 81 10000 10.29 250 21:37 22.01.2021
3432 Clouds 4 989 81 10000 9.26 240 21:19 22.01.2021
3433 Rain 5 989 81 10000 9.26 240 20:43 22.01.2021
3434 Clouds 5 989 81 10000 9.77 240 20:22 22.01.2021
3435 Clouds 5 988 81 10000 10.29 240 19:26 22.01.2021
3436 Rain 5 988 81 10000 10.29 240 18:59 22.01.2021
3437 Clouds 5 988 81 10000 10.29 240 18:41 22.01.2021
3438 Clouds 5 987 81 10000 9.77 240 18:23 22.01.2021
3439 Clouds 5 987 81 10000 9.77 240 17:44 22.01.2021
3440 Clouds 5 986 81 10000 11.32 240 17:24 22.01.2021
3441 Clouds 5 986 81 10000 11.32 240 16:44 22.01.2021
3442 Clouds 5 985 70 10000 11.83 230 16:23 22.01.2021
3443 Rain 5 985 70 10000 11.83 230 15:41 22.01.2021
3444 Clouds 5 985 75 10000 11.83 230 15:18 22.01.2021
3445 Clouds 5 984 81 10000 11.32 230 14:31 22.01.2021
3446 Clouds 5 984 81 10000 11.32 230 13:51 22.01.2021
3447 Clouds 5 984 81 10000 9.77 230 13:31 22.01.2021
3448 Clouds 5 984 81 10000 9.77 230 12:53 22.01.2021
3449 Clouds 5 983 81 10000 10.29 220 12:26 22.01.2021
3450 Clouds 5 983 81 10000 10.29 220 11:47 22.01.2021
3451 Clouds 5 983 81 10000 9.26 220 11:25 22.01.2021
3452 Clouds 5 983 81 10000 9.26 220 10:45 22.01.2021
3453 Rain 5 982 81 10000 8.75 220 10:22 22.01.2021
3454 Clouds 4 982 81 10000 8.75 220 09:39 22.01.2021
3455 Clouds 4 981 87 10000 10.29 240 08:51 22.01.2021
3456 Clouds 4 980 93 10000 7.2 230 08:30 22.01.2021
3457 Clouds 4 980 93 10000 7.2 230 07:41 22.01.2021
3458 Rain 4 979 100 2800 1.54 290 04:39 22.01.2021
3459 Rain 6 983 70 10000 7.72 180 00:54 22.01.2021
3460 Clouds 6 984 65 10000 7.72 200 00:27 22.01.2021
3461 Clouds 6 984 65 10000 7.72 200 23:43 21.01.2021
3462 Clouds 6 984 65 10000 8.75 210 23:20 21.01.2021
3463 Clouds 7 984 65 10000 8.75 210 22:42 21.01.2021
3464 Clouds 7 985 65 10000 10.29 210 21:58 21.01.2021
3465 Clouds 7 985 65 10000 10.29 210 21:38 21.01.2021
3466 Clouds 7 985 65 10000 10.8 210 21:18 21.01.2021
3467 Clouds 7 985 65 10000 10.8 210 20:43 21.01.2021
3468 Clouds 7 985 65 10000 12.35 210 20:21 21.01.2021
3469 Clouds 7 985 65 10000 12.35 210 19:49 21.01.2021
3470 Clouds 7 985 65 10000 11.83 210 19:26 21.01.2021
3471 Clouds 7 985 65 10000 11.83 210 18:47 21.01.2021
3472 Clouds 7 984 65 10000 10.8 200 18:22 21.01.2021
3473 Clouds 7 984 65 10000 10.8 200 17:57 21.01.2021
3474 Clouds 7 985 65 10000 9.77 200 17:22 21.01.2021
3475 Clouds 7 985 65 10000 9.77 200 16:59 21.01.2021
3476 Clouds 7 985 65 10000 9.77 200 16:40 21.01.2021
3477 Clouds 7 985 61 10000 10.8 210 16:22 21.01.2021
3478 Clouds 7 985 61 10000 10.8 210 15:48 21.01.2021
3479 Clouds 7 985 61 10000 10.8 200 15:28 21.01.2021
3480 Clouds 7 985 61 10000 10.8 200 14:47 21.01.2021
3481 Clear 7 985 61 10000 13.89 220 14:25 21.01.2021
3482 Clear 7 985 61 10000 13.89 220 13:46 21.01.2021
3483 Clouds 7 985 65 10000 12.86 220 13:26 21.01.2021
3484 Clouds 7 985 65 10000 12.86 220 12:45 21.01.2021
3485 Clouds 7 985 65 10000 12.86 220 12:25 21.01.2021
3486 Clouds 6 985 65 10000 12.86 220 11:56 21.01.2021
3487 Clouds 6 985 65 10000 12.86 220 11:35 21.01.2021
3488 Clouds 6 984 70 10000 12.35 230 10:53 21.01.2021
3489 Clouds 6 984 70 10000 12.35 230 10:34 21.01.2021
3490 Clouds 7 983 66 10000 15.43 220 09:50 21.01.2021
3491 Rain 8 980 62 10000 13.38 180 09:30 21.01.2021
3492 Rain 9 980 62 10000 13.38 180 08:59 21.01.2021
3493 Clouds 9 980 62 10000 13.38 180 08:34 21.01.2021
3494 Rain 9 981 66 10000 9.77 170 07:46 21.01.2021
3495 Clouds 9 982 66 10000 9.77 170 07:26 21.01.2021
3496 Clouds 8 984 71 10000 8.23 170 06:26 21.01.2021
3497 Clouds 8 985 71 10000 9.77 180 04:54 21.01.2021
3498 Clouds 8 988 66 10000 9.26 180 02:19 21.01.2021
3499 Clouds 7 989 70 10000 8.75 180 00:42 21.01.2021
3500 Clouds 8 990 66 10000 7.2 190 23:49 20.01.2021
3501 Clouds 8 990 66 10000 8.23 190 23:25 20.01.2021
3502 Clouds 8 990 66 10000 8.23 190 22:52 20.01.2021
3503 Clouds 8 991 71 10000 7.72 190 22:30 20.01.2021
3504 Clouds 8 991 71 10000 7.72 190 21:54 20.01.2021
3505 Clouds 8 991 76 10000 7.2 190 21:23 20.01.2021
3506 Rain 8 991 76 10000 7.2 190 20:52 20.01.2021
3507 Rain 8 992 81 10000 7.2 190 20:24 20.01.2021
3508 Clouds 8 992 81 10000 7.2 190 19:49 20.01.2021
3509 Clouds 8 992 76 10000 6.17 190 19:31 20.01.2021
3510 Clouds 8 992 76 10000 6.17 190 19:31 20.01.2021
3511 Rain 8 992 76 10000 6.17 190 18:52 20.01.2021
3512 Rain 8 992 76 10000 6.17 190 18:33 20.01.2021
3513 Clouds 8 992 87 10000 6.69 200 17:53 20.01.2021
3514 Clouds 8 992 87 10000 6.69 200 17:35 20.01.2021
3515 Clouds 8 992 87 10000 7.2 210 16:52 20.01.2021
3516 Clouds 8 992 87 4300 9.77 220 16:30 20.01.2021
3517 Clouds 8 992 87 4300 9.77 220 15:47 20.01.2021
3518 Rain 8 992 87 10000 9.77 220 15:19 20.01.2021
3519 Rain 8 992 87 10000 9.77 220 14:44 20.01.2021
3520 Rain 7 992 93 7000 10.8 220 14:21 20.01.2021
3521 Rain 7 992 93 7000 10.8 220 13:40 20.01.2021
3522 Rain 7 992 93 2300 9.77 220 13:18 20.01.2021
3523 Rain 7 992 93 2300 9.77 220 12:35 20.01.2021
3524 Rain 7 992 93 10000 10.8 220 11:54 20.01.2021
3525 Clouds 7 992 93 10000 10.8 220 11:35 20.01.2021
3526 Rain 7 993 93 3000 9.77 210 10:51 20.01.2021
3527 Rain 7 993 87 5000 11.83 220 10:28 20.01.2021
3528 Rain 6 993 87 5000 11.83 220 09:48 20.01.2021
3529 Clouds 6 993 93 5000 10.29 220 09:24 20.01.2021
3530 Rain 6 993 93 5000 10.29 220 08:49 20.01.2021
3531 Rain 6 993 93 2800 10.8 220 08:27 20.01.2021
3532 Rain 6 993 93 2800 10.8 220 07:56 20.01.2021
3533 Clouds 6 993 93 3200 10.8 220 07:25 20.01.2021
3534 Rain 6 994 93 2400 10.8 220 05:50 20.01.2021
3535 Rain 7 995 87 7000 9.77 240 03:27 20.01.2021
3536 Rain 7 996 93 4500 11.83 250 01:18 20.01.2021
3537 Rain 7 996 93 4500 11.83 250 00:45 20.01.2021
3538 Clouds 7 996 93 2500 8.75 250 23:48 19.01.2021
3539 Clouds 6 996 100 3600 5.14 220 23:20 19.01.2021
3540 Clouds 6 996 100 3600 5.14 220 22:57 19.01.2021
3541 Clouds 6 996 100 3600 5.14 220 22:36 19.01.2021
3542 Rain 6 997 100 6000 4.12 210 22:18 19.01.2021
3543 Rain 6 997 100 6000 4.12 210 21:42 19.01.2021
3544 Rain 6 997 100 7000 5.14 220 21:23 19.01.2021
3545 Rain 6 997 100 7000 5.14 220 20:43 19.01.2021
3546 Rain 5 997 100 3700 3.6 210 20:23 19.01.2021
3547 Rain 5 997 100 3700 3.6 210 19:53 19.01.2021
3548 Rain 5 997 100 1700 3.09 220 19:28 19.01.2021
3549 Rain 5 997 100 1700 3.09 220 18:47 19.01.2021
3550 Rain 5 997 100 1000 1.54 220 18:26 19.01.2021
3551 Clouds 5 997 100 1000 1.54 220 17:46 19.01.2021
3552 Clouds 5 997 93 10000 3.09 210 17:27 19.01.2021
3553 Clouds 5 997 93 10000 3.09 210 16:50 19.01.2021
3554 Clouds 5 997 93 3900 4.12 200 16:29 19.01.2021
3555 Clouds 5 997 93 3900 4.12 200 15:59 19.01.2021
3556 Clouds 5 997 93 3900 4.12 200 15:40 19.01.2021
3557 Clouds 5 997 93 3700 4.12 190 15:19 19.01.2021
3558 Clouds 5 997 93 3700 4.12 190 14:41 19.01.2021
3559 Clouds 4 998 100 3700 4.63 200 14:22 19.01.2021
3560 Clouds 4 998 100 3700 4.63 200 13:41 19.01.2021
3561 Clouds 4 998 93 6000 6.69 180 13:21 19.01.2021
3562 Clouds 4 998 93 6000 6.69 180 13:21 19.01.2021
3563 Clouds 4 998 93 6000 6.69 180 12:48 19.01.2021
3564 Clouds 4 999 93 10000 6.17 180 12:29 19.01.2021
3565 Rain 3 999 93 10000 6.17 180 11:44 19.01.2021
3566 Rain 3 1000 93 9000 7.2 190 11:26 19.01.2021
3567 Rain 3 1000 93 9000 7.2 190 10:51 19.01.2021
3568 Rain 3 1001 93 7000 8.23 190 10:32 19.01.2021
3569 Rain 3 1001 93 7000 8.23 190 09:53 19.01.2021
3570 Rain 3 1002 87 9000 5.66 180 09:31 19.01.2021
3571 Rain 3 1002 87 9000 5.66 180 08:59 19.01.2021
3572 Rain 4 1003 87 10000 7.72 200 08:26 19.01.2021
3573 Rain 4 1003 87 10000 7.72 200 07:49 19.01.2021
3574 Rain 4 1004 93 5000 5.14 200 06:54 19.01.2021
3575 Clouds 4 1008 93 10000 5.66 230 02:56 19.01.2021
3576 Clouds 4 1009 93 10000 6.69 230 02:20 19.01.2021
3577 Clouds 3 1010 87 10000 8.23 250 23:59 18.01.2021
3578 Clouds 3 1010 87 10000 8.23 250 23:37 18.01.2021
3579 Clouds 2 1010 93 10000 5.66 250 23:18 18.01.2021
3580 Clouds 2 1010 93 10000 5.66 250 22:40 18.01.2021
3581 Clouds 3 1010 87 10000 5.66 250 22:19 18.01.2021
3582 Clouds 3 1010 87 10000 5.66 250 21:40 18.01.2021
3583 Clouds 2 1010 93 10000 5.14 260 21:22 18.01.2021
3584 Clouds 3 1010 93 10000 5.14 260 20:45 18.01.2021
3585 Clouds 3 1010 100 10000 6.69 260 20:26 18.01.2021
3586 Clouds 3 1010 100 10000 6.69 260 19:51 18.01.2021
3587 Rain 3 1010 100 10000 6.69 260 19:33 18.01.2021
3588 Rain 4 1010 93 10000 6.69 260 18:47 18.01.2021
3589 Rain 4 1010 93 10000 8.23 250 18:24 18.01.2021
3590 Rain 5 1010 93 10000 8.23 250 17:46 18.01.2021
3591 Clouds 5 1010 93 10000 7.2 250 17:25 18.01.2021
3592 Rain 5 1010 93 10000 7.2 250 16:48 18.01.2021
3593 Rain 5 1011 93 10000 8.75 260 16:23 18.01.2021
3594 Rain 4 1011 93 10000 8.75 260 15:51 18.01.2021
3595 Rain 4 1011 100 5000 5.14 240 15:27 18.01.2021
3596 Rain 4 1011 100 5000 5.14 240 14:47 18.01.2021
3597 Rain 4 1011 93 10000 5.14 220 14:28 18.01.2021
3598 Rain 4 1011 93 10000 5.14 220 13:56 18.01.2021
3599 Rain 4 1011 93 10000 5.14 220 13:38 18.01.2021
3600 Rain 3 1012 93 10000 5.14 190 13:20 18.01.2021
3601 Rain 3 1012 93 10000 5.14 190 12:42 18.01.2021
3602 Rain 3 1013 100 7000 5.66 220 12:18 18.01.2021
3603 Rain 3 1013 100 7000 5.66 220 11:41 18.01.2021
3604 Rain 2 1014 100 2300 6.17 200 11:23 18.01.2021
3605 Clouds 2 1014 100 2300 6.17 200 10:47 18.01.2021
3606 Snow 1 1015 100 8000 5.66 190 10:21 18.01.2021
3607 Snow 1 1015 100 8000 5.66 190 09:39 18.01.2021
3608 Snow 0 1015 100 4600 1.54 0 09:18 18.01.2021
3609 Clouds 0 1015 100 450 2.57 210 08:26 18.01.2021
3610 Clouds 0 1015 100 450 2.57 210 07:54 18.01.2021
3611 Clouds 0 1016 100 450 3.09 200 06:35 18.01.2021
3612 Clouds 0 1016 93 600 3.09 200 04:43 18.01.2021
3613 Clouds -1 1017 100 2800 2.57 200 04:25 18.01.2021
3614 Clouds -1 1017 100 2800 2.57 200 03:50 18.01.2021
3615 Clouds -1 1017 93 2300 2.57 190 03:27 18.01.2021
3616 Clouds -1 1017 93 2300 2.57 190 02:57 18.01.2021
3617 Clouds -1 1017 86 5000 3.09 190 02:19 18.01.2021
3618 Clouds -1 1018 80 4500 3.09 190 00:41 18.01.2021
3619 Snow 0 1018 74 9000 3.6 180 23:57 17.01.2021
3620 Snow 0 1018 74 9000 3.6 180 23:39 17.01.2021
3621 Clouds 0 1018 74 9000 4.63 180 23:19 17.01.2021
3622 Snow 0 1019 74 9000 2.57 180 22:24 17.01.2021
3623 Snow 0 1019 74 9000 2.57 180 21:57 17.01.2021
3624 Snow 0 1019 74 9000 2.57 180 21:37 17.01.2021
3625 Clouds 0 1019 74 10000 4.12 160 21:18 17.01.2021
3626 Clouds 0 1019 74 10000 4.12 160 20:40 17.01.2021
3627 Clouds 0 1019 74 10000 3.6 160 20:18 17.01.2021
3628 Clouds 0 1019 74 10000 3.6 160 19:40 17.01.2021
3629 Clouds 0 1019 74 10000 3.09 150 18:58 17.01.2021
3630 Clouds 0 1019 69 10000 3.6 150 18:30 17.01.2021
3631 Clouds 0 1019 69 10000 3.6 150 17:56 17.01.2021
3632 Clouds 0 1019 69 10000 3.6 150 17:37 17.01.2021
3633 Clouds 0 1018 69 10000 3.6 160 17:19 17.01.2021
3634 Clouds 0 1018 69 10000 3.6 160 16:42 17.01.2021
3635 Clouds 0 1018 69 10000 2.06 160 16:19 17.01.2021
3636 Clouds 0 1018 69 10000 2.06 160 15:38 17.01.2021
3637 Clouds 0 1018 74 8000 3.6 140 15:20 17.01.2021
3638 Clouds 0 1018 74 8000 3.6 140 14:46 17.01.2021
3639 Clouds 0 1018 74 7000 3.6 150 14:25 17.01.2021
3640 Clouds 0 1018 74 7000 3.6 150 13:44 17.01.2021
3641 Clouds 0 1018 74 6000 3.09 150 13:26 17.01.2021
3642 Clouds 0 1018 74 6000 3.09 150 12:47 17.01.2021
3643 Clouds 0 1018 86 6000 4.12 150 12:28 17.01.2021
3644 Clouds 0 1018 86 6000 4.12 150 11:48 17.01.2021
3645 Clouds -1 1017 86 5000 3.09 160 11:22 17.01.2021
3646 Clouds -1 1017 86 5000 3.09 160 10:44 17.01.2021
3647 Clouds -2 1017 86 5000 3.6 160 10:20 17.01.2021
3648 Clouds -2 1016 86 5000 4.12 150 09:20 17.01.2021
3649 Clouds -2 1016 86 5000 4.12 150 08:43 17.01.2021
3650 Clouds -2 1016 93 6000 3.6 140 06:29 17.01.2021
3651 Clouds -2 1016 93 7000 2.57 160 04:28 17.01.2021
3652 Clouds -2 1016 86 7000 1.03 0 02:42 17.01.2021
3653 Clouds -1 1017 86 8000 2.57 170 00:47 17.01.2021
3654 Clouds -1 1017 86 10000 2.06 190 00:18 17.01.2021
3655 Clouds -1 1017 86 10000 2.06 190 23:48 16.01.2021
3656 Clouds -1 1017 86 10000 1.54 160 23:19 16.01.2021
3657 Clouds -1 1017 86 10000 1.54 160 22:36 16.01.2021
3658 Clouds 0 1018 80 10000 2.06 170 21:58 16.01.2021
3659 Clouds 0 1018 80 10000 2.57 180 21:25 16.01.2021
3660 Clouds 0 1018 80 10000 2.57 180 20:59 16.01.2021
3661 Clouds 0 1018 80 10000 2.57 180 20:41 16.01.2021
3662 Clouds 0 1018 80 10000 2.57 150 20:19 16.01.2021
3663 Clouds 0 1018 80 10000 2.57 150 19:42 16.01.2021
3664 Clouds 0 1018 80 10000 2.06 160 19:24 16.01.2021
3665 Clouds 0 1018 80 10000 2.06 160 18:42 16.01.2021
3666 Clouds 0 1019 80 10000 2.06 160 18:24 16.01.2021
3667 Clouds 0 1019 80 10000 2.06 160 17:46 16.01.2021
3668 Clouds 0 1020 80 10000 2.06 210 17:28 16.01.2021
3669 Clouds 0 1020 80 10000 2.06 210 16:45 16.01.2021
3670 Clouds 0 1020 80 10000 2.06 210 16:26 16.01.2021
3671 Clouds 0 1020 80 10000 2.06 210 15:51 16.01.2021
3672 Clouds 1 1020 75 10000 2.57 210 15:22 16.01.2021
3673 Clouds 1 1021 69 10000 2.57 220 14:25 16.01.2021
3674 Clouds 1 1021 69 10000 2.57 220 13:49 16.01.2021
3675 Clouds 1 1022 74 10000 3.09 220 13:25 16.01.2021
3676 Clouds 1 1022 74 10000 3.09 220 12:46 16.01.2021
3677 Clear 0 1023 69 10000 2.06 200 12:21 16.01.2021
3678 Clear 0 1023 69 10000 2.06 200 11:52 16.01.2021
3679 Clear -1 1023 74 10000 2.57 150 11:25 16.01.2021
3680 Clear -1 1023 74 10000 2.57 150 10:50 16.01.2021
3681 Clear -2 1024 86 10000 2.57 170 10:28 16.01.2021
3682 Clear -3 1024 86 10000 2.57 170 09:42 16.01.2021
3683 Clear -4 1024 86 10000 3.09 150 09:19 16.01.2021
3684 Clear -4 1024 93 10000 1.54 140 07:53 16.01.2021
3685 Clouds -4 1025 86 10000 1.03 40 06:44 16.01.2021
3686 Clouds -3 1026 80 10000 1.03 320 04:51 16.01.2021
3687 Clouds -2 1027 74 10000 3.09 340 02:58 16.01.2021
3688 Clouds -1 1027 74 10000 3.09 320 02:25 16.01.2021
3689 Clouds -1 1027 74 10000 5.14 290 00:44 16.01.2021
3690 Clouds -1 1027 69 10000 4.63 290 00:20 16.01.2021
3691 Clouds -1 1027 69 10000 4.63 300 23:30 15.01.2021
3692 Clouds -1 1028 64 10000 4.12 300 22:27 15.01.2021
3693 Clouds -1 1028 64 10000 4.12 300 21:53 15.01.2021
3694 Clouds -1 1028 64 10000 4.12 300 21:34 15.01.2021
3695 Clear -1 1028 64 10000 3.6 310 20:47 15.01.2021
3696 Clear -1 1028 64 10000 3.6 350 20:23 15.01.2021
3697 Clear -1 1028 64 10000 3.6 350 19:47 15.01.2021
3698 Clouds -1 1028 64 10000 4.12 10 19:26 15.01.2021
3699 Clouds -1 1028 64 10000 4.12 10 18:45 15.01.2021
3700 Clouds -1 1028 59 10000 4.63 330 18:20 15.01.2021
3701 Clouds -1 1028 59 10000 4.63 330 17:58 15.01.2021
3702 Clouds -1 1028 59 10000 4.63 330 17:58 15.01.2021
3703 Clouds -1 1028 59 10000 4.63 330 17:40 15.01.2021
3704 Clouds -1 1028 64 10000 6.69 350 17:21 15.01.2021
3705 Clouds -1 1028 64 10000 6.69 350 16:44 15.01.2021
3706 Clouds -1 1027 64 10000 5.66 350 16:23 15.01.2021
3707 Clouds -1 1027 64 10000 5.66 350 15:41 15.01.2021
3708 Clouds -1 1027 64 10000 5.66 360 15:21 15.01.2021
3709 Clouds -1 1027 64 10000 5.66 360 14:43 15.01.2021
3710 Clouds -1 1027 59 10000 4.12 40 14:24 15.01.2021
3711 Clouds -1 1027 59 10000 4.12 40 13:41 15.01.2021
3712 Clouds -1 1027 64 10000 5.66 30 13:21 15.01.2021
3713 Clouds -1 1027 64 10000 5.66 30 12:51 15.01.2021
3714 Clouds -1 1027 69 10000 6.17 360 12:31 15.01.2021
3715 Clouds -1 1027 69 10000 6.17 360 11:46 15.01.2021
3716 Clouds -1 1027 69 10000 6.69 360 11:27 15.01.2021
3717 Clouds -1 1027 69 10000 6.69 360 10:56 15.01.2021
3718 Clouds -2 1027 69 10000 6.69 360 10:37 15.01.2021
3719 Clouds -2 1026 74 10000 6.17 360 09:54 15.01.2021
3720 Clouds -2 1026 74 10000 6.17 360 09:34 15.01.2021
3721 Clouds -2 1026 74 10000 7.2 360 08:48 15.01.2021
3722 Clouds -2 1025 74 10000 6.17 360 08:21 15.01.2021
3723 Clouds -1 1025 74 10000 6.17 360 07:41 15.01.2021
3724 Clouds -1 1025 74 10000 6.69 360 07:19 15.01.2021
3725 Clouds -1 1024 74 10000 5.66 360 04:35 15.01.2021
3726 Clouds 0 1024 80 10000 6.17 20 01:48 15.01.2021
3727 Clouds 0 1024 80 10000 6.69 30 23:55 14.01.2021
3728 Clouds 0 1023 80 10000 5.66 30 23:28 14.01.2021
3729 Clouds 1 1023 80 10000 5.66 30 22:48 14.01.2021
3730 Clouds 1 1023 86 10000 6.17 10 22:25 14.01.2021
3731 Clouds 1 1023 86 10000 6.17 10 21:49 14.01.2021
3732 Clouds 1 1023 86 10000 5.14 10 21:21 14.01.2021
3733 Clouds 1 1023 86 10000 5.14 10 20:52 14.01.2021
3734 Clouds 1 1023 86 10000 5.14 10 20:33 14.01.2021
3735 Clouds 1 1022 86 2900 4.63 10 19:49 14.01.2021
3736 Clouds 1 1022 86 5000 5.66 10 19:30 14.01.2021
3737 Clouds 1 1022 86 5000 5.66 10 18:56 14.01.2021
3738 Clouds 1 1022 86 5000 5.66 10 18:34 14.01.2021
3739 Clouds 1 1022 86 10000 5.14 10 17:54 14.01.2021
3740 Clouds 1 1022 86 10000 6.17 20 17:28 14.01.2021
3741 Clouds 1 1022 86 10000 6.17 20 16:54 14.01.2021
3742 Clouds 1 1021 86 10000 6.17 20 16:30 14.01.2021
3743 Clouds 1 1021 86 10000 6.17 20 15:54 14.01.2021
3744 Clouds 1 1021 86 10000 5.14 30 15:28 14.01.2021
3745 Clouds 1 1021 86 10000 5.14 30 14:44 14.01.2021
3746 Clouds 1 1021 80 10000 6.17 10 14:22 14.01.2021
3747 Clouds 1 1021 80 10000 6.17 10 13:55 14.01.2021
3748 Clouds 1 1021 80 10000 5.66 360 13:24 14.01.2021
3749 Clouds 1 1021 80 10000 5.66 360 12:56 14.01.2021
3750 Clouds 1 1021 80 10000 6.17 10 12:22 14.01.2021
3751 Clouds 1 1021 80 10000 6.17 10 11:58 14.01.2021
3752 Clouds 1 1021 80 10000 6.17 10 11:38 14.01.2021
3753 Clouds 1 1020 80 10000 6.69 30 11:18 14.01.2021
3754 Clouds 0 1020 80 10000 6.69 30 10:40 14.01.2021
3755 Clouds 0 1019 80 10000 7.72 10 10:19 14.01.2021
3756 Clouds 0 1019 80 10000 7.72 10 09:42 14.01.2021
3757 Clouds 0 1019 75 10000 8.23 20 09:21 14.01.2021
3758 Clouds 0 1019 75 10000 8.23 20 08:34 14.01.2021
3759 Clouds 0 1018 75 10000 9.77 20 07:58 14.01.2021
3760 Clouds 1 1018 75 10000 9.77 20 07:39 14.01.2021
3761 Clouds 0 1017 80 10000 9.26 20 06:37 14.01.2021
3762 Clouds 1 1015 80 10000 10.8 20 04:59 14.01.2021
3763 Clouds 2 1011 75 10000 11.83 10 00:34 14.01.2021
3764 Clouds 2 1010 69 10000 10.8 360 23:48 13.01.2021
3765 Snow 1 1008 75 10000 9.77 350 22:51 13.01.2021
3766 Snow 1 1007 69 10000 9.77 350 22:27 13.01.2021
3767 Snow 1 1007 69 10000 9.77 350 21:50 13.01.2021
3768 Clouds 0 1006 75 10000 12.35 360 21:24 13.01.2021
3769 Clouds 0 1006 75 10000 12.35 360 20:54 13.01.2021
3770 Clouds 0 1005 75 10000 9.77 350 20:28 13.01.2021
3771 Clouds 1 1005 75 10000 9.77 350 19:57 13.01.2021
3772 Clouds 1 1005 75 10000 9.77 350 19:37 13.01.2021
3773 Clouds 1 1004 75 10000 10.29 340 19:18 13.01.2021
3774 Clouds 1 1004 75 10000 10.29 340 18:37 13.01.2021
3775 Clouds 1 1004 75 10000 10.29 350 17:51 13.01.2021
3776 Clouds 0 1003 80 10000 12.35 350 17:24 13.01.2021
3777 Clouds 0 1003 80 10000 12.35 350 16:50 13.01.2021
3778 Clouds 1 1002 75 10000 12.86 350 16:22 13.01.2021
3779 Clouds 1 1002 75 10000 12.86 350 15:52 13.01.2021
3780 Clouds 2 1002 75 10000 12.86 350 15:34 13.01.2021
3781 Clouds 2 1000 75 10000 13.38 350 14:46 13.01.2021
3782 Clouds 3 998 75 10000 13.89 300 13:53 13.01.2021
3783 Clouds 2 999 93 10000 10.29 280 13:31 13.01.2021
3784 Clouds 2 999 93 10000 10.29 280 12:47 13.01.2021
3785 Clouds 2 999 87 10000 6.69 280 12:29 13.01.2021
3786 Rain 2 999 87 10000 6.17 270 11:58 13.01.2021
3787 Clouds 2 999 87 10000 6.17 270 11:40 13.01.2021
3788 Rain 3 1000 87 10000 14.4 280 11:22 13.01.2021
3789 Rain 3 1000 87 10000 14.4 280 10:41 13.01.2021
3790 Rain 3 1001 81 10000 11.32 260 10:22 13.01.2021
3791 Clouds 4 1001 81 10000 11.32 260 09:34 13.01.2021
3792 Clouds 2 1002 87 10000 9.77 270 08:53 13.01.2021
3793 Rain 2 1002 87 10000 9.77 270 08:32 13.01.2021
3794 Snow 1 1002 93 10000 10.8 270 07:51 13.01.2021
3795 Clouds 1 1003 87 10000 10.8 290 07:24 13.01.2021
3796 Clouds 2 1003 81 10000 10.8 290 04:21 13.01.2021
3797 Clouds 2 1003 81 10000 10.8 290 03:49 13.01.2021
3798 Clouds 2 1004 81 10000 11.32 270 03:30 13.01.2021
3799 Snow 2 1004 87 10000 11.83 280 02:19 13.01.2021
3800 Clouds 2 1004 87 10000 11.83 290 00:38 13.01.2021
3801 Clouds 2 1003 93 10000 9.26 280 23:31 12.01.2021
3802 Clouds 2 1003 93 10000 9.26 280 22:47 12.01.2021
3803 Snow 1 1003 87 10000 8.23 300 22:25 12.01.2021
3804 Clouds 2 1003 87 10000 8.23 300 21:53 12.01.2021
3805 Snow 1 1003 87 10000 8.23 300 21:35 12.01.2021
3806 Snow 1 1003 87 10000 8.23 300 21:35 12.01.2021
3807 Clouds 2 1003 81 10000 10.8 300 20:57 12.01.2021
3808 Rain 2 1003 81 10000 10.8 300 20:38 12.01.2021
3809 Clear 2 1002 81 10000 9.77 300 20:20 12.01.2021
3810 Clear 2 1002 81 10000 9.77 300 19:39 12.01.2021
3811 Clouds 2 1002 87 10000 8.75 290 18:52 12.01.2021
3812 Clouds 1 1002 87 10000 6.69 300 18:25 12.01.2021
3813 Clouds 1 1002 87 10000 6.69 300 17:56 12.01.2021
3814 Clouds 1 1001 93 10000 6.17 300 17:32 12.01.2021
3815 Snow 2 1001 93 10000 6.17 300 16:44 12.01.2021
3816 Clouds 2 1000 93 10000 6.17 300 16:26 12.01.2021
3817 Clouds 2 1000 93 10000 6.17 300 15:50 12.01.2021
3818 Clouds 2 999 87 4500 12.35 320 15:27 12.01.2021
3819 Clouds 2 999 87 4500 12.35 320 14:50 12.01.2021
3820 Clouds 2 999 87 10000 5.14 290 14:30 12.01.2021
3821 Clouds 3 999 87 10000 5.14 290 13:56 12.01.2021
3822 Clouds 3 999 87 10000 5.14 290 13:37 12.01.2021
3823 Rain 4 999 70 10000 6.69 250 12:38 12.01.2021
3824 Clouds 3 999 81 10000 5.66 240 11:53 12.01.2021
3825 Clouds 3 999 81 10000 5.66 240 11:34 12.01.2021
3826 Clear 2 999 87 10000 5.14 260 10:44 12.01.2021
3827 Clear 0 999 100 10000 4.12 270 10:20 12.01.2021
3828 Clear 0 999 100 10000 4.12 270 09:53 12.01.2021
3829 Clear 0 999 93 10000 4.63 290 09:24 12.01.2021
3830 Clear 0 999 93 10000 4.63 290 08:39 12.01.2021
3831 Clear 1 999 93 10000 4.63 300 08:20 12.01.2021
3832 Clear 1 999 93 10000 4.63 300 07:34 12.01.2021
3833 Clouds 3 998 100 10000 3.6 290 05:56 12.01.2021
3834 Clouds 3 998 93 10000 4.12 290 05:26 12.01.2021
3835 Clouds 3 997 93 10000 6.69 320 03:24 12.01.2021
3836 Rain 5 995 93 8000 13.89 250 02:18 12.01.2021
3837 Rain 7 995 93 9000 12.35 240 01:25 12.01.2021
3838 Rain 6 996 93 9000 11.83 240 23:45 11.01.2021
3839 Rain 6 997 93 3100 11.83 230 23:23 11.01.2021
3840 Rain 6 997 93 3100 11.83 230 22:50 11.01.2021
3841 Clouds 6 999 93 4700 12.86 230 22:32 11.01.2021
3842 Rain 6 999 93 4700 12.86 230 21:56 11.01.2021
3843 Rain 6 999 93 4700 12.86 230 21:37 11.01.2021
3844 Clouds 5 1000 93 2400 9.77 230 21:18 11.01.2021
3845 Clouds 5 1000 93 2400 9.77 230 20:40 11.01.2021
3846 Clouds 6 1001 87 6000 11.83 240 20:22 11.01.2021
3847 Rain 6 1001 87 6000 11.83 240 19:53 11.01.2021
3848 Rain 6 1002 87 7000 11.83 240 19:24 11.01.2021
3849 Clouds 6 1002 87 7000 11.83 240 18:45 11.01.2021
3850 Clouds 5 1003 93 2300 11.32 240 18:25 11.01.2021
3851 Rain 5 1003 93 2300 11.32 240 17:44 11.01.2021
3852 Rain 5 1004 93 3200 9.77 230 17:26 11.01.2021
3853 Rain 5 1004 93 3200 9.77 230 16:57 11.01.2021
3854 Rain 5 1004 93 3200 9.77 230 16:38 11.01.2021
3855 Rain 5 1005 93 7000 9.26 230 16:19 11.01.2021
3856 Rain 5 1005 93 7000 9.26 230 15:47 11.01.2021
3857 Rain 5 1006 93 6000 9.26 230 15:26 11.01.2021
3858 Clouds 5 1006 93 6000 9.26 230 14:39 11.01.2021
3859 Clouds 5 1006 93 7000 9.26 230 13:50 11.01.2021
3860 Rain 6 1008 87 10000 9.77 230 13:26 11.01.2021
3861 Clouds 6 1008 87 10000 9.77 230 12:51 11.01.2021
3862 Clouds 6 1009 87 10000 10.29 240 12:32 11.01.2021
3863 Clouds 6 1009 87 10000 10.29 240 11:56 11.01.2021
3864 Clouds 6 1009 87 10000 10.29 240 11:34 11.01.2021
3865 Clouds 6 1009 93 7000 9.26 230 10:51 11.01.2021
3866 Clouds 5 1009 93 4600 8.23 240 10:25 11.01.2021
3867 Clouds 5 1009 93 4600 8.23 240 09:44 11.01.2021
3868 Rain 5 1010 93 3500 9.26 230 09:22 11.01.2021
3869 Rain 5 1010 93 3500 9.26 230 08:46 11.01.2021
3870 Rain 5 1010 93 6000 8.23 240 08:19 11.01.2021
3871 Rain 4 1011 93 4700 7.72 220 07:29 11.01.2021
3872 Rain 4 1011 93 4700 7.72 220 06:59 11.01.2021
3873 Rain 4 1012 93 9000 7.72 220 06:23 11.01.2021
3874 Clouds 3 1014 93 10000 6.17 220 01:46 11.01.2021
3875 Clouds 3 1015 93 10000 4.63 220 00:38 11.01.2021
3876 Clouds 3 1015 93 10000 4.12 240 23:43 10.01.2021
3877 Clouds 3 1016 100 10000 4.12 260 22:49 10.01.2021
3878 Clouds 3 1016 100 8000 3.09 280 22:27 10.01.2021
3879 Clouds 3 1016 100 8000 3.09 280 21:56 10.01.2021
3880 Clouds 3 1016 100 8000 3.09 280 21:36 10.01.2021
3881 Clouds 3 1016 93 9000 3.6 270 21:18 10.01.2021
3882 Clouds 3 1016 93 9000 3.6 270 20:37 10.01.2021
3883 Clouds 3 1016 93 6000 3.6 260 20:19 10.01.2021
3884 Clouds 3 1016 93 6000 3.6 260 19:38 10.01.2021
3885 Clouds 3 1016 93 6000 3.6 250 19:20 10.01.2021
3886 Clouds 3 1016 93 6000 3.6 250 18:43 10.01.2021
3887 Clouds 3 1016 93 4600 6.17 250 18:20 10.01.2021
3888 Rain 3 1016 93 2100 7.72 230 17:23 10.01.2021
3889 Rain 3 1016 93 2100 7.72 230 16:46 10.01.2021
3890 Rain 3 1016 93 2200 8.23 220 16:28 10.01.2021
3891 Rain 3 1016 93 2200 8.23 220 15:39 10.01.2021
3892 Rain 3 1016 93 2200 8.23 220 15:39 10.01.2021
3893 Clouds 3 1016 93 2600 8.75 220 15:20 10.01.2021
3894 Clouds 3 1016 93 2600 8.75 220 14:40 10.01.2021
3895 Clouds 3 1017 93 4600 7.72 210 14:22 10.01.2021
3896 Clouds 3 1017 93 4600 7.72 210 13:39 10.01.2021
3897 Clouds 2 1018 93 4900 7.72 210 13:20 10.01.2021
3898 Clouds 2 1018 93 4900 7.72 210 12:51 10.01.2021
3899 Clouds 2 1018 93 4900 7.72 210 12:33 10.01.2021
3900 Clouds 1 1018 100 3200 6.69 210 11:55 10.01.2021
3901 Clouds 1 1019 100 1700 7.2 200 11:20 10.01.2021
3902 Clouds 1 1019 100 1700 7.2 200 10:51 10.01.2021
3903 Clouds 0 1019 93 1200 6.69 200 10:24 10.01.2021
3904 Clouds 0 1019 93 1200 6.69 200 09:45 10.01.2021
3905 Clouds -1 1019 93 3100 6.17 200 08:38 10.01.2021
3906 Clouds -1 1019 93 4900 4.63 200 07:46 10.01.2021
3907 Clouds -1 1020 93 4500 6.69 200 06:22 10.01.2021
3908 Clouds -1 1020 93 4500 6.69 200 05:46 10.01.2021
3909 Clouds -1 1021 93 7000 5.14 210 05:27 10.01.2021
3910 Clouds -1 1022 93 5000 2.57 200 01:58 10.01.2021
3911 Clouds 0 1022 93 8000 2.06 210 00:23 10.01.2021
3912 Clouds 0 1022 93 8000 2.06 210 23:41 09.01.2021
3913 Clouds 0 1022 93 8000 1.54 210 23:20 09.01.2021
3914 Clouds 1 1022 100 6000 1.03 210 22:22 09.01.2021
3915 Clouds 1 1022 100 6000 1.03 210 21:59 09.01.2021
3916 Clouds 1 1022 100 6000 1.03 210 21:39 09.01.2021
3917 Clouds 1 1022 93 8000 1.54 260 21:21 09.01.2021
3918 Clouds 1 1022 93 8000 1.54 260 20:58 09.01.2021
3919 Clouds 1 1022 93 8000 1.54 260 20:37 09.01.2021
3920 Clouds 1 1022 93 8000 2.57 270 19:43 09.01.2021
3921 Clouds 1 1022 93 10000 0.51 320 19:21 09.01.2021
3922 Clouds 1 1022 93 10000 0.51 320 18:39 09.01.2021
3923 Clouds 1 1022 93 10000 1.03 300 18:20 09.01.2021
3924 Clouds 1 1022 93 10000 1.03 300 17:45 09.01.2021
3925 Clouds 1 1022 87 10000 1.54 360 17:27 09.01.2021
3926 Clouds 2 1022 87 10000 1.54 360 16:33 09.01.2021
3927 Clouds 2 1021 81 10000 2.06 360 15:52 09.01.2021
3928 Clouds 3 1021 81 10000 2.06 360 15:32 09.01.2021
3929 Clouds 3 1021 81 10000 3.09 350 14:40 09.01.2021
3930 Clouds 3 1021 87 10000 3.6 350 14:20 09.01.2021
3931 Clouds 3 1021 87 10000 3.6 350 13:48 09.01.2021
3932 Clouds 2 1021 93 10000 3.09 350 13:29 09.01.2021
3933 Clouds 2 1021 93 10000 3.09 350 12:49 09.01.2021
3934 Clouds 2 1021 93 8000 2.57 320 12:24 09.01.2021
3935 Clouds 2 1021 93 8000 2.57 320 11:56 09.01.2021
3936 Clouds 2 1021 93 8000 3.09 320 11:30 09.01.2021
3937 Clouds 1 1021 93 8000 3.09 320 10:52 09.01.2021
3938 Clouds 1 1021 93 8000 3.09 320 10:33 09.01.2021
3939 Clouds 1 1021 93 8000 2.06 340 09:53 09.01.2021
3940 Clouds 1 1020 93 9000 2.06 350 09:29 09.01.2021
3941 Clouds 1 1020 93 9000 2.06 350 08:35 09.01.2021
3942 Clouds 1 1019 93 10000 3.09 340 06:58 09.01.2021
3943 Clouds 1 1019 93 10000 3.09 340 06:40 09.01.2021
3944 Snow 1 1019 86 10000 3.6 340 04:50 09.01.2021
3945 Snow 1 1018 86 10000 3.09 310 03:25 09.01.2021
3946 Snow 1 1018 86 10000 5.14 360 02:32 09.01.2021
3947 Clouds 1 1018 86 10000 5.14 360 01:54 09.01.2021
3948 Clouds 1 1018 93 10000 4.12 340 00:37 09.01.2021
3949 Clouds 1 1017 93 10000 3.09 350 23:59 08.01.2021
3950 Clouds 1 1017 93 9000 4.63 350 23:19 08.01.2021
3951 Snow 1 1016 93 10000 4.63 350 22:25 08.01.2021
3952 Snow 1 1016 93 10000 4.63 350 21:46 08.01.2021
3953 Snow 1 1016 93 10000 5.14 340 20:57 08.01.2021
3954 Clouds 1 1016 87 10000 4.63 340 20:27 08.01.2021
3955 Clouds 1 1016 87 10000 4.63 340 19:56 08.01.2021
3956 Clouds 1 1015 87 10000 5.14 340 19:22 08.01.2021
3957 Clouds 2 1015 87 10000 5.14 340 18:48 08.01.2021
3958 Clouds 2 1014 87 10000 4.63 340 18:20 08.01.2021
3959 Clouds 2 1014 87 10000 4.63 340 17:48 08.01.2021
3960 Clouds 2 1014 87 10000 4.12 350 17:22 08.01.2021
3961 Clouds 2 1014 87 10000 4.12 350 16:44 08.01.2021
3962 Clouds 2 1013 87 10000 5.14 360 15:44 08.01.2021
3963 Clouds 2 1013 80 10000 6.17 360 15:25 08.01.2021
3964 Clouds 2 1013 80 10000 6.17 360 14:36 08.01.2021
3965 Clouds 1 1013 80 10000 5.66 360 13:47 08.01.2021
3966 Clouds 1 1013 86 10000 5.66 360 13:21 08.01.2021
3967 Clouds 1 1013 86 10000 5.66 360 13:21 08.01.2021
3968 Clouds 1 1013 86 10000 5.66 360 12:50 08.01.2021
3969 Clouds 1 1013 86 10000 4.63 350 12:20 08.01.2021
3970 Clouds 1 1013 86 10000 4.63 350 11:46 08.01.2021
3971 Clouds 1 1012 86 10000 4.63 350 11:28 08.01.2021
3972 Clouds 1 1012 86 10000 4.63 350 10:53 08.01.2021
3973 Clouds 1 1012 86 10000 4.63 350 10:35 08.01.2021
3974 Clouds 1 1012 86 8000 5.14 350 09:53 08.01.2021
3975 Clouds 1 1011 86 10000 5.14 350 09:31 08.01.2021
3976 Clouds 1 1011 86 10000 5.14 350 08:39 08.01.2021
3977 Clouds 1 1010 93 10000 4.63 350 07:29 08.01.2021
3978 Clouds 1 1010 93 10000 4.12 340 06:21 08.01.2021
3979 Clouds 1 1010 93 9000 3.6 30 00:24 08.01.2021
3980 Clouds 1 1010 93 9000 3.6 30 23:41 07.01.2021
3981 Clouds 1 1010 100 7000 4.12 30 22:50 07.01.2021
3982 Clouds 1 1010 93 10000 3.6 50 22:32 07.01.2021
3983 Clouds 1 1010 93 10000 3.6 50 21:49 07.01.2021
3984 Clouds 1 1009 93 10000 4.12 50 21:29 07.01.2021
3985 Clouds 1 1009 93 10000 4.12 50 20:48 07.01.2021
3986 Clouds 1 1009 93 10000 4.12 40 20:29 07.01.2021
3987 Clouds 2 1009 93 10000 4.12 40 19:47 07.01.2021
3988 Clouds 2 1009 93 10000 3.09 40 19:23 07.01.2021
3989 Clouds 1 1009 93 10000 3.09 40 18:46 07.01.2021
3990 Clouds 1 1009 93 10000 3.6 40 18:20 07.01.2021
3991 Snow 2 1009 93 10000 3.6 40 17:34 07.01.2021
3992 Snow 2 1009 93 10000 2.57 50 16:56 07.01.2021
3993 Snow 2 1009 93 10000 2.57 50 16:32 07.01.2021
3994 Clouds 2 1008 93 10000 3.6 40 15:56 07.01.2021
3995 Clouds 2 1008 93 10000 2.57 50 15:31 07.01.2021
3996 Clouds 2 1008 93 10000 2.57 50 14:32 07.01.2021
3997 Clouds 2 1008 93 10000 3.6 40 13:59 07.01.2021
3998 Snow 2 1009 93 6000 3.6 40 13:30 07.01.2021
3999 Snow 2 1009 93 6000 3.6 40 12:56 07.01.2021
4000 Snow 2 1009 93 8000 4.6 30 12:24 07.01.2021
4001 Snow 2 1009 93 10000 4.6 30 11:48 07.01.2021
4002 Snow 2 1009 93 10000 4.6 30 11:29 07.01.2021
4003 Snow 1 1009 100 10000 4.1 30 10:39 07.01.2021
4004 Snow 1 1009 100 10000 4.1 30 10:19 07.01.2021
4005 Snow 1 1009 100 10000 4.6 30 09:42 07.01.2021
4006 Snow 1 1009 100 10000 4.6 30 08:53 07.01.2021
4007 Snow 1 1009 100 10000 5.1 30 08:24 07.01.2021
4008 Snow 1 1009 100 10000 4.6 30 07:43 07.01.2021
4009 Snow 1 1009 100 10000 4.6 30 06:51 07.01.2021
4010 Snow 1 1009 93 10000 5.1 30 03:34 07.01.2021
4011 Snow 2 1010 93 10000 5.7 30 00:25 07.01.2021
4012 Clouds 2 1010 93 10000 5.7 30 23:36 06.01.2021
4013 Snow 2 1010 93 10000 6.7 30 22:37 06.01.2021
4014 Snow 2 1011 93 6000 7.2 30 21:42 06.01.2021
4015 Snow 2 1011 93 6000 7.2 30 21:23 06.01.2021
4016 Snow 1 1011 93 6000 7.2 30 20:51 06.01.2021
4017 Snow 1 1011 93 10000 7.2 30 20:23 06.01.2021
4018 Snow 1 1011 100 10000 7.7 30 19:49 06.01.2021
4019 Snow 1 1011 100 10000 7.7 30 19:29 06.01.2021
4020 Snow 1 1011 100 10000 7.7 30 18:59 06.01.2021
4021 Snow 1 1011 100 10000 7.7 30 18:39 06.01.2021
4022 Snow 1 1012 93 10000 8.2 30 18:18 06.01.2021
4023 Snow 1 1012 93 10000 7.7 30 17:41 06.01.2021
4024 Snow 1 1012 93 10000 7.7 30 17:21 06.01.2021
4025 Snow 1 1012 93 10000 7.7 30 16:40 06.01.2021
4026 Snow 1 1012 93 10000 8.7 30 16:19 06.01.2021
4027 Snow 1 1013 96 10000 8.2 30 15:50 06.01.2021
4028 Snow 1 1013 96 10000 8.2 30 15:28 06.01.2021
4029 Snow 1 1013 93 10000 8.7 30 14:44 06.01.2021
4030 Snow 1 1013 93 10000 8.7 30 14:20 06.01.2021
4031 Snow 1 1014 96 10000 9.3 30 13:42 06.01.2021
4032 Snow 1 1014 96 10000 9.3 30 13:21 06.01.2021
4033 Snow 1 1015 96 7000 8.7 30 12:47 06.01.2021
4034 Snow 1 1016 96 8000 8.2 30 11:51 06.01.2021
4035 Clouds 1 1016 96 8000 8.2 30 11:25 06.01.2021
4036 Snow 1 1016 96 8000 8.2 30 10:57 06.01.2021
4037 Snow 1 1016 96 10000 8.2 30 10:18 06.01.2021
4038 Snow 1 1016 96 10000 7.7 30 09:49 06.01.2021
4039 Snow 1 1016 97 10000 7.7 30 08:57 06.01.2021
4040 Snow 1 1017 97 10000 7.7 30 08:30 06.01.2021
4041 Clouds 1 1017 95 10000 7.7 30 07:54 06.01.2021
4042 Clouds 1 1018 80 10000 6.7 30 06:48 06.01.2021
4043 Clouds 1 1018 80 10000 6.2 30 05:33 06.01.2021
4044 Clouds 1 1019 80 10000 5.1 30 04:34 06.01.2021
4045 Clouds 1 1020 69 10000 5.7 30 02:47 06.01.2021
4046 Clouds 2 1020 69 10000 5.7 30 02:25 06.01.2021
4047 Clouds 2 1021 74 10000 4.1 40 00:51 06.01.2021
4048 Clouds 2 1021 74 10000 4.1 40 23:31 05.01.2021
4049 Clouds 2 1021 74 10000 3.6 50 22:44 05.01.2021
4050 Clouds 2 1021 74 10000 3.1 70 22:21 05.01.2021
4051 Clouds 2 1021 74 10000 3.1 70 21:56 05.01.2021
4052 Clouds 1 1021 74 10000 3.6 60 20:58 05.01.2021
4053 Clouds 1 1022 80 10000 4.1 50 20:27 05.01.2021
4054 Clouds 1 1022 80 10000 4.1 60 19:44 05.01.2021
4055 Clouds 1 1022 80 10000 4.1 60 19:23 05.01.2021
4056 Clouds 1 1021 74 10000 5.7 40 18:45 05.01.2021
4057 Clouds 1 1021 74 10000 5.7 40 18:26 05.01.2021
4058 Clouds 1 1021 74 10000 5.7 40 17:52 05.01.2021
4059 Clouds 1 1021 74 10000 5.7 40 17:31 05.01.2021
4060 Clouds 2 1022 69 10000 4.6 60 16:53 05.01.2021
4061 Clouds 2 1022 74 10000 5.1 60 16:23 05.01.2021
4062 Clouds 2 1022 74 10000 5.1 60 15:58 05.01.2021
4063 Clouds 2 1022 74 10000 6.2 60 15:34 05.01.2021
4064 Clouds 2 1022 74 10000 5.7 50 14:47 05.01.2021
4065 Clouds 2 1022 74 10000 5.7 50 13:55 05.01.2021
4066 Clouds 2 1022 74 10000 5.7 50 13:36 05.01.2021
4067 Clouds 2 1022 74 10000 6.2 50 13:18 05.01.2021
4068 Clouds 3 1022 69 10000 5.1 60 12:46 05.01.2021
4069 Clouds 3 1022 69 10000 5.1 60 12:18 05.01.2021
4070 -273 0 0 0 0 0 11:31 05.01.2021
4071 Clouds 2 1022 74 10000 4.1 60 11:30 05.01.2021
4072 Clouds 2 1022 74 10000 5.1 60 10:45 05.01.2021
4073 Clouds 2 1022 74 10000 5.1 60 10:24 05.01.2021
4074 Clouds 2 1022 80 10000 5.1 70 09:45 05.01.2021
4075 Clouds 2 1022 80 10000 5.1 70 09:25 05.01.2021
4076 Clouds 2 1022 80 10000 4.6 60 08:19 05.01.2021
4077 Clouds 2 1022 74 10000 4.6 60 06:39 05.01.2021
4078 Clouds 2 1022 80 10000 5.7 50 03:42 05.01.2021
4079 Clouds 1 1022 86 10000 4.6 60 00:45 05.01.2021
4080 Clouds 1 1022 80 10000 5.1 60 23:44 04.01.2021
4081 Clouds 1 1022 80 10000 5.1 60 23:24 04.01.2021
4082 Clouds 1 1022 80 10000 5.1 60 22:49 04.01.2021
4083 Clouds 1 1022 80 10000 5.1 60 22:22 04.01.2021
4084 Clouds 1 1022 80 10000 5.7 60 21:45 04.01.2021
4085 Clouds 1 1022 80 10000 5.7 60 21:25 04.01.2021
4086 Clouds 1 1022 80 10000 5.7 60 20:43 04.01.2021
4087 Clouds 2 1022 74 10000 5.7 60 20:23 04.01.2021
4088 Clouds 2 1022 74 10000 5.1 60 19:51 04.01.2021
4089 Clouds 2 1022 74 10000 5.1 60 19:24 04.01.2021
4090 Clouds 2 1022 74 10000 5.1 60 18:48 04.01.2021
4091 Clouds 2 1022 74 10000 5.7 50 18:24 04.01.2021
4092 Clouds 2 1022 74 10000 6.7 50 17:42 04.01.2021
4093 Clouds 2 1022 74 10000 6.7 50 17:24 04.01.2021
4094 Clouds 2 1022 69 10000 5.7 50 16:46 04.01.2021
4095 Clouds 2 1022 69 10000 5.7 50 16:27 04.01.2021
4096 Clouds 2 1022 69 10000 5.7 50 15:49 04.01.2021
4097 Clouds 2 1022 74 10000 5.7 50 15:27 04.01.2021
4098 Clouds 2 1022 74 10000 5.7 50 15:27 04.01.2021
4099 Clouds 2 1022 74 10000 5.1 50 14:42 04.01.2021
4100 Clouds 2 1022 74 10000 5.1 50 13:47 04.01.2021
4101 Clouds 2 1023 74 10000 6.7 60 13:24 04.01.2021
4102 Clouds 2 1023 80 10000 4.6 60 12:42 04.01.2021
4103 Clouds 2 1023 80 10000 4.6 60 11:58 04.01.2021
4104 Clouds 2 1023 80 10000 4.6 60 11:22 04.01.2021
4105 Clouds 1 1023 80 10000 4.6 60 10:53 04.01.2021
4106 Clouds 1 1023 74 10000 4.6 70 10:29 04.01.2021
4107 Clouds 1 1023 74 10000 5.1 60 09:53 04.01.2021
4108 Clouds 1 1023 74 10000 5.1 60 09:22 04.01.2021
4109 Clouds 1 1023 95 10000 5.1 60 08:47 04.01.2021
4110 Clear 1 1023 95 10000 5.1 60 08:18 04.01.2021
4111 Clear 0 1023 95 10000 6.7 50 07:42 04.01.2021
4112 Clouds 1 1023 80 10000 6.2 50 05:33 04.01.2021
4113 Clouds 1 1023 80 10000 5.1 60 04:30 04.01.2021
4114 Clouds 2 1023 80 10000 6.7 60 00:48 04.01.2021
4115 Clouds 2 1023 80 10000 6.2 60 23:49 03.01.2021
4116 Clouds 2 1023 80 10000 6.2 60 23:25 03.01.2021
4117 Clouds 2 1023 80 10000 6.2 60 22:56 03.01.2021
4118 Clouds 2 1022 80 10000 5.1 60 22:33 03.01.2021
4119 Clouds 2 1022 80 10000 5.1 60 21:57 03.01.2021
4120 Clouds 2 1022 74 10000 6.2 60 21:30 03.01.2021
4121 Clouds 3 1022 74 10000 6.2 60 20:53 03.01.2021
4122 Clouds 3 1022 82 10000 5.7 60 20:34 03.01.2021
4123 Clouds 3 1022 82 10000 5.7 60 19:58 03.01.2021
4124 Clouds 3 1022 82 10000 6.2 60 19:37 03.01.2021
4125 Clouds 3 1022 81 10000 6.2 60 19:19 03.01.2021
4126 Clouds 3 1021 81 10000 6.7 50 18:42 03.01.2021
4127 Clouds 3 1021 87 10000 6.7 50 18:21 03.01.2021
4128 Clouds 3 1021 87 10000 6.2 60 17:51 03.01.2021
4129 Clouds 3 1021 86 10000 6.2 60 17:26 03.01.2021
4130 Clouds 3 1021 86 10000 5.1 50 16:45 03.01.2021
4131 Clouds 3 1021 84 10000 5.1 50 16:20 03.01.2021
4132 Clouds 3 1021 84 10000 4.6 60 15:52 03.01.2021
4133 Clouds 3 1021 84 10000 4.6 60 15:34 03.01.2021
4134 Clouds 3 1021 84 10000 4.6 60 14:58 03.01.2021
4135 Clouds 3 1021 74 10000 4.6 50 14:33 03.01.2021
4136 Clouds 3 1021 74 10000 4.6 50 13:48 03.01.2021
4137 Clouds 3 1021 74 10000 4.6 50 13:24 03.01.2021
4138 Clouds 3 1021 74 10000 4.6 50 13:24 03.01.2021
4139 Clouds 3 1021 74 10000 4.6 50 12:55 03.01.2021
4140 Clouds 2 1021 74 10000 3.6 60 11:44 03.01.2021
4141 Clouds 2 1021 74 10000 3.6 60 11:26 03.01.2021
4142 Clouds 1 1021 80 10000 4.6 60 10:56 03.01.2021
4143 Clouds 1 1021 80 10000 4.6 60 10:31 03.01.2021
4144 Clouds 1 1020 80 10000 4.1 60 09:42 03.01.2021
4145 Clouds 1 1020 80 10000 4.1 60 09:23 03.01.2021
4146 Clouds 0 1020 86 10000 4.6 70 07:59 03.01.2021
4147 Clouds 0 1019 93 10000 4.1 60 06:25 03.01.2021
4148 Clouds 0 1018 92 10000 3.6 60 02:59 03.01.2021
4149 Clouds 0 1018 86 9000 3.6 80 02:22 03.01.2021
4150 Snow 0 1018 92 10000 3.6 70 00:25 03.01.2021
4151 Clouds 1 1018 92 10000 2.1 70 23:42 02.01.2021
4152 Clouds 1 1018 93 10000 2.1 70 23:18 02.01.2021
4153 Clouds 1 1017 93 10000 3.1 50 22:45 02.01.2021
4154 Clouds 1 1017 91 10000 3.1 50 22:27 02.01.2021
4155 Clouds 1 1017 91 8000 3.1 60 21:47 02.01.2021
4156 Clouds 1 1017 88 8000 3.1 60 21:28 02.01.2021
4157 Clouds 1 1016 93 6000 3.6 80 20:45 02.01.2021
4158 Clouds 1 1016 93 6000 3.6 80 20:25 02.01.2021
4159 Clouds 0 1016 90 1600 3.1 70 19:44 02.01.2021
4160 Clouds 0 1016 92 1600 3.1 70 19:20 02.01.2021
4161 Clouds 1 1015 92 900 2.6 70 18:47 02.01.2021
4162 Clouds 1 1015 94 900 2.6 70 18:28 02.01.2021
4163 Clouds 1 1015 100 5000 2.6 90 17:46 02.01.2021
4164 Clouds 1 1015 100 5000 2.6 90 17:26 02.01.2021
4165 Clouds 1 1014 100 6000 2.1 70 16:43 02.01.2021
4166 Clouds 1 1014 100 6000 2.1 70 16:21 02.01.2021
4167 Clouds 1 1014 100 6000 2.1 50 15:44 02.01.2021
4168 Clouds 1 1014 100 6000 2.1 50 15:25 02.01.2021
4169 Clouds 2 1013 100 5000 2.6 100 14:47 02.01.2021
4170 Clouds 2 1013 100 5000 2.6 100 14:23 02.01.2021
4171 Clouds 1 1013 88 1200 1.5 60 13:43 02.01.2021
4172 Clear 1 1013 86 1200 1.5 60 12:55 02.01.2021
4173 Clear 1 1013 87 400 2.1 70 12:32 02.01.2021
4174 Clear 1 1013 87 400 2.1 70 11:59 02.01.2021
4175 Clear 1 1012 90 450 1.5 90 11:26 02.01.2021
4176 Clear 1 1012 90 450 1.5 90 10:59 02.01.2021
4177 Clear 0 1012 100 300 1.5 60 10:40 02.01.2021
4178 Clear 0 1012 100 300 1.5 60 10:21 02.01.2021
4179 Clear 0 1011 94 350 2.1 50 09:39 02.01.2021
4180 Clear 0 1011 98 350 2.1 50 09:19 02.01.2021
4181 Clear 1 1010 100 500 2.6 50 08:46 02.01.2021
4182 Clear 1 1010 100 500 2.6 50 08:19 02.01.2021
4183 Clouds 1 1010 100 250 3.6 40 07:25 02.01.2021
4184 Clear 1 1010 100 250 3.6 40 06:57 02.01.2021
4185 Clear 0 1009 98 2000 2.1 60 05:57 02.01.2021
4186 Clouds 1 1009 100 800 1.5 60 02:52 02.01.2021
4187 Clouds 2 1008 100 2200 1.5 70 00:49 02.01.2021
4188 Clouds 2 1008 100 2200 1.5 70 00:28 02.01.2021
4189 Clouds 2 1007 100 1800 1.5 130 23:39 01.01.2021
4190 Clouds 2 1007 100 1800 1.5 130 23:19 01.01.2021
4191 Clouds 2 1007 100 3500 1.5 150 22:47 01.01.2021
4192 Clouds 2 1007 100 3500 1.5 150 22:22 01.01.2021
4193 Clouds 2 1006 93 5000 1.5 140 21:43 01.01.2021
4194 Clouds 2 1006 93 5000 1.5 140 21:21 01.01.2021
4195 Clouds 2 1006 93 5000 1.5 140 20:51 01.01.2021
4196 Rain 3 1006 93 5000 2.1 160 20:19 01.01.2021
4197 Rain 3 1006 93 8000 1 140 19:42 01.01.2021
4198 Clouds 3 1006 93 8000 1 140 19:23 01.01.2021
4199 Clouds 3 1005 93 10000 1.5 160 18:52 01.01.2021
4200 Clouds 3 1005 93 10000 1.5 160 18:34 01.01.2021
4201 Clouds 3 1005 93 10000 1.5 160 17:59 01.01.2021
4202 Clouds 3 1005 93 5000 1 210 17:41 01.01.2021
4203 Clouds 3 1005 93 5000 1 210 17:18 01.01.2021
4204 Clouds 3 1005 86 7000 1 0 16:37 01.01.2021
4205 Clouds 3 1005 86 10000 1.5 200 15:46 01.01.2021
4206 Clouds 3 1005 86 10000 1.5 200 14:57 01.01.2021
4207 Clouds 2 1005 93 10000 1.5 210 14:39 01.01.2021
4208 Clouds 2 1005 93 10000 1.5 210 13:54 01.01.2021
4209 Clouds 2 1005 93 10000 1 0 13:36 01.01.2021
4210 Clouds 2 1005 93 7000 1 190 12:47 01.01.2021
4211 Clouds 2 1005 93 7000 1 190 12:25 01.01.2021
4212 Clouds 1 1004 96 7000 1.5 270 11:39 01.01.2021
4213 Clouds 1 1004 94 7000 1.5 270 11:18 01.01.2021
4214 Clouds 1 1004 94 6000 2.6 280 10:50 01.01.2021
4215 Clouds 1 1004 91 6000 2.1 280 09:51 01.01.2021
4216 Clouds 1 1004 94 6000 2.1 280 09:23 01.01.2021
4217 Clouds 1 1003 94 4300 2.6 270 08:30 01.01.2021
4218 Clouds 1 1002 96 2800 4.6 310 06:24 01.01.2021
4219 Clear 1 1002 93 10000 3.6 290 04:49 01.01.2021
4220 Clear 2 1001 86 10000 5.7 300 01:40 01.01.2021
4221 Clouds 3 1001 100 10000 6.2 310 00:32 01.01.2021
4222 Clouds 3 1001 100 10000 6.2 310 23:40 31.12.2020
4223 Clouds 3 1000 100 9000 3.6 250 23:20 31.12.2020
4224 Clouds 3 1000 100 9000 3.6 230 22:42 31.12.2020
4225 Clouds 3 1000 100 9000 3.6 230 22:22 31.12.2020
4226 Clouds 3 1000 100 9000 3.6 230 21:56 31.12.2020
4227 Clouds 3 1000 93 8000 4.6 200 21:36 31.12.2020
4228 Clouds 3 1000 93 8000 4.6 200 20:58 31.12.2020
4229 Clouds 3 999 93 2300 7.2 190 20:30 31.12.2020
4230 Clouds 3 999 93 2300 7.2 190 20:30 31.12.2020
4231 Clouds 3 999 93 7000 6.7 180 19:51 31.12.2020
4232 Clouds 3 999 93 7000 6.7 180 19:33 31.12.2020
4233 Clouds 3 999 93 7000 6.7 180 18:55 31.12.2020
4234 Rain 3 999 86 6000 6.2 180 18:25 31.12.2020
4235 Clouds 3 999 86 6000 6.2 180 17:55 31.12.2020
4236 Clouds 3 999 86 10000 6.7 180 17:37 31.12.2020
4237 Clouds 3 999 86 10000 6.7 180 17:18 31.12.2020
4238 Clouds 3 999 93 5000 6.2 180 16:38 31.12.2020
4239 Clouds 3 999 93 5000 6.2 180 16:20 31.12.2020
4240 Clouds 3 999 93 5000 6.2 180 15:43 31.12.2020
4241 Clouds 3 999 80 10000 5.7 190 15:20 31.12.2020
4242 Clouds 3 999 80 10000 6.2 200 14:42 31.12.2020
4243 Clouds 4 999 80 10000 6.2 200 14:23 31.12.2020
4244 Clouds 4 999 80 10000 6.2 200 13:59 31.12.2020
4245 Clouds 4 999 80 10000 7.2 220 13:37 31.12.2020
4246 Clouds 4 999 80 10000 7.2 220 13:19 31.12.2020
4247 Clouds 4 999 80 10000 6.2 200 12:49 31.12.2020
4248 Clouds 4 999 80 10000 6.2 200 12:31 31.12.2020
4249 Clouds 4 999 80 8000 6.7 200 11:47 31.12.2020
4250 Clouds 4 999 80 8000 6.7 200 11:29 31.12.2020
4251 Clouds 4 999 86 8000 6.7 210 10:45 31.12.2020
4252 Clouds 4 999 86 8000 6.7 210 10:27 31.12.2020
4253 Clouds 4 999 86 8000 6.7 210 09:49 31.12.2020
4254 Clouds 4 998 86 9000 6.7 200 09:24 31.12.2020
4255 Clouds 4 998 86 10000 6.7 210 08:49 31.12.2020
4256 Clouds 4 998 86 10000 6.7 210 08:31 31.12.2020
4257 Clouds 4 998 86 10000 6.7 210 07:56 31.12.2020
4258 Clouds 4 998 86 10000 6.2 210 07:25 31.12.2020
4259 Clouds 5 997 86 10000 7.7 230 05:30 31.12.2020
4260 Clouds 5 997 93 10000 7.7 230 03:37 31.12.2020
4261 Clouds 5 997 87 6000 7.2 230 02:44 31.12.2020
4262 Clouds 5 997 87 6000 7.2 230 02:25 31.12.2020
4263 Clouds 5 997 93 10000 8.2 220 01:43 31.12.2020
4264 Clouds 5 997 93 10000 8.2 220 01:21 31.12.2020
4265 Clouds 5 996 93 10000 7.2 220 00:41 31.12.2020
4266 Clouds 5 996 86 10000 7.2 220 23:43 30.12.2020
4267 Clouds 5 996 86 10000 7.2 220 23:19 30.12.2020
4268 Clouds 4 996 93 1300 4.6 240 22:45 30.12.2020
4269 Clouds 4 996 93 1300 4.6 240 22:27 30.12.2020
4270 Clouds 4 996 93 10000 6.2 200 21:39 30.12.2020
4271 Rain 4 996 93 10000 6.2 200 21:20 30.12.2020
4272 Rain 4 996 86 9000 6.2 240 20:41 30.12.2020
4273 Rain 4 996 86 9000 6.2 240 20:20 30.12.2020
4274 Rain 4 995 86 10000 5.7 210 19:39 30.12.2020
4275 Rain 4 995 86 10000 5.7 210 19:21 30.12.2020
4276 Rain 5 995 93 6000 6.7 230 18:46 30.12.2020
4277 Clouds 5 995 93 6000 6.7 230 18:27 30.12.2020
4278 Rain 5 995 93 6000 6.7 230 17:51 30.12.2020
4279 Rain 5 994 93 10000 6.2 210 17:32 30.12.2020
4280 Rain 5 994 93 10000 6.2 210 16:53 30.12.2020
4281 Rain 5 994 93 10000 6.2 210 16:29 30.12.2020
4282 Rain 5 994 93 7000 7.2 240 15:47 30.12.2020
4283 Rain 5 993 86 8000 7.7 240 15:24 30.12.2020
4284 Rain 5 993 86 10000 10.3 250 14:44 30.12.2020
4285 Rain 5 993 86 10000 10.3 250 14:22 30.12.2020
4286 Rain 5 992 93 6000 6.7 230 13:33 30.12.2020
4287 Clouds 5 992 93 10000 6.7 220 12:43 30.12.2020
4288 Rain 5 992 93 10000 6.7 220 12:21 30.12.2020
4289 Rain 5 992 93 10000 5.1 210 11:36 30.12.2020
4290 Rain 5 992 93 10000 5.1 210 11:18 30.12.2020
4291 Rain 4 991 93 10000 7.2 210 10:49 30.12.2020
4292 Clouds 4 991 93 10000 7.2 210 10:27 30.12.2020
4293 Rain 4 991 93 10000 7.2 210 09:50 30.12.2020
4294 Rain 5 991 86 10000 5.7 200 09:29 30.12.2020
4295 Clouds 4 990 93 4200 5.7 190 08:34 30.12.2020
4296 Clouds 4 990 93 5000 6.2 200 07:30 30.12.2020
4297 Clouds 4 990 93 5000 6.2 200 07:30 30.12.2020
4298 Rain 4 990 100 7000 4.6 210 06:53 30.12.2020
4299 Rain 4 990 100 7000 4.6 210 06:32 30.12.2020
4300 Rain 4 990 93 5000 4.6 200 05:44 30.12.2020
4301 Rain 4 990 93 5000 4.6 200 05:25 30.12.2020
4302 Rain 4 989 93 9000 2.6 220 03:28 30.12.2020
4303 Rain 4 989 93 6000 5.7 190 02:43 30.12.2020
4304 Rain 4 989 93 6000 5.7 190 02:25 30.12.2020
4305 Rain 4 989 93 10000 5.1 200 01:33 30.12.2020
4306 Clouds 3 988 100 9000 5.7 190 00:50 30.12.2020
4307 Rain 3 988 100 9000 5.7 190 00:31 30.12.2020
4308 Clouds 3 988 100 9000 5.7 190 23:57 29.12.2020
4309 Clouds 3 988 93 5000 3.6 180 23:39 29.12.2020
4310 Clouds 3 988 93 5000 3.6 180 23:18 29.12.2020
4311 Clouds 3 988 93 8000 2.6 230 22:41 29.12.2020
4312 Clouds 3 988 93 8000 2.6 230 22:23 29.12.2020
4313 Clouds 3 988 93 8000 2.6 230 21:47 29.12.2020
4314 Clouds 3 988 93 8000 2.6 230 21:29 29.12.2020
4315 Clouds 2 987 93 5000 3.1 220 20:54 29.12.2020
4316 Clouds 2 987 93 5000 3.1 220 20:36 29.12.2020
4317 Clouds 2 987 93 5000 3.1 220 20:18 29.12.2020
4318 Clouds 2 986 93 8000 3.6 230 19:37 29.12.2020
4319 Clouds 2 986 93 8000 3.6 230 19:19 29.12.2020
4320 Clouds 2 986 93 7000 2.6 200 18:44 29.12.2020
4321 Clouds 2 986 93 7000 2.6 200 18:24 29.12.2020
4322 Clouds 2 986 93 7000 2.6 200 17:44 29.12.2020
4323 Clouds 2 985 93 10000 2.6 190 17:20 29.12.2020
4324 Clouds 2 985 93 10000 2.6 190 16:37 29.12.2020
4325 Clouds 2 984 93 10000 2.1 210 15:59 29.12.2020
4326 Clouds 2 984 93 10000 2.1 210 15:37 29.12.2020
4327 Clouds 2 984 93 10000 1.5 0 14:59 29.12.2020
4328 Clouds 2 984 93 10000 1.5 0 14:36 29.12.2020
4329 Clouds 2 983 93 10000 1.5 210 14:18 29.12.2020
4330 Clouds 2 983 93 10000 1.5 210 13:48 29.12.2020
4331 Clouds 2 983 93 7000 0.5 160 13:21 29.12.2020
4332 Clouds 2 983 93 6000 0.5 0 12:38 29.12.2020
4333 Rain 2 983 93 6000 0.5 0 12:20 29.12.2020
4334 Clouds 2 983 93 6000 0.5 0 11:54 29.12.2020
4335 Clouds 2 983 93 4400 1 0 11:31 29.12.2020
4336 Clouds 1 982 93 6000 2.1 90 10:37 29.12.2020
4337 Rain 1 982 93 9000 2.1 70 09:50 29.12.2020
4338 Rain 1 982 93 9000 2.1 70 09:28 29.12.2020
4339 Clouds 2 982 93 9000 2.1 70 08:55 29.12.2020
4340 Clouds 2 982 93 8000 4.6 100 08:33 29.12.2020
4341 Rain 2 981 93 6000 3.6 90 07:27 29.12.2020
4342 Rain 3 981 86 6000 3.1 80 06:48 29.12.2020
4343 Rain 3 981 93 7000 2.6 60 05:32 29.12.2020
4344 Clouds 2 982 100 3500 2.6 70 01:27 29.12.2020
4345 Clouds 3 982 93 10000 2.1 120 00:24 29.12.2020
4346 Clouds 3 982 86 10000 3.1 120 23:36 28.12.2020
4347 Clouds 3 982 93 10000 3.6 130 22:30 28.12.2020
4348 Clouds 3 982 86 10000 3.1 140 21:47 28.12.2020
4349 Clouds 3 982 86 10000 3.1 140 21:29 28.12.2020
4350 Clouds 3 982 86 10000 3.6 150 20:47 28.12.2020
4351 Clouds 3 982 86 10000 3.6 150 20:29 28.12.2020
4352 Clouds 3 982 86 10000 3.6 150 19:59 28.12.2020
4353 Clouds 3 981 86 10000 4.1 150 19:40 28.12.2020
4354 Clouds 3 981 86 10000 4.1 150 19:20 28.12.2020
4355 Clouds 3 981 86 10000 4.6 160 18:44 28.12.2020
4356 Clouds 3 981 86 10000 4.6 160 18:23 28.12.2020
4357 Clouds 3 981 86 10000 4.6 160 17:41 28.12.2020
4358 Clouds 3 980 86 10000 4.6 150 17:18 28.12.2020
4359 Clouds 3 980 86 10000 4.1 160 16:32 28.12.2020
4360 Clouds 3 980 86 10000 4.1 160 15:58 28.12.2020
4361 Clouds 3 980 86 10000 4.1 160 15:40 28.12.2020
4362 Clouds 3 979 86 10000 4.1 150 14:47 28.12.2020
4363 Clouds 3 979 86 10000 4.1 160 13:51 28.12.2020
4364 Clouds 3 979 86 10000 4.1 160 13:23 28.12.2020
4365 Clouds 3 979 86 10000 5.1 150 12:40 28.12.2020
4366 Clouds 3 979 86 10000 5.1 150 12:20 28.12.2020
4367 Rain 3 979 86 10000 4.1 140 11:45 28.12.2020
4368 Rain 4 979 86 10000 4.1 140 11:22 28.12.2020
4369 Clouds 4 979 86 10000 4.6 140 10:43 28.12.2020
4370 Rain 4 979 86 10000 4.6 140 10:25 28.12.2020
4371 Clouds 3 978 93 10000 4.6 150 09:45 28.12.2020
4372 Clouds 3 978 93 10000 4.6 150 09:18 28.12.2020
4373 Clouds 3 978 93 10000 4.6 160 07:30 28.12.2020
4374 Clouds 3 978 93 10000 5.7 160 06:48 28.12.2020
4375 Clouds 3 977 93 6000 6.2 160 04:26 28.12.2020
4376 Clouds 3 977 93 8000 6.2 160 01:57 28.12.2020
4377 Clouds 3 977 93 5000 7.7 160 00:30 28.12.2020
4378 Clouds 3 977 93 10000 7.7 160 23:46 27.12.2020
4379 Clouds 3 977 93 10000 7.7 160 23:19 27.12.2020
4380 Clouds 3 977 93 10000 10.3 170 21:57 27.12.2020
4381 Clouds 3 977 93 10000 10.3 170 21:57 27.12.2020
4382 Clouds 3 977 93 10000 9.8 170 21:26 27.12.2020
4383 Clouds 3 977 86 10000 9.8 170 20:47 27.12.2020
4384 Rain 4 977 86 10000 9.8 170 19:46 27.12.2020
4385 Rain 4 977 86 10000 9.8 170 19:21 27.12.2020
4386 Rain 4 977 86 8000 10.3 170 18:41 27.12.2020
4387 Rain 4 977 86 8000 10.3 170 18:19 27.12.2020
4388 Rain 4 978 86 9000 11.3 170 17:44 27.12.2020
4389 Rain 4 978 86 9000 11.3 170 17:24 27.12.2020
4390 Rain 4 978 86 10000 11.8 180 16:37 27.12.2020
4391 Rain 4 978 86 10000 11.8 180 15:56 27.12.2020
4392 Rain 4 979 80 8000 12.3 180 15:19 27.12.2020
4393 Rain 4 979 80 10000 13.4 180 14:41 27.12.2020
4394 Rain 4 979 80 10000 13.4 180 14:22 27.12.2020
4395 Rain 3 980 80 10000 13.9 180 13:23 27.12.2020
4396 Rain 3 982 86 8000 13.4 180 12:49 27.12.2020
4397 Rain 3 982 86 8000 13.4 180 12:22 27.12.2020
4398 Rain 3 983 86 10000 13.9 180 11:39 27.12.2020
4399 Rain 3 983 86 10000 13.9 180 10:52 27.12.2020
4400 Rain 3 984 86 10000 11.8 180 10:26 27.12.2020
4401 Rain 3 984 86 10000 11.8 180 09:58 27.12.2020
4402 Rain 4 987 80 9000 11.3 190 08:50 27.12.2020
4403 Rain 4 987 80 9000 11.3 190 08:26 27.12.2020
4404 Rain 4 988 86 10000 10.3 190 07:28 27.12.2020
4405 Clouds 5 991 86 10000 9.8 190 05:46 27.12.2020
4406 Clouds 5 991 86 10000 9.8 190 04:59 27.12.2020
4407 Clouds 5 995 86 5000 10.8 190 03:23 27.12.2020
4408 Clouds 5 998 93 4500 10.8 200 01:47 27.12.2020
4409 Clouds 5 999 93 5000 10.3 210 00:25 27.12.2020
4410 Clouds 5 1001 86 4400 10.3 200 23:42 26.12.2020
4411 Clouds 5 1001 86 4400 10.3 200 23:21 26.12.2020
4412 Clouds 4 1002 93 3400 10.3 200 22:40 26.12.2020
4413 Clouds 4 1002 93 3400 10.3 200 22:18 26.12.2020
4414 Clouds 4 1002 93 3400 10.3 200 21:52 26.12.2020
4415 Clouds 4 1003 80 10000 10.3 210 21:24 26.12.2020
4416 Clouds 5 1005 86 10000 9.8 210 20:44 26.12.2020
4417 Clouds 5 1005 86 10000 9.8 210 20:21 26.12.2020
4418 Clouds 5 1006 86 10000 9.8 210 19:30 26.12.2020
4419 Clouds 5 1006 86 10000 9.8 210 18:57 26.12.2020
4420 Clouds 5 1007 86 10000 9.8 220 18:33 26.12.2020
4421 Clouds 5 1008 86 10000 9.3 220 17:47 26.12.2020
4422 Clouds 5 1008 86 10000 9.3 220 17:28 26.12.2020
4423 Clouds 5 1009 86 10000 8.7 230 16:38 26.12.2020
4424 Clouds 5 1009 86 10000 8.7 230 15:59 26.12.2020
4425 Clouds 5 1010 86 10000 7.2 210 15:20 26.12.2020
4426 Clouds 5 1011 93 3200 7.2 220 14:38 26.12.2020
4427 Clouds 5 1011 93 3200 7.2 220 14:20 26.12.2020
4428 Clouds 5 1012 86 3900 6.7 210 13:38 26.12.2020
4429 Clouds 5 1012 86 3900 6.7 210 13:18 26.12.2020
4430 Clouds 5 1013 93 10000 6.7 210 12:41 26.12.2020
4431 Clouds 5 1013 93 10000 6.7 210 12:19 26.12.2020
4432 Clouds 4 1014 100 10000 6.2 200 11:42 26.12.2020
4433 Clouds 4 1014 100 10000 6.2 200 11:20 26.12.2020
4434 Clouds 4 1015 93 10000 7.2 200 10:49 26.12.2020
4435 Rain 3 1015 93 10000 7.2 200 10:26 26.12.2020
4436 Clouds 2 1015 93 10000 6.2 190 09:49 26.12.2020
4437 Clouds 2 1015 93 10000 6.2 190 08:56 26.12.2020
4438 Clouds 2 1016 80 10000 6.2 210 08:20 26.12.2020
4439 Clouds 1 1016 86 10000 5.7 210 07:33 26.12.2020
4440 Clouds 0 1017 80 10000 4.6 220 06:19 26.12.2020
4441 Clouds 0 1019 80 10000 5.7 230 02:49 26.12.2020
4442 Clouds -1 1020 86 10000 2.6 230 00:42 26.12.2020
4443 Clouds -1 1020 86 10000 2.6 230 23:59 25.12.2020
4444 Clouds -1 1020 86 10000 3.1 250 23:39 25.12.2020
4445 Clouds -1 1020 86 10000 3.1 250 23:20 25.12.2020
4446 Clouds -2 1020 92 10000 3.1 270 22:40 25.12.2020
4447 Clear -1 1020 92 10000 3.1 270 21:54 25.12.2020
4448 Clear -1 1020 92 10000 3.1 270 21:34 25.12.2020
4449 Clear -1 1021 92 10000 3.1 270 20:49 25.12.2020
4450 Clear -1 1021 92 10000 3.1 270 20:30 25.12.2020
4451 Clouds -2 1021 86 10000 5.1 310 19:47 25.12.2020
4452 Clear -1 1021 86 10000 5.1 310 19:20 25.12.2020
4453 Clear -1 1021 92 10000 6.2 300 18:39 25.12.2020
4454 Clear 0 1020 80 10000 4.6 300 17:47 25.12.2020
4455 Clear 0 1020 80 10000 4.6 300 17:28 25.12.2020
4456 Clear 0 1020 80 10000 4.6 300 16:33 25.12.2020
4457 Clear 1 1020 74 10000 5.1 310 15:59 25.12.2020
4458 Clear 2 1020 64 10000 3.6 320 15:36 25.12.2020
4459 Clear 3 1020 64 10000 3.6 320 14:54 25.12.2020
4460 Clear 3 1020 64 10000 4.1 320 14:29 25.12.2020
4461 Clear 3 1020 64 10000 4.1 340 13:45 25.12.2020
4462 Clear 3 1020 64 10000 4.1 340 13:26 25.12.2020
4463 Clear 2 1021 74 10000 3.1 310 12:46 25.12.2020
4464 Clear 2 1021 74 10000 3.1 310 12:46 25.12.2020
4465 Clear 1 1021 74 10000 3.1 310 12:23 25.12.2020
4466 Clear 1 1020 78 10000 3.6 340 11:44 25.12.2020
4467 Clear 0 1020 83 10000 3.6 340 11:20 25.12.2020
4468 Clear -1 1020 86 10000 3.1 310 10:30 25.12.2020
4469 Clear 0 1019 92 10000 1.5 320 09:47 25.12.2020
4470 Clear 0 1018 86 10000 2.1 310 08:49 25.12.2020
4471 Clear 0 1018 86 10000 2.1 310 08:28 25.12.2020
4472 Clear -1 1018 93 10000 4.1 330 06:48 25.12.2020
4473 Clear -1 1017 92 10000 5.7 340 04:47 25.12.2020
4474 Clear -1 1016 94 10000 3.6 320 02:19 25.12.2020
4475 Clear 0 1016 86 10000 5.1 360 00:19 25.12.2020
4476 Clear 0 1015 86 10000 6.2 360 23:28 24.12.2020
4477 Clear 0 1015 86 10000 6.2 360 22:53 24.12.2020
4478 Clear 1 1014 80 10000 4.1 360 22:23 24.12.2020
4479 Clear 1 1013 80 10000 6.2 10 21:42 24.12.2020
4480 Clear 1 1013 80 10000 6.2 10 20:53 24.12.2020
4481 Clear 1 1013 80 10000 7.2 10 19:34 24.12.2020
4482 Clouds 2 1011 86 10000 6.2 360 18:21 24.12.2020
4483 Clouds 3 1011 86 10000 6.2 360 17:38 24.12.2020
4484 Clouds 3 1010 75 10000 8.7 10 17:20 24.12.2020
4485 Clouds 4 1009 80 10000 8.2 20 16:25 24.12.2020
4486 Clouds 4 1008 86 10000 7.7 10 15:43 24.12.2020
4487 Clouds 5 1008 86 10000 7.7 10 15:21 24.12.2020
4488 Clouds 5 1008 86 10000 7.7 10 14:56 24.12.2020
4489 Clouds 4 1007 86 10000 5.7 10 14:24 24.12.2020
4490 Clouds 3 1007 93 10000 3.1 350 13:49 24.12.2020
4491 Clouds 3 1007 93 10000 3.1 350 13:30 24.12.2020
4492 Clouds 3 1007 93 10000 3.1 350 12:58 24.12.2020
4493 Clouds 3 1006 93 10000 3.1 350 12:38 24.12.2020
4494 Clouds 3 1006 93 10000 3.1 350 12:18 24.12.2020
4495 Clouds 3 1006 93 10000 2.6 350 11:38 24.12.2020
4496 Clouds 3 1006 93 10000 2.6 350 11:19 24.12.2020
4497 Clouds 2 1005 93 10000 3.1 340 10:43 24.12.2020
4498 Clouds 2 1005 93 10000 3.1 340 10:18 24.12.2020
4499 Clouds 2 1004 93 10000 3.1 330 09:49 24.12.2020
4500 Clouds 3 1004 93 9000 2.6 330 08:50 24.12.2020
4501 Clouds 3 1004 93 9000 2.6 330 07:55 24.12.2020
4502 Clouds 3 1004 93 10000 1.5 10 07:37 24.12.2020
4503 Clouds 4 1003 93 9000 2.6 360 06:27 24.12.2020
4504 Clouds 4 1005 100 6000 3.1 30 03:50 24.12.2020
4505 Clouds 4 1005 93 10000 2.1 30 01:52 24.12.2020
4506 Rain 4 1005 100 10000 3.1 30 01:20 24.12.2020
4507 Clouds 4 1006 100 7000 3.1 40 00:43 24.12.2020
4508 Clouds 4 1006 100 7000 3.1 40 00:19 24.12.2020
4509 Clouds 4 1006 100 6000 2.6 60 23:40 23.12.2020
4510 Clouds 4 1006 100 6000 2.6 60 23:21 23.12.2020
4511 Clouds 4 1006 100 6000 2.6 60 22:48 23.12.2020
4512 Clouds 4 1006 100 6000 2.6 40 22:26 23.12.2020
4513 Clouds 4 1007 100 9000 2.6 50 21:46 23.12.2020
4514 Clouds 4 1007 100 9000 2.6 50 21:22 23.12.2020
4515 Clouds 4 1007 100 5000 3.1 80 20:46 23.12.2020
4516 Clouds 4 1007 100 5000 3.1 80 20:28 23.12.2020
4517 Clouds 4 1007 100 5000 3.1 80 19:58 23.12.2020
4518 Rain 4 1007 100 2500 2.6 70 19:37 23.12.2020
4519 Clouds 3 1007 100 2500 2.6 70 19:19 23.12.2020
4520 Rain 3 1007 100 2500 2.6 70 18:40 23.12.2020
4521 Clouds 3 1008 100 3200 2.6 90 18:20 23.12.2020
4522 Rain 3 1008 100 3200 2.6 90 17:36 23.12.2020
4523 Clouds 4 1009 93 3300 2.6 100 17:18 23.12.2020
4524 Clouds 4 1009 93 3300 2.6 100 16:40 23.12.2020
4525 Clouds 4 1009 93 7000 1.5 130 16:22 23.12.2020
4526 Clouds 5 1009 93 7000 1.5 130 15:50 23.12.2020
4527 Clouds 5 1010 93 9000 0.5 50 15:27 23.12.2020
4528 Clouds 5 1010 93 9000 0.5 50 14:58 23.12.2020
4529 Clouds 5 1011 93 8000 1.5 180 14:38 23.12.2020
4530 Clouds 5 1011 93 8000 1.5 180 14:20 23.12.2020
4531 Clouds 5 1011 93 10000 1 210 13:43 23.12.2020
4532 Clouds 5 1011 93 10000 1 210 13:19 23.12.2020
4533 Clouds 4 1012 100 10000 2.6 210 12:49 23.12.2020
4534 Clouds 4 1012 100 10000 2.6 210 12:24 23.12.2020
4535 Clouds 4 1012 100 10000 1 170 11:46 23.12.2020
4536 Clouds 3 1012 100 10000 1 170 11:19 23.12.2020
4537 Clouds 3 1012 93 10000 4.1 200 10:48 23.12.2020
4538 Clouds 3 1012 93 10000 4.1 200 10:30 23.12.2020
4539 Clouds 3 1012 93 10000 4.1 200 09:35 23.12.2020
4540 Clouds 3 1012 86 10000 3.1 240 08:49 23.12.2020
4541 Clouds 3 1012 86 10000 3.1 240 08:21 23.12.2020
4542 Clouds 4 1012 80 10000 4.1 250 07:36 23.12.2020
4543 Clouds 5 1012 75 10000 5.1 260 06:41 23.12.2020
4544 Clouds 5 1012 65 10000 5.7 260 05:41 23.12.2020
4545 Clouds 5 1012 65 10000 5.7 260 04:59 23.12.2020
4546 Clouds 6 1012 81 10000 5.1 260 01:31 23.12.2020
4547 Clouds 6 1012 75 10000 5.1 250 00:25 23.12.2020
4548 Clouds 6 1012 70 10000 4.6 240 23:38 22.12.2020
4549 Clouds 6 1012 70 10000 4.6 240 23:20 22.12.2020
4550 Clouds 6 1011 70 10000 4.1 260 22:42 22.12.2020
4551 Clouds 6 1011 70 10000 4.1 260 22:21 22.12.2020
4552 Clouds 6 1011 75 10000 5.1 270 21:45 22.12.2020
4553 Clouds 6 1011 75 10000 5.1 270 21:20 22.12.2020
4554 Clouds 6 1011 75 10000 5.1 270 20:50 22.12.2020
4555 Clouds 7 1011 75 10000 5.1 270 20:31 22.12.2020
4556 Clouds 7 1010 75 10000 6.7 270 19:50 22.12.2020
4557 Clouds 7 1010 75 10000 6.7 270 19:28 22.12.2020
4558 Clouds 7 1010 75 10000 6.7 270 18:58 22.12.2020
4559 Clouds 8 1010 70 10000 7.7 290 18:38 22.12.2020
4560 Clouds 8 1010 70 10000 7.7 290 18:19 22.12.2020
4561 Clouds 8 1009 75 10000 7.7 300 17:38 22.12.2020
4562 Clouds 8 1009 75 10000 7.7 300 17:18 22.12.2020
4563 Clouds 8 1008 75 10000 9.8 310 16:47 22.12.2020
4564 Clouds 8 1008 75 10000 9.8 310 16:21 22.12.2020
4565 Clouds 8 1006 81 10000 9.8 310 15:47 22.12.2020
4566 Clouds 8 1006 81 10000 9.8 310 15:29 22.12.2020
4567 Clouds 8 1006 81 10000 9.8 310 14:57 22.12.2020
4568 Clouds 8 1006 81 10000 9.8 310 14:39 22.12.2020
4569 Clouds 8 1005 87 10000 10.8 300 14:20 22.12.2020
4570 Clouds 8 1005 87 10000 10.8 300 13:44 22.12.2020
4571 Clouds 8 1004 93 10000 9.8 290 13:19 22.12.2020
4572 Clouds 8 1003 93 5000 9.3 280 12:52 22.12.2020
4573 Clouds 9 1003 93 5000 9.3 280 12:33 22.12.2020
4574 Clouds 9 1003 93 5000 9.3 280 11:58 22.12.2020
4575 Clouds 8 1002 100 8000 9.3 270 11:39 22.12.2020
4576 Clouds 8 1002 100 8000 9.3 270 11:20 22.12.2020
4577 Clouds 9 1001 100 10000 10.8 280 10:52 22.12.2020
4578 Clouds 9 1001 100 10000 10.8 280 10:24 22.12.2020
4579 Clouds 9 1001 100 10000 10.8 280 09:57 22.12.2020
4580 Clouds 9 999 93 8000 8.2 260 09:24 22.12.2020
4581 Clouds 10 999 93 7000 5.1 230 08:53 22.12.2020
4582 Clouds 10 999 93 7000 5.1 230 08:34 22.12.2020
4583 Rain 10 999 93 7000 5.1 230 07:56 22.12.2020
4584 Rain 9 999 100 2900 5.7 200 07:23 22.12.2020
4585 Clouds 8 999 100 2500 7.2 190 05:51 22.12.2020
4586 Rain 7 1002 93 3400 7.7 160 03:46 22.12.2020
4587 Clouds 6 1004 100 4500 6.7 150 01:44 22.12.2020
4588 Clouds 6 1006 93 10000 6.7 150 00:21 22.12.2020
4589 Clouds 6 1007 87 10000 7.2 150 23:41 21.12.2020
4590 Clouds 6 1007 87 10000 7.2 150 23:18 21.12.2020
4591 Rain 6 1009 87 10000 6.7 150 22:36 21.12.2020
4592 Clouds 6 1009 87 10000 6.7 150 22:18 21.12.2020
4593 Rain 6 1010 87 10000 6.2 150 21:46 21.12.2020
4594 Clouds 6 1010 87 10000 6.2 150 21:27 21.12.2020
4595 Clouds 6 1011 87 10000 6.2 160 20:43 21.12.2020
4596 Clouds 6 1011 87 10000 6.2 160 20:21 21.12.2020
4597 Clouds 7 1012 81 10000 6.7 160 19:47 21.12.2020
4598 Clouds 7 1012 81 10000 6.7 160 19:22 21.12.2020
4599 Clouds 7 1012 81 10000 6.7 160 18:58 21.12.2020
4600 Clouds 7 1013 81 10000 5.7 150 18:40 21.12.2020
4601 Clouds 7 1013 81 10000 5.7 150 18:21 21.12.2020
4602 Clouds 7 1013 87 9000 4.6 160 17:42 21.12.2020
4603 Clouds 7 1013 87 9000 4.6 160 17:23 21.12.2020
4604 Clouds 7 1013 87 9000 4.6 160 16:42 21.12.2020
4605 Clouds 7 1014 87 8000 4.1 170 16:20 21.12.2020
4606 Clouds 7 1014 87 8000 4.1 170 15:42 21.12.2020
4607 Clouds 6 1015 93 8000 4.6 190 14:58 21.12.2020
4608 Clouds 6 1015 93 8000 4.6 190 14:36 21.12.2020
4609 Clouds 6 1015 93 8000 4.6 190 14:18 21.12.2020
4610 Clouds 6 1014 94 10000 3.58 175 13:40 21.12.2020
4611 Clouds 6 1015 91 10000 2.68 196 13:21 21.12.2020
4612 Clouds 6 1015 94 10000 3.58 172 12:42 21.12.2020
4613 Clouds 6 1015 91 10000 3.13 203 12:22 21.12.2020
4614 Clouds 6 1015 94 10000 2.68 198 11:43 21.12.2020
4615 Clouds 6 1015 90 10000 2.68 202 11:22 21.12.2020
4616 Clouds 6 1015 90 10000 2.68 202 11:22 21.12.2020
4617 Clouds 6 1016 94 10000 2.24 179 10:58 21.12.2020
4618 Clouds 6 1016 94 10000 3.58 205 10:39 21.12.2020
4619 Clouds 6 1016 93 10000 3.13 216 09:58 21.12.2020
4620 Clouds 6 1015 93 10000 3.13 212 09:40 21.12.2020
4621 Clouds 6 1015 93 10000 3.13 212 09:40 21.12.2020
4622 Clouds 6 1015 90 10000 2.68 229 09:22 21.12.2020
4623 Clouds 7 1016 87 10000 6.7 220 08:30 21.12.2020
4624 Clouds 7 1015 87 10000 5.7 210 07:27 21.12.2020
4625 Clouds 7 1016 93 9000 5.7 200 05:40 21.12.2020
4626 Clouds 7 1016 93 10000 5.7 200 04:31 21.12.2020
4627 Rain 7 1015 93 10000 6.2 180 00:38 21.12.2020
4628 Clouds 7 1015 93 10000 6.2 180 23:52 20.12.2020
4629 Clouds 7 1015 87 10000 5.1 190 23:21 20.12.2020
4630 Clouds 7 1015 87 10000 5.1 190 22:56 20.12.2020
4631 Clouds 7 1016 87 10000 5.7 190 22:38 20.12.2020
4632 Clouds 7 1016 87 10000 5.7 190 22:19 20.12.2020
4633 Clouds 8 1016 87 10000 5.1 190 21:39 20.12.2020
4634 Clouds 8 1016 87 10000 5.1 190 21:20 20.12.2020
4635 Clouds 8 1015 87 10000 5.1 200 20:47 20.12.2020
4636 Clouds 8 1015 87 10000 5.1 200 20:22 20.12.2020
4637 Clouds 8 1015 87 10000 5.1 190 19:45 20.12.2020
4638 Clouds 8 1015 87 10000 5.1 190 19:24 20.12.2020
4639 Clouds 8 1015 87 10000 5.1 190 18:56 20.12.2020
4640 Clouds 8 1015 87 10000 4.6 190 18:38 20.12.2020
4641 Clouds 8 1015 87 10000 4.6 190 18:19 20.12.2020
4642 Clouds 8 1015 87 10000 4.6 190 17:42 20.12.2020
4643 Clouds 8 1015 87 10000 4.6 190 17:18 20.12.2020
4644 Clouds 8 1015 87 10000 4.6 190 16:44 20.12.2020
4645 Clouds 8 1015 81 10000 4.1 190 16:24 20.12.2020
4646 Clouds 9 1015 81 10000 4.1 190 15:41 20.12.2020
4647 Clouds 9 1015 81 10000 4.1 190 15:23 20.12.2020
4648 Clouds 9 1015 81 10000 5.1 200 14:49 20.12.2020
4649 Clouds 9 1015 81 10000 5.1 200 14:30 20.12.2020
4650 Clouds 9 1015 81 10000 5.7 200 13:46 20.12.2020
4651 Clouds 9 1015 81 10000 5.7 200 13:24 20.12.2020
4652 Clouds 8 1015 81 10000 5.7 200 12:54 20.12.2020
4653 Clouds 8 1015 87 10000 4.1 190 12:36 20.12.2020
4654 Clouds 8 1015 87 10000 4.1 190 12:18 20.12.2020
4655 Clouds 7 1015 87 10000 5.7 190 11:42 20.12.2020
4656 Clouds 7 1015 87 10000 5.7 190 10:57 20.12.2020
4657 Clouds 7 1015 87 10000 6.2 180 10:38 20.12.2020
4658 Clouds 7 1015 87 10000 6.2 180 10:19 20.12.2020
4659 Clouds 7 1014 87 10000 7.2 180 09:45 20.12.2020
4660 Clouds 7 1014 87 10000 7.2 180 09:27 20.12.2020
4661 Clouds 6 1014 87 10000 7.2 180 08:52 20.12.2020
4662 Clouds 6 1014 87 10000 6.7 170 08:33 20.12.2020
4663 Clouds 7 1014 87 10000 6.7 170 07:23 20.12.2020
4664 Clouds 7 1014 87 10000 6.7 170 07:23 20.12.2020
4665 Clouds 8 1014 81 10000 5.7 190 05:44 20.12.2020
4666 Clouds 9 1013 81 10000 6.2 190 01:33 20.12.2020
4667 Clouds 9 1013 81 10000 6.2 190 01:33 20.12.2020
4668 Clouds 9 1013 81 10000 6.2 190 00:32 20.12.2020
4669 Clouds 8 1013 81 10000 6.7 180 23:20 19.12.2020
4670 Clouds 8 1013 81 10000 6.7 180 22:56 19.12.2020
4671 Clouds 8 1012 81 10000 6.7 190 22:37 19.12.2020
4672 Clouds 8 1012 81 10000 6.7 190 22:19 19.12.2020
4673 Clouds 8 1012 87 5000 6.7 180 21:42 19.12.2020
4674 Clouds 8 1012 87 5000 6.7 180 21:23 19.12.2020
4675 Clouds 7 1012 87 10000 7.7 170 20:45 19.12.2020
4676 Clouds 7 1012 87 10000 7.7 170 20:21 19.12.2020
4677 Clouds 7 1012 87 10000 7.7 170 19:53 19.12.2020
4678 Clouds 6 1011 87 10000 8.2 170 19:34 19.12.2020
4679 Clear 6 1011 87 9000 6.7 170 18:42 19.12.2020
4680 Clear 6 1011 87 9000 6.7 170 18:24 19.12.2020
4681 Clear 6 1011 87 10000 5.1 160 17:48 19.12.2020
4682 Clear 6 1011 87 10000 5.1 160 17:28 19.12.2020
4683 Clear 6 1011 87 10000 5.1 160 16:55 19.12.2020
4684 Clear 6 1011 81 10000 4.1 160 16:36 19.12.2020
4685 Clear 6 1011 81 10000 4.1 160 16:36 19.12.2020
4686 Clear 6 1011 81 10000 4.1 160 16:18 19.12.2020
4687 Clear 6 1011 81 10000 5.1 150 15:47 19.12.2020
4688 Clear 7 1011 81 10000 5.1 150 14:52 19.12.2020
4689 Clear 7 1012 81 10000 4.1 160 14:26 19.12.2020
4690 Clear 7 1013 81 10000 4.6 160 13:42 19.12.2020
4691 Clouds 7 1013 81 10000 4.6 160 13:22 19.12.2020
4692 Clouds 6 1013 87 10000 4.1 160 12:55 19.12.2020
4693 Clouds 6 1013 87 10000 4.1 160 12:37 19.12.2020
4694 Clouds 6 1013 87 10000 4.1 160 12:37 19.12.2020
4695 Clouds 6 1013 87 10000 4.1 160 12:19 19.12.2020
4696 Clouds 5 1014 93 6000 3.6 150 11:42 19.12.2020
4697 Clouds 5 1014 93 6000 3.6 150 11:18 19.12.2020
4698 Clouds 4 1014 93 6000 3.6 160 10:42 19.12.2020
4699 Clouds 4 1014 93 6000 3.6 160 10:18 19.12.2020
4700 Clouds 4 1013 86 8000 7.2 180 09:41 19.12.2020
4701 Clouds 4 1013 86 8000 7.2 180 08:58 19.12.2020
4702 Clouds 4 1014 86 9000 7.7 180 08:18 19.12.2020
4703 Clouds 4 1014 86 10000 6.2 180 07:20 19.12.2020
4704 Clouds 4 1014 86 10000 5.7 170 06:49 19.12.2020
4705 Clouds 4 1014 86 10000 5.7 180 05:24 19.12.2020
4706 Clouds 5 1015 81 10000 8.7 180 03:50 19.12.2020
4707 Clouds 6 1016 87 10000 8.7 180 00:42 19.12.2020
4708 Clouds 6 1016 87 10000 8.7 180 00:22 19.12.2020
4709 Clouds 6 1016 87 10000 8.7 180 23:57 18.12.2020
4710 Clouds 6 1016 87 10000 7.7 180 23:39 18.12.2020
4711 Clouds 6 1016 87 10000 7.7 180 23:18 18.12.2020
4712 Clouds 6 1016 81 10000 8.2 190 22:42 18.12.2020
4713 Clouds 6 1016 81 10000 8.2 190 22:20 18.12.2020
4714 Clouds 6 1016 81 10000 8.2 190 21:46 18.12.2020
4715 Clouds 6 1016 87 10000 6.7 190 21:28 18.12.2020
4716 Clouds 6 1016 87 10000 6.7 190 20:38 18.12.2020
4717 Clouds 7 1017 87 10000 6.7 180 20:19 18.12.2020
4718 Clouds 7 1017 81 10000 5.1 200 19:41 18.12.2020
4719 Clouds 8 1017 81 10000 6.2 200 18:57 18.12.2020
4720 Clouds 8 1017 81 10000 6.2 200 18:38 18.12.2020
4721 Clouds 8 1017 81 10000 6.2 200 18:20 18.12.2020
4722 Clouds 8 1017 81 10000 4.6 210 17:22 18.12.2020
4723 Clouds 8 1017 81 10000 4.6 210 16:49 18.12.2020
4724 Clouds 8 1017 81 10000 4.6 210 16:27 18.12.2020
4725 Clouds 8 1017 81 10000 5.1 210 15:58 18.12.2020
4726 Clouds 8 1017 81 10000 6.2 200 15:39 18.12.2020
4727 Clouds 8 1017 81 10000 6.2 200 15:20 18.12.2020
4728 Clouds 8 1017 81 10000 6.2 200 14:54 18.12.2020
4729 Clouds 8 1017 81 10000 6.2 190 14:21 18.12.2020
4730 Clouds 8 1018 81 10000 6.2 200 13:49 18.12.2020
4731 Clouds 8 1018 81 10000 6.2 200 13:25 18.12.2020
4732 Clouds 8 1017 87 7000 8.2 190 12:47 18.12.2020
4733 Clouds 7 1017 87 7000 8.2 190 11:59 18.12.2020
4734 Clouds 7 1018 87 7000 7.2 190 11:23 18.12.2020
4735 Clouds 7 1018 87 8000 7.2 190 10:40 18.12.2020
4736 Clouds 7 1018 87 8000 7.2 190 10:40 18.12.2020
4737 Clouds 7 1018 87 8000 7.2 190 10:20 18.12.2020
4738 Clouds 7 1018 87 7000 4.1 200 09:39 18.12.2020
4739 Clouds 7 1018 87 7000 4.1 200 09:21 18.12.2020
4740 Clouds 7 1018 87 7000 4.1 200 09:21 18.12.2020
4741 Clouds 8 1018 87 7000 4.1 200 08:54 18.12.2020
4742 Clouds 8 1018 87 6000 5.7 210 08:30 18.12.2020
4743 Clouds 8 1018 87 6000 4.1 210 07:39 18.12.2020
4744 Clouds 8 1018 87 6000 4.1 210 07:18 18.12.2020
4745 Clouds 8 1018 87 6000 4.1 210 06:51 18.12.2020
4746 Clouds 8 1018 87 8000 5.1 220 05:42 18.12.2020
4747 Clouds 8 1018 87 8000 5.1 220 04:51 18.12.2020
4748 Clouds 8 1018 87 8000 5.1 220 04:51 18.12.2020
4749 Clouds 7 1017 93 10000 6.7 240 01:59 18.12.2020
4750 Clouds 7 1017 87 10000 6.7 240 01:40 18.12.2020
4751 Clouds 8 1017 87 10000 7.7 250 00:27 18.12.2020
4752 Clouds 8 1016 93 10000 7.2 240 23:50 17.12.2020
4753 Clouds 8 1016 93 10000 7.2 240 23:19 17.12.2020
4754 Clouds 8 1016 93 10000 7.2 240 22:47 17.12.2020
4755 Clouds 8 1016 93 10000 7.2 240 22:26 17.12.2020
4756 Clouds 8 1016 87 10000 8.2 240 21:43 17.12.2020
4757 Clouds 8 1016 87 10000 8.2 240 21:20 17.12.2020
4758 Clouds 8 1016 87 10000 8.2 240 20:45 17.12.2020
4759 Clouds 8 1015 93 10000 6.2 230 20:19 17.12.2020
4760 Clouds 8 1015 87 10000 4.6 230 19:49 17.12.2020
4761 Clouds 8 1015 87 10000 4.6 230 19:25 17.12.2020
4762 Clouds 8 1014 87 10000 6.2 230 18:56 17.12.2020
4763 Rain 8 1014 87 10000 6.2 230 18:37 17.12.2020
4764 Clouds 8 1014 87 10000 6.2 230 18:18 17.12.2020
4765 Clouds 8 1014 93 5000 6.2 240 17:44 17.12.2020
4766 Clouds 8 1014 93 5000 6.2 240 17:25 17.12.2020
4767 Clouds 8 1014 93 5000 6.2 240 16:39 17.12.2020
4768 Clouds 8 1013 93 10000 5.7 230 16:19 17.12.2020
4769 Clouds 8 1013 93 10000 5.7 230 15:44 17.12.2020
4770 Rain 8 1013 93 10000 5.1 240 15:26 17.12.2020
4771 Clouds 8 1013 93 10000 5.1 240 14:48 17.12.2020
4772 Clouds 8 1013 93 5000 6.7 250 14:22 17.12.2020
4773 Rain 8 1012 100 5000 4.6 240 13:48 17.12.2020
4774 Rain 8 1012 100 5000 4.6 240 13:22 17.12.2020
4775 Rain 8 1012 93 3600 5.1 200 12:43 17.12.2020
4776 Rain 8 1012 93 3600 5.1 200 12:24 17.12.2020
4777 Rain 8 1012 93 3500 5.1 190 11:43 17.12.2020
4778 Rain 8 1012 93 3500 5.1 190 11:22 17.12.2020
4779 Rain 8 1012 93 3900 6.7 180 10:48 17.12.2020
4780 Rain 8 1011 93 6000 6.2 170 09:40 17.12.2020
4781 Rain 8 1011 93 6000 6.2 170 09:21 17.12.2020
4782 Rain 8 1012 93 5000 7.7 170 07:49 17.12.2020
4783 Clouds 8 1012 93 5000 7.7 170 07:28 17.12.2020
4784 Rain 8 1012 93 5000 7.2 170 06:51 17.12.2020
4785 Rain 8 1012 93 5000 7.2 170 06:32 17.12.2020
4786 Clouds 8 1013 87 6000 5.7 170 03:55 17.12.2020
4787 Clouds 7 1015 93 6000 5.7 150 00:29 17.12.2020
4788 Clouds 7 1015 93 6000 5.7 150 23:50 16.12.2020
4789 Clouds 7 1016 93 5000 5.7 150 23:19 16.12.2020
4790 Clouds 7 1016 93 5000 5.7 150 22:52 16.12.2020
4791 Clouds 7 1016 93 5000 5.7 150 22:32 16.12.2020
4792 Clouds 6 1016 93 5000 6.2 140 21:47 16.12.2020
4793 Clouds 6 1016 93 5000 6.2 140 21:27 16.12.2020
4794 Clouds 6 1016 93 5000 6.2 140 20:54 16.12.2020
4795 Clouds 6 1017 93 4400 7.2 150 20:21 16.12.2020
4796 Clouds 6 1017 93 4400 7.2 150 19:50 16.12.2020
4797 Clouds 6 1017 100 4300 5.1 160 19:19 16.12.2020
4798 Clouds 5 1017 100 3300 3.6 140 18:52 16.12.2020
4799 Clouds 5 1017 100 3300 3.6 140 18:27 16.12.2020
4800 Clouds 6 1017 93 7000 4.1 130 17:43 16.12.2020
4801 Clouds 6 1017 93 7000 4.1 130 17:18 16.12.2020
4802 Clouds 6 1017 93 7000 4.1 130 16:39 16.12.2020
4803 Clouds 7 1017 87 7000 4.1 140 16:20 16.12.2020
4804 Clouds 7 1017 87 7000 4.1 140 15:49 16.12.2020
4805 Clouds 8 1017 81 10000 2.6 160 15:26 16.12.2020
4806 Clouds 8 1017 76 10000 3.6 180 14:47 16.12.2020
4807 Clouds 9 1017 76 10000 3.6 180 14:28 16.12.2020
4808 Clouds 9 1017 76 10000 3.1 180 13:46 16.12.2020
4809 Clouds 9 1017 76 10000 3.1 180 13:27 16.12.2020
4810 Clouds 9 1017 76 10000 3.1 180 12:55 16.12.2020
4811 Clouds 9 1017 76 10000 3.1 180 12:34 16.12.2020
4812 Clouds 7 1017 87 10000 5.7 180 11:40 16.12.2020
4813 Clouds 7 1017 87 10000 5.7 180 11:22 16.12.2020
4814 Clouds 7 1017 93 6000 3.6 170 10:46 16.12.2020
4815 Clouds 7 1017 93 6000 3.6 170 10:22 16.12.2020
4816 Clouds 7 1017 93 6000 3.6 170 09:42 16.12.2020
4817 Clouds 7 1016 93 5000 4.6 180 08:36 16.12.2020
4818 Clouds 7 1016 93 5000 4.6 180 07:57 16.12.2020
4819 Clouds 7 1016 93 4900 3.6 200 07:38 16.12.2020
4820 Clouds 8 1016 93 4900 3.6 200 06:52 16.12.2020
4821 Clear 8 1013 93 10000 4.1 240 02:26 16.12.2020
4822 Clouds 8 1013 93 9000 6.2 260 01:20 16.12.2020
4823 Clouds 8 1011 100 4200 5.7 260 23:45 15.12.2020
4824 Clouds 8 1010 100 3400 4.1 250 22:48 15.12.2020
4825 Clouds 8 1010 100 3400 4.1 250 22:25 15.12.2020
4826 Clouds 8 1010 100 3400 4.1 250 21:58 15.12.2020
4827 Clouds 8 1010 100 8000 2.6 220 21:40 15.12.2020
4828 Clouds 8 1010 100 8000 2.6 220 21:21 15.12.2020
4829 Rain 8 1010 100 8000 2.6 220 20:44 15.12.2020
4830 Clouds 8 1009 100 9000 2.6 210 20:26 15.12.2020
4831 Rain 8 1009 100 9000 2.6 210 19:52 15.12.2020
4832 Rain 8 1009 100 5000 4.1 230 19:26 15.12.2020
4833 Rain 8 1008 100 2300 4.1 220 18:39 15.12.2020
4834 Rain 8 1008 100 2300 4.1 220 18:21 15.12.2020
4835 Rain 8 1008 100 1500 2.6 210 17:45 15.12.2020
4836 Rain 8 1008 100 1500 2.6 210 17:27 15.12.2020
4837 Rain 8 1008 100 1500 2.6 210 16:58 15.12.2020
4838 Clouds 8 1008 100 2100 3.1 190 16:31 15.12.2020
4839 Rain 8 1008 100 2100 3.1 190 15:44 15.12.2020
4840 Rain 8 1007 100 3600 3.6 230 15:25 15.12.2020
4841 Clouds 8 1007 100 3600 3.6 230 14:43 15.12.2020
4842 Clouds 8 1007 93 4900 4.6 240 14:21 15.12.2020
4843 Clouds 8 1007 93 5000 4.1 220 13:51 15.12.2020
4844 Clouds 8 1007 93 5000 4.1 220 13:32 15.12.2020
4845 Clouds 7 1007 93 7000 4.1 220 12:47 15.12.2020
4846 Clouds 7 1007 93 7000 4.1 220 12:47 15.12.2020
4847 Clouds 7 1007 93 7000 4.1 220 12:20 15.12.2020
4848 Clouds 7 1007 93 7000 4.1 220 11:56 15.12.2020
4849 Clouds 7 1007 93 5000 4.1 200 11:26 15.12.2020
4850 Clouds 7 1007 93 5000 4.1 200 10:55 15.12.2020
4851 Clouds 7 1007 93 8000 4.1 190 10:32 15.12.2020
4852 Clouds 7 1007 93 8000 4.1 190 09:51 15.12.2020
4853 Rain 7 1006 93 8000 5.1 190 09:32 15.12.2020
4854 Rain 7 1006 100 2500 5.1 170 08:54 15.12.2020
4855 Clouds 7 1006 100 2500 5.1 170 08:29 15.12.2020
4856 Clouds 7 1006 100 6000 4.1 170 07:50 15.12.2020
4857 Rain 7 1006 100 6000 4.1 170 07:26 15.12.2020
4858 Clouds 7 1007 93 4700 5.7 170 06:37 15.12.2020
4859 Clouds 8 1006 93 7000 6.2 160 04:18 15.12.2020
4860 Clouds 9 1008 93 6000 5.7 190 00:36 15.12.2020
4861 Clouds 8 1007 93 6000 6.7 180 23:27 14.12.2020
4862 Clouds 8 1007 93 6000 6.7 180 22:59 14.12.2020
4863 Clouds 8 1007 93 6000 6.7 180 22:37 14.12.2020
4864 Clouds 8 1007 93 6000 6.7 190 21:54 14.12.2020
4865 Clouds 8 1007 93 6000 6.7 190 21:54 14.12.2020
4866 Clouds 8 1007 93 6000 6.7 190 21:35 14.12.2020
4867 Clouds 8 1006 93 6000 6.2 190 20:52 14.12.2020
4868 Clouds 8 1006 93 6000 6.2 190 20:30 14.12.2020
4869 Clouds 8 1006 93 6000 6.2 190 19:59 14.12.2020
4870 Clouds 9 1006 87 7000 6.2 190 19:30 14.12.2020
4871 Clouds 9 1006 87 7000 6.2 190 18:55 14.12.2020
4872 Clouds 8 1006 93 7000 6.2 190 18:37 14.12.2020
4873 Clouds 8 1005 100 7000 7.2 190 17:53 14.12.2020
4874 Clouds 8 1005 100 7000 7.2 190 17:32 14.12.2020
4875 Clouds 7 1005 100 7000 7.2 190 16:53 14.12.2020
4876 Clouds 7 1005 93 3700 6.2 180 16:30 14.12.2020
4877 Clouds 7 1005 100 5000 7.2 180 15:53 14.12.2020
4878 Clouds 6 1005 100 5000 7.2 180 15:31 14.12.2020
4879 Clouds 6 1005 93 3400 8.2 180 14:46 14.12.2020
4880 Clouds 6 1005 93 3400 8.2 180 14:27 14.12.2020
4881 Rain 6 1005 93 3400 8.2 180 13:55 14.12.2020
4882 Rain 6 1005 87 5000 6.7 170 13:33 14.12.2020
4883 Clouds 6 1005 87 5000 6.7 170 12:55 14.12.2020
4884 Clouds 6 1005 87 5000 6.7 170 12:31 14.12.2020
4885 Rain 6 1006 81 10000 6.2 160 11:39 14.12.2020
4886 Rain 6 1006 81 10000 6.2 160 11:20 14.12.2020
4887 Rain 6 1006 81 10000 6.7 160 10:27 14.12.2020
4888 Clouds 6 1006 81 10000 6.7 160 09:52 14.12.2020
4889 Clouds 5 1006 86 10000 6.7 150 08:56 14.12.2020
4890 Clouds 5 1006 86 9000 6.2 150 08:38 14.12.2020
4891 Clouds 5 1006 86 9000 6.2 150 07:59 14.12.2020
4892 Clouds 5 1007 86 7000 6.7 150 07:19 14.12.2020
4893 Clouds 5 1007 86 6000 5.7 150 06:42 14.12.2020
4894 Clouds 4 1009 100 4100 4.6 150 03:57 14.12.2020
4895 Clouds 4 1009 100 4100 4.6 150 03:57 14.12.2020
4896 Clouds 4 1009 93 2100 5.7 140 02:23 14.12.2020
4897 Clouds 3 1010 100 2900 4.6 150 00:49 14.12.2020
4898 Clouds 3 1010 100 2900 4.6 150 00:27 14.12.2020
4899 Clouds 3 1010 100 2900 4.6 160 23:44 13.12.2020
4900 Clouds 3 1010 100 2900 4.6 160 22:58 13.12.2020
4901 Clouds 3 1010 100 2200 4.6 140 22:39 13.12.2020
4902 Clouds 3 1010 100 2200 4.6 140 22:18 13.12.2020
4903 Clouds 3 1010 100 1900 4.1 150 21:41 13.12.2020
4904 Clouds 3 1010 100 1900 4.1 150 20:57 13.12.2020
4905 Clouds 3 1010 100 1000 4.1 150 20:32 13.12.2020
4906 Clouds 3 1010 100 1900 3.6 160 19:49 13.12.2020
4907 Clouds 3 1010 100 1900 3.6 160 19:25 13.12.2020
4908 Clouds 3 1010 100 1900 3.6 160 18:57 13.12.2020
4909 Clouds 3 1010 100 3000 2.6 160 18:38 13.12.2020
4910 Clouds 3 1010 100 3000 2.6 160 18:18 13.12.2020
4911 Clouds 3 1010 93 1600 2.6 140 17:45 13.12.2020
4912 Clouds 3 1010 93 1600 2.6 140 17:18 13.12.2020
4913 Clouds 3 1010 93 5000 4.1 140 16:50 13.12.2020
4914 Clouds 3 1010 93 5000 4.1 140 16:31 13.12.2020
4915 Clouds 3 1010 93 7000 3.6 140 15:48 13.12.2020
4916 Clouds 3 1010 93 7000 3.6 140 15:27 13.12.2020
4917 Clouds 3 1009 93 7000 3.6 130 14:50 13.12.2020
4918 Clouds 3 1009 93 7000 3.6 130 14:29 13.12.2020
4919 Clouds 3 1009 93 7000 3.6 130 13:58 13.12.2020
4920 Clouds 3 1009 93 6000 3.6 130 13:36 13.12.2020
4921 Clouds 3 1009 93 6000 3.6 130 13:18 13.12.2020
4922 Clouds 3 1009 93 6000 3.6 130 13:18 13.12.2020
4923 Clouds 3 1009 93 2900 4.1 140 12:36 13.12.2020
4924 Clouds 3 1009 93 2900 4.1 140 12:18 13.12.2020
4925 Clouds 3 1009 93 6000 4.6 130 11:35 13.12.2020
4926 Clouds 3 1009 93 6000 3.1 140 10:47 13.12.2020
4927 Clouds 3 1009 93 6000 3.1 140 10:29 13.12.2020
4928 Clouds 3 1009 93 6000 3.1 140 09:52 13.12.2020
4929 Clouds 3 1008 93 3800 2.6 130 08:53 13.12.2020
4930 Clouds 3 1008 93 2800 4.1 120 08:32 13.12.2020
4931 Clouds 3 1007 93 9000 4.1 120 07:29 13.12.2020
4932 Clouds 3 1006 86 7000 4.1 130 03:31 13.12.2020
4933 Clouds 3 1006 86 7000 4.1 130 02:40 13.12.2020
4934 Clouds 3 1006 86 7000 3.6 130 01:37 13.12.2020
4935 Clouds 3 1006 86 7000 3.6 130 01:37 13.12.2020
4936 Clouds 3 1006 86 7000 3.6 130 01:37 13.12.2020
4937 Clouds 3 1006 86 7000 3.6 130 01:37 13.12.2020
4938 Clouds 3 1005 86 7000 3.1 140 00:48 13.12.2020
4939 Clouds 3 1004 86 7000 4.6 140 23:51 12.12.2020
4940 Clouds 3 1004 86 7000 4.6 140 23:31 12.12.2020
4941 Clouds 4 1004 86 6000 4.6 130 22:46 12.12.2020
4942 Clouds 4 1004 86 6000 4.6 130 21:56 12.12.2020
4943 Clouds 4 1003 86 6000 4.6 130 21:34 12.12.2020
4944 Clouds 4 1003 86 6000 4.6 130 20:55 12.12.2020
4945 Clouds 4 1003 86 7000 3.6 130 20:29 12.12.2020
4946 Clouds 4 1003 86 7000 3.6 130 19:57 12.12.2020
4947 Clouds 4 1003 86 7000 3.6 130 19:38 12.12.2020
4948 Clouds 4 1002 86 7000 4.1 130 19:20 12.12.2020
4949 Clouds 4 1002 93 5000 3.1 130 18:42 12.12.2020
4950 Clouds 4 1002 93 5000 3.1 130 18:23 12.12.2020
4951 Clouds 4 1002 93 5000 3.1 130 17:47 12.12.2020
4952 Clouds 3 1001 100 3000 3.6 130 16:55 12.12.2020
4953 Clouds 3 1000 100 2600 3.6 130 16:20 12.12.2020
4954 Clouds 3 1000 100 3100 5.1 120 15:45 12.12.2020
4955 Clouds 3 1000 100 3100 5.1 120 15:27 12.12.2020
4956 Clouds 4 1000 93 2400 4.1 120 14:45 12.12.2020
4957 Clouds 4 1000 93 2400 4.1 120 13:55 12.12.2020
4958 Clouds 4 999 80 6000 5.1 130 13:36 12.12.2020
4959 Clouds 4 999 80 6000 5.1 130 12:53 12.12.2020
4960 Clouds 4 999 80 7000 6.7 120 11:46 12.12.2020
4961 Clouds 4 999 80 6000 5.7 120 10:53 12.12.2020
4962 Clouds 4 998 88 10000 6.7 120 09:46 12.12.2020
4963 Clouds 3 998 89 10000 6.7 120 08:54 12.12.2020
4964 Clouds 3 998 86 7000 5.7 120 02:57 12.12.2020
4965 Clouds 3 998 86 7000 6.2 120 23:55 11.12.2020
4966 Clouds 3 998 86 8000 5.1 130 22:30 11.12.2020
4967 Clouds 3 997 86 7000 7.7 120 20:48 11.12.2020
4968 Clouds 3 998 86 8000 6.7 120 18:27 11.12.2020
4969 Clouds 3 998 86 9000 6.7 130 16:27 11.12.2020
4970 Clouds 2 999 93 6000 5.1 130 14:18 11.12.2020
4971 Clouds 2 999 93 7000 5.7 130 13:25 11.12.2020
4972 Clouds 2 1000 93 8000 6.2 130 12:20 11.12.2020
4973 Clouds 2 1000 93 7000 4.6 120 11:52 11.12.2020
4974 Clouds 2 1001 88 6000 4.6 130 10:55 11.12.2020
4975 Clouds 1 1001 90 7000 4.1 130 09:41 11.12.2020
4976 Clouds 2 1002 96 6000 5.1 130 06:25 11.12.2020
4977 Clouds 1 1003 95 7000 4.6 140 05:20 11.12.2020
4978 Clouds 2 1004 93 4700 3.6 120 02:38 11.12.2020
4979 Clouds 2 1006 93 5000 3.6 140 00:34 11.12.2020
4980 Clouds 2 1006 93 5000 3.6 140 22:57 10.12.2020
4981 Clouds 2 1006 93 5000 4.1 150 21:37 10.12.2020
4982 Clouds 3 1007 93 4500 5.7 140 20:49 10.12.2020
4983 Clouds 3 1007 93 5000 5.1 130 19:49 10.12.2020
4984 Clouds 3 1007 93 5000 5.1 130 19:21 10.12.2020
4985 Clouds 3 1007 93 3700 5.1 130 18:44 10.12.2020
4986 Clouds 3 1007 93 3500 5.1 120 16:56 10.12.2020
4987 Clouds 3 1008 100 3000 4.6 120 15:51 10.12.2020
4988 Clouds 3 1008 100 3000 4.6 120 14:58 10.12.2020
4989 Rain 3 1008 100 1900 3.6 140 14:38 10.12.2020
4990 Clouds 4 1008 93 1300 3.6 120 13:25 10.12.2020
4991 Clouds 3 1009 93 1700 2.1 120 11:48 10.12.2020
4992 Clouds 3 1009 93 4600 2.6 140 10:29 10.12.2020
4993 Rain 3 1009 93 5000 2.6 140 08:19 10.12.2020
4994 Rain 3 1009 100 3000 2.1 120 06:57 10.12.2020
4995 Rain 3 1009 93 4100 1.5 150 04:45 10.12.2020
4996 Clouds 3 1010 93 4800 2.1 150 02:31 10.12.2020
4997 Clouds 3 1010 93 4200 2.6 190 01:18 10.12.2020
4998 Clouds 3 1010 100 2200 3.6 160 23:35 09.12.2020
4999 Clouds 4 1009 93 3900 3.1 130 20:37 09.12.2020
5000 Clouds 4 1009 93 4000 3.1 120 19:40 09.12.2020
5001 Clouds 4 1009 93 4100 2.6 120 18:36 09.12.2020
5002 Clouds 4 1010 86 4300 1.5 120 16:57 09.12.2020
5003 Clouds 5 1009 86 4200 2.1 130 16:25 09.12.2020
5004 Clouds 4 1009 86 4000 2.6 120 15:41 09.12.2020
5005 Clouds 5 1010 86 5000 3.1 110 14:50 09.12.2020
5006 Clouds 5 1010 86 5000 3.1 110 14:26 09.12.2020
5007 Rain 5 1010 86 6000 2.6 110 13:19 09.12.2020
5008 Rain 5 1010 86 6000 2.6 110 12:58 09.12.2020
5009 Rain 5 1010 86 6000 3.1 90 12:23 09.12.2020
5010 Clouds 5 1010 86 5000 3.6 110 11:33 09.12.2020
5011 Clouds 4 1011 86 6000 4.1 110 09:51 09.12.2020
5012 Clouds 4 1010 93 4400 4.6 120 08:35 09.12.2020
5013 Clouds 4 1010 86 5000 4.1 110 06:38 09.12.2020
5014 Clouds 4 1010 93 4800 4.1 110 05:28 09.12.2020
5015 Clouds 5 1009 86 5000 1 110 02:40 09.12.2020
5016 Clouds 5 1009 86 6000 4.1 140 00:34 09.12.2020
5017 Clouds 5 1009 86 6000 4.1 140 23:34 08.12.2020
5018 Clouds 5 1008 93 4800 3.6 130 21:56 08.12.2020
5019 Clouds 6 1008 87 5000 4.6 130 20:39 08.12.2020
5020 Clouds 6 1008 87 5000 4.6 130 19:30 08.12.2020
5021 Clouds 6 1007 87 5000 4.6 130 18:35 08.12.2020
5022 Clouds 6 1007 81 9000 3.1 110 17:18 08.12.2020
5023 Clouds 6 1006 81 10000 2.6 110 15:22 08.12.2020
5024 Clouds 6 1006 75 10000 3.1 120 13:49 08.12.2020
5025 Clouds 6 1006 81 10000 2.1 140 12:41 08.12.2020
5026 Clouds 6 1006 81 10000 2.1 140 11:55 08.12.2020
5027 Clouds 5 1006 86 10000 2.6 130 11:24 08.12.2020
5028 Clouds 5 1006 80 10000 2.6 140 10:41 08.12.2020
5029 Clouds 5 1006 80 10000 2.1 130 09:45 08.12.2020
5030 Clouds 4 1005 93 8000 2.6 140 07:41 08.12.2020
5031 Clouds 4 1005 86 5000 3.1 130 05:42 08.12.2020
5032 Clouds 5 1004 86 4900 4.1 140 02:49 08.12.2020
5033 Clouds 5 1003 86 5000 3.6 160 00:45 08.12.2020
5034 Clouds 5 1002 86 7000 5.7 190 23:46 07.12.2020
5035 Clouds 5 1002 86 9000 5.7 170 22:32 07.12.2020
5036 Clouds 5 1001 86 10000 7.2 180 21:48 07.12.2020
5037 Clouds 5 999 86 10000 7.7 170 19:46 07.12.2020
5038 Clouds 6 998 75 10000 7.2 170 18:20 07.12.2020
5039 Clouds 6 997 75 10000 7.7 180 17:26 07.12.2020
5040 Clouds 6 997 75 10000 7.7 180 16:52 07.12.2020
5041 Clouds 7 996 87 8000 5.1 140 15:26 07.12.2020
5042 Clouds 7 995 87 10000 4.6 120 14:44 07.12.2020
5043 Clouds 7 995 87 10000 6.2 130 13:44 07.12.2020
5044 Clouds 7 995 87 9000 6.2 130 12:38 07.12.2020
5045 Clouds 7 996 87 10000 6.2 120 11:43 07.12.2020
5046 Rain 7 996 87 10000 6.2 120 10:56 07.12.2020
5047 Clouds 7 995 87 10000 6.7 120 09:40 07.12.2020
5048 Rain 8 995 81 10000 5.7 120 07:58 07.12.2020
5049 Clouds 7 996 87 10000 5.7 120 06:21 07.12.2020
5050 Clouds 7 996 93 7000 5.7 110 04:48 07.12.2020
5051 Clouds 7 997 93 6000 3.6 110 01:54 07.12.2020
5052 Clouds 7 998 93 5000 4.6 110 23:50 06.12.2020
5053 Clouds 6 999 100 3800 3.1 100 22:23 06.12.2020
5054 Clouds 6 999 93 4200 3.1 110 20:54 06.12.2020
5055 Clouds 7 1000 93 5000 3.6 110 20:34 06.12.2020
5056 Clouds 7 1000 93 5000 3.6 110 19:53 06.12.2020
5057 Clouds 7 1000 93 4800 3.1 80 18:21 06.12.2020
5058 Clouds 6 1000 93 3400 4.6 50 16:47 06.12.2020
5059 Clouds 6 1001 93 3400 4.1 40 14:57 06.12.2020
5060 Clouds 5 1002 100 3100 7.2 30 13:42 06.12.2020
5061 Rain 5 1002 100 3100 7.2 30 12:51 06.12.2020
5062 Rain 5 1003 93 2900 6.2 40 11:58 06.12.2020
5063 Clouds 5 1004 86 3500 5.1 40 11:34 06.12.2020
5064 Clouds 5 1004 86 4400 3.6 40 10:45 06.12.2020
5065 Rain 5 1004 86 4400 3.6 40 09:57 06.12.2020
5066 Rain 4 1005 100 4400 3.1 50 08:29 06.12.2020
5067 Rain 3 1005 100 1800 3.6 80 06:37 06.12.2020
5068 Clouds 2 1005 93 2400 4.1 150 01:47 06.12.2020
5069 Clouds 1 1004 93 2500 5.1 160 00:41 06.12.2020
5070 Clouds 2 1004 93 2500 5.1 160 00:23 06.12.2020
5071 Clouds 2 1003 93 3800 5.7 180 22:46 05.12.2020
5072 Clouds 2 1003 93 3800 5.7 180 22:20 05.12.2020
5073 Clouds 2 1003 93 3800 5.7 180 21:48 05.12.2020
5074 Clouds 2 1002 93 3900 4.6 180 21:26 05.12.2020
5075 Clouds 2 1001 86 5000 5.7 170 19:43 05.12.2020
5076 Clouds 3 1000 93 5000 5.7 180 18:40 05.12.2020
5077 Clouds 3 999 86 6000 4.6 190 17:33 05.12.2020
5078 Clouds 3 999 86 5000 4.6 200 16:31 05.12.2020
5079 Clouds 3 999 86 5000 4.6 200 15:57 05.12.2020
5080 Clouds 3 996 80 7000 3.6 160 14:27 05.12.2020
5081 Rain 5 996 80 7000 6.7 140 12:24 05.12.2020
5082 Clouds 6 995 87 7000 6.2 100 11:47 05.12.2020
5083 Rain 5 995 86 7000 4.1 80 10:31 05.12.2020
5084 Rain 5 995 80 8000 4.6 110 07:49 05.12.2020
5085 Clouds 5 995 80 7000 6.2 120 07:24 05.12.2020
5086 Clouds 4 995 86 8000 6.2 120 03:55 05.12.2020
5087 Clouds 2 995 82 4900 2.6 90 23:55 04.12.2020
5088 Snow 1 994 85 9000 2.1 130 22:32 04.12.2020
5089 Clouds 2 993 80 10000 4.1 140 20:26 04.12.2020
5090 Clouds 2 992 89 9000 5.1 130 18:53 04.12.2020
5091 Clouds 2 991 85 9000 5.7 120 18:19 04.12.2020
5092 Clouds 2 991 80 10000 4.1 120 17:40 04.12.2020
5093 Clouds 2 990 77 9000 4.6 120 15:50 04.12.2020
5094 Clouds 2 990 80 10000 5.1 130 13:57 04.12.2020
5095 Clouds 2 989 80 7000 6.2 130 13:29 04.12.2020
5096 Clouds 2 989 80 7000 6.2 130 12:54 04.12.2020
5097 Clouds 2 989 74 6000 7.7 130 10:42 04.12.2020
5098 Clouds 2 989 74 6000 7.7 130 10:23 04.12.2020
5099 Clouds 2 989 74 10000 8.2 130 07:43 04.12.2020
5100 Clouds 2 989 74 10000 7.2 140 06:39 04.12.2020
5101 Clouds 2 990 80 10000 6.7 130 04:38 04.12.2020
5102 Clouds 2 993 80 7000 6.7 140 23:51 03.12.2020
5103 Clouds 2 993 80 7000 6.7 150 22:47 03.12.2020
5104 Clouds 1 994 89 6000 5.7 150 21:20 03.12.2020
5105 Clouds 2 994 89 5000 5.1 160 20:39 03.12.2020
5106 Clouds 2 995 91 5000 5.1 150 19:21 03.12.2020
5107 Clouds 1 996 90 5000 5.7 150 18:40 03.12.2020
5108 Clouds 1 996 90 4700 6.2 150 17:21 03.12.2020
5109 Clouds 2 997 90 4800 6.7 160 15:59 03.12.2020
5110 Clouds 2 998 93 5000 4.6 160 15:32 03.12.2020
5111 Clouds 2 998 93 4800 6.2 160 14:48 03.12.2020
5112 Clouds 2 998 89 4800 6.2 160 13:51 03.12.2020
5113 Clouds 1 1000 86 4700 6.2 160 12:44 03.12.2020
5114 Clouds 1 1000 86 4700 6.2 160 12:22 03.12.2020
5115 Clouds 1 1001 86 4900 6.7 160 10:40 03.12.2020
5116 Clouds 1 1003 80 5000 7.2 150 08:41 03.12.2020
5117 Clouds 1 1006 86 4900 5.7 160 03:57 03.12.2020
5118 Clouds 2 1008 93 4700 6.2 150 01:46 03.12.2020
5119 Clouds 2 1010 98 5000 3.6 150 00:19 03.12.2020
5120 Clouds 3 1011 98 6000 4.1 160 22:46 02.12.2020
5121 Clouds 3 1011 95 6000 4.1 160 21:50 02.12.2020
5122 Clouds 3 1012 86 5000 3.1 160 20:51 02.12.2020
5123 Clouds 3 1013 89 7000 3.1 160 20:33 02.12.2020
5124 Clouds 3 1013 74 9000 2.6 160 19:50 02.12.2020
5125 Clouds 3 1014 86 4800 2.6 160 17:51 02.12.2020
5126 Clouds 3 1014 86 4800 2.6 160 17:31 02.12.2020
5127 Clouds 3 1015 80 5000 2.6 160 16:42 02.12.2020
5128 Clouds 4 1018 86 5000 2.6 170 13:48 02.12.2020
5129 Clouds 4 1020 86 8000 2.1 170 11:33 02.12.2020
5130 Clouds 4 1020 86 7000 2.1 170 10:26 02.12.2020
5131 Clouds 4 1021 86 9000 2.1 90 07:51 02.12.2020
5132 Clouds 5 1023 93 6000 2.1 100 00:50 02.12.2020
5133 Clouds 6 1022 93 7000 2.6 70 22:21 01.12.2020
5134 Clouds 6 1020 87 9000 2.6 80 19:57 01.12.2020
5135 Clouds 6 1020 87 9000 2.6 80 19:33 01.12.2020
5136 Clouds 6 1019 87 6000 3.1 70 17:29 01.12.2020
5137 Clouds 6 1017 93 6000 3.1 60 15:24 01.12.2020
5138 Clouds 5 1016 100 4500 2.6 70 13:37 01.12.2020
5139 Clouds 4 1014 100 6000 3.6 50 11:44 01.12.2020
5140 Clouds 4 1014 100 6000 3.6 50 11:26 01.12.2020
5141 Clouds 4 1014 100 6000 3.6 50 11:26 01.12.2020
5142 Clouds 4 1013 93 2900 1.5 40 10:32 01.12.2020
5143 Clouds 3 1011 100 5000 2.6 110 08:20 01.12.2020
5144 Clouds 3 1009 100 1600 2.1 130 06:46 01.12.2020
5145 Clouds 2 1009 100 4100 3.1 180 01:51 01.12.2020
5146 Clouds 2 1009 100 4100 3.1 180 01:51 01.12.2020
5147 Clouds 2 1009 100 1900 3.6 190 00:52 01.12.2020
5148 Rain 2 1009 93 4100 6.7 180 23:21 30.11.2020
5149 Rain 1 1010 100 3300 7.2 180 22:43 30.11.2020
5150 Clouds 1 1010 100 3300 7.2 180 22:25 30.11.2020
5151 Rain 1 1012 93 3700 5.7 190 20:47 30.11.2020
5152 Rain 2 1013 94 4600 5.7 190 19:42 30.11.2020
5153 Rain 2 1013 94 4600 5.7 190 19:42 30.11.2020
5154 Rain 2 1013 94 4600 5.7 190 19:42 30.11.2020
5155 Rain 2 1013 80 10000 7.2 190 18:23 30.11.2020
5156 Rain 2 1015 74 10000 6.2 190 17:47 30.11.2020
5157 Rain 2 1015 74 10000 6.2 190 16:55 30.11.2020
5158 Clouds 2 1016 74 10000 5.1 190 15:59 30.11.2020
5159 Clouds 3 1019 69 10000 5.1 200 14:46 30.11.2020
5160 Clouds 3 1019 69 10000 5.1 200 13:52 30.11.2020
5161 Clouds 3 1021 74 10000 5.7 210 12:26 30.11.2020
5162 Clouds 3 1021 74 10000 5.7 210 11:58 30.11.2020
5163 Clouds 3 1022 88 10000 5.1 210 10:26 30.11.2020
5164 Clouds 3 1022 88 10000 5.1 210 09:49 30.11.2020
5165 Clouds 1 1024 80 10000 4.6 210 07:18 30.11.2020
5166 Clouds 1 1027 80 10000 2.1 290 00:41 30.11.2020
5167 Clouds 1 1027 74 10000 2.1 310 21:52 29.11.2020
5168 Clouds 1 1027 74 10000 3.1 350 21:31 29.11.2020
5169 Clouds 2 1027 74 10000 3.1 10 19:58 29.11.2020
5170 Clouds 2 1027 74 10000 3.1 360 17:47 29.11.2020
5171 Clouds 3 1027 89 10000 4.1 350 16:27 29.11.2020
5172 Clear 3 1028 86 10000 4.6 320 13:24 29.11.2020
5173 Clear 3 1028 78 10000 1 30 11:41 29.11.2020
5174 Clear 2 1028 81 10000 2.1 60 10:34 29.11.2020
5175 Clear 1 1028 80 10000 3.1 80 08:38 29.11.2020
5176 Clouds 1 1028 92 10000 5.1 30 06:32 29.11.2020
5177 Clouds 3 1028 86 10000 2.1 70 23:54 28.11.2020
5178 Clouds 3 1028 86 10000 1 0 22:56 28.11.2020
5179 Clouds 4 1027 80 10000 1.5 170 20:47 28.11.2020
5180 Clear 4 1027 80 10000 1.5 170 19:50 28.11.2020
5181 Clouds 4 1027 93 10000 2.1 100 19:23 28.11.2020
5182 Clouds 4 1026 86 10000 1 90 18:44 28.11.2020
5183 Clear 4 1026 80 10000 1.5 0 17:47 28.11.2020
5184 Clear 4 1026 86 10000 3.1 110 16:44 28.11.2020
5185 Clear 4 1026 93 10000 2.6 70 14:56 28.11.2020
5186 Clear 5 1025 87 10000 2.1 70 13:18 28.11.2020
5187 Clear 4 1025 100 10000 3.6 120 10:57 28.11.2020
5188 Clear 1 1023 100 700 2.6 90 06:42 28.11.2020
5189 Clear 1 1023 91 4500 2.6 100 03:33 28.11.2020
5190 Clear 0 1023 100 3900 2.1 50 01:50 28.11.2020
5191 Clear 1 1023 89 2600 3.1 90 23:18 27.11.2020
5192 Clear 1 1023 89 3900 3.1 90 21:51 27.11.2020
5193 Clear 2 1022 93 7000 2.1 100 20:37 27.11.2020
5194 Clear 1 1022 100 9000 2.1 100 19:30 27.11.2020
5195 Clear 1 1022 100 9000 2.1 100 18:51 27.11.2020
5196 Clear 8 1022 70 10000 1 0 15:21 27.11.2020
5197 Clear 8 1022 75 10000 2.1 150 14:18 27.11.2020
5198 Clear 6 1022 100 8000 0.5 0 12:48 27.11.2020
5199 Clear 6 1022 100 8000 0.5 0 11:57 27.11.2020
5200 Mist 2 1022 87 1700 1 140 10:51 27.11.2020
5201 Fog 1 1022 93 200 0.5 30 10:27 27.11.2020
5202 Clear 1 1020 98 10000 0.45 327 07:39 27.11.2020
5203 Clear 4 1019 97 10000 0.89 238 22:47 26.11.2020
5204 Clear 4 1019 96 10000 0.89 260 22:22 26.11.2020
5205 Clear 3 1019 100 10000 3.1 260 21:39 26.11.2020
5206 Clear 3 1018 100 10000 4.1 250 20:39 26.11.2020
5207 Clear 6 1018 81 10000 4.1 270 18:36 26.11.2020
5208 Clear 7 1018 81 10000 5.1 280 17:20 26.11.2020
5209 Clear 10 1017 76 10000 5.7 290 13:44 26.11.2020
5210 Clouds 10 1017 76 10000 5.7 290 12:56 26.11.2020
5211 Clouds 10 1017 81 10000 5.7 290 12:29 26.11.2020
5212 Clouds 9 1016 93 10000 5.1 300 10:46 26.11.2020
5213 Clouds 8 1016 93 10000 5.1 300 10:23 26.11.2020
5214 Clouds 8 1015 100 4000 6.2 300 09:34 26.11.2020
5215 Clouds 9 1015 100 4000 6.2 300 08:57 26.11.2020
5216 Clouds 8 1015 100 3400 4.6 230 08:33 26.11.2020
5217 Clouds 7 1014 87 4800 5.7 200 02:18 26.11.2020
5218 Clouds 6 1015 81 9000 5.1 210 22:18 25.11.2020
5219 Clouds 5 1015 86 9000 4.6 200 20:37 25.11.2020
5220 Clouds 4 1014 86 10000 4.1 190 19:18 25.11.2020
5221 Clouds 5 1014 87 10000 2.1 220 17:29 25.11.2020
5222 Clouds 6 1014 75 10000 2.6 210 15:46 25.11.2020
5223 Clouds 6 1014 75 10000 2.6 210 15:23 25.11.2020
5224 Clouds 6 1015 75 10000 3.6 220 13:46 25.11.2020
5225 Clouds 6 1015 75 10000 3.6 220 12:58 25.11.2020
5226 Clouds 5 1015 86 8000 3.6 200 11:26 25.11.2020
5227 Clouds 3 1015 93 6000 3.6 180 09:22 25.11.2020
5228 Clouds 3 1015 93 6000 5.7 180 08:50 25.11.2020
5229 Clouds 3 1015 93 6000 5.7 180 08:29 25.11.2020
5230 Clouds 5 1016 93 3900 5.7 180 03:55 25.11.2020
5231 Clouds 6 1016 93 4500 5.7 190 01:51 25.11.2020
5232 Clouds 7 1017 87 5000 5.7 200 00:22 25.11.2020
5233 Clouds 7 1017 87 5000 5.7 200 00:22 25.11.2020
5234 Clouds 8 1017 87 5000 5.1 200 23:36 24.11.2020
5235 Clouds 8 1017 87 5000 5.1 200 22:57 24.11.2020
5236 Clouds 8 1017 87 7000 5.7 200 21:51 24.11.2020
5237 Clouds 8 1017 87 8000 5.7 210 21:29 24.11.2020
5238 Clouds 8 1018 87 9000 6.7 220 20:20 24.11.2020
5239 Clouds 8 1018 81 9000 6.2 210 18:39 24.11.2020
5240 Clouds 9 1018 87 8000 6.7 220 17:30 24.11.2020
5241 Clouds 9 1018 87 8000 6.7 230 16:45 24.11.2020
5242 Clouds 9 1018 87 8000 6.7 230 16:27 24.11.2020
5243 Clouds 9 1018 87 8000 6.7 230 15:54 24.11.2020
5244 Clouds 9 1018 87 8000 7.2 220 15:18 24.11.2020
5245 Clouds 9 1018 87 8000 7.7 230 14:33 24.11.2020
5246 Clouds 9 1018 93 4800 9.3 230 12:50 24.11.2020
5247 Clouds 8 1018 93 4800 9.3 230 12:22 24.11.2020
5248 Mist 9 1018 87 5000 5.7 220 11:39 24.11.2020
5249 Clouds 8 1018 87 8000 8.2 220 10:46 24.11.2020
5250 Clouds 8 1018 87 8000 8.2 220 10:24 24.11.2020
5251 Clouds 8 1019 81 10000 7.7 230 09:35 24.11.2020
5252 Clouds 7 1018 87 8000 7.7 210 07:58 24.11.2020
5253 Clouds 7 1020 75 10000 7.7 210 04:48 24.11.2020
5254 Clouds 8 1022 75 10000 6.7 240 22:35 23.11.2020
5255 Clouds 8 1023 75 10000 6.2 240 21:38 23.11.2020
5256 Clouds 8 1023 75 10000 6.2 240 20:56 23.11.2020
5257 Clouds 8 1023 75 10000 6.7 250 20:28 23.11.2020
5258 Clouds 7 1023 75 10000 6.2 250 19:32 23.11.2020
5259 Clouds 8 1022 70 10000 7.2 260 17:27 23.11.2020
5260 Clouds 8 1022 70 10000 7.2 260 16:54 23.11.2020
5261 Clouds 9 1022 76 10000 9.8 280 14:49 23.11.2020
5262 Clouds 10 1022 66 10000 8.7 290 13:55 23.11.2020
5263 Clear 9 1021 76 10000 8.7 270 12:40 23.11.2020
5264 Clear 9 1021 76 10000 8.7 270 11:56 23.11.2020
5265 Clear 9 1021 81 10000 8.2 280 11:37 23.11.2020
5266 Clear 6 1019 75 10000 7.2 260 09:47 23.11.2020
5267 Clear 5 1019 75 10000 7.2 260 08:51 23.11.2020
5268 Clear 6 1019 81 10000 8.7 280 07:56 23.11.2020
5269 Rain 7 1017 70 10000 9.3 270 03:32 23.11.2020
5270 Clouds 7 1018 81 10000 6.2 260 23:51 22.11.2020
5271 Clouds 7 1018 70 10000 7.2 250 22:23 22.11.2020
5272 Rain 7 1018 75 10000 5.1 250 21:25 22.11.2020
5273 Clouds 7 1018 75 10000 6.7 260 20:27 22.11.2020
5274 Clouds 7 1018 75 10000 6.7 260 19:29 22.11.2020
5275 Clouds 7 1018 75 10000 7.7 270 18:25 22.11.2020
5276 Clouds 9 1017 76 10000 11.8 280 16:29 22.11.2020
5277 Clear 9 1017 66 10000 14.9 280 15:28 22.11.2020
5278 Clear 10 1017 66 10000 12.9 280 13:44 22.11.2020
5279 Clouds 10 1017 71 10000 12.3 280 12:43 22.11.2020
5280 Clouds 10 1017 71 10000 12.3 280 11:55 22.11.2020
5281 Clouds 9 1016 76 10000 9.3 260 10:55 22.11.2020
5282 Clouds 9 1016 76 10000 11.8 280 10:36 22.11.2020
5283 Clouds 8 1015 87 10000 8.2 270 07:43 22.11.2020
5284 Clouds 9 1016 93 10000 9.8 260 01:47 22.11.2020
5285 Clouds 10 1016 100 10000 10.8 260 22:52 21.11.2020
5286 Rain 10 1016 100 3900 11.8 260 21:32 21.11.2020
5287 Clouds 10 1016 100 3900 11.8 260 20:54 21.11.2020
5288 Clouds 10 1016 93 3800 12.3 250 20:31 21.11.2020
5289 Rain 10 1016 93 3800 12.3 250 19:52 21.11.2020
5290 Rain 10 1017 93 3600 12.3 250 19:25 21.11.2020
5291 Clouds 10 1017 93 10000 9.3 250 17:57 21.11.2020
5292 Clouds 9 1017 100 4800 8.2 240 16:48 21.11.2020
5293 Clouds 9 1017 100 4800 8.2 240 15:51 21.11.2020
5294 Clouds 9 1017 100 1300 10.3 230 15:21 21.11.2020
5295 Clouds 9 1018 93 2400 9.8 230 14:42 21.11.2020
5296 Clouds 8 1018 93 3400 10.8 220 13:41 21.11.2020
5297 Clouds 7 1019 93 8000 10.3 230 12:24 21.11.2020
5298 Clouds 7 1019 93 8000 10.3 230 11:56 21.11.2020
5299 Clouds 7 1020 93 2500 7.7 210 10:39 21.11.2020
5300 Clouds 6 1021 93 2500 8.2 210 09:32 21.11.2020
5301 Clouds 5 1022 93 2400 8.2 200 08:51 21.11.2020
5302 Clouds 5 1024 80 10000 8.7 210 05:47 21.11.2020
5303 Clouds 5 1025 75 10000 8.7 210 04:27 21.11.2020
5304 Clouds 5 1028 93 10000 6.7 200 00:27 21.11.2020
5305 Clouds 4 1029 86 10000 6.2 200 23:25 20.11.2020
5306 Clouds 4 1029 86 10000 5.7 190 21:56 20.11.2020
5307 Clouds 4 1029 80 10000 5.7 200 21:38 20.11.2020
5308 Clouds 4 1029 80 10000 5.7 200 21:38 20.11.2020
5309 Clouds 3 1029 80 10000 5.7 200 21:18 20.11.2020
5310 Clouds 4 1030 75 10000 4.6 220 19:44 20.11.2020
5311 Clouds 3 1030 71 10000 3.6 230 18:32 20.11.2020
5312 Clouds 5 1029 70 10000 5.7 260 17:47 20.11.2020
5313 Clouds 5 1029 70 10000 5.7 260 17:23 20.11.2020
5314 Clouds 5 1029 65 10000 6.7 270 16:38 20.11.2020
5315 Clouds 6 1029 65 10000 6.7 270 15:56 20.11.2020
5316 Clouds 7 1029 72 10000 5.7 260 14:49 20.11.2020
5317 Clouds 7 1029 70 10000 5.7 290 13:43 20.11.2020
5318 Clouds 7 1029 70 10000 5.7 290 13:18 20.11.2020
5319 Clouds 6 1029 66 10000 3.6 270 12:33 20.11.2020
5320 Clouds 5 1028 65 10000 5.1 280 11:43 20.11.2020
5321 Clouds 5 1028 68 10000 5.1 280 10:53 20.11.2020
5322 Clouds 3 1027 76 10000 6.2 300 08:53 20.11.2020
5323 Clouds 3 1026 78 10000 5.1 310 08:24 20.11.2020
5324 Clouds 3 1024 75 10000 11.8 310 05:43 20.11.2020
5325 Clouds 3 1024 78 10000 8.7 290 03:44 20.11.2020
5326 Clouds 4 1020 75 10000 8.7 290 22:35 19.11.2020
5327 Clouds 4 1020 75 10000 8.7 290 21:55 19.11.2020
5328 Clear 4 1019 74 10000 7.2 300 21:34 19.11.2020
5329 Clear 4 1018 74 10000 8.7 310 20:31 19.11.2020
5330 Clear 4 1018 72 10000 8.7 310 19:49 19.11.2020
5331 Clouds 4 1018 75 10000 8.2 300 19:23 19.11.2020
5332 Rain 5 1015 70 10000 10.3 310 17:39 19.11.2020
5333 Rain 5 1015 69 10000 10.3 310 16:54 19.11.2020
5334 Clouds 6 1011 67 10000 12.3 310 15:36 19.11.2020
5335 Clouds 7 1011 64 10000 12.3 310 15:18 19.11.2020
5336 Clouds 7 1007 93 10000 14.9 340 13:46 19.11.2020
5337 Rain 7 1007 93 10000 14.9 340 13:18 19.11.2020
5338 Rain 8 1004 76 10000 13.9 250 12:35 19.11.2020
5339 Clouds 10 1004 76 10000 13.9 250 11:50 19.11.2020
5340 Clouds 10 1005 81 10000 11.3 250 11:32 19.11.2020
5341 Clouds 10 1005 81 10000 11.3 250 10:53 19.11.2020
5342 Rain 10 1005 71 10000 9.8 240 10:18 19.11.2020
5343 Rain 10 1005 66 10000 10.3 240 09:42 19.11.2020
5344 Clouds 10 1005 66 10000 10.3 240 09:24 19.11.2020
5345 Clear 10 1005 71 10000 8.7 240 08:19 19.11.2020
5346 Rain 10 1005 93 2700 10.8 230 02:44 19.11.2020
5347 Rain 12 1006 87 10000 10.3 230 01:45 19.11.2020
5348 Clouds 12 1007 76 3400 11.8 230 23:52 18.11.2020
5349 Clouds 12 1007 71 10000 9.3 210 23:24 18.11.2020
5350 Clouds 12 1008 81 10000 8.2 200 22:36 18.11.2020
5351 Clear 12 1008 81 10000 8.2 200 22:18 18.11.2020
5352 Clear 12 1009 76 10000 9.3 190 21:38 18.11.2020
5353 Clear 11 1009 76 10000 9.3 190 21:19 18.11.2020
5354 Clear 10 1012 81 10000 7.7 190 19:47 18.11.2020
5355 Clouds 10 1012 81 10000 7.7 190 19:27 18.11.2020
5356 Clouds 10 1012 81 10000 7.7 190 18:55 18.11.2020
5357 Clouds 10 1013 87 10000 7.2 200 18:36 18.11.2020
5358 Clouds 10 1014 81 10000 6.7 210 17:37 18.11.2020
5359 Clouds 11 1015 81 10000 8.2 220 16:24 18.11.2020
5360 Clouds 11 1015 81 10000 7.7 210 15:36 18.11.2020
5361 Clouds 11 1016 81 10000 6.7 210 14:41 18.11.2020
5362 Clouds 11 1017 81 10000 5.7 230 13:43 18.11.2020
5363 Clouds 11 1017 81 10000 5.7 230 13:20 18.11.2020
5364 Clouds 11 1018 87 10000 4.6 220 12:29 18.11.2020
5365 Clouds 11 1018 93 10000 4.6 220 11:34 18.11.2020
5366 Clouds 11 1019 93 3600 8.7 240 10:31 18.11.2020
5367 Clouds 12 1019 93 4600 9.3 230 09:52 18.11.2020
5368 Clouds 12 1019 93 4100 8.2 230 07:54 18.11.2020
5369 Clouds 12 1019 100 3600 8.2 240 06:34 18.11.2020
5370 Clouds 12 1018 93 7000 8.2 240 00:29 18.11.2020
5371 Clouds 12 1018 93 7000 9.3 240 23:37 17.11.2020
5372 Clouds 12 1018 93 7000 9.3 240 22:49 17.11.2020
5373 Clouds 12 1018 93 5000 9.8 240 22:29 17.11.2020
5374 Clouds 12 1018 93 10000 9.3 250 21:50 17.11.2020
5375 Clouds 12 1018 93 10000 9.3 250 21:30 17.11.2020
5376 Clouds 12 1018 93 10000 9.3 250 20:50 17.11.2020
5377 Clouds 12 1017 93 3400 10.3 250 20:26 17.11.2020
5378 Clouds 12 1017 93 3400 10.3 250 19:54 17.11.2020
5379 Clouds 12 1016 93 8000 9.3 240 18:30 17.11.2020
5380 Clouds 12 1016 93 10000 9.8 240 17:44 17.11.2020
5381 Clouds 13 1016 87 10000 11.3 250 16:54 17.11.2020
5382 Clouds 13 1016 87 10000 11.3 250 16:20 17.11.2020
5383 Clouds 13 1015 87 10000 11.8 260 15:41 17.11.2020
5384 Clouds 13 1015 87 10000 11.8 260 15:22 17.11.2020
5385 Clouds 13 1015 87 10000 11.8 260 14:54 17.11.2020
5386 Clouds 12 1015 100 3900 10.3 250 14:28 17.11.2020
5387 Clouds 12 1014 100 3300 8.2 240 13:36 17.11.2020
5388 Clouds 12 1014 100 3300 8.2 240 12:57 17.11.2020
5389 Clouds 12 1014 100 3100 8.2 220 12:38 17.11.2020
5390 Clouds 11 1014 93 2100 7.7 210 11:43 17.11.2020
5391 Clouds 10 1014 93 2200 7.7 210 10:49 17.11.2020
5392 Rain 10 1014 93 2200 7.7 210 10:23 17.11.2020
5393 Rain 10 1014 93 2200 7.7 210 10:23 17.11.2020
5394 Rain 9 1014 100 2400 7.2 210 09:50 17.11.2020
5395 Clouds 9 1014 100 2400 7.2 210 09:27 17.11.2020
5396 Clouds 9 1014 93 3300 7.2 200 08:22 17.11.2020
5397 Clouds 9 1014 87 10000 5.7 210 07:44 17.11.2020
5398 Clouds 9 1014 87 10000 6.7 210 06:33 17.11.2020
5399 Clouds 9 1014 81 10000 5.7 240 03:31 17.11.2020
5400 Clouds 9 1014 81 10000 4.6 240 02:35 17.11.2020
5401 Clouds 9 1014 87 10000 8.2 260 01:23 17.11.2020
5402 Clouds 9 1014 87 10000 8.2 260 00:50 17.11.2020
5403 Clouds 9 1013 87 10000 8.2 250 23:45 16.11.2020
5404 Clouds 10 1013 87 10000 8.2 250 23:23 16.11.2020
5405 Clouds 10 1012 93 10000 8.2 250 22:42 16.11.2020
5406 Clouds 10 1012 93 10000 8.2 250 22:20 16.11.2020
5407 Clouds 10 1012 87 2900 8.7 250 21:44 16.11.2020
5408 Clouds 10 1012 87 2900 8.7 250 21:24 16.11.2020
5409 Clouds 11 1011 87 10000 7.2 250 20:37 16.11.2020
5410 Rain 11 1011 87 10000 7.2 250 20:19 16.11.2020
5411 Clouds 11 1010 93 10000 8.7 250 19:38 16.11.2020
5412 Rain 11 1010 93 10000 8.7 250 19:19 16.11.2020
5413 Rain 11 1009 93 10000 8.7 250 18:29 16.11.2020
5414 Clouds 11 1008 93 10000 6.7 240 17:47 16.11.2020
5415 Rain 11 1008 93 10000 6.7 240 17:21 16.11.2020
5416 Rain 11 1007 100 10000 6.7 210 16:53 16.11.2020
5417 Rain 11 1007 100 10000 6.7 210 16:28 16.11.2020
5418 Clouds 10 1007 100 10000 6.7 210 15:51 16.11.2020
5419 Rain 11 1006 87 9000 7.7 210 15:29 16.11.2020
5420 Rain 11 1006 87 9000 7.7 210 14:55 16.11.2020
5421 Rain 11 1005 81 10000 7.7 230 14:28 16.11.2020
5422 Rain 11 1005 87 10000 8.7 230 13:31 16.11.2020
5423 Clouds 11 1004 81 10000 9.3 220 12:33 16.11.2020
5424 Clouds 10 1003 93 10000 7.2 230 11:44 16.11.2020
5425 Rain 10 1003 93 10000 7.2 230 11:24 16.11.2020
5426 Clouds 9 1002 93 10000 10.3 220 10:47 16.11.2020
5427 Rain 9 1002 93 10000 10.3 220 10:26 16.11.2020
5428 Rain 9 1002 93 10000 10.3 220 10:26 16.11.2020
5429 Rain 9 1002 93 10000 10.3 220 09:56 16.11.2020
5430 Rain 9 1001 87 4700 10.3 200 09:37 16.11.2020
5431 Rain 9 1001 87 4700 10.3 200 08:49 16.11.2020
5432 Rain 9 1000 76 10000 9.8 190 08:26 16.11.2020
5433 Clouds 9 1000 76 10000 8.7 190 07:43 16.11.2020
5434 Clouds 9 1000 81 10000 7.7 190 06:47 16.11.2020
5435 Clouds 9 1000 81 10000 7.7 190 05:50 16.11.2020
5436 Clouds 8 1000 87 10000 9.3 180 04:33 16.11.2020
5437 Clouds 8 999 87 10000 5.7 190 01:47 16.11.2020
5438 Clouds 8 999 87 10000 5.7 190 01:21 16.11.2020
5439 Rain 10 997 93 4800 8.7 160 23:43 15.11.2020
5440 Rain 10 997 93 4800 8.7 160 23:21 15.11.2020
5441 Rain 12 998 82 10000 6.7 160 22:37 15.11.2020
5442 Rain 13 998 82 10000 6.7 160 22:18 15.11.2020
5443 Rain 13 999 71 10000 7.7 170 21:41 15.11.2020
5444 Rain 13 999 71 10000 7.7 170 21:20 15.11.2020
5445 Rain 14 999 71 10000 9.3 160 20:40 15.11.2020
5446 Clouds 14 999 71 10000 9.3 160 20:18 15.11.2020
5447 Clouds 14 1000 71 10000 8.7 160 19:43 15.11.2020
5448 Clouds 14 1000 71 10000 8.7 160 19:22 15.11.2020
5449 Clouds 14 1000 71 10000 8.7 160 18:56 15.11.2020
5450 Clouds 14 1000 71 10000 8.7 160 18:37 15.11.2020
5451 Clouds 14 1000 71 10000 8.7 160 18:19 15.11.2020
5452 Clouds 14 1001 71 10000 7.7 160 17:43 15.11.2020
5453 Clouds 14 1001 71 10000 7.7 160 17:23 15.11.2020
5454 Clouds 14 1002 71 10000 6.7 160 16:45 15.11.2020
5455 Clouds 14 1002 71 10000 6.7 160 16:20 15.11.2020
5456 Clouds 14 1002 71 10000 6.7 160 15:50 15.11.2020
5457 Clouds 14 1003 67 10000 7.2 160 15:26 15.11.2020
5458 Clouds 14 1003 67 10000 7.2 160 14:56 15.11.2020
5459 Clear 15 1005 67 10000 7.2 180 14:29 15.11.2020
5460 Clear 15 1005 67 10000 7.2 180 13:56 15.11.2020
5461 Clear 15 1005 67 10000 7.2 180 13:36 15.11.2020
5462 Clouds 15 1005 67 10000 7.2 180 12:50 15.11.2020
5463 Clouds 14 1005 71 10000 5.7 180 12:22 15.11.2020
5464 Clouds 14 1006 76 10000 6.7 170 11:46 15.11.2020
5465 Clouds 13 1006 76 10000 6.7 170 11:20 15.11.2020
5466 Clouds 13 1006 81 10000 8.2 180 10:53 15.11.2020
5467 Clouds 12 1006 81 10000 8.2 180 10:32 15.11.2020
5468 Clouds 12 1006 81 10000 8.2 180 09:58 15.11.2020
5469 Clouds 12 1007 76 10000 7.2 180 09:40 15.11.2020
5470 Clouds 12 1007 76 10000 7.2 180 09:18 15.11.2020
5471 Clouds 12 1007 81 10000 7.7 180 08:46 15.11.2020
5472 Clouds 11 1007 81 10000 7.7 180 07:47 15.11.2020
5473 Clouds 11 1007 81 10000 7.7 180 06:50 15.11.2020
5474 Clouds 11 1007 81 10000 7.7 180 04:57 15.11.2020
5475 Clouds 11 1009 81 10000 7.2 180 02:43 15.11.2020
5476 Clouds 11 1010 87 7000 5.1 170 00:45 15.11.2020
5477 Clouds 11 1010 87 7000 5.1 170 00:26 15.11.2020
5478 Clouds 11 1010 87 7000 4.6 180 23:34 14.11.2020
5479 Clouds 12 1011 93 6000 5.1 180 22:46 14.11.2020
5480 Clouds 12 1011 93 6000 5.1 180 22:46 14.11.2020
5481 Clouds 12 1011 93 6000 5.1 180 22:28 14.11.2020
5482 Clouds 12 1011 93 4600 6.2 170 21:41 14.11.2020
5483 Clouds 12 1011 93 4600 6.2 170 21:22 14.11.2020
5484 Clouds 11 1011 93 4600 6.2 170 20:50 14.11.2020
5485 Clouds 11 1012 93 3700 5.7 170 20:27 14.11.2020
5486 Clouds 11 1012 93 3700 5.7 170 19:51 14.11.2020
5487 Clouds 10 1012 100 4300 5.7 160 19:30 14.11.2020
5488 Clouds 10 1012 93 7000 4.6 160 18:43 14.11.2020
5489 Clouds 10 1012 93 7000 4.6 160 18:24 14.11.2020
5490 Clouds 10 1012 93 7000 4.6 160 18:24 14.11.2020
5491 Clouds 10 1012 93 7000 4.6 160 17:51 14.11.2020
5492 Clouds 10 1013 87 10000 4.1 150 17:33 14.11.2020
5493 Clouds 10 1013 87 10000 4.1 150 16:57 14.11.2020
5494 Clouds 9 1013 87 10000 4.1 140 16:37 14.11.2020
5495 Clouds 10 1013 87 10000 4.1 140 16:18 14.11.2020
5496 Clouds 10 1013 87 10000 4.1 140 15:51 14.11.2020
5497 Rain 10 1014 87 10000 3.1 160 15:25 14.11.2020
5498 Clouds 10 1014 87 10000 3.6 190 14:42 14.11.2020
5499 Clouds 10 1014 87 10000 3.6 190 14:23 14.11.2020
5500 Rain 10 1014 87 10000 2.6 210 13:42 14.11.2020
5501 Clouds 10 1014 87 10000 2.6 210 13:23 14.11.2020
5502 Rain 10 1015 87 10000 3.6 200 12:46 14.11.2020
5503 Clouds 10 1015 87 10000 3.6 200 12:28 14.11.2020
5504 Clouds 10 1015 87 10000 4.1 200 11:46 14.11.2020
5505 Clouds 9 1015 87 10000 4.1 200 11:25 14.11.2020
5506 Clouds 8 1015 100 10000 1.5 190 10:49 14.11.2020
5507 Clouds 7 1015 100 10000 1.5 190 10:26 14.11.2020
5508 Clouds 7 1015 100 10000 1.5 190 09:50 14.11.2020
5509 Clouds 7 1015 93 10000 3.6 200 09:28 14.11.2020
5510 Clouds 7 1015 93 10000 3.6 200 09:28 14.11.2020
5511 Clouds 7 1015 93 10000 3.6 200 09:28 14.11.2020
5512 Clouds 7 1015 93 10000 3.6 200 08:59 14.11.2020
5513 Clouds 6 1014 100 10000 3.6 210 08:38 14.11.2020
5514 Clouds 7 1014 100 10000 3.6 210 07:51 14.11.2020
5515 Clouds 7 1014 100 10000 3.6 220 07:28 14.11.2020
5516 Clouds 7 1014 100 10000 2.6 240 06:35 14.11.2020
5517 Clouds 7 1014 100 10000 2.6 240 05:52 14.11.2020
5518 Clouds 8 1014 100 8000 3.1 260 04:22 14.11.2020
5519 Clouds 10 1013 93 3400 4.6 190 01:21 14.11.2020
5520 Clouds 9 1012 100 3400 5.7 190 23:50 13.11.2020
5521 Clouds 9 1013 100 4600 5.1 200 23:29 13.11.2020
5522 Clouds 9 1013 100 4600 5.1 200 22:56 13.11.2020
5523 Clouds 9 1012 93 4800 5.1 190 22:38 13.11.2020
5524 Clouds 9 1012 93 4800 5.1 190 22:19 13.11.2020
5525 Clouds 9 1012 87 10000 5.7 190 21:42 13.11.2020
5526 Rain 9 1012 87 10000 5.7 190 21:22 13.11.2020
5527 Rain 9 1012 87 10000 5.7 190 20:50 13.11.2020
5528 Rain 9 1012 81 10000 6.2 180 20:23 13.11.2020
5529 Clouds 9 1012 81 10000 7.2 170 19:47 13.11.2020
5530 Rain 9 1012 81 10000 7.2 170 19:24 13.11.2020
5531 Clouds 9 1012 81 10000 7.2 170 18:58 13.11.2020
5532 Clouds 8 1013 93 9000 6.2 170 18:30 13.11.2020
5533 Clouds 8 1013 87 7000 5.1 160 17:43 13.11.2020
5534 Clouds 8 1013 87 7000 5.1 160 17:20 13.11.2020
5535 Clouds 8 1013 87 6000 4.6 150 16:50 13.11.2020
5536 Clouds 8 1013 87 6000 4.6 150 16:25 13.11.2020
5537 Clouds 8 1013 87 6000 4.6 150 15:58 13.11.2020
5538 Clouds 8 1014 87 7000 3.6 170 15:33 13.11.2020
5539 Clouds 9 1014 87 7000 3.6 170 14:55 13.11.2020
5540 Clouds 8 1014 93 5000 5.1 180 14:36 13.11.2020
5541 Clouds 8 1014 93 5000 5.1 180 14:36 13.11.2020
5542 Clouds 8 1014 93 5000 5.1 180 14:18 13.11.2020
5543 Clouds 8 1014 93 5000 5.1 180 14:18 13.11.2020
5544 Clouds 8 1014 93 5000 5.1 180 14:18 13.11.2020
5545 Clouds 8 1014 93 5000 5.1 180 14:18 13.11.2020
5546 Clouds 8 1015 93 4900 5.7 180 13:31 13.11.2020
5547 Clouds 8 1015 93 4900 5.7 180 12:55 13.11.2020
5548 Clouds 8 1015 93 4600 4.1 190 12:37 13.11.2020
5549 Clouds 8 1015 93 4600 4.1 190 12:18 13.11.2020
5550 Clouds 8 1015 93 5000 4.1 180 11:45 13.11.2020
5551 Clouds 8 1015 93 5000 4.1 180 11:20 13.11.2020
5552 Clouds 8 1016 93 4400 4.1 180 10:47 13.11.2020
5553 Clouds 8 1016 93 4400 4.1 180 10:47 13.11.2020
5554 Clouds 8 1016 93 4400 4.1 180 10:29 13.11.2020
5555 Clouds 8 1016 93 6000 3.6 200 09:47 13.11.2020
5556 Clouds 8 1016 93 6000 3.6 200 09:29 13.11.2020
5557 Clouds 8 1016 93 6000 3.6 200 08:53 13.11.2020
5558 Clear 8 1016 93 7000 5.7 220 08:27 13.11.2020
5559 Clear 8 1016 93 7000 5.7 220 07:50 13.11.2020
5560 Clouds 8 1015 93 10000 4.6 200 07:27 13.11.2020
5561 Clouds 8 1015 93 10000 4.6 200 06:55 13.11.2020
5562 Clouds 8 1015 87 10000 4.6 200 06:36 13.11.2020
5563 Clouds 8 1015 87 10000 4.1 220 05:41 13.11.2020
5564 Clouds 8 1015 93 9000 4.1 230 03:44 13.11.2020
5565 Clouds 8 1015 93 5000 5.7 180 01:42 13.11.2020
5566 Clouds 8 1015 93 3900 4.6 200 00:37 13.11.2020
5567 Clouds 8 1015 93 3900 4.6 200 23:50 12.11.2020
5568 Rain 8 1015 93 10000 6.2 180 23:21 12.11.2020
5569 Rain 8 1015 93 10000 6.2 180 22:56 12.11.2020
5570 Rain 8 1015 93 5000 2.6 240 22:38 12.11.2020
5571 Clouds 8 1015 93 5000 2.6 240 21:59 12.11.2020
5572 Clouds 8 1015 87 10000 5.7 200 21:41 12.11.2020
5573 Clouds 8 1015 87 10000 5.7 200 21:22 12.11.2020
5574 Clouds 8 1014 93 6000 4.6 190 20:42 12.11.2020
5575 Clouds 8 1014 93 6000 4.6 190 20:24 12.11.2020
5576 Clouds 8 1014 93 6000 4.6 190 19:57 12.11.2020
5577 Clouds 8 1014 100 4200 7.2 190 19:39 12.11.2020
5578 Clouds 8 1014 100 4200 7.2 190 19:21 12.11.2020
5579 Rain 8 1014 93 4900 5.7 180 18:45 12.11.2020
5580 Rain 8 1014 93 4900 5.7 180 18:20 12.11.2020
5581 Clouds 8 1014 93 5000 5.1 180 17:43 12.11.2020
5582 Rain 8 1014 93 5000 5.1 180 17:24 12.11.2020
5583 Clouds 9 1014 87 3700 5.1 170 16:46 12.11.2020
5584 Rain 9 1014 87 3700 5.1 170 16:24 12.11.2020
5585 Clouds 9 1014 87 3700 5.1 170 15:54 12.11.2020
5586 Rain 9 1014 87 4600 4.6 160 15:30 12.11.2020
5587 Rain 9 1014 87 4600 4.6 160 14:57 12.11.2020
5588 Rain 9 1014 87 7000 4.6 150 14:38 12.11.2020
5589 Clouds 9 1014 87 7000 4.6 150 14:20 12.11.2020
5590 Clouds 8 1015 87 6000 4.6 150 13:45 12.11.2020
5591 Clouds 8 1015 87 6000 4.6 150 13:21 12.11.2020
5592 Clouds 8 1015 87 6000 4.6 150 12:50 12.11.2020
5593 Clouds 8 1015 87 7000 4.1 160 12:28 12.11.2020
5594 Clouds 8 1015 87 7000 4.1 160 11:59 12.11.2020
5595 Clouds 8 1015 87 6000 4.1 140 11:40 12.11.2020
5596 Clouds 8 1015 87 6000 4.1 140 11:22 12.11.2020
5597 Clouds 7 1016 100 4800 4.6 150 10:41 12.11.2020
5598 Clouds 7 1016 100 4800 4.6 150 10:22 12.11.2020
5599 Clouds 7 1016 100 2900 4.1 130 09:40 12.11.2020
5600 Clouds 7 1016 100 2900 4.1 130 09:20 12.11.2020
5601 Clouds 7 1016 100 2300 4.6 140 08:41 12.11.2020
5602 Clouds 7 1016 100 2300 4.6 140 08:22 12.11.2020
5603 Clouds 7 1016 100 2300 4.6 140 08:22 12.11.2020
5604 Clouds 7 1016 100 2300 4.6 140 07:59 12.11.2020
5605 Clouds 8 1017 93 1600 4.6 140 07:40 12.11.2020
5606 Clouds 8 1017 93 1600 4.6 140 06:58 12.11.2020
5607 Clouds 8 1017 93 3100 3.6 130 06:40 12.11.2020
5608 Clouds 7 1018 100 3400 3.6 130 05:19 12.11.2020
5609 Clouds 7 1019 93 4700 4.6 130 03:21 12.11.2020
5610 Clouds 6 1020 100 5000 4.1 150 01:23 12.11.2020
5611 Clouds 6 1021 93 3600 2.6 140 23:47 11.11.2020
5612 Clouds 6 1021 93 3600 2.6 140 23:25 11.11.2020
5613 Clouds 6 1021 93 3600 2.6 140 22:58 11.11.2020
5614 Clouds 6 1022 100 4400 2.1 150 22:39 11.11.2020
5615 Clouds 6 1022 100 4400 2.1 150 22:19 11.11.2020
5616 Clouds 5 1022 100 3400 3.1 140 21:41 11.11.2020
5617 Clouds 5 1022 100 3400 3.1 140 21:23 11.11.2020
5618 Clouds 5 1022 100 3400 3.1 140 20:58 11.11.2020
5619 Clouds 5 1022 100 2000 2.6 150 20:40 11.11.2020
5620 Clouds 5 1022 100 2000 2.6 150 20:21 11.11.2020
5621 Clouds 5 1022 100 2000 2.6 150 19:49 11.11.2020
5622 Clouds 5 1023 100 1500 2.6 150 19:30 11.11.2020
5623 Clouds 5 1023 100 1500 2.6 150 18:53 11.11.2020
5624 Clouds 5 1023 93 1500 3.1 140 18:33 11.11.2020
5625 Clouds 5 1023 93 2600 3.1 120 17:42 11.11.2020
5626 Clouds 5 1023 93 2600 3.1 120 17:23 11.11.2020
5627 Clouds 5 1023 93 2600 3.1 120 16:55 11.11.2020
5628 Clouds 5 1024 93 4300 1.5 150 16:33 11.11.2020
5629 Clouds 5 1024 93 4300 1.5 150 15:52 11.11.2020
5630 Clouds 5 1024 93 3400 1.5 230 15:27 11.11.2020
5631 Clouds 5 1024 93 3400 1.5 230 14:59 11.11.2020
5632 Clouds 5 1024 93 3600 1.5 140 14:38 11.11.2020
5633 Clouds 5 1024 93 3600 1.5 140 13:57 11.11.2020
5634 Clouds 5 1024 93 3600 1.5 140 13:57 11.11.2020
5635 Clouds 5 1025 93 4100 2.6 150 13:38 11.11.2020
5636 Clouds 5 1025 93 4400 1.5 170 12:50 11.11.2020
5637 Clouds 5 1025 93 4400 1.5 170 12:21 11.11.2020
5638 Clouds 5 1025 93 4400 1.5 170 11:50 11.11.2020
5639 Clouds 5 1025 93 4300 3.1 170 11:30 11.11.2020
5640 Clouds 5 1026 93 4200 3.1 170 10:43 11.11.2020
5641 Clouds 5 1026 93 4200 3.1 170 10:25 11.11.2020
5642 Clouds 5 1026 93 4200 3.1 170 09:55 11.11.2020
5643 Clouds 5 1026 93 3600 3.6 160 09:37 11.11.2020
5644 Clouds 5 1026 93 3600 3.6 160 09:19 11.11.2020
5645 Clouds 5 1026 93 3500 2.1 150 08:41 11.11.2020
5646 Clouds 5 1026 93 3500 2.1 150 08:22 11.11.2020
5647 Clouds 4 1026 93 3500 1 160 07:41 11.11.2020
5648 Clouds 4 1026 93 4700 2.6 150 06:30 11.11.2020
5649 Clouds 4 1027 93 5000 4.1 170 04:49 11.11.2020
5650 Clouds 4 1027 93 4700 4.1 160 01:37 11.11.2020
5651 Clouds 4 1027 93 4700 4.1 160 01:37 11.11.2020
5652 Clouds 4 1027 93 4700 4.1 160 00:56 11.11.2020
5653 Clouds 4 1027 100 5000 2.6 140 00:22 11.11.2020
5654 Clouds 5 1027 93 5000 3.6 130 23:37 10.11.2020
5655 Clouds 5 1027 93 5000 3.6 130 23:18 10.11.2020
5656 Clouds 5 1027 100 4400 3.1 150 22:43 10.11.2020
5657 Clouds 5 1027 100 4400 3.1 150 22:24 10.11.2020
5658 Clouds 5 1027 93 5000 3.6 150 21:41 10.11.2020
5659 Clouds 5 1027 93 5000 3.6 150 21:23 10.11.2020
5660 Clouds 6 1027 93 5000 3.6 150 20:56 10.11.2020
5661 Clouds 6 1027 93 4900 3.6 150 20:38 10.11.2020
5662 Clouds 6 1027 93 4900 3.6 150 20:19 10.11.2020
5663 Clouds 6 1027 93 4500 4.6 140 19:44 10.11.2020
5664 Clouds 6 1027 93 4500 4.6 140 19:24 10.11.2020
5665 Clouds 6 1027 93 4500 4.6 140 18:55 10.11.2020
5666 Clouds 6 1027 93 5000 4.1 120 18:37 10.11.2020
5667 Clouds 6 1027 93 5000 4.1 120 18:18 10.11.2020
5668 Clouds 6 1027 93 6000 4.6 140 17:41 10.11.2020
5669 Clouds 6 1027 93 6000 4.6 140 17:23 10.11.2020
5670 Clouds 6 1027 93 5000 4.1 130 16:42 10.11.2020
5671 Clouds 6 1027 93 5000 4.1 130 16:22 10.11.2020
5672 Clouds 6 1027 93 5000 4.1 130 15:54 10.11.2020
5673 Clouds 6 1027 93 7000 5.1 140 15:36 10.11.2020
5674 Clouds 6 1027 93 7000 5.1 140 15:18 10.11.2020
5675 Clouds 6 1027 93 8000 4.6 130 14:39 10.11.2020
5676 Clouds 6 1027 93 8000 4.6 130 14:19 10.11.2020
5677 Clouds 6 1028 87 7000 3.6 130 13:39 10.11.2020
5678 Clouds 6 1028 87 7000 3.6 130 13:20 10.11.2020
5679 Clouds 6 1028 87 7000 3.6 130 12:56 10.11.2020
5680 Clouds 6 1028 93 7000 4.1 130 12:37 10.11.2020
5681 Clouds 6 1028 93 7000 4.1 130 12:18 10.11.2020
5682 Clouds 6 1028 93 5000 4.1 130 11:36 10.11.2020
5683 Clouds 6 1028 93 5000 4.1 130 11:18 10.11.2020
5684 Clouds 6 1027 93 5000 4.1 130 10:42 10.11.2020
5685 Clouds 6 1027 93 5000 4.1 130 10:22 10.11.2020
5686 Clouds 6 1027 93 4500 5.1 130 09:46 10.11.2020
5687 Clouds 6 1027 93 4500 5.1 130 09:26 10.11.2020
5688 Clouds 6 1027 93 4500 5.1 130 08:57 10.11.2020
5689 Clouds 6 1027 93 5000 4.6 120 08:30 10.11.2020
5690 Clouds 7 1027 87 5000 4.6 130 07:47 10.11.2020
5691 Clouds 7 1027 87 5000 4.6 130 07:26 10.11.2020
5692 Clouds 7 1027 87 5000 4.1 130 06:47 10.11.2020
5693 Clouds 7 1027 87 5000 4.1 130 06:23 10.11.2020
5694 Clouds 7 1026 87 6000 4.6 120 05:27 10.11.2020
5695 Clouds 7 1027 87 6000 4.6 120 02:57 10.11.2020
5696 Clouds 7 1027 87 5000 5.1 120 01:38 10.11.2020
5697 Clouds 7 1027 87 5000 4.1 120 00:24 10.11.2020
5698 Clouds 7 1027 87 5000 6.2 120 23:42 09.11.2020
5699 Clouds 7 1027 87 5000 6.2 120 22:57 09.11.2020
5700 Clouds 7 1027 87 4900 4.1 130 22:38 09.11.2020
5701 Clouds 7 1027 87 4900 4.1 130 22:19 09.11.2020
5702 Clouds 7 1027 87 4900 4.1 130 22:19 09.11.2020
5703 Clouds 7 1027 87 4600 4.6 130 21:40 09.11.2020
5704 Clouds 7 1027 87 4600 4.6 130 21:20 09.11.2020
5705 Clouds 7 1027 93 4500 4.1 130 20:41 09.11.2020
5706 Clouds 7 1027 93 4500 4.1 130 20:21 09.11.2020
5707 Clouds 7 1026 93 4400 5.1 120 19:46 09.11.2020
5708 Clouds 7 1026 93 4400 5.1 120 19:23 09.11.2020
5709 Clouds 7 1026 93 4400 5.1 120 18:57 09.11.2020
5710 Clouds 7 1026 93 4700 4.6 120 18:38 09.11.2020
5711 Clouds 7 1026 93 4700 4.6 120 18:18 09.11.2020
5712 Clouds 7 1026 93 5000 5.7 130 17:43 09.11.2020
5713 Clear 7 1026 93 5000 5.7 130 17:25 09.11.2020
5714 Clear 8 1026 87 5000 6.2 120 16:44 09.11.2020
5715 Clear 8 1026 87 5000 6.2 120 16:20 09.11.2020
5716 Clear 8 1026 87 6000 5.1 120 15:45 09.11.2020
5717 Clear 8 1026 87 6000 5.1 120 15:25 09.11.2020
5718 Clear 8 1026 87 5000 3.6 120 14:49 09.11.2020
5719 Clear 8 1026 87 5000 3.6 120 14:28 09.11.2020
5720 Clear 8 1026 87 5000 3.6 120 13:53 09.11.2020
5721 Clear 8 1026 87 6000 4.6 120 13:28 09.11.2020
5722 Clear 8 1026 87 6000 4.6 120 12:58 09.11.2020
5723 Clear 8 1026 87 5000 5.1 120 12:40 09.11.2020
5724 Clear 8 1026 87 5000 5.1 120 12:20 09.11.2020
5725 Clear 8 1026 87 4800 4.6 120 11:42 09.11.2020
5726 Clear 8 1026 87 4800 4.6 120 11:24 09.11.2020
5727 Clear 8 1026 93 4700 4.6 120 10:44 09.11.2020
5728 Clear 7 1026 93 4700 4.6 120 10:25 09.11.2020
5729 Clear 7 1026 93 4700 4.6 120 09:54 09.11.2020
5730 Clear 7 1026 93 5000 4.1 120 09:29 09.11.2020
5731 Clear 7 1026 93 5000 4.1 120 08:50 09.11.2020
5732 Clear 7 1025 93 4400 4.1 110 08:27 09.11.2020
5733 Clear 7 1025 93 4700 4.6 120 07:44 09.11.2020
5734 Clear 7 1025 93 4700 4.6 120 07:23 09.11.2020
5735 Clear 7 1025 93 4700 4.6 120 06:52 09.11.2020
5736 Clear 8 1025 87 6000 4.1 120 04:30 09.11.2020
5737 Clear 8 1025 93 6000 3.1 130 01:58 09.11.2020
5738 Clear 8 1025 87 5000 5.7 130 01:40 09.11.2020
5739 Clouds 8 1025 87 5000 5.7 130 00:55 09.11.2020
5740 Clear 8 1025 87 9000 4.6 110 23:46 08.11.2020
5741 Clear 8 1025 87 9000 4.6 110 23:24 08.11.2020
5742 Clear 9 1025 87 8000 5.7 120 22:43 08.11.2020
5743 Clear 9 1025 87 8000 5.7 120 22:21 08.11.2020
5744 Clear 9 1025 87 8000 5.1 110 21:47 08.11.2020
5745 Clear 9 1025 87 8000 5.1 110 21:22 08.11.2020
5746 Clear 9 1025 87 8000 5.1 110 20:57 08.11.2020
5747 Clear 9 1025 87 9000 5.1 120 20:38 08.11.2020
5748 Clear 9 1025 87 9000 5.1 120 20:20 08.11.2020
5749 Clear 8 1025 93 9000 4.6 110 19:45 08.11.2020
5750 Clear 8 1025 93 9000 4.6 110 19:22 08.11.2020
5751 Clear 8 1025 93 9000 4.6 110 18:57 08.11.2020
5752 Clear 8 1025 87 10000 4.6 110 18:39 08.11.2020
5753 Clear 9 1025 87 10000 4.6 110 18:20 08.11.2020
5754 Clear 8 1024 87 7000 4.6 110 17:42 08.11.2020
5755 Clear 9 1024 87 7000 4.6 110 17:21 08.11.2020
5756 Clear 8 1024 87 7000 4.6 110 16:59 08.11.2020
5757 Clear 9 1024 81 10000 3.1 110 16:38 08.11.2020
5758 Clear 9 1024 81 10000 3.1 110 16:20 08.11.2020
5759 Clear 10 1024 76 10000 3.6 110 15:46 08.11.2020
5760 Clear 10 1024 76 10000 3.6 110 15:27 08.11.2020
5761 Clear 11 1025 76 10000 3.6 110 14:43 08.11.2020
5762 Clear 11 1025 76 10000 3.6 110 14:24 08.11.2020
5763 Clear 11 1025 76 10000 3.6 110 13:56 08.11.2020
5764 Clear 11 1025 87 8000 2.1 110 13:26 08.11.2020
5765 Clear 11 1025 87 8000 2.1 110 13:26 08.11.2020
5766 Clear 11 1025 87 8000 2.1 110 12:59 08.11.2020
5767 Clear 9 1025 100 2600 1.5 120 12:40 08.11.2020
5768 Clear 9 1025 100 2600 1.5 120 12:20 08.11.2020
5769 Clear 9 1025 100 2600 1.5 120 11:55 08.11.2020
5770 Clear 7 1025 100 350 1 0 11:37 08.11.2020
5771 Clear 7 1025 100 350 1 0 11:19 08.11.2020
5772 Clear 6 1025 100 150 3.1 100 10:42 08.11.2020
5773 Clear 5 1025 100 150 3.1 100 10:18 08.11.2020
5774 Clear 4 1025 100 50 1.5 50 09:42 08.11.2020
5775 Clear 4 1025 100 50 1.5 50 09:22 08.11.2020
5776 Clear 3 1024 100 100 1 0 08:47 08.11.2020
5777 Clear 3 1024 100 100 1 0 08:27 08.11.2020
5778 Clear 3 1024 100 100 1 0 07:53 08.11.2020
5779 Clear 3 1024 100 100 0.5 80 07:32 08.11.2020
5780 Clouds 3 1024 100 300 2.1 60 06:45 08.11.2020
5781 Clouds 3 1024 100 300 2.1 60 05:54 08.11.2020
5782 Clouds 3 1024 100 350 1 30 04:51 08.11.2020
5783 Clouds 3 1024 100 2200 0.5 350 03:27 08.11.2020
5784 Clear 4 1024 100 2200 0.67 347 01:20 08.11.2020
5785 Clear 4 1024 100 2200 0.94 326 00:49 08.11.2020
5786 Clear 4 1024 100 2500 1 120 00:20 08.11.2020
5787 Clear 4 1024 100 2700 1.5 140 23:40 07.11.2020
5788 Clear 4 1024 100 2700 1.5 140 23:22 07.11.2020
5789 Clear 4 1024 100 3000 1.5 140 22:40 07.11.2020
5790 Clear 4 1024 100 3000 1.5 140 22:21 07.11.2020
5791 Clear 5 1024 93 2700 0.5 250 21:44 07.11.2020
5792 Clouds 4 1024 93 2700 0.5 250 21:21 07.11.2020
5793 Clouds 4 1024 93 2700 0.5 250 20:48 07.11.2020
5794 Clouds 4 1024 100 4300 1 20 20:30 07.11.2020
5795 Clouds 4 1024 100 4300 1 20 19:51 07.11.2020
5796 Clear 4 1024 100 6000 1.5 20 19:29 07.11.2020
5797 Clear 4 1024 100 6000 1.5 20 18:58 07.11.2020
5798 Clouds 5 1024 93 10000 2.1 310 18:38 07.11.2020
5799 Clouds 6 1024 93 10000 2.1 310 18:18 07.11.2020
5800 Clouds 7 1023 87 10000 1.5 240 17:40 07.11.2020
5801 Clouds 8 1023 87 10000 1.5 240 17:22 07.11.2020
5802 Clouds 9 1023 71 10000 2.1 220 16:42 07.11.2020
5803 Clear 9 1023 71 10000 2.1 220 16:23 07.11.2020
5804 Clear 10 1024 66 10000 3.6 270 15:43 07.11.2020
5805 Clear 11 1024 66 10000 3.6 270 15:23 07.11.2020
5806 Clear 11 1024 66 10000 3.6 270 14:48 07.11.2020
5807 Clear 10 1024 66 10000 3.6 240 14:30 07.11.2020
5808 Clear 10 1024 66 10000 3.6 240 14:30 07.11.2020
5809 Clear 10 1024 66 10000 3.6 240 13:59 07.11.2020
5810 Clear 10 1024 71 10000 3.1 190 13:31 07.11.2020
5811 Clouds 10 1024 71 10000 3.1 190 12:58 07.11.2020
5812 Clouds 10 1025 71 10000 3.6 180 12:30 07.11.2020
5813 Clouds 10 1025 76 10000 3.1 170 11:45 07.11.2020
5814 Clouds 10 1025 76 10000 3.1 170 11:24 07.11.2020
5815 Clouds 10 1025 76 10000 3.1 170 10:55 07.11.2020
5816 Clouds 9 1025 87 10000 3.1 170 10:37 07.11.2020
5817 Clouds 9 1025 87 10000 3.1 170 10:18 07.11.2020
5818 Clouds 9 1026 87 10000 4.1 170 09:42 07.11.2020
5819 Clouds 9 1026 87 10000 4.1 170 09:19 07.11.2020
5820 Clouds 9 1026 87 9000 2.1 180 08:42 07.11.2020
5821 Clouds 10 1026 87 9000 2.1 180 08:22 07.11.2020
5822 Clouds 10 1026 87 10000 4.1 180 07:37 07.11.2020
5823 Clouds 10 1026 87 10000 4.1 180 06:48 07.11.2020
5824 Clouds 11 1027 93 7000 2.1 160 05:38 07.11.2020
5825 Clouds 11 1028 93 4700 2.1 190 03:25 07.11.2020
5826 Clouds 11 1029 93 8000 1.5 160 02:28 07.11.2020
5827 Clouds 11 1029 93 10000 1.5 170 01:26 07.11.2020
5828 Clouds 11 1029 93 10000 1 150 00:29 07.11.2020
5829 Clouds 11 1030 93 10000 1 260 23:32 06.11.2020
5830 Clouds 11 1030 93 10000 1 260 22:57 06.11.2020
5831 Clouds 11 1030 93 10000 1 260 22:38 06.11.2020
5832 Clouds 11 1030 93 10000 1 260 22:18 06.11.2020
5833 Clouds 11 1031 93 10000 1.5 290 21:41 06.11.2020
5834 Clouds 11 1031 93 10000 1.5 290 21:20 06.11.2020
5835 Clouds 11 1031 87 10000 3.6 260 20:44 06.11.2020
5836 Clouds 11 1031 87 10000 3.6 260 20:20 06.11.2020
5837 Clouds 11 1031 93 10000 3.6 270 19:45 06.11.2020
5838 Clouds 11 1031 93 10000 3.6 270 19:27 06.11.2020
5839 Clouds 12 1031 93 10000 3.6 270 18:56 06.11.2020
5840 Clouds 12 1031 93 10000 2.6 290 18:38 06.11.2020
5841 Clouds 12 1031 93 10000 2.6 290 18:19 06.11.2020
5842 Clouds 12 1031 87 10000 4.1 280 17:42 06.11.2020
5843 Clouds 12 1031 87 10000 4.1 280 17:24 06.11.2020
5844 Clouds 12 1031 82 10000 5.1 300 16:43 06.11.2020
5845 Clouds 13 1031 82 10000 5.1 300 16:22 06.11.2020
5846 Clouds 13 1032 87 10000 5.7 300 15:47 06.11.2020
5847 Clouds 13 1032 87 10000 5.7 300 15:26 06.11.2020
5848 Clouds 13 1032 87 10000 5.7 300 14:50 06.11.2020
5849 Clouds 13 1032 82 10000 6.7 300 14:23 06.11.2020
5850 Clouds 13 1032 82 10000 6.7 290 13:44 06.11.2020
5851 Clouds 13 1032 82 10000 6.7 290 13:21 06.11.2020
5852 Clouds 13 1032 82 10000 6.2 280 12:44 06.11.2020
5853 Clouds 13 1032 82 10000 6.2 280 12:23 06.11.2020
5854 Clouds 12 1033 87 10000 5.7 290 11:40 06.11.2020
5855 Clouds 12 1033 87 10000 5.7 290 11:21 06.11.2020
5856 Clouds 12 1032 87 10000 6.2 280 10:39 06.11.2020
5857 Clouds 12 1032 87 10000 6.2 280 10:19 06.11.2020
5858 Clouds 12 1032 87 10000 6.2 280 09:48 06.11.2020
5859 Clouds 11 1032 87 10000 5.7 290 09:21 06.11.2020
5860 Clouds 11 1032 87 10000 5.7 290 08:49 06.11.2020
5861 Clouds 11 1032 93 10000 6.2 280 08:28 06.11.2020
5862 Clouds 11 1032 93 10000 6.2 280 07:49 06.11.2020
5863 Clouds 11 1032 93 10000 6.7 290 07:30 06.11.2020
5864 Clouds 11 1032 93 10000 6.7 290 06:57 06.11.2020
5865 Clouds 11 1032 93 10000 8.2 290 05:44 06.11.2020
5866 Clouds 12 1032 93 10000 7.7 280 03:48 06.11.2020
5867 Clouds 11 1032 93 10000 9.8 280 00:51 06.11.2020
5868 Clouds 11 1032 93 10000 8.7 270 00:19 06.11.2020
5869 Clouds 11 1032 93 10000 7.7 270 23:31 05.11.2020
5870 Clouds 11 1032 93 10000 7.7 270 22:58 05.11.2020
5871 Clouds 11 1032 93 10000 7.7 270 22:37 05.11.2020
5872 Clouds 11 1032 100 10000 7.2 270 22:19 05.11.2020
5873 Clouds 11 1032 93 10000 7.2 280 21:43 05.11.2020
5874 Clouds 11 1032 93 10000 7.2 280 21:21 05.11.2020
5875 Clouds 12 1031 93 10000 10.8 280 20:48 05.11.2020
5876 Clouds 12 1031 93 10000 10.8 280 20:29 05.11.2020
5877 Clouds 12 1031 93 10000 10.8 280 20:00 05.11.2020
5878 Clouds 11 1031 100 10000 9.3 270 19:41 05.11.2020
5879 Clouds 11 1031 100 10000 9.3 270 19:22 05.11.2020
5880 Clouds 11 1031 100 3900 10.3 270 18:45 05.11.2020
5881 Clouds 11 1031 100 3900 10.3 270 18:26 05.11.2020
5882 Clouds 11 1031 100 3900 10.3 270 17:52 05.11.2020
5883 Clouds 11 1031 93 3700 9.3 270 17:29 05.11.2020
5884 Clouds 11 1031 93 3700 9.3 270 16:59 05.11.2020
5885 Clouds 11 1031 87 7000 10.3 260 16:41 05.11.2020
5886 Clouds 11 1031 87 7000 10.3 260 16:20 05.11.2020
5887 Clouds 11 1031 81 10000 13.4 270 15:46 05.11.2020
5888 Clouds 11 1031 81 10000 13.4 270 15:22 05.11.2020
5889 Clouds 11 1032 76 10000 13.4 270 14:46 05.11.2020
5890 Clouds 11 1032 76 10000 13.4 270 14:27 05.11.2020
5891 Clouds 11 1031 76 10000 14.9 270 13:49 05.11.2020
5892 Clouds 11 1031 76 10000 14.9 270 13:30 05.11.2020
5893 Clouds 11 1031 76 10000 14.9 270 12:53 05.11.2020
5894 Clouds 11 1032 76 10000 12.3 270 12:29 05.11.2020
5895 Clouds 11 1032 76 10000 12.3 270 11:55 05.11.2020
5896 Clouds 11 1032 81 10000 11.3 260 11:37 05.11.2020
5897 Clouds 11 1032 81 10000 11.3 260 11:19 05.11.2020
5898 Clouds 10 1032 76 10000 8.2 250 10:43 05.11.2020
5899 Rain 10 1032 76 10000 8.2 250 10:25 05.11.2020
5900 Rain 10 1032 76 10000 8.7 260 09:47 05.11.2020
5901 Clouds 10 1032 76 10000 8.7 260 09:22 05.11.2020
5902 Clouds 10 1032 76 10000 7.7 260 08:44 05.11.2020
5903 Clouds 10 1032 76 10000 7.7 260 08:26 05.11.2020
5904 Clouds 9 1032 81 10000 9.3 260 07:42 05.11.2020
5905 Rain 9 1032 81 10000 9.3 260 07:22 05.11.2020
5906 Clouds 8 1032 87 10000 7.2 260 06:42 05.11.2020
5907 Clouds 8 1032 87 10000 7.2 260 05:53 05.11.2020
5908 Clouds 7 1032 81 10000 6.2 270 01:38 05.11.2020
5909 Clouds 7 1031 87 10000 6.7 260 00:33 05.11.2020
5910 Clouds 6 1031 87 10000 6.2 260 23:45 04.11.2020
5911 Clouds 6 1031 87 10000 6.2 260 23:45 04.11.2020
5912 Clear 7 1031 87 10000 6.2 260 23:26 04.11.2020
5913 Clear 7 1031 87 10000 6.2 260 22:54 04.11.2020
5914 Clear 7 1031 81 10000 7.2 260 22:36 04.11.2020
5915 Clear 7 1031 81 10000 7.2 260 22:18 04.11.2020
5916 Clear 7 1030 87 10000 5.7 260 21:42 04.11.2020
5917 Clear 7 1030 87 10000 5.7 260 21:24 04.11.2020
5918 Clear 8 1030 81 10000 7.2 270 20:45 04.11.2020
5919 Clear 8 1030 81 10000 7.2 270 20:27 04.11.2020
5920 Rain 8 1030 81 10000 7.2 270 19:50 04.11.2020
5921 Rain 8 1029 81 10000 7.7 260 19:30 04.11.2020
5922 Clear 8 1029 81 10000 7.7 260 18:58 04.11.2020
5923 Clear 8 1028 81 10000 8.2 260 18:39 04.11.2020
5924 Clear 8 1028 81 10000 8.2 260 18:20 04.11.2020
5925 Clear 9 1028 76 10000 8.7 260 17:45 04.11.2020
5926 Clear 9 1028 76 10000 8.7 260 17:24 04.11.2020
5927 Clear 10 1027 71 10000 12.9 280 16:44 04.11.2020
5928 Clear 10 1027 71 10000 12.9 280 16:24 04.11.2020
5929 Clear 10 1027 71 10000 12.9 280 15:55 04.11.2020
5930 Clear 11 1026 62 10000 11.3 270 15:36 04.11.2020
5931 Clear 11 1026 62 10000 11.3 270 15:18 04.11.2020
5932 Clear 11 1025 66 10000 11.8 270 14:41 04.11.2020
5933 Clear 12 1025 66 10000 11.8 270 14:23 04.11.2020
5934 Clear 12 1025 66 10000 11.8 270 13:48 04.11.2020
5935 Clear 12 1025 66 10000 10.3 270 13:21 04.11.2020
5936 Clear 12 1025 66 10000 10.3 270 12:56 04.11.2020
5937 Clear 12 1025 71 10000 6.7 270 12:38 04.11.2020
5938 Clear 12 1025 71 10000 6.7 270 12:20 04.11.2020
5939 Clear 11 1024 76 10000 8.7 280 11:44 04.11.2020
5940 Clear 11 1024 76 10000 8.7 280 11:21 04.11.2020
5941 Clear 10 1023 76 10000 7.7 270 10:48 04.11.2020
5942 Clear 10 1023 76 10000 7.7 270 10:23 04.11.2020
5943 Clear 10 1023 76 10000 7.7 270 09:55 04.11.2020
5944 Clear 9 1022 81 10000 7.7 270 09:27 04.11.2020
5945 Clear 8 1020 87 10000 8.7 270 08:47 04.11.2020
5946 Clear 8 1020 87 10000 8.7 270 08:23 04.11.2020
5947 Clear 8 1020 87 10000 8.7 270 07:57 04.11.2020
5948 Clouds 8 1019 87 10000 9.3 270 07:31 04.11.2020
5949 Rain 8 1019 87 10000 9.3 270 06:57 04.11.2020
5950 Rain 8 1018 87 10000 9.8 250 06:38 04.11.2020
5951 Rain 8 1017 81 10000 9.3 230 04:46 04.11.2020
5952 Clouds 8 1016 70 10000 6.7 230 02:31 04.11.2020
5953 Clouds 8 1016 70 10000 8.7 230 01:32 04.11.2020
5954 Clouds 9 1016 81 10000 9.3 230 23:53 03.11.2020
5955 Clouds 9 1016 76 10000 7.7 210 23:25 03.11.2020
5956 Rain 9 1016 76 10000 7.7 210 22:54 03.11.2020
5957 Clouds 9 1015 70 10000 8.7 190 22:36 03.11.2020
5958 Clouds 9 1015 70 10000 8.7 190 22:18 03.11.2020
5959 Clouds 9 1016 75 10000 8.2 180 21:41 03.11.2020
5960 Clouds 9 1016 75 10000 8.2 180 21:23 03.11.2020
5961 Clouds 8 1016 75 10000 8.2 180 20:48 03.11.2020
5962 Clear 8 1016 75 10000 6.7 180 20:27 03.11.2020
5963 Clear 8 1016 75 10000 6.7 180 19:55 03.11.2020
5964 Clear 7 1017 75 10000 5.1 190 19:37 03.11.2020
5965 Clear 8 1017 75 10000 5.1 190 19:18 03.11.2020
5966 Clear 8 1017 75 10000 4.1 170 18:40 03.11.2020
5967 Clear 8 1017 75 10000 4.1 170 18:19 03.11.2020
5968 Clear 9 1017 71 10000 4.6 200 17:46 03.11.2020
5969 Clear 9 1017 71 10000 4.6 200 17:27 03.11.2020
5970 Clear 9 1017 71 10000 4.6 200 16:51 03.11.2020
5971 Clear 10 1018 66 10000 6.2 230 16:31 03.11.2020
5972 Clear 11 1018 66 10000 6.2 230 15:58 03.11.2020
5973 Clear 11 1018 58 10000 5.7 240 15:40 03.11.2020
5974 Clear 12 1018 58 10000 5.7 240 15:19 03.11.2020
5975 Clear 12 1018 62 10000 10.3 250 14:43 03.11.2020
5976 Clear 12 1018 62 10000 10.3 250 14:25 03.11.2020
5977 Clear 12 1017 62 10000 10.8 270 13:42 03.11.2020
5978 Clouds 12 1017 62 10000 10.8 270 13:21 03.11.2020
5979 Clear 12 1017 66 10000 11.8 260 12:47 03.11.2020
5980 Clear 12 1017 66 10000 11.8 260 12:26 03.11.2020
5981 Clear 12 1016 71 10000 7.7 250 11:47 03.11.2020
5982 Clear 12 1016 71 10000 7.7 250 11:26 03.11.2020
5983 Clear 12 1016 71 10000 7.7 250 10:59 03.11.2020
5984 Clear 11 1015 76 4300 9.3 250 10:38 03.11.2020
5985 Clear 11 1015 76 4300 9.3 250 10:18 03.11.2020
5986 Clear 11 1014 76 10000 12.9 250 09:45 03.11.2020
5987 Clear 11 1014 76 10000 12.9 250 09:24 03.11.2020
5988 Clear 10 1014 76 10000 12.9 250 08:49 03.11.2020
5989 Clear 10 1013 76 10000 12.9 260 08:30 03.11.2020
5990 Clear 10 1013 76 10000 12.9 260 07:48 03.11.2020
5991 Rain 10 1012 71 10000 12.3 240 07:20 03.11.2020
5992 Clouds 10 1011 76 10000 8.2 240 06:34 03.11.2020
5993 Clear 11 1010 76 10000 6.2 230 04:40 03.11.2020
5994 Rain 11 1008 76 10000 7.2 240 00:46 03.11.2020
5995 Clouds 11 1008 76 10000 7.2 240 00:25 03.11.2020
5996 Clouds 11 1007 76 10000 10.8 260 23:47 02.11.2020
5997 Clouds 11 1007 76 10000 10.8 260 23:28 02.11.2020
5998 Clouds 11 1006 76 10000 9.3 250 22:48 02.11.2020
5999 Clouds 11 1006 76 10000 9.3 250 22:30 02.11.2020
6000 Clouds 11 1006 76 10000 9.3 250 21:58 02.11.2020
6001 Clouds 11 1005 87 10000 10.3 260 21:37 02.11.2020
6002 Clouds 11 1005 87 10000 10.3 260 21:19 02.11.2020
6003 Clouds 12 1003 82 10000 11.3 250 20:39 02.11.2020
6004 Clouds 12 1003 82 10000 11.3 250 20:20 02.11.2020
6005 Clouds 13 1002 76 10000 12.3 260 19:46 02.11.2020
6006 Clouds 13 1002 76 10000 12.3 260 19:27 02.11.2020
6007 Clouds 13 1002 76 10000 12.3 260 18:56 02.11.2020
6008 Clouds 14 1001 82 10000 12.9 240 18:38 02.11.2020
6009 Clouds 14 1001 82 10000 12.9 240 18:19 02.11.2020
6010 Clouds 15 1000 82 10000 12.9 240 17:42 02.11.2020
6011 Clouds 16 1000 82 10000 12.9 240 17:24 02.11.2020
6012 Clouds 16 999 88 8000 12.3 230 16:49 02.11.2020
6013 Clouds 16 999 88 8000 12.3 230 16:31 02.11.2020
6014 Clouds 16 999 88 8000 12.3 230 15:57 02.11.2020
6015 Clouds 16 999 88 10000 12.9 230 15:38 02.11.2020
6016 Rain 16 999 88 10000 12.9 230 15:19 02.11.2020
6017 Rain 17 999 77 10000 12.9 230 14:48 02.11.2020
6018 Clouds 17 999 77 10000 12.9 230 14:19 02.11.2020
6019 Clouds 17 999 77 10000 12.9 230 13:48 02.11.2020
6020 Clouds 17 999 88 10000 11.8 230 13:22 02.11.2020
6021 Clouds 17 999 88 10000 11.8 230 12:52 02.11.2020
6022 Clouds 17 999 88 4100 11.8 230 12:28 02.11.2020
6023 Clouds 17 999 82 10000 10.8 230 11:46 02.11.2020
6024 Clouds 17 999 82 10000 10.8 230 11:22 02.11.2020
6025 Rain 17 999 82 10000 10.8 230 10:59 02.11.2020
6026 Clouds 17 999 82 10000 10.8 220 10:39 02.11.2020
6027 Clouds 18 999 82 10000 10.8 220 10:18 02.11.2020
6028 Clouds 18 998 77 10000 12.9 230 09:42 02.11.2020
6029 Clouds 18 998 77 10000 12.9 230 09:21 02.11.2020
6030 Clouds 18 998 82 10000 11.3 230 08:39 02.11.2020
6031 Clouds 18 998 82 10000 11.3 230 08:19 02.11.2020
6032 Clouds 18 998 82 10000 11.8 230 07:43 02.11.2020
6033 Clouds 18 998 82 10000 11.8 230 06:48 02.11.2020
6034 Clouds 18 998 88 10000 10.8 220 06:23 02.11.2020
6035 Clouds 14 1001 100 6000 9.3 220 01:40 02.11.2020
6036 Rain 15 1001 82 10000 7.7 210 00:44 02.11.2020
6037 Rain 14 1001 82 10000 7.7 210 00:25 02.11.2020
6038 Rain 14 1001 87 10000 8.2 210 23:41 01.11.2020
6039 Rain 14 1001 87 10000 8.2 210 23:23 01.11.2020
6040 Clouds 14 1002 100 10000 6.7 210 22:45 01.11.2020
6041 Clouds 14 1002 100 10000 6.7 210 22:25 01.11.2020
6042 Rain 14 1002 93 7000 7.2 210 21:46 01.11.2020
6043 Rain 14 1002 93 7000 7.2 210 21:27 01.11.2020
6044 Rain 14 1002 93 7000 7.2 210 20:59 01.11.2020
6045 Rain 13 1002 93 4100 8.7 190 20:40 01.11.2020
6046 Clouds 13 1002 93 4100 8.7 190 20:20 01.11.2020
6047 Clouds 12 1003 93 2200 8.2 180 19:41 01.11.2020
6048 Clouds 12 1003 93 2200 8.2 180 19:22 01.11.2020
6049 Clouds 12 1003 87 10000 7.2 180 18:42 01.11.2020
6050 Clouds 12 1003 87 10000 7.2 180 18:42 01.11.2020
6051 Rain 12 1003 87 10000 7.2 180 18:20 01.11.2020
6052 Rain 12 1003 87 10000 7.2 180 18:20 01.11.2020
6053 Clouds 12 1003 87 10000 7.2 180 17:58 01.11.2020
6054 Clouds 12 1004 71 10000 6.2 180 17:40 01.11.2020
6055 Rain 13 1004 71 10000 6.2 180 17:21 01.11.2020
6056 Clouds 13 1005 71 10000 7.2 180 16:40 01.11.2020
6057 Clouds 13 1005 71 10000 7.2 180 16:19 01.11.2020
6058 Clouds 13 1005 62 10000 6.2 180 15:41 01.11.2020
6059 Clouds 14 1005 62 10000 6.2 180 15:22 01.11.2020
6060 Clouds 14 1005 62 10000 6.2 180 14:59 01.11.2020
6061 Clouds 13 1006 66 10000 6.7 200 14:41 01.11.2020
6062 Clouds 13 1006 66 10000 6.7 200 14:21 01.11.2020
6063 Clouds 13 1007 71 10000 5.7 200 13:48 01.11.2020
6064 Clouds 13 1007 71 10000 5.7 200 13:30 01.11.2020
6065 Clouds 13 1008 81 10000 5.1 190 12:44 01.11.2020
6066 Clouds 13 1008 81 10000 5.1 190 12:24 01.11.2020
6067 Clouds 12 1008 81 10000 5.1 190 11:52 01.11.2020
6068 Clouds 12 1009 81 10000 5.1 200 11:19 01.11.2020
6069 Clouds 12 1009 81 10000 5.1 200 10:59 01.11.2020
6070 Clouds 12 1009 87 10000 5.7 200 10:40 01.11.2020
6071 Clouds 11 1009 87 10000 5.7 200 10:21 01.11.2020
6072 Clouds 11 1010 93 10000 5.7 200 09:46 01.11.2020
6073 Clouds 11 1010 93 10000 5.7 200 08:49 01.11.2020
6074 Clouds 10 1009 87 10000 4.6 180 08:24 01.11.2020
6075 Clouds 11 1009 87 10000 4.6 220 07:44 01.11.2020
6076 Clouds 11 1009 93 10000 6.7 230 05:30 01.11.2020
6077 Rain 12 1009 93 2900 6.7 190 01:52 01.11.2020
6078 Rain 12 1009 93 6000 8.7 180 00:53 01.11.2020
6079 Rain 12 1010 87 10000 6.7 170 23:39 31.10.2020
6080 Clouds 12 1010 87 10000 6.7 170 23:18 31.10.2020
6081 Clouds 12 1011 82 10000 7.2 180 22:43 31.10.2020
6082 Clouds 12 1011 82 10000 7.2 180 22:23 31.10.2020
6083 Clouds 13 1012 93 10000 5.1 170 21:46 31.10.2020
6084 Clouds 13 1012 93 10000 5.1 170 21:20 31.10.2020
6085 Clouds 13 1012 93 6000 5.7 160 20:39 31.10.2020
6086 Clouds 13 1012 93 6000 5.7 160 20:19 31.10.2020
6087 Clouds 13 1013 93 10000 4.6 160 19:43 31.10.2020
6088 Clouds 13 1013 93 10000 4.6 160 19:24 31.10.2020
6089 Clouds 13 1013 93 10000 4.6 160 18:56 31.10.2020
6090 Clouds 13 1014 93 10000 5.7 170 18:38 31.10.2020
6091 Clouds 13 1015 93 10000 4.1 200 17:44 31.10.2020
6092 Clouds 13 1015 93 10000 4.1 200 17:25 31.10.2020
6093 Clouds 14 1015 93 10000 4.1 200 16:55 31.10.2020
6094 Clouds 14 1015 93 3000 3.6 190 16:33 31.10.2020
6095 Clouds 14 1015 93 3000 3.6 190 15:55 31.10.2020
6096 Clouds 14 1016 93 5000 3.6 160 15:26 31.10.2020
6097 Clouds 14 1016 93 5000 3.6 160 14:55 31.10.2020
6098 Clouds 13 1017 93 7000 4.1 150 14:32 31.10.2020
6099 Clouds 13 1017 93 7000 4.1 150 13:57 31.10.2020
6100 Clouds 13 1018 87 10000 3.6 160 13:39 31.10.2020
6101 Clouds 13 1018 87 10000 3.6 160 13:19 31.10.2020
6102 Clouds 13 1018 87 10000 2.6 150 12:27 31.10.2020
6103 Clouds 12 1019 100 10000 2.1 150 11:47 31.10.2020
6104 Clouds 12 1019 100 10000 2.1 150 11:28 31.10.2020
6105 Clouds 12 1019 100 10000 2.1 150 10:54 31.10.2020
6106 Clouds 12 1019 93 7000 1 0 10:33 31.10.2020
6107 Clouds 12 1019 100 10000 1 320 09:42 31.10.2020
6108 Clouds 12 1019 100 10000 1 320 09:21 31.10.2020
6109 Clouds 12 1019 93 10000 2.1 290 08:30 31.10.2020
6110 Clouds 11 1019 93 10000 2.1 290 07:49 31.10.2020
6111 Clouds 11 1019 100 6000 2.1 300 07:26 31.10.2020
6112 Clouds 12 1018 100 10000 3.6 310 06:38 31.10.2020
6113 Clouds 12 1018 100 1900 5.1 270 04:51 31.10.2020
6114 Clouds 13 1017 100 9000 4.6 250 03:45 31.10.2020
6115 Clouds 13 1017 100 4600 4.6 250 01:29 31.10.2020
6116 Clouds 13 1016 100 3700 4.6 250 00:46 31.10.2020
6117 Clouds 13 1016 100 3700 4.6 250 23:51 30.10.2020
6118 Rain 13 1016 100 5000 4.6 260 23:24 30.10.2020
6119 Clouds 13 1015 93 9000 5.1 250 22:46 30.10.2020
6120 Rain 13 1015 93 9000 5.1 250 22:24 30.10.2020
6121 Rain 13 1015 93 9000 5.1 250 21:56 30.10.2020
6122 Rain 13 1015 100 10000 4.1 250 21:37 30.10.2020
6123 Clouds 13 1015 100 10000 4.1 250 21:18 30.10.2020
6124 Clouds 13 1014 93 10000 6.2 260 20:39 30.10.2020
6125 Clouds 13 1014 93 10000 6.2 260 20:21 30.10.2020
6126 Clouds 13 1014 100 10000 6.7 260 19:47 30.10.2020
6127 Clouds 13 1014 100 10000 6.7 260 19:19 30.10.2020
6128 Clouds 13 1014 100 10000 6.7 260 18:50 30.10.2020
6129 Clouds 13 1013 93 10000 6.7 260 18:28 30.10.2020
6130 Clouds 13 1013 93 10000 6.7 260 17:54 30.10.2020
6131 Clouds 13 1012 100 10000 7.7 270 17:36 30.10.2020
6132 Clouds 13 1012 100 10000 7.7 270 17:18 30.10.2020
6133 Rain 13 1011 100 10000 8.7 270 16:48 30.10.2020
6134 Clouds 13 1011 100 10000 8.7 270 16:19 30.10.2020
6135 Clouds 13 1011 100 10000 8.7 270 15:41 30.10.2020
6136 Clouds 13 1011 100 10000 8.7 270 15:20 30.10.2020
6137 Clouds 13 1010 100 5000 8.7 270 14:45 30.10.2020
6138 Clouds 13 1010 100 5000 8.7 270 14:26 30.10.2020
6139 Clouds 14 1010 93 4700 7.7 260 13:47 30.10.2020
6140 Clouds 14 1010 93 4700 7.7 260 13:23 30.10.2020
6141 Clouds 14 1010 93 4700 7.7 260 12:58 30.10.2020
6142 Rain 13 1009 100 4300 8.7 260 12:23 30.10.2020
6143 Clouds 13 1009 100 4300 8.7 260 11:57 30.10.2020
6144 Clouds 13 1009 100 4300 8.7 260 11:57 30.10.2020
6145 Clouds 13 1009 100 4300 8.7 260 11:57 30.10.2020
6146 Clouds 13 1009 100 3400 8.2 260 11:38 30.10.2020
6147 Clouds 13 1009 100 3400 8.2 260 11:18 30.10.2020
6148 Clouds 13 1008 100 3200 7.7 260 10:40 30.10.2020
6149 Clouds 13 1008 100 3200 7.7 260 10:21 30.10.2020
6150 Clouds 13 1008 100 6000 7.2 260 09:44 30.10.2020
6151 Rain 13 1008 100 6000 7.2 260 09:22 30.10.2020
6152 Clouds 12 1008 100 3700 5.1 190 08:42 30.10.2020
6153 Rain 11 1008 100 3700 5.1 190 08:23 30.10.2020
6154 Rain 11 1008 100 3700 5.1 190 07:49 30.10.2020
6155 Rain 10 1007 100 2900 6.7 170 07:31 30.10.2020
6156 Rain 10 1008 93 2300 5.7 160 06:38 30.10.2020
6157 Rain 9 1008 100 2200 5.7 160 05:19 30.10.2020
6158 Rain 9 1010 100 5000 4.6 160 02:27 30.10.2020
6159 Rain 9 1011 93 10000 5.1 180 00:40 30.10.2020
6160 Rain 9 1011 93 10000 5.1 180 23:49 29.10.2020
6161 Rain 9 1011 87 10000 5.1 190 23:31 29.10.2020
6162 Clouds 9 1011 87 10000 5.1 190 22:59 29.10.2020
6163 Clouds 9 1011 87 10000 5.7 190 22:40 29.10.2020
6164 Clouds 8 1011 87 10000 5.7 190 22:22 29.10.2020
6165 Clouds 9 1011 87 10000 5.1 220 21:39 29.10.2020
6166 Clouds 9 1011 87 10000 5.1 220 21:20 29.10.2020
6167 Clouds 9 1011 93 10000 4.6 220 20:42 29.10.2020
6168 Clouds 9 1011 93 10000 4.6 220 20:19 29.10.2020
6169 Clouds 9 1011 87 10000 4.6 240 19:43 29.10.2020
6170 Clouds 9 1011 87 10000 4.6 240 19:22 29.10.2020
6171 Clouds 9 1011 87 10000 4.6 240 18:56 29.10.2020
6172 Rain 9 1010 81 10000 6.7 250 18:37 29.10.2020
6173 Clouds 9 1010 81 10000 6.7 250 18:18 29.10.2020
6174 Rain 10 1010 76 10000 6.7 250 17:41 29.10.2020
6175 Clouds 10 1010 76 10000 6.7 250 17:21 29.10.2020
6176 Clouds 11 1009 71 10000 9.3 270 16:46 29.10.2020
6177 Rain 11 1009 71 10000 9.3 270 16:20 29.10.2020
6178 Clear 11 1009 71 10000 9.3 270 15:57 29.10.2020
6179 Clear 11 1008 76 10000 7.7 270 15:38 29.10.2020
6180 Clear 11 1008 76 10000 7.7 270 15:19 29.10.2020
6181 Clear 12 1008 71 10000 8.2 260 14:45 29.10.2020
6182 Clear 12 1008 71 10000 8.2 260 14:23 29.10.2020
6183 Clear 12 1008 71 10000 8.2 260 13:48 29.10.2020
6184 Rain 10 1007 87 10000 6.2 260 13:28 29.10.2020
6185 Clouds 10 1007 87 10000 6.2 260 12:57 29.10.2020
6186 Clouds 11 1006 81 10000 6.7 260 12:39 29.10.2020
6187 Rain 10 1006 81 10000 6.7 260 12:18 29.10.2020
6188 Rain 10 1005 87 10000 7.7 270 11:42 29.10.2020
6189 Rain 10 1005 87 10000 7.7 270 11:24 29.10.2020
6190 Rain 9 1004 87 10000 5.7 240 10:37 29.10.2020
6191 Clouds 9 1004 87 10000 5.7 240 10:19 29.10.2020
6192 Rain 9 1004 87 10000 5.7 240 09:50 29.10.2020
6193 Rain 9 1003 93 10000 6.7 270 09:28 29.10.2020
6194 Rain 9 1003 93 10000 6.7 270 08:52 29.10.2020
6195 Rain 8 1002 87 10000 7.2 250 08:26 29.10.2020
6196 Rain 8 1002 87 10000 7.2 250 07:53 29.10.2020
6197 Rain 8 1001 93 10000 5.1 220 07:35 29.10.2020
6198 Rain 8 1001 93 10000 5.1 220 06:55 29.10.2020
6199 Rain 9 1000 93 10000 5.1 190 04:51 29.10.2020
6200 Clouds 9 1001 87 7000 4.6 190 02:59 29.10.2020
6201 Clouds 9 1001 88 10000 2.68 202 00:57 29.10.2020
6202 Clouds 9 1001 89 10000 2.24 173 00:31 29.10.2020
6203 Clouds 9 1001 90 10000 1.34 173 23:45 28.10.2020
6204 Rain 9 1001 88 10000 2.68 174 23:21 28.10.2020
6205 Rain 9 1003 76 10000 5.7 190 22:44 28.10.2020
6206 Rain 10 1003 76 10000 5.7 190 22:26 28.10.2020
6207 Rain 10 1003 76 10000 5.7 190 22:26 28.10.2020
6208 Clouds 9 1003 76 10000 5.7 190 21:58 28.10.2020
6209 Clouds 10 1003 76 10000 5.7 200 21:40 28.10.2020
6210 Clouds 9 1003 76 10000 5.7 200 21:19 28.10.2020
6211 Clouds 10 1003 81 10000 6.7 200 20:41 28.10.2020
6212 Clouds 10 1003 81 10000 6.7 200 20:22 28.10.2020
6213 Clouds 10 1003 81 10000 6.7 200 19:50 28.10.2020
6214 Clouds 10 1003 76 10000 5.7 200 19:28 28.10.2020
6215 Clouds 11 1003 76 10000 6.7 210 18:48 28.10.2020
6216 Clouds 11 1003 76 10000 6.7 210 18:21 28.10.2020
6217 Clouds 11 1003 76 10000 6.7 210 18:21 28.10.2020
6218 Clouds 11 1003 71 10000 6.2 210 17:45 28.10.2020
6219 Rain 11 1003 71 10000 6.2 210 17:25 28.10.2020
6220 Clouds 11 1003 71 10000 6.2 210 16:57 28.10.2020
6221 Clouds 11 1003 71 10000 7.7 210 16:39 28.10.2020
6222 Rain 12 1003 71 10000 7.7 210 16:20 28.10.2020
6223 Clouds 12 1003 66 10000 7.2 220 15:38 28.10.2020
6224 Clouds 12 1002 83 10000 4.02 205 15:19 28.10.2020
6225 Clouds 12 1003 58 10000 9.8 220 14:43 28.10.2020
6226 Clear 12 1003 58 10000 9.8 220 14:23 28.10.2020
6227 Clouds 13 1002 80 10000 3.58 212 12:48 28.10.2020
6228 Rain 12 1001 84 10000 4.02 217 12:27 28.10.2020
6229 Clouds 12 1001 86 10000 3.58 193 11:58 28.10.2020
6230 Clouds 12 1001 86 10000 2.68 214 11:39 28.10.2020
6231 Clouds 12 1001 87 10000 3.13 201 11:19 28.10.2020
6232 Clouds 11 1002 87 10000 8.2 210 10:48 28.10.2020
6233 Clouds 11 1002 87 10000 8.2 210 10:29 28.10.2020
6234 Clouds 10 1001 93 10000 6.2 210 09:45 28.10.2020
6235 Clear 10 1001 93 10000 6.2 210 09:24 28.10.2020
6236 Clear 10 1001 93 10000 6.2 210 08:51 28.10.2020
6237 Clear 10 1000 93 10000 5.7 200 08:31 28.10.2020
6238 Clear 9 1000 93 10000 5.7 200 07:54 28.10.2020
6239 Clear 10 999 93 10000 7.2 210 07:31 28.10.2020
6240 Clouds 10 999 93 10000 7.2 210 06:57 28.10.2020
6241 Clouds 10 998 93 10000 6.7 210 06:38 28.10.2020
6242 Clouds 10 998 100 6000 7.7 200 05:44 28.10.2020
6243 Clouds 9 998 100 6000 7.7 200 04:51 28.10.2020
6244 Rain 9 997 93 3600 7.2 190 04:20 28.10.2020
6245 Rain 9 997 91 10000 4.47 180 01:56 28.10.2020
6246 Clouds 9 997 92 10000 3.58 179 00:36 28.10.2020
6247 Rain 10 999 81 10000 7.2 180 23:51 27.10.2020
6248 Rain 10 999 81 10000 7.2 180 23:22 27.10.2020
6249 Rain 10 1000 81 10000 6.7 180 22:45 27.10.2020
6250 Clouds 10 1000 81 10000 6.7 180 22:22 27.10.2020
6251 Clouds 10 1000 81 10000 6.7 180 21:57 27.10.2020
6252 Clouds 10 1000 81 10000 7.2 190 21:39 27.10.2020
6253 Clouds 10 1000 81 10000 7.2 190 21:20 27.10.2020
6254 Rain 10 1000 81 10000 7.2 190 20:54 27.10.2020
6255 Rain 10 1001 76 10000 5.7 190 20:36 27.10.2020
6256 Clouds 10 1001 76 10000 5.7 190 20:18 27.10.2020
6257 Clouds 10 1001 76 10000 5.1 190 19:39 27.10.2020
6258 Clouds 10 1001 76 10000 5.1 190 19:20 27.10.2020
6259 Clouds 10 1001 76 10000 5.1 190 18:58 27.10.2020
6260 Clouds 10 1001 76 10000 5.1 190 18:39 27.10.2020
6261 Clouds 10 1001 76 10000 5.1 190 18:18 27.10.2020
6262 Clouds 10 1001 71 10000 6.2 200 17:43 27.10.2020
6263 Clouds 10 1001 71 10000 6.2 200 17:21 27.10.2020
6264 Clouds 10 1001 71 10000 6.2 200 17:21 27.10.2020
6265 Clouds 10 1001 71 10000 6.2 200 17:21 27.10.2020
6266 Clouds 10 1001 71 10000 6.2 200 17:21 27.10.2020
6267 Clouds 10 1001 71 10000 6.7 210 16:48 27.10.2020
6268 Clouds 10 1001 71 10000 6.7 210 16:27 27.10.2020
6269 Clouds 11 1001 71 10000 7.7 210 15:49 27.10.2020
6270 Clouds 11 1001 71 10000 7.7 210 15:30 27.10.2020
6271 Clouds 11 1001 71 10000 7.7 210 14:57 27.10.2020
6272 Clouds 11 1001 76 10000 6.7 210 14:39 27.10.2020
6273 Clouds 11 1001 76 10000 6.7 210 14:20 27.10.2020
6274 Clouds 11 1001 76 10000 7.7 210 13:41 27.10.2020
6275 Clouds 11 1001 76 10000 7.7 210 13:21 27.10.2020
6276 Clouds 11 1001 81 10000 7.2 210 12:40 27.10.2020
6277 Clouds 11 1001 81 10000 7.2 210 12:21 27.10.2020
6278 Clouds 11 1001 81 10000 6.7 200 11:42 27.10.2020
6279 Clouds 11 1001 81 10000 6.7 200 11:23 27.10.2020
6280 Clouds 10 1000 81 10000 7.2 200 10:47 27.10.2020
6281 Clouds 10 1000 81 10000 7.2 200 10:29 27.10.2020
6282 Clouds 9 1000 87 10000 6.7 190 09:47 27.10.2020
6283 Clouds 9 1000 87 10000 6.7 190 09:26 27.10.2020
6284 Clouds 9 1000 87 10000 6.2 190 08:44 27.10.2020
6285 Clouds 8 1000 87 10000 6.2 190 08:26 27.10.2020
6286 Clouds 8 999 87 10000 6.7 190 07:47 27.10.2020
6287 Clouds 8 999 87 10000 6.7 190 07:28 27.10.2020
6288 Clouds 8 999 87 10000 6.7 190 06:39 27.10.2020
6289 Clouds 8 999 87 10000 6.7 190 06:19 27.10.2020
6290 Clouds 8 999 87 10000 6.7 190 05:44 27.10.2020
6291 Clouds 8 999 87 10000 6.7 190 04:57 27.10.2020
6292 Clouds 7 999 87 10000 7.2 180 02:40 27.10.2020
6293 Clear 8 999 81 10000 7.7 180 00:59 27.10.2020
6294 Clear 7 999 81 10000 7.2 180 23:57 26.10.2020
6295 Clear 8 999 81 10000 6.2 180 23:36 26.10.2020
6296 Clear 8 999 81 10000 6.2 180 22:56 26.10.2020
6297 Clear 8 999 81 10000 6.2 190 22:30 26.10.2020
6298 Clear 9 999 81 10000 6.2 190 21:56 26.10.2020
6299 Clear 9 999 87 10000 5.7 170 21:36 26.10.2020
6300 Clouds 9 999 87 10000 5.7 170 21:18 26.10.2020
6301 Clouds 8 999 93 10000 5.1 170 20:46 26.10.2020
6302 Clear 8 999 93 10000 5.1 170 20:26 26.10.2020
6303 Clear 9 999 93 10000 5.1 170 19:49 26.10.2020
6304 Clouds 9 999 81 10000 3.6 180 19:28 26.10.2020
6305 Clouds 10 999 81 10000 3.6 180 18:58 26.10.2020
6306 Clouds 10 999 81 10000 4.6 190 18:39 26.10.2020
6307 Clouds 10 999 81 10000 4.6 190 18:19 26.10.2020
6308 Clouds 10 999 76 10000 4.1 210 17:41 26.10.2020
6309 Clouds 11 999 76 10000 4.1 210 17:23 26.10.2020
6310 Clouds 11 999 76 10000 4.6 220 16:45 26.10.2020
6311 Clouds 11 999 76 10000 4.6 220 16:22 26.10.2020
6312 Clouds 11 999 76 10000 4.6 220 15:55 26.10.2020
6313 Clouds 11 998 81 10000 3.6 190 15:36 26.10.2020
6314 Clouds 11 998 81 10000 3.6 190 15:18 26.10.2020
6315 Clouds 11 999 81 10000 4.1 210 14:44 26.10.2020
6316 Rain 11 999 81 10000 4.1 210 14:18 26.10.2020
6317 Clouds 11 999 81 10000 4.1 200 13:38 26.10.2020
6318 Clouds 11 999 81 10000 4.1 200 13:20 26.10.2020
6319 Clouds 11 999 81 10000 4.1 190 12:44 26.10.2020
6320 Clouds 11 999 81 10000 4.1 190 12:23 26.10.2020
6321 Clouds 11 999 87 8000 3.6 200 11:48 26.10.2020
6322 Rain 11 999 87 8000 3.6 200 11:27 26.10.2020
6323 Clouds 11 999 87 8000 3.6 200 10:59 26.10.2020
6324 Clouds 10 999 93 7000 5.1 190 10:40 26.10.2020
6325 Clouds 10 999 93 7000 5.1 190 10:20 26.10.2020
6326 Clouds 10 999 93 6000 5.1 190 09:43 26.10.2020
6327 Clouds 10 999 93 6000 5.1 190 09:23 26.10.2020
6328 Clouds 9 998 100 6000 3.59 189 08:29 26.10.2020
6329 Clouds 9 998 100 6000 3.59 189 07:53 26.10.2020
6330 Clouds 9 998 93 6000 3.59 189 07:35 26.10.2020
6331 Clouds 9 999 100 5000 3.82 188 06:37 26.10.2020
6332 Clouds 9 999 100 6000 4.53 175 04:43 26.10.2020
6333 Clouds 9 999 100 6000 3.38 185 04:18 26.10.2020
6334 Clouds 9 999 93 6000 3.71 195 01:52 26.10.2020
6335 Clouds 10 1000 100 7000 4.23 204 01:23 26.10.2020
6336 Clouds 10 1000 100 9000 3.57 198 00:32 26.10.2020
6337 Clouds 10 999 93 10000 3.72 204 23:41 25.10.2020
6338 Rain 10 999 93 10000 3.67 207 23:21 25.10.2020
6339 Clouds 10 999 93 10000 3.67 207 22:41 25.10.2020
6340 Rain 10 999 93 10000 4.39 197 22:21 25.10.2020
6341 Rain 10 999 93 10000 4.39 197 22:21 25.10.2020
6342 Clouds 11 1000 93 10000 4.39 197 21:43 25.10.2020
6343 Rain 11 1000 93 10000 3.32 167 21:24 25.10.2020
6344 Clouds 11 1000 93 10000 3.32 167 20:56 25.10.2020
6345 Clouds 11 1000 93 10000 3.32 167 20:38 25.10.2020
6346 Rain 11 1000 93 10000 3.65 166 20:19 25.10.2020
6347 Rain 11 999 93 10000 3.65 166 19:48 25.10.2020
6348 Rain 11 999 93 10000 3.98 174 19:24 25.10.2020
6349 Rain 11 999 93 10000 3.55 179 18:55 25.10.2020
6350 Rain 11 1000 87 10000 3.55 179 18:37 25.10.2020
6351 Clouds 12 1000 87 10000 2.84 183 18:19 25.10.2020
6352 Clouds 12 1000 87 10000 2.84 183 17:39 25.10.2020
6353 Rain 12 1000 87 10000 3.1 157 17:21 25.10.2020
6354 Clouds 12 1000 87 10000 3.1 157 16:58 25.10.2020
6355 Rain 12 999 87 10000 3.1 157 16:39 25.10.2020
6356 Rain 12 999 87 10000 3.87 231 16:20 25.10.2020
6357 Rain 12 999 87 10000 3.87 231 15:47 25.10.2020
6358 Rain 12 999 87 10000 2.17 211 15:26 25.10.2020
6359 Rain 12 999 87 10000 2.17 211 15:26 25.10.2020
6360 Rain 12 1000 87 10000 2.17 211 14:49 25.10.2020
6361 Rain 12 1000 87 10000 2.78 216 14:28 25.10.2020
6362 Clouds 12 1000 87 10000 2.78 216 13:44 25.10.2020
6363 Rain 12 1000 87 10000 3.58 234 13:22 25.10.2020
6364 Clouds 12 1000 87 10000 6.5 218 12:49 25.10.2020
6365 Rain 12 1000 87 10000 7.43 216 12:27 25.10.2020
6366 Rain 12 1000 87 10000 7.43 216 11:58 25.10.2020
6367 Rain 12 1000 87 8000 7.43 216 11:40 25.10.2020
6368 Clouds 12 1000 87 8000 7.75 209 11:19 25.10.2020
6369 Rain 13 998 76 10000 7.75 209 10:45 25.10.2020
6370 Clouds 14 998 76 10000 8.74 200 10:25 25.10.2020
6371 Rain 13 998 76 10000 8.74 200 09:50 25.10.2020
6372 Clouds 14 999 76 10000 8.56 195 09:21 25.10.2020
6373 Clouds 14 999 76 10000 8.56 195 08:58 25.10.2020
6374 Clouds 14 999 76 10000 8.56 195 08:40 25.10.2020
6375 Clouds 14 999 76 10000 8.51 193 08:22 25.10.2020
6376 Clouds 14 999 76 10000 8.51 193 07:42 25.10.2020
6377 Clouds 14 999 76 10000 8.4 192 06:52 25.10.2020
6378 Clouds 14 1000 76 10000 7.69 192 06:26 25.10.2020
6379 Clouds 14 1000 76 10000 7.78 191 05:19 25.10.2020
6380 Clouds 14 1001 76 10000 7.78 191 04:48 25.10.2020
6381 Clouds 13 1002 82 10000 7.87 190 02:30 25.10.2020
6382 Clouds 13 1003 82 10000 7.35 192 00:54 25.10.2020
6383 Clouds 12 1004 87 10000 6.67 190 00:28 25.10.2020
6384 Clouds 12 1004 87 10000 6.67 190 23:55 24.10.2020
6385 Clouds 12 1004 87 10000 6.67 190 23:35 24.10.2020
6386 Clouds 12 1004 87 10000 6.69 191 22:59 24.10.2020
6387 Clouds 12 1005 87 10000 6.69 191 22:40 24.10.2020
6388 Clouds 12 1005 87 10000 6.46 195 22:21 24.10.2020
6389 Clouds 12 1005 87 10000 6.46 195 21:55 24.10.2020
6390 Clouds 12 1006 87 10000 6.46 195 21:36 24.10.2020
6391 Clouds 12 1006 87 10000 5.69 191 21:18 24.10.2020
6392 Clouds 12 1006 87 10000 5.69 191 20:42 24.10.2020
6393 Clouds 12 1006 87 10000 5.16 197 20:20 24.10.2020
6394 Clouds 11 1006 93 10000 5.06 199 19:42 24.10.2020
6395 Clouds 11 1006 93 10000 5.25 200 19:23 24.10.2020
6396 Clouds 11 1006 93 10000 5.25 200 18:51 24.10.2020
6397 Clouds 12 1007 76 10000 5.38 201 18:31 24.10.2020
6398 Clouds 12 1007 76 10000 5.38 201 17:54 24.10.2020
6399 Clouds 13 1007 71 10000 4.16 202 17:27 24.10.2020
6400 Clouds 13 1007 71 10000 4.16 202 16:57 24.10.2020
6401 Clouds 13 1007 66 10000 4.16 202 16:39 24.10.2020
6402 Clouds 13 1007 66 10000 4.88 226 15:58 24.10.2020
6403 Clouds 13 1007 66 10000 4.88 226 15:38 24.10.2020
6404 Clouds 13 1007 66 10000 5.13 235 15:18 24.10.2020
6405 Clouds 13 1007 71 10000 6.06 235 14:40 24.10.2020
6406 Clouds 12 1007 71 10000 6.82 236 14:22 24.10.2020
6407 Clouds 13 1007 62 10000 6.82 236 13:44 24.10.2020
6408 Clouds 13 1007 62 10000 5.74 243 13:20 24.10.2020
6409 Clouds 13 1007 62 10000 5.74 243 12:41 24.10.2020
6410 Clouds 13 1007 62 10000 6.87 248 12:20 24.10.2020
6411 Clouds 13 1007 62 10000 6.87 248 11:51 24.10.2020
6412 Clouds 12 1007 71 10000 6.29 245 11:24 24.10.2020
6413 Clouds 12 1007 71 10000 6.29 245 10:51 24.10.2020
6414 Clouds 11 1007 76 10000 6.29 245 10:32 24.10.2020
6415 Clouds 11 1006 87 10000 5.44 232 09:50 24.10.2020
6416 Rain 10 1006 87 10000 5.25 221 09:28 24.10.2020
6417 Clouds 10 1006 87 10000 5.25 221 08:58 24.10.2020
6418 Clouds 11 1006 93 10000 5.02 223 08:19 24.10.2020
6419 Clouds 11 1006 93 10000 5.02 223 07:53 24.10.2020
6420 Clouds 11 1006 93 10000 5.02 223 07:53 24.10.2020
6421 Rain 11 1005 93 10000 4.97 224 07:24 24.10.2020
6422 Clouds 11 1005 93 10000 4.97 224 06:53 24.10.2020
6423 Clouds 11 1005 93 10000 4.97 224 06:53 24.10.2020
6424 Clouds 12 1005 93 10000 4.79 225 06:23 24.10.2020
6425 Clouds 13 1005 93 5000 5.96 220 02:56 24.10.2020
6426 Rain 12 1006 93 4800 5.57 212 01:20 24.10.2020
6427 Clouds 12 1006 93 6000 5.57 212 00:41 24.10.2020
6428 Clouds 12 1006 93 6000 5.76 207 00:21 24.10.2020
6429 Clouds 11 1006 93 6000 5.76 207 23:49 23.10.2020
6430 Clouds 11 1006 93 7000 5.43 200 23:26 23.10.2020
6431 Clouds 11 1006 93 7000 5.43 200 22:58 23.10.2020
6432 Clouds 11 1006 87 7000 5.43 200 22:39 23.10.2020
6433 Rain 11 1006 87 7000 4.97 200 22:20 23.10.2020
6434 Clouds 11 1006 87 10000 4.97 200 21:46 23.10.2020
6435 Clear 11 1006 87 10000 4.62 187 21:25 23.10.2020
6436 Clear 11 1007 87 10000 4.62 187 20:41 23.10.2020
6437 Clouds 11 1007 87 10000 3.88 184 20:23 23.10.2020
6438 Clouds 11 1007 87 10000 3.88 184 19:54 23.10.2020
6439 Clouds 11 1007 81 10000 3.46 177 19:33 23.10.2020
6440 Clouds 11 1007 81 10000 3.08 189 18:57 23.10.2020
6441 Clouds 12 1007 71 10000 3.08 189 18:37 23.10.2020
6442 Clouds 12 1007 71 10000 2.98 211 18:19 23.10.2020
6443 Clouds 13 1007 67 10000 2.98 211 17:42 23.10.2020
6444 Clouds 14 1007 67 10000 3.5 231 17:20 23.10.2020
6445 Clouds 13 1008 62 10000 3.5 231 16:39 23.10.2020
6446 Clouds 13 1008 62 10000 4.44 245 16:21 23.10.2020
6447 Clouds 14 1008 58 10000 4.44 245 15:43 23.10.2020
6448 Clouds 14 1008 58 10000 5.2 248 15:24 23.10.2020
6449 Clouds 14 1008 58 10000 5.2 248 14:53 23.10.2020
6450 Clouds 14 1008 58 10000 5.2 248 14:35 23.10.2020
6451 Clouds 14 1008 58 10000 5.87 252 13:59 23.10.2020
6452 Clouds 13 1008 66 10000 5.87 252 13:37 23.10.2020
6453 Clouds 13 1008 66 10000 6.13 241 13:19 23.10.2020
6454 Clouds 13 1008 71 10000 6.13 241 12:47 23.10.2020
6455 Clouds 13 1008 71 10000 5.83 242 12:24 23.10.2020
6456 Clouds 12 1008 71 10000 5.83 242 11:47 23.10.2020
6457 Clouds 13 1008 71 10000 5.71 248 11:22 23.10.2020
6458 Clouds 12 1008 76 10000 5.71 248 10:45 23.10.2020
6459 Clouds 12 1008 76 10000 4.96 243 10:25 23.10.2020
6460 Clouds 10 1007 76 10000 4.96 243 09:46 23.10.2020
6461 Clouds 10 1007 76 10000 4.89 243 09:27 23.10.2020
6462 Clouds 10 1007 76 10000 4.89 243 08:53 23.10.2020
6463 Clouds 11 1007 76 10000 4.89 243 08:32 23.10.2020
6464 Clouds 11 1007 76 10000 4.43 239 07:38 23.10.2020
6465 Clouds 11 1007 76 10000 4.68 243 07:19 23.10.2020
6466 Clouds 12 1007 76 10000 4.92 248 06:20 23.10.2020
6467 Clouds 11 1007 76 10000 4.92 248 05:35 23.10.2020
6468 Clouds 11 1006 76 10000 6.88 248 02:32 23.10.2020
6469 Clouds 11 1006 76 10000 7.07 247 01:30 23.10.2020
6470 Clouds 11 1006 87 10000 7.46 246 00:47 23.10.2020
6471 Clouds 12 1005 76 10000 7.41 240 23:48 22.10.2020
6472 Clouds 12 1005 76 10000 7.41 240 23:30 22.10.2020
6473 Clouds 13 1005 76 10000 7.52 240 22:50 22.10.2020
6474 Rain 13 1005 76 10000 7.78 237 22:28 22.10.2020
6475 Clouds 14 1005 76 10000 7.78 237 21:59 22.10.2020
6476 Clouds 14 1005 76 10000 7.78 237 21:59 22.10.2020
6477 Clouds 14 1005 71 10000 7.78 237 21:41 22.10.2020
6478 Clouds 14 1005 71 10000 7.4 233 21:23 22.10.2020
6479 Clouds 13 1005 71 10000 7.4 233 20:56 22.10.2020
6480 Clouds 13 1005 71 10000 7.4 233 20:37 22.10.2020
6481 Clouds 14 1005 71 10000 7.73 230 20:18 22.10.2020
6482 Clouds 14 1006 76 10000 7.73 230 19:40 22.10.2020
6483 Clouds 14 1006 76 10000 6.89 223 19:19 22.10.2020
6484 Clouds 14 1006 76 10000 6.89 223 18:43 22.10.2020
6485 Clouds 14 1006 76 10000 7.34 224 18:20 22.10.2020
6486 Clouds 14 1006 72 10000 7.34 224 17:46 22.10.2020
6487 Clouds 14 1006 72 10000 8.58 229 17:26 22.10.2020
6488 Clouds 14 1006 72 10000 8.58 229 16:57 22.10.2020
6489 Clouds 15 1006 72 10000 8.58 229 16:39 22.10.2020
6490 Clouds 15 1006 72 10000 9.49 234 16:20 22.10.2020
6491 Clouds 15 1006 77 10000 9.49 234 15:44 22.10.2020
6492 Clouds 15 1006 77 10000 10.77 237 15:25 22.10.2020
6493 Clouds 15 1006 72 10000 10.77 237 14:47 22.10.2020
6494 Rain 15 1006 72 10000 11.1 237 14:25 22.10.2020
6495 Clouds 14 1006 72 10000 11.1 237 13:49 22.10.2020
6496 Clouds 14 1006 72 10000 11.47 237 13:24 22.10.2020
6497 Clouds 15 1006 72 10000 11.47 237 12:54 22.10.2020
6498 Clouds 15 1005 77 10000 10.57 236 12:24 22.10.2020
6499 Clouds 15 1005 77 10000 10.57 236 11:50 22.10.2020
6500 Clouds 14 1005 82 10000 10.02 237 11:20 22.10.2020
6501 Clouds 14 1005 82 10000 10.02 237 10:51 22.10.2020
6502 Clouds 14 1005 87 10000 9.89 235 10:29 22.10.2020
6503 Clouds 14 1005 87 10000 9.89 235 09:54 22.10.2020
6504 Clouds 14 1004 87 10000 9.89 235 09:35 22.10.2020
6505 Clouds 14 1004 87 10000 9.35 227 08:56 22.10.2020
6506 Clouds 14 1003 87 10000 9.35 227 08:37 22.10.2020
6507 Clouds 14 1003 87 10000 6.92 230 08:18 22.10.2020
6508 Clouds 14 1003 87 10000 6.92 230 07:42 22.10.2020
6509 Clouds 14 1003 87 10000 6.74 243 06:59 22.10.2020
6510 Clouds 14 1001 87 10000 6.74 243 06:36 22.10.2020
6511 Rain 14 1001 87 10000 7.86 253 05:42 22.10.2020
6512 Clouds 14 1001 87 10000 9.7 262 05:20 22.10.2020
6513 Clouds 14 996 93 10000 12.31 244 01:57 22.10.2020
6514 Clouds 15 995 93 1000 12.33 225 00:27 22.10.2020
6515 Clouds 15 995 93 1000 12.33 225 23:58 21.10.2020
6516 Clouds 15 995 77 10000 12.33 225 23:37 21.10.2020
6517 Rain 16 995 77 10000 11.18 216 22:58 21.10.2020
6518 Clouds 15 995 82 10000 11.18 216 22:36 21.10.2020
6519 Rain 15 995 82 10000 10.97 213 22:18 21.10.2020
6520 Clouds 14 996 82 10000 10.97 213 21:42 21.10.2020
6521 Rain 14 996 82 10000 10.03 204 21:19 21.10.2020
6522 Rain 13 996 93 9000 10.03 204 20:48 21.10.2020
6523 Rain 13 996 93 9000 9.87 190 20:19 21.10.2020
6524 Clouds 13 996 93 9000 8.74 187 19:59 21.10.2020
6525 Rain 13 997 93 6000 8.74 187 19:40 21.10.2020
6526 Rain 13 997 93 6000 7.76 178 19:22 21.10.2020
6527 Rain 13 998 93 10000 7.76 178 18:48 21.10.2020
6528 Rain 13 998 93 10000 6.33 185 18:26 21.10.2020
6529 Clouds 12 999 100 2500 6.33 185 17:48 21.10.2020
6530 Clouds 12 999 100 2500 7.2 195 17:21 21.10.2020
6531 Rain 12 999 100 2500 7.2 195 16:58 21.10.2020
6532 Rain 12 1000 100 6000 7.2 195 16:37 21.10.2020
6533 Rain 12 1000 100 6000 6.75 187 16:18 21.10.2020
6534 Rain 12 1000 100 6000 6.75 187 15:44 21.10.2020
6535 Rain 13 1001 93 6000 6.11 181 15:21 21.10.2020
6536 Rain 13 1001 93 6000 6.11 181 14:49 21.10.2020
6537 Rain 13 1002 93 4100 7.04 181 14:28 21.10.2020
6538 Rain 13 1002 93 4100 5.53 174 13:57 21.10.2020
6539 Rain 13 1003 93 4900 5.53 174 13:39 21.10.2020
6540 Rain 13 1003 93 4900 5.68 174 13:20 21.10.2020
6541 Rain 13 1004 93 5000 5.68 174 12:38 21.10.2020
6542 Rain 13 1004 93 5000 4.56 170 12:19 21.10.2020
6543 Rain 13 1004 93 5000 4.56 170 11:41 21.10.2020
6544 Clouds 13 1004 93 4600 4.27 174 11:20 21.10.2020
6545 Rain 13 1004 93 4600 4.27 174 10:47 21.10.2020
6546 Clouds 13 1004 93 3800 4.54 185 10:26 21.10.2020
6547 Clouds 13 1004 93 3800 4.54 185 09:58 21.10.2020
6548 Clouds 13 1004 93 3800 4.54 185 09:39 21.10.2020
6549 Clouds 13 1004 93 3000 4.38 181 08:57 21.10.2020
6550 Clouds 13 1004 100 2300 4.38 181 08:39 21.10.2020
6551 Clouds 13 1004 100 2300 3.74 186 08:21 21.10.2020
6552 Clouds 13 1004 100 2300 3.74 186 07:48 21.10.2020
6553 Clouds 13 1004 93 1800 3.88 191 06:59 21.10.2020
6554 Clouds 13 1005 93 2900 3.88 191 06:33 21.10.2020
6555 Clouds 13 1005 93 2900 3.81 194 05:59 21.10.2020
6556 Clouds 12 1005 93 6000 3.3 207 02:46 21.10.2020
6557 Clouds 11 1006 93 6000 5.49 215 00:25 21.10.2020
6558 Clouds 11 1005 93 7000 5.49 215 23:31 20.10.2020
6559 Clouds 11 1005 93 7000 5.42 215 22:41 20.10.2020
6560 Clouds 10 1005 93 7000 4.8 207 22:23 20.10.2020
6561 Clouds 10 1005 93 7000 4.8 207 21:47 20.10.2020
6562 Rain 10 1005 87 7000 4.9 205 21:19 20.10.2020
6563 Clouds 10 1005 87 7000 4.9 205 20:43 20.10.2020
6564 Rain 9 1005 87 10000 5.16 207 20:24 20.10.2020
6565 Clouds 9 1005 87 10000 5.02 208 19:55 20.10.2020
6566 Rain 9 1006 87 10000 5.02 208 19:37 20.10.2020
6567 Rain 9 1006 87 10000 5.09 194 19:19 20.10.2020
6568 Rain 9 1006 81 8000 5.09 194 18:38 20.10.2020
6569 Clouds 9 1006 81 8000 5.57 199 17:59 20.10.2020
6570 Clouds 9 1007 71 10000 5.57 199 17:40 20.10.2020
6571 Clouds 9 1007 71 10000 5.04 191 17:22 20.10.2020
6572 Rain 10 1007 71 10000 5.04 191 16:42 20.10.2020
6573 Rain 10 1007 71 10000 5.42 187 16:24 20.10.2020
6574 Clouds 10 1007 71 10000 5.42 187 15:49 20.10.2020
6575 Clouds 9 1008 70 10000 6.2 182 15:30 20.10.2020
6576 Rain 9 1008 70 10000 6.2 182 14:55 20.10.2020
6577 Rain 9 1008 70 10000 6.2 182 14:36 20.10.2020
6578 Clouds 9 1008 70 10000 5.98 167 14:18 20.10.2020
6579 Clouds 9 1009 66 10000 6.14 176 13:41 20.10.2020
6580 Clouds 9 1009 66 10000 6.22 165 13:21 20.10.2020
6581 Clouds 9 1009 66 10000 6.22 165 12:54 20.10.2020
6582 Clouds 9 1010 70 10000 6.22 165 12:31 20.10.2020
6583 Clouds 9 1010 70 10000 6.6 155 11:48 20.10.2020
6584 Clouds 9 1010 75 10000 6.01 153 11:30 20.10.2020
6585 Clouds 8 1010 75 10000 6.01 153 10:53 20.10.2020
6586 Clouds 8 1011 75 10000 5.81 146 10:28 20.10.2020
6587 Clouds 8 1011 75 10000 5.81 146 09:50 20.10.2020
6588 Clouds 8 1011 75 10000 4.8 151 09:20 20.10.2020
6589 Clouds 8 1011 75 10000 4.8 151 08:57 20.10.2020
6590 Clouds 8 1013 81 10000 4.33 151 08:30 20.10.2020
6591 Clouds 8 1013 81 10000 4.37 157 07:50 20.10.2020
6592 Clouds 8 1013 87 8000 4.63 159 07:25 20.10.2020
6593 Clouds 9 1014 87 7000 4.41 168 06:25 20.10.2020
6594 Clouds 9 1014 87 6000 4.53 171 05:21 20.10.2020
6595 Clouds 9 1016 93 7000 4.18 178 02:33 20.10.2020
6596 Clouds 8 1016 93 7000 4.38 178 01:59 20.10.2020
6597 Clouds 9 1017 87 8000 4.85 182 00:57 20.10.2020
6598 Clouds 9 1017 87 10000 4.85 182 00:39 20.10.2020
6599 Clouds 9 1017 87 10000 4.42 181 00:19 20.10.2020
6600 Clouds 9 1017 93 10000 4.42 181 23:40 19.10.2020
6601 Clouds 9 1017 93 10000 3.68 184 23:19 19.10.2020
6602 Clouds 9 1017 93 10000 3.68 184 22:43 19.10.2020
6603 Clouds 9 1018 93 10000 4.11 191 22:21 19.10.2020
6604 Clouds 9 1018 93 10000 4.11 191 21:43 19.10.2020
6605 Clouds 9 1018 93 10000 3.51 193 21:21 19.10.2020
6606 Clouds 9 1018 93 10000 3.51 193 20:46 19.10.2020
6607 Clouds 9 1018 87 10000 3.28 199 20:27 19.10.2020
6608 Clouds 9 1018 87 10000 3.28 199 19:48 19.10.2020
6609 Clouds 9 1018 87 10000 1.97 220 19:22 19.10.2020
6610 Clouds 9 1018 87 10000 1.97 220 18:54 19.10.2020
6611 Clouds 10 1018 81 10000 1.97 220 18:35 19.10.2020
6612 Clouds 10 1018 81 10000 1.92 240 17:58 19.10.2020
6613 Clouds 10 1018 76 10000 1.92 240 17:40 19.10.2020
6614 Clouds 11 1018 76 10000 1.91 235 17:21 19.10.2020
6615 Clouds 11 1018 76 10000 1.91 235 16:43 19.10.2020
6616 Rain 11 1018 76 10000 1.84 213 16:24 19.10.2020
6617 Clouds 11 1017 80 10000 1.34 219 15:43 19.10.2020
6618 Rain 11 1017 80 10000 0.45 181 15:24 19.10.2020
6619 Clouds 10 1018 86 10000 1.34 175 14:51 19.10.2020
6620 Clouds 10 1018 87 10000 1.34 191 14:26 19.10.2020
6621 Clouds 11 1018 80 10000 0.89 179 13:52 19.10.2020
6622 Clouds 11 1018 76 10000 2.24 205 13:33 19.10.2020
6623 Clouds 11 1018 76 10000 2.24 205 13:33 19.10.2020
6624 Clouds 11 1018 80 10000 1.34 218 12:56 19.10.2020
6625 Clouds 11 1018 80 10000 1.34 207 12:38 19.10.2020
6626 Rain 11 1018 82 10000 0.89 202 12:19 19.10.2020
6627 Clouds 10 1019 75 10000 2.65 216 11:39 19.10.2020
6628 Clouds 9 1019 75 10000 3.13 215 11:18 19.10.2020
6629 Clouds 7 1018 87 10000 3.13 215 10:40 19.10.2020
6630 Clouds 7 1018 87 10000 2.51 206 10:20 19.10.2020
6631 Clouds 7 1018 87 10000 2.51 206 09:48 19.10.2020
6632 Clouds 6 1018 87 10000 1.78 224 09:22 19.10.2020
6633 Clouds 5 1018 87 10000 1.78 224 08:49 19.10.2020
6634 Clouds 5 1018 86 10000 2.15 249 08:23 19.10.2020
6635 Clouds 5 1018 86 10000 2.15 249 07:52 19.10.2020
6636 Clouds 4 1018 86 10000 2.57 263 07:19 19.10.2020
6637 Clouds 5 1018 87 10000 2.73 265 06:19 19.10.2020
6638 Clouds 5 1018 87 10000 2.86 270 04:29 19.10.2020
6639 Clouds 6 1018 81 10000 2.86 270 03:42 19.10.2020
6640 Clouds 6 1018 81 10000 2.86 270 00:59 19.10.2020
6641 Clouds 6 1017 81 10000 2.88 272 00:25 19.10.2020
6642 Clouds 6 1017 81 10000 2.88 272 23:48 18.10.2020
6643 Clouds 6 1017 81 10000 3.25 277 23:26 18.10.2020
6644 Clouds 6 1017 81 10000 3.25 277 22:53 18.10.2020
6645 Clouds 6 1017 75 10000 3.52 277 22:23 18.10.2020
6646 Clouds 7 1017 75 10000 3.52 277 21:59 18.10.2020
6647 Clouds 7 1017 75 10000 3.52 277 21:37 18.10.2020
6648 Clouds 7 1017 75 10000 3.35 275 21:18 18.10.2020
6649 Rain 7 1016 70 10000 3.35 275 20:42 18.10.2020
6650 Clouds 7 1016 70 10000 3.42 285 20:21 18.10.2020
6651 Clouds 8 1016 66 10000 3.44 281 19:47 18.10.2020
6652 Clouds 8 1016 66 10000 3.82 292 19:26 18.10.2020
6653 Clouds 9 1016 66 10000 3.82 292 18:50 18.10.2020
6654 Clouds 9 1015 57 10000 4.75 299 18:29 18.10.2020
6655 Clouds 9 1015 57 10000 4.75 299 17:59 18.10.2020
6656 Clouds 10 1015 53 10000 4.75 299 17:40 18.10.2020
6657 Clouds 11 1015 53 10000 5.09 306 17:21 18.10.2020
6658 Clouds 11 1015 50 10000 5.09 306 16:41 18.10.2020
6659 Clear 12 1015 50 10000 7.1 305 16:21 18.10.2020
6660 Clear 12 1015 46 10000 7.1 305 15:42 18.10.2020
6661 Clear 12 1015 46 10000 6.08 299 15:19 18.10.2020
6662 Clear 12 1015 46 10000 6.08 299 14:57 18.10.2020
6663 Clear 12 1015 54 10000 6.08 299 14:31 18.10.2020
6664 Clouds 12 1015 54 10000 4.74 303 13:59 18.10.2020
6665 Clouds 12 1015 62 10000 4.74 303 13:40 18.10.2020
6666 Clouds 11 1015 62 10000 4.27 314 13:22 18.10.2020
6667 Clouds 12 1015 66 10000 4.27 314 12:43 18.10.2020
6668 Clouds 11 1015 66 10000 4.76 322 12:23 18.10.2020
6669 Clouds 10 1015 76 10000 4.76 322 11:46 18.10.2020
6670 Clouds 10 1015 76 10000 5.63 317 11:28 18.10.2020
6671 Clouds 10 1015 76 10000 5.63 317 10:59 18.10.2020
6672 Clouds 10 1014 70 10000 5.63 317 10:39 18.10.2020
6673 Clouds 9 1014 70 10000 5.26 297 10:18 18.10.2020
6674 Clouds 8 1013 81 10000 5.26 297 09:44 18.10.2020
6675 Clouds 8 1013 81 10000 4.94 285 09:20 18.10.2020